<?xml version='1.0' encoding='UTF-8'?><gpx version="1.1" creator="JPX - https://github.com/jenetics/jpx" xmlns="http://www.topografix.com/GPX/1/1"><trk><trkseg><trkpt lat="42.0894685" lon="11.7929005"><ele>1.9999999999999998</ele><time>2026-04-18T08:31:42.038Z</time></trkpt><trkpt lat="42.0895272" lon="11.7928562"><ele>2.0</ele><time>2026-04-18T08:33:24.037Z</time></trkpt><trkpt lat="42.0895915" lon="11.7928556"><ele>2.0</ele><time>2026-04-18T08:33:27.037Z</time></trkpt><trkpt lat="42.0895825" lon="11.7929579"><ele>2.0</ele><time>2026-04-18T08:33:58.038Z</time></trkpt><trkpt lat="42.089542" lon="11.7930959"><ele>1.9999999999999998</ele><time>2026-04-18T08:34:00.037Z</time></trkpt><trkpt lat="42.0895095" lon="11.793174"><ele>2.0</ele><time>2026-04-18T08:34:01.037Z</time></trkpt><trkpt lat="42.0894675" lon="11.7932674"><ele>2.0</ele><time>2026-04-18T08:34:02.036Z</time></trkpt><trkpt lat="42.0894222" lon="11.7933635"><ele>2.0</ele><time>2026-04-18T08:34:03.037Z</time></trkpt><trkpt lat="42.0893733" lon="11.7934659"><ele>2.0</ele><time>2026-04-18T08:34:04.036Z</time></trkpt><trkpt lat="42.0893208" lon="11.793579"><ele>2.0</ele><time>2026-04-18T08:34:05.037Z</time></trkpt><trkpt lat="42.0892652" lon="11.7936929"><ele>2.0</ele><time>2026-04-18T08:34:06.037Z</time></trkpt><trkpt lat="42.0892122" lon="11.7937988"><ele>2.1666666666666665</ele><time>2026-04-18T08:34:07.037Z</time></trkpt><trkpt lat="42.0891594" lon="11.7938957"><ele>2.333333333333333</ele><time>2026-04-18T08:34:08.036Z</time></trkpt><trkpt lat="42.0891111" lon="11.7939827"><ele>2.5</ele><time>2026-04-18T08:34:09.036Z</time></trkpt><trkpt lat="42.0890673" lon="11.7940765"><ele>2.6666666666666665</ele><time>2026-04-18T08:34:10.037Z</time></trkpt><trkpt lat="42.0890142" lon="11.79418"><ele>2.8333333333333335</ele><time>2026-04-18T08:34:11.037Z</time></trkpt><trkpt lat="42.0889653" lon="11.7942877"><ele>3.0</ele><time>2026-04-18T08:34:12.037Z</time></trkpt><trkpt lat="42.0889156" lon="11.794393"><ele>2.6666666666666665</ele><time>2026-04-18T08:34:13.036Z</time></trkpt><trkpt lat="42.0888672" lon="11.7945027"><ele>2.3333333333333335</ele><time>2026-04-18T08:34:14.037Z</time></trkpt><trkpt lat="42.0888197" lon="11.794601"><ele>2.0</ele><time>2026-04-18T08:34:15.037Z</time></trkpt><trkpt lat="42.0887751" lon="11.7946983"><ele>1.6666666666666665</ele><time>2026-04-18T08:34:16.037Z</time></trkpt><trkpt lat="42.088731" lon="11.7947982"><ele>1.3333333333333333</ele><time>2026-04-18T08:34:17.036Z</time></trkpt><trkpt lat="42.0886803" lon="11.7948984"><ele>1.0</ele><time>2026-04-18T08:34:18.036Z</time></trkpt><trkpt lat="42.0886342" lon="11.794995"><ele>0.9999999999999999</ele><time>2026-04-18T08:34:19.036Z</time></trkpt><trkpt lat="42.0885938" lon="11.7950995"><ele>1.0</ele><time>2026-04-18T08:34:20.037Z</time></trkpt><trkpt lat="42.0885564" lon="11.79519"><ele>1.0</ele><time>2026-04-18T08:34:21.038Z</time></trkpt><trkpt lat="42.0885291" lon="11.7952848"><ele>1.0</ele><time>2026-04-18T08:34:22.036Z</time></trkpt><trkpt lat="42.0885118" lon="11.7953893"><ele>0.9999999999999999</ele><time>2026-04-18T08:34:23.037Z</time></trkpt><trkpt lat="42.0884922" lon="11.7954964"><ele>1.0</ele><time>2026-04-18T08:34:24.037Z</time></trkpt><trkpt lat="42.088469" lon="11.7956089"><ele>1.4</ele><time>2026-04-18T08:34:25.038Z</time></trkpt><trkpt lat="42.0884465" lon="11.7957231"><ele>1.8</ele><time>2026-04-18T08:34:26.037Z</time></trkpt><trkpt lat="42.0884135" lon="11.7958442"><ele>2.1999999999999997</ele><time>2026-04-18T08:34:27.036Z</time></trkpt><trkpt lat="42.0883732" lon="11.7959608"><ele>2.6</ele><time>2026-04-18T08:34:28.037Z</time></trkpt><trkpt lat="42.088334" lon="11.7960793"><ele>3.0</ele><time>2026-04-18T08:34:29.037Z</time></trkpt><trkpt lat="42.0882968" lon="11.7961847"><ele>2.8333333333333335</ele><time>2026-04-18T08:34:30.037Z</time></trkpt><trkpt lat="42.088262" lon="11.7962799"><ele>2.6666666666666665</ele><time>2026-04-18T08:34:31.036Z</time></trkpt><trkpt lat="42.0882332" lon="11.7963687"><ele>2.5</ele><time>2026-04-18T08:34:32.039Z</time></trkpt><trkpt lat="42.0882002" lon="11.796463"><ele>2.333333333333333</ele><time>2026-04-18T08:34:33.037Z</time></trkpt><trkpt lat="42.0881732" lon="11.7965594"><ele>2.1666666666666665</ele><time>2026-04-18T08:34:34.037Z</time></trkpt><trkpt lat="42.0881446" lon="11.7966437"><ele>2.0</ele><time>2026-04-18T08:34:35.036Z</time></trkpt><trkpt lat="42.0881357" lon="11.7967794"><ele>2.833333333333333</ele><time>2026-04-18T08:34:37.036Z</time></trkpt><trkpt lat="42.0881548" lon="11.7968821"><ele>3.666666666666667</ele><time>2026-04-18T08:34:39.037Z</time></trkpt><trkpt lat="42.0881654" lon="11.7969706"><ele>4.5</ele><time>2026-04-18T08:34:56.037Z</time></trkpt><trkpt lat="42.0881062" lon="11.7971454"><ele>5.333333333333334</ele><time>2026-04-18T08:34:58.038Z</time></trkpt><trkpt lat="42.0880704" lon="11.7972372"><ele>6.166666666666667</ele><time>2026-04-18T08:34:59.037Z</time></trkpt><trkpt lat="42.0880431" lon="11.7973173"><ele>7.0</ele><time>2026-04-18T08:35:00.037Z</time></trkpt><trkpt lat="42.0880118" lon="11.7973985"><ele>7.0</ele><time>2026-04-18T08:35:01.036Z</time></trkpt><trkpt lat="42.0879741" lon="11.7974925"><ele>6.999999999999999</ele><time>2026-04-18T08:35:02.036Z</time></trkpt><trkpt lat="42.0879174" lon="11.797612"><ele>6.999999999999999</ele><time>2026-04-18T08:35:03.036Z</time></trkpt><trkpt lat="42.0878536" lon="11.7977475"><ele>7.0</ele><time>2026-04-18T08:35:04.037Z</time></trkpt><trkpt lat="42.0877795" lon="11.7979125"><ele>7.0</ele><time>2026-04-18T08:35:05.036Z</time></trkpt><trkpt lat="42.0876992" lon="11.7980779"><ele>7.5</ele><time>2026-04-18T08:35:06.037Z</time></trkpt><trkpt lat="42.087624" lon="11.7982453"><ele>8.0</ele><time>2026-04-18T08:35:07.036Z</time></trkpt><trkpt lat="42.0875488" lon="11.7983963"><ele>8.5</ele><time>2026-04-18T08:35:08.036Z</time></trkpt><trkpt lat="42.0874762" lon="11.798539"><ele>9.0</ele><time>2026-04-18T08:35:09.037Z</time></trkpt><trkpt lat="42.0874124" lon="11.7986732"><ele>8.0</ele><time>2026-04-18T08:35:10.037Z</time></trkpt><trkpt lat="42.0873471" lon="11.7987936"><ele>7.0</ele><time>2026-04-18T08:35:11.038Z</time></trkpt><trkpt lat="42.0872842" lon="11.7989187"><ele>6.0</ele><time>2026-04-18T08:35:12.037Z</time></trkpt><trkpt lat="42.0872196" lon="11.7990556"><ele>5.0</ele><time>2026-04-18T08:35:13.037Z</time></trkpt><trkpt lat="42.0871555" lon="11.7991985"><ele>5.0</ele><time>2026-04-18T08:35:14.036Z</time></trkpt><trkpt lat="42.0870904" lon="11.7993298"><ele>5.0</ele><time>2026-04-18T08:35:15.038Z</time></trkpt><trkpt lat="42.0870305" lon="11.7994547"><ele>5.0</ele><time>2026-04-18T08:35:16.037Z</time></trkpt><trkpt lat="42.0869706" lon="11.7995635"><ele>5.0</ele><time>2026-04-18T08:35:17.036Z</time></trkpt><trkpt lat="42.0869201" lon="11.7996683"><ele>5.0</ele><time>2026-04-18T08:35:18.036Z</time></trkpt><trkpt lat="42.0868696" lon="11.7997641"><ele>5.333333333333334</ele><time>2026-04-18T08:35:19.036Z</time></trkpt><trkpt lat="42.0868203" lon="11.7998577"><ele>5.666666666666667</ele><time>2026-04-18T08:35:20.037Z</time></trkpt><trkpt lat="42.0867794" lon="11.799961"><ele>6.0</ele><time>2026-04-18T08:35:21.036Z</time></trkpt><trkpt lat="42.0867322" lon="11.8000582"><ele>6.333333333333334</ele><time>2026-04-18T08:35:22.037Z</time></trkpt><trkpt lat="42.0866868" lon="11.8001669"><ele>6.666666666666667</ele><time>2026-04-18T08:35:23.036Z</time></trkpt><trkpt lat="42.0866385" lon="11.8002809"><ele>7.0</ele><time>2026-04-18T08:35:24.036Z</time></trkpt><trkpt lat="42.0865831" lon="11.8004081"><ele>7.0</ele><time>2026-04-18T08:35:25.036Z</time></trkpt><trkpt lat="42.086525" lon="11.8005475"><ele>7.0</ele><time>2026-04-18T08:35:26.036Z</time></trkpt><trkpt lat="42.0864612" lon="11.8006896"><ele>7.0</ele><time>2026-04-18T08:35:27.036Z</time></trkpt><trkpt lat="42.0863895" lon="11.8008417"><ele>7.0</ele><time>2026-04-18T08:35:28.036Z</time></trkpt><trkpt lat="42.0863104" lon="11.8010029"><ele>8.25</ele><time>2026-04-18T08:35:29.037Z</time></trkpt><trkpt lat="42.0862297" lon="11.8011611"><ele>9.5</ele><time>2026-04-18T08:35:30.036Z</time></trkpt><trkpt lat="42.0861382" lon="11.8013274"><ele>10.75</ele><time>2026-04-18T08:35:31.036Z</time></trkpt><trkpt lat="42.086045" lon="11.8014823"><ele>12.0</ele><time>2026-04-18T08:35:32.036Z</time></trkpt><trkpt lat="42.0859479" lon="11.8016218"><ele>12.0</ele><time>2026-04-18T08:35:33.036Z</time></trkpt><trkpt lat="42.0858586" lon="11.8017514"><ele>12.0</ele><time>2026-04-18T08:35:34.036Z</time></trkpt><trkpt lat="42.085778" lon="11.8018702"><ele>12.0</ele><time>2026-04-18T08:35:35.036Z</time></trkpt><trkpt lat="42.0857003" lon="11.8019825"><ele>12.0</ele><time>2026-04-18T08:35:36.037Z</time></trkpt><trkpt lat="42.0856281" lon="11.8020842"><ele>12.2</ele><time>2026-04-18T08:35:37.036Z</time></trkpt><trkpt lat="42.0855538" lon="11.8021864"><ele>12.399999999999999</ele><time>2026-04-18T08:35:38.036Z</time></trkpt><trkpt lat="42.085492" lon="11.802283"><ele>12.600000000000001</ele><time>2026-04-18T08:35:39.036Z</time></trkpt><trkpt lat="42.0854239" lon="11.8023734"><ele>12.8</ele><time>2026-04-18T08:35:40.036Z</time></trkpt><trkpt lat="42.0853595" lon="11.8024633"><ele>13.0</ele><time>2026-04-18T08:35:41.037Z</time></trkpt><trkpt lat="42.085294" lon="11.8025506"><ele>12.999999999999998</ele><time>2026-04-18T08:35:42.036Z</time></trkpt><trkpt lat="42.0852301" lon="11.8026329"><ele>13.0</ele><time>2026-04-18T08:35:43.036Z</time></trkpt><trkpt lat="42.0851659" lon="11.8027173"><ele>13.0</ele><time>2026-04-18T08:35:44.037Z</time></trkpt><trkpt lat="42.0851004" lon="11.8028055"><ele>13.0</ele><time>2026-04-18T08:35:45.037Z</time></trkpt><trkpt lat="42.0850433" lon="11.802889"><ele>12.999999999999998</ele><time>2026-04-18T08:35:46.037Z</time></trkpt><trkpt lat="42.0849848" lon="11.8029692"><ele>13.0</ele><time>2026-04-18T08:35:47.036Z</time></trkpt><trkpt lat="42.0849282" lon="11.8030509"><ele>12.999999999999998</ele><time>2026-04-18T08:35:48.037Z</time></trkpt><trkpt lat="42.0848718" lon="11.8031249"><ele>13.0</ele><time>2026-04-18T08:35:49.036Z</time></trkpt><trkpt lat="42.0848136" lon="11.8031911"><ele>13.0</ele><time>2026-04-18T08:35:50.036Z</time></trkpt><trkpt lat="42.0847195" lon="11.8033081"><ele>13.0</ele><time>2026-04-18T08:35:52.036Z</time></trkpt><trkpt lat="42.0846684" lon="11.8033621"><ele>12.999999999999998</ele><time>2026-04-18T08:35:53.036Z</time></trkpt><trkpt lat="42.0846194" lon="11.8034316"><ele>13.0</ele><time>2026-04-18T08:35:54.037Z</time></trkpt><trkpt lat="42.0845652" lon="11.8035108"><ele>13.2</ele><time>2026-04-18T08:35:55.036Z</time></trkpt><trkpt lat="42.0845072" lon="11.8035958"><ele>13.4</ele><time>2026-04-18T08:35:56.038Z</time></trkpt><trkpt lat="42.0844437" lon="11.8036797"><ele>13.599999999999998</ele><time>2026-04-18T08:35:57.038Z</time></trkpt><trkpt lat="42.084383" lon="11.803772"><ele>13.799999999999999</ele><time>2026-04-18T08:35:58.037Z</time></trkpt><trkpt lat="42.084318" lon="11.8038647"><ele>14.0</ele><time>2026-04-18T08:35:59.037Z</time></trkpt><trkpt lat="42.0842494" lon="11.8039568"><ele>14.0</ele><time>2026-04-18T08:36:00.038Z</time></trkpt><trkpt lat="42.0841801" lon="11.8040486"><ele>13.999999999999998</ele><time>2026-04-18T08:36:01.037Z</time></trkpt><trkpt lat="42.084117" lon="11.8041332"><ele>13.999999999999998</ele><time>2026-04-18T08:36:02.037Z</time></trkpt><trkpt lat="42.084058" lon="11.8042175"><ele>14.0</ele><time>2026-04-18T08:36:03.037Z</time></trkpt><trkpt lat="42.0840018" lon="11.8043073"><ele>14.0</ele><time>2026-04-18T08:36:04.037Z</time></trkpt><trkpt lat="42.0839332" lon="11.804408"><ele>13.5</ele><time>2026-04-18T08:36:05.036Z</time></trkpt><trkpt lat="42.0838516" lon="11.8045186"><ele>13.0</ele><time>2026-04-18T08:36:06.036Z</time></trkpt><trkpt lat="42.0837669" lon="11.80464"><ele>12.5</ele><time>2026-04-18T08:36:07.036Z</time></trkpt><trkpt lat="42.0836696" lon="11.8047751"><ele>12.0</ele><time>2026-04-18T08:36:08.037Z</time></trkpt><trkpt lat="42.0835694" lon="11.8049238"><ele>12.0</ele><time>2026-04-18T08:36:09.036Z</time></trkpt><trkpt lat="42.0834685" lon="11.8050489"><ele>12.0</ele><time>2026-04-18T08:36:10.036Z</time></trkpt><trkpt lat="42.0833874" lon="11.8051498"><ele>12.0</ele><time>2026-04-18T08:36:11.036Z</time></trkpt><trkpt lat="42.0833167" lon="11.8052426"><ele>12.0</ele><time>2026-04-18T08:36:12.036Z</time></trkpt><trkpt lat="42.083263" lon="11.805323"><ele>12.0</ele><time>2026-04-18T08:36:13.037Z</time></trkpt><trkpt lat="42.0832138" lon="11.8053826"><ele>11.833333333333334</ele><time>2026-04-18T08:36:14.038Z</time></trkpt><trkpt lat="42.0831338" lon="11.8054871"><ele>11.666666666666666</ele><time>2026-04-18T08:36:16.037Z</time></trkpt><trkpt lat="42.0830776" lon="11.8055625"><ele>11.5</ele><time>2026-04-18T08:36:18.036Z</time></trkpt><trkpt lat="42.0830214" lon="11.805628"><ele>11.333333333333332</ele><time>2026-04-18T08:36:43.036Z</time></trkpt><trkpt lat="42.0829744" lon="11.8056919"><ele>11.166666666666666</ele><time>2026-04-18T08:36:44.036Z</time></trkpt><trkpt lat="42.0829119" lon="11.8057652"><ele>11.0</ele><time>2026-04-18T08:36:45.036Z</time></trkpt><trkpt lat="42.0828383" lon="11.8058454"><ele>11.0</ele><time>2026-04-18T08:36:46.036Z</time></trkpt><trkpt lat="42.0827607" lon="11.8059251"><ele>11.0</ele><time>2026-04-18T08:36:47.036Z</time></trkpt><trkpt lat="42.0826875" lon="11.8059929"><ele>11.0</ele><time>2026-04-18T08:36:48.036Z</time></trkpt><trkpt lat="42.0826146" lon="11.8060546"><ele>11.0</ele><time>2026-04-18T08:36:49.036Z</time></trkpt><trkpt lat="42.0825389" lon="11.8061067"><ele>11.0</ele><time>2026-04-18T08:36:50.036Z</time></trkpt><trkpt lat="42.0824527" lon="11.8061687"><ele>10.25</ele><time>2026-04-18T08:36:51.036Z</time></trkpt><trkpt lat="42.0823624" lon="11.8062374"><ele>9.5</ele><time>2026-04-18T08:36:52.036Z</time></trkpt><trkpt lat="42.082259" lon="11.8063027"><ele>8.75</ele><time>2026-04-18T08:36:53.036Z</time></trkpt><trkpt lat="42.08215" lon="11.8063667"><ele>8.0</ele><time>2026-04-18T08:36:54.036Z</time></trkpt><trkpt lat="42.0820295" lon="11.8064301"><ele>8.0</ele><time>2026-04-18T08:36:55.036Z</time></trkpt><trkpt lat="42.0819125" lon="11.8064943"><ele>8.0</ele><time>2026-04-18T08:36:56.036Z</time></trkpt><trkpt lat="42.0817918" lon="11.8065567"><ele>8.0</ele><time>2026-04-18T08:36:57.036Z</time></trkpt><trkpt lat="42.0816779" lon="11.8066159"><ele>8.0</ele><time>2026-04-18T08:36:58.036Z</time></trkpt><trkpt lat="42.0815706" lon="11.8066773"><ele>8.0</ele><time>2026-04-18T08:36:59.037Z</time></trkpt><trkpt lat="42.0814539" lon="11.8067371"><ele>8.0</ele><time>2026-04-18T08:37:00.037Z</time></trkpt><trkpt lat="42.0813341" lon="11.8068049"><ele>8.0</ele><time>2026-04-18T08:37:01.037Z</time></trkpt><trkpt lat="42.0812118" lon="11.806868"><ele>8.0</ele><time>2026-04-18T08:37:02.036Z</time></trkpt><trkpt lat="42.0810941" lon="11.806933"><ele>8.0</ele><time>2026-04-18T08:37:03.036Z</time></trkpt><trkpt lat="42.0809847" lon="11.8069893"><ele>8.0</ele><time>2026-04-18T08:37:04.036Z</time></trkpt><trkpt lat="42.0808886" lon="11.80704"><ele>8.0</ele><time>2026-04-18T08:37:05.037Z</time></trkpt><trkpt lat="42.0808032" lon="11.8070842"><ele>8.0</ele><time>2026-04-18T08:37:06.036Z</time></trkpt><trkpt lat="42.0807316" lon="11.8071239"><ele>8.0</ele><time>2026-04-18T08:37:07.035Z</time></trkpt><trkpt lat="42.0806694" lon="11.8071559"><ele>7.999999999999999</ele><time>2026-04-18T08:37:08.037Z</time></trkpt><trkpt lat="42.0805896" lon="11.8072078"><ele>8.0</ele><time>2026-04-18T08:37:10.036Z</time></trkpt><trkpt lat="42.08061" lon="11.8073031"><ele>8.0</ele><time>2026-04-18T08:37:13.036Z</time></trkpt><trkpt lat="42.0807203" lon="11.8072768"><ele>8.0</ele><time>2026-04-18T08:37:15.036Z</time></trkpt><trkpt lat="42.0808006" lon="11.807249"><ele>7.999999999999999</ele><time>2026-04-18T08:37:16.036Z</time></trkpt><trkpt lat="42.0808701" lon="11.8072297"><ele>8.0</ele><time>2026-04-18T08:37:17.036Z</time></trkpt><trkpt lat="42.0809685" lon="11.8072106"><ele>7.999999999999999</ele><time>2026-04-18T08:37:19.036Z</time></trkpt><trkpt lat="42.0810394" lon="11.8072027"><ele>8.0</ele><time>2026-04-18T08:37:21.036Z</time></trkpt><trkpt lat="42.0811066" lon="11.8072809"><ele>8.0</ele><time>2026-04-18T08:37:23.035Z</time></trkpt><trkpt lat="42.0811124" lon="11.8074062"><ele>8.0</ele><time>2026-04-18T08:37:24.036Z</time></trkpt><trkpt lat="42.0811144" lon="11.8075239"><ele>7.999999999999999</ele><time>2026-04-18T08:37:25.036Z</time></trkpt><trkpt lat="42.0811128" lon="11.8076153"><ele>8.0</ele><time>2026-04-18T08:37:26.037Z</time></trkpt><trkpt lat="42.0811164" lon="11.807757"><ele>8.666666666666666</ele><time>2026-04-18T08:37:28.037Z</time></trkpt><trkpt lat="42.0811149" lon="11.8078477"><ele>9.333333333333332</ele><time>2026-04-18T08:37:31.036Z</time></trkpt><trkpt lat="42.0811161" lon="11.8079495"><ele>10.0</ele><time>2026-04-18T08:38:05.036Z</time></trkpt><trkpt lat="42.0811131" lon="11.8080356"><ele>10.666666666666666</ele><time>2026-04-18T08:38:06.036Z</time></trkpt><trkpt lat="42.0811024" lon="11.8081271"><ele>11.333333333333334</ele><time>2026-04-18T08:38:07.036Z</time></trkpt><trkpt lat="42.0810684" lon="11.8082516"><ele>12.0</ele><time>2026-04-18T08:38:09.036Z</time></trkpt><trkpt lat="42.0810084" lon="11.808408"><ele>12.666666666666666</ele><time>2026-04-18T08:38:11.036Z</time></trkpt><trkpt lat="42.0810317" lon="11.8085591"><ele>13.333333333333332</ele><time>2026-04-18T08:38:13.035Z</time></trkpt><trkpt lat="42.0810766" lon="11.8086282"><ele>14.0</ele><time>2026-04-18T08:38:14.037Z</time></trkpt><trkpt lat="42.0811228" lon="11.8087046"><ele>14.666666666666666</ele><time>2026-04-18T08:38:15.036Z</time></trkpt><trkpt lat="42.0811669" lon="11.808795"><ele>15.333333333333332</ele><time>2026-04-18T08:38:16.036Z</time></trkpt><trkpt lat="42.0812114" lon="11.8088927"><ele>16.0</ele><time>2026-04-18T08:38:17.036Z</time></trkpt><trkpt lat="42.0812513" lon="11.8089801"><ele>15.999999999999998</ele><time>2026-04-18T08:38:18.035Z</time></trkpt><trkpt lat="42.0812883" lon="11.8090632"><ele>16.0</ele><time>2026-04-18T08:38:19.036Z</time></trkpt><trkpt lat="42.0813271" lon="11.8091582"><ele>16.0</ele><time>2026-04-18T08:38:20.036Z</time></trkpt><trkpt lat="42.0813713" lon="11.8092553"><ele>16.0</ele><time>2026-04-18T08:38:21.037Z</time></trkpt><trkpt lat="42.0814162" lon="11.809355"><ele>15.999999999999998</ele><time>2026-04-18T08:38:22.036Z</time></trkpt><trkpt lat="42.0814591" lon="11.8094599"><ele>16.0</ele><time>2026-04-18T08:38:23.037Z</time></trkpt><trkpt lat="42.0815075" lon="11.8095758"><ele>16.25</ele><time>2026-04-18T08:38:24.036Z</time></trkpt><trkpt lat="42.0815656" lon="11.8097037"><ele>16.5</ele><time>2026-04-18T08:38:25.036Z</time></trkpt><trkpt lat="42.0816259" lon="11.8098343"><ele>16.75</ele><time>2026-04-18T08:38:26.036Z</time></trkpt><trkpt lat="42.08169" lon="11.809972"><ele>17.0</ele><time>2026-04-18T08:38:27.037Z</time></trkpt><trkpt lat="42.0817452" lon="11.8100957"><ele>18.2</ele><time>2026-04-18T08:38:28.036Z</time></trkpt><trkpt lat="42.0818052" lon="11.8102207"><ele>19.4</ele><time>2026-04-18T08:38:29.037Z</time></trkpt><trkpt lat="42.0818655" lon="11.8103457"><ele>20.599999999999998</ele><time>2026-04-18T08:38:30.036Z</time></trkpt><trkpt lat="42.0819227" lon="11.8104613"><ele>21.799999999999997</ele><time>2026-04-18T08:38:31.036Z</time></trkpt><trkpt lat="42.0819766" lon="11.81057"><ele>23.0</ele><time>2026-04-18T08:38:32.036Z</time></trkpt><trkpt lat="42.0820301" lon="11.8106901"><ele>23.0</ele><time>2026-04-18T08:38:33.038Z</time></trkpt><trkpt lat="42.0820846" lon="11.8108107"><ele>23.0</ele><time>2026-04-18T08:38:34.035Z</time></trkpt><trkpt lat="42.0821331" lon="11.8109195"><ele>23.0</ele><time>2026-04-18T08:38:35.036Z</time></trkpt><trkpt lat="42.0821793" lon="11.8110169"><ele>23.0</ele><time>2026-04-18T08:38:36.036Z</time></trkpt><trkpt lat="42.0822273" lon="11.8111186"><ele>23.0</ele><time>2026-04-18T08:38:37.036Z</time></trkpt><trkpt lat="42.0822841" lon="11.8112394"><ele>23.5</ele><time>2026-04-18T08:38:38.035Z</time></trkpt><trkpt lat="42.0823476" lon="11.8113834"><ele>24.0</ele><time>2026-04-18T08:38:39.036Z</time></trkpt><trkpt lat="42.0824213" lon="11.8115346"><ele>24.5</ele><time>2026-04-18T08:38:40.035Z</time></trkpt><trkpt lat="42.0824921" lon="11.8116857"><ele>25.0</ele><time>2026-04-18T08:38:41.037Z</time></trkpt><trkpt lat="42.0825622" lon="11.8118375"><ele>26.0</ele><time>2026-04-18T08:38:42.036Z</time></trkpt><trkpt lat="42.0826237" lon="11.8119713"><ele>27.0</ele><time>2026-04-18T08:38:43.037Z</time></trkpt><trkpt lat="42.0826948" lon="11.8121132"><ele>28.0</ele><time>2026-04-18T08:38:44.037Z</time></trkpt><trkpt lat="42.0827792" lon="11.8122985"><ele>29.0</ele><time>2026-04-18T08:38:45.036Z</time></trkpt><trkpt lat="42.0828558" lon="11.8124684"><ele>29.0</ele><time>2026-04-18T08:38:46.036Z</time></trkpt><trkpt lat="42.082913" lon="11.8126051"><ele>29.0</ele><time>2026-04-18T08:38:47.036Z</time></trkpt><trkpt lat="42.0829526" lon="11.812716"><ele>29.0</ele><time>2026-04-18T08:38:48.035Z</time></trkpt><trkpt lat="42.0829923" lon="11.812815"><ele>29.0</ele><time>2026-04-18T08:38:49.036Z</time></trkpt><trkpt lat="42.0830567" lon="11.812922"><ele>29.0</ele><time>2026-04-18T08:38:50.036Z</time></trkpt><trkpt lat="42.083115" lon="11.8130217"><ele>29.75</ele><time>2026-04-18T08:38:51.038Z</time></trkpt><trkpt lat="42.0831777" lon="11.8131331"><ele>30.5</ele><time>2026-04-18T08:38:52.036Z</time></trkpt><trkpt lat="42.083262" lon="11.8132633"><ele>31.25</ele><time>2026-04-18T08:38:53.035Z</time></trkpt><trkpt lat="42.0833644" lon="11.8134405"><ele>32.0</ele><time>2026-04-18T08:38:54.036Z</time></trkpt><trkpt lat="42.083483" lon="11.813672"><ele>33.5</ele><time>2026-04-18T08:38:55.036Z</time></trkpt><trkpt lat="42.0836061" lon="11.8139442"><ele>35.0</ele><time>2026-04-18T08:38:56.036Z</time></trkpt><trkpt lat="42.0837382" lon="11.8142665"><ele>36.5</ele><time>2026-04-18T08:38:57.036Z</time></trkpt><trkpt lat="42.0838516" lon="11.8145624"><ele>38.0</ele><time>2026-04-18T08:38:58.038Z</time></trkpt><trkpt lat="42.0839329" lon="11.8148373"><ele>38.0</ele><time>2026-04-18T08:38:59.036Z</time></trkpt><trkpt lat="42.0839953" lon="11.8151174"><ele>38.0</ele><time>2026-04-18T08:39:00.035Z</time></trkpt><trkpt lat="42.0840471" lon="11.8154356"><ele>40.0</ele><time>2026-04-18T08:39:01.035Z</time></trkpt><trkpt lat="42.0841084" lon="11.8157451"><ele>42.0</ele><time>2026-04-18T08:39:02.037Z</time></trkpt><trkpt lat="42.0841606" lon="11.816029"><ele>42.333333333333336</ele><time>2026-04-18T08:39:03.037Z</time></trkpt><trkpt lat="42.0842139" lon="11.8162916"><ele>42.66666666666667</ele><time>2026-04-18T08:39:04.036Z</time></trkpt><trkpt lat="42.0842828" lon="11.8165495"><ele>43.0</ele><time>2026-04-18T08:39:05.037Z</time></trkpt><trkpt lat="42.0843798" lon="11.8167801"><ele>44.0</ele><time>2026-04-18T08:39:06.037Z</time></trkpt><trkpt lat="42.0844832" lon="11.8170046"><ele>45.0</ele><time>2026-04-18T08:39:07.037Z</time></trkpt><trkpt lat="42.0845715" lon="11.8172203"><ele>46.0</ele><time>2026-04-18T08:39:08.036Z</time></trkpt><trkpt lat="42.0846496" lon="11.8174103"><ele>46.0</ele><time>2026-04-18T08:39:09.036Z</time></trkpt><trkpt lat="42.0847113" lon="11.8176207"><ele>46.0</ele><time>2026-04-18T08:39:10.035Z</time></trkpt><trkpt lat="42.0847636" lon="11.8178365"><ele>46.0</ele><time>2026-04-18T08:39:11.037Z</time></trkpt><trkpt lat="42.0848125" lon="11.8180654"><ele>48.333333333333336</ele><time>2026-04-18T08:39:12.035Z</time></trkpt><trkpt lat="42.0848685" lon="11.8183043"><ele>50.66666666666667</ele><time>2026-04-18T08:39:13.035Z</time></trkpt><trkpt lat="42.0849233" lon="11.8185267"><ele>53.0</ele><time>2026-04-18T08:39:14.037Z</time></trkpt><trkpt lat="42.0849714" lon="11.8187328"><ele>54.75</ele><time>2026-04-18T08:39:15.036Z</time></trkpt><trkpt lat="42.0850164" lon="11.8189368"><ele>56.5</ele><time>2026-04-18T08:39:16.036Z</time></trkpt><trkpt lat="42.0850565" lon="11.819132"><ele>58.25</ele><time>2026-04-18T08:39:17.036Z</time></trkpt><trkpt lat="42.085101" lon="11.8193057"><ele>60.0</ele><time>2026-04-18T08:39:18.036Z</time></trkpt><trkpt lat="42.0851526" lon="11.8194989"><ele>61.66666666666667</ele><time>2026-04-18T08:39:19.036Z</time></trkpt><trkpt lat="42.085226" lon="11.8197123"><ele>63.333333333333336</ele><time>2026-04-18T08:39:20.035Z</time></trkpt><trkpt lat="42.0853097" lon="11.8199528"><ele>65.0</ele><time>2026-04-18T08:39:21.036Z</time></trkpt><trkpt lat="42.0853898" lon="11.8201821"><ele>66.66666666666667</ele><time>2026-04-18T08:39:22.036Z</time></trkpt><trkpt lat="42.0854636" lon="11.820402"><ele>68.33333333333333</ele><time>2026-04-18T08:39:23.036Z</time></trkpt><trkpt lat="42.08552" lon="11.8206071"><ele>70.0</ele><time>2026-04-18T08:39:24.035Z</time></trkpt><trkpt lat="42.0855582" lon="11.8208316"><ele>71.0</ele><time>2026-04-18T08:39:25.037Z</time></trkpt><trkpt lat="42.0855897" lon="11.8210824"><ele>72.0</ele><time>2026-04-18T08:39:26.036Z</time></trkpt><trkpt lat="42.0856108" lon="11.8213651"><ele>73.0</ele><time>2026-04-18T08:39:27.035Z</time></trkpt><trkpt lat="42.0856438" lon="11.8216684"><ele>74.0</ele><time>2026-04-18T08:39:28.035Z</time></trkpt><trkpt lat="42.0856729" lon="11.8219548"><ele>75.0</ele><time>2026-04-18T08:39:29.036Z</time></trkpt><trkpt lat="42.0856973" lon="11.8222079"><ele>76.0</ele><time>2026-04-18T08:39:30.036Z</time></trkpt><trkpt lat="42.0857275" lon="11.8224543"><ele>77.0</ele><time>2026-04-18T08:39:31.035Z</time></trkpt><trkpt lat="42.0857528" lon="11.8226901"><ele>78.0</ele><time>2026-04-18T08:39:32.035Z</time></trkpt><trkpt lat="42.0857729" lon="11.8229299"><ele>79.0</ele><time>2026-04-18T08:39:33.036Z</time></trkpt><trkpt lat="42.0857887" lon="11.823166"><ele>80.66666666666666</ele><time>2026-04-18T08:39:34.036Z</time></trkpt><trkpt lat="42.0858008" lon="11.8234068"><ele>82.33333333333333</ele><time>2026-04-18T08:39:35.036Z</time></trkpt><trkpt lat="42.0858255" lon="11.8236516"><ele>84.0</ele><time>2026-04-18T08:39:36.036Z</time></trkpt><trkpt lat="42.0858803" lon="11.8238893"><ele>85.33333333333333</ele><time>2026-04-18T08:39:37.036Z</time></trkpt><trkpt lat="42.0859469" lon="11.8241234"><ele>86.66666666666666</ele><time>2026-04-18T08:39:38.036Z</time></trkpt><trkpt lat="42.0860086" lon="11.8243615"><ele>88.0</ele><time>2026-04-18T08:39:39.036Z</time></trkpt><trkpt lat="42.086059" lon="11.8246194"><ele>90.66666666666666</ele><time>2026-04-18T08:39:40.036Z</time></trkpt><trkpt lat="42.0861003" lon="11.8248883"><ele>93.33333333333333</ele><time>2026-04-18T08:39:41.036Z</time></trkpt><trkpt lat="42.0861389" lon="11.8251703"><ele>96.0</ele><time>2026-04-18T08:39:42.035Z</time></trkpt><trkpt lat="42.086184" lon="11.8254611"><ele>98.33333333333334</ele><time>2026-04-18T08:39:43.036Z</time></trkpt><trkpt lat="42.0862346" lon="11.825718"><ele>100.66666666666667</ele><time>2026-04-18T08:39:44.035Z</time></trkpt><trkpt lat="42.0863029" lon="11.8259657"><ele>103.0</ele><time>2026-04-18T08:39:45.036Z</time></trkpt><trkpt lat="42.0863933" lon="11.8261804"><ele>104.66666666666667</ele><time>2026-04-18T08:39:46.037Z</time></trkpt><trkpt lat="42.0864796" lon="11.8263669"><ele>106.33333333333334</ele><time>2026-04-18T08:39:47.036Z</time></trkpt><trkpt lat="42.0865462" lon="11.8265451"><ele>108.0</ele><time>2026-04-18T08:39:48.035Z</time></trkpt><trkpt lat="42.0865908" lon="11.8267402"><ele>110.0</ele><time>2026-04-18T08:39:49.036Z</time></trkpt><trkpt lat="42.0866318" lon="11.8269454"><ele>112.0</ele><time>2026-04-18T08:39:50.037Z</time></trkpt><trkpt lat="42.0866873" lon="11.8271293"><ele>114.0</ele><time>2026-04-18T08:39:51.037Z</time></trkpt><trkpt lat="42.0867464" lon="11.8272642"><ele>116.0</ele><time>2026-04-18T08:39:52.036Z</time></trkpt><trkpt lat="42.0868033" lon="11.8273745"><ele>116.0</ele><time>2026-04-18T08:39:53.036Z</time></trkpt><trkpt lat="42.0868682" lon="11.8274667"><ele>116.0</ele><time>2026-04-18T08:39:54.036Z</time></trkpt><trkpt lat="42.0869453" lon="11.8275277"><ele>116.0</ele><time>2026-04-18T08:39:55.036Z</time></trkpt><trkpt lat="42.0870386" lon="11.8275661"><ele>116.0</ele><time>2026-04-18T08:39:56.036Z</time></trkpt><trkpt lat="42.0871433" lon="11.8275916"><ele>116.0</ele><time>2026-04-18T08:39:57.035Z</time></trkpt><trkpt lat="42.0872313" lon="11.8276196"><ele>116.83333333333333</ele><time>2026-04-18T08:39:58.035Z</time></trkpt><trkpt lat="42.0873093" lon="11.8276554"><ele>117.66666666666666</ele><time>2026-04-18T08:39:59.035Z</time></trkpt><trkpt lat="42.0873536" lon="11.8277421"><ele>118.5</ele><time>2026-04-18T08:40:00.035Z</time></trkpt><trkpt lat="42.0873833" lon="11.8278411"><ele>119.33333333333334</ele><time>2026-04-18T08:40:01.035Z</time></trkpt><trkpt lat="42.0873848" lon="11.8279343"><ele>120.16666666666667</ele><time>2026-04-18T08:40:02.036Z</time></trkpt><trkpt lat="42.0873558" lon="11.8280826"><ele>121.0</ele><time>2026-04-18T08:40:03.035Z</time></trkpt><trkpt lat="42.0873372" lon="11.8282072"><ele>121.0</ele><time>2026-04-18T08:40:04.035Z</time></trkpt><trkpt lat="42.0873147" lon="11.8283272"><ele>121.0</ele><time>2026-04-18T08:40:05.036Z</time></trkpt><trkpt lat="42.0872886" lon="11.8284636"><ele>121.0</ele><time>2026-04-18T08:40:06.036Z</time></trkpt><trkpt lat="42.0872725" lon="11.8285642"><ele>121.0</ele><time>2026-04-18T08:40:07.037Z</time></trkpt><trkpt lat="42.0872495" lon="11.8286724"><ele>121.0</ele><time>2026-04-18T08:40:08.036Z</time></trkpt><trkpt lat="42.087234" lon="11.8287976"><ele>122.4</ele><time>2026-04-18T08:40:09.035Z</time></trkpt><trkpt lat="42.0872332" lon="11.8289265"><ele>123.8</ele><time>2026-04-18T08:40:10.036Z</time></trkpt><trkpt lat="42.0872276" lon="11.8290581"><ele>125.20000000000002</ele><time>2026-04-18T08:40:11.035Z</time></trkpt><trkpt lat="42.0872101" lon="11.8292051"><ele>126.60000000000001</ele><time>2026-04-18T08:40:12.036Z</time></trkpt><trkpt lat="42.0871714" lon="11.8293614"><ele>128.0</ele><time>2026-04-18T08:40:13.036Z</time></trkpt><trkpt lat="42.0871298" lon="11.8295129"><ele>129.0</ele><time>2026-04-18T08:40:14.035Z</time></trkpt><trkpt lat="42.0871057" lon="11.829655"><ele>130.0</ele><time>2026-04-18T08:40:15.035Z</time></trkpt><trkpt lat="42.0871044" lon="11.8297991"><ele>131.0</ele><time>2026-04-18T08:40:16.035Z</time></trkpt><trkpt lat="42.0871268" lon="11.8299587"><ele>132.0</ele><time>2026-04-18T08:40:17.036Z</time></trkpt><trkpt lat="42.0871504" lon="11.8301334"><ele>132.33333333333334</ele><time>2026-04-18T08:40:18.037Z</time></trkpt><trkpt lat="42.0871903" lon="11.8303268"><ele>132.66666666666669</ele><time>2026-04-18T08:40:19.035Z</time></trkpt><trkpt lat="42.0872426" lon="11.830529"><ele>133.0</ele><time>2026-04-18T08:40:20.036Z</time></trkpt><trkpt lat="42.087279" lon="11.8307191"><ele>133.0</ele><time>2026-04-18T08:40:21.036Z</time></trkpt><trkpt lat="42.0873037" lon="11.8309018"><ele>133.0</ele><time>2026-04-18T08:40:22.036Z</time></trkpt><trkpt lat="42.087315" lon="11.8310734"><ele>133.0</ele><time>2026-04-18T08:40:23.035Z</time></trkpt><trkpt lat="42.0873247" lon="11.8312248"><ele>133.0</ele><time>2026-04-18T08:40:24.036Z</time></trkpt><trkpt lat="42.0873383" lon="11.8313677"><ele>132.83333333333334</ele><time>2026-04-18T08:40:25.037Z</time></trkpt><trkpt lat="42.0873526" lon="11.8314891"><ele>132.66666666666669</ele><time>2026-04-18T08:40:26.037Z</time></trkpt><trkpt lat="42.0873668" lon="11.8315994"><ele>132.5</ele><time>2026-04-18T08:40:27.035Z</time></trkpt><trkpt lat="42.0873805" lon="11.831698"><ele>132.33333333333334</ele><time>2026-04-18T08:40:28.035Z</time></trkpt><trkpt lat="42.0874051" lon="11.8318341"><ele>132.16666666666666</ele><time>2026-04-18T08:40:30.035Z</time></trkpt><trkpt lat="42.0874217" lon="11.8319327"><ele>132.0</ele><time>2026-04-18T08:40:32.036Z</time></trkpt><trkpt lat="42.0874812" lon="11.8321077"><ele>136.33333333333334</ele><time>2026-04-18T08:40:34.036Z</time></trkpt><trkpt lat="42.0875406" lon="11.8322662"><ele>140.66666666666669</ele><time>2026-04-18T08:40:35.036Z</time></trkpt><trkpt lat="42.0876316" lon="11.8324899"><ele>145.0</ele><time>2026-04-18T08:40:36.035Z</time></trkpt><trkpt lat="42.0877415" lon="11.832751"><ele>146.5</ele><time>2026-04-18T08:40:37.035Z</time></trkpt><trkpt lat="42.087874" lon="11.833055"><ele>148.0</ele><time>2026-04-18T08:40:38.036Z</time></trkpt><trkpt lat="42.0879944" lon="11.8333216"><ele>147.66666666666669</ele><time>2026-04-18T08:40:39.035Z</time></trkpt><trkpt lat="42.0880955" lon="11.8335628"><ele>147.33333333333334</ele><time>2026-04-18T08:40:40.036Z</time></trkpt><trkpt lat="42.0881908" lon="11.8338159"><ele>147.0</ele><time>2026-04-18T08:40:41.036Z</time></trkpt><trkpt lat="42.0882645" lon="11.834078"><ele>151.33333333333334</ele><time>2026-04-18T08:40:42.035Z</time></trkpt><trkpt lat="42.0883236" lon="11.8343287"><ele>155.66666666666669</ele><time>2026-04-18T08:40:43.036Z</time></trkpt><trkpt lat="42.0883738" lon="11.8345495"><ele>160.0</ele><time>2026-04-18T08:40:44.035Z</time></trkpt><trkpt lat="42.0884375" lon="11.8347712"><ele>160.0</ele><time>2026-04-18T08:40:45.035Z</time></trkpt><trkpt lat="42.0885061" lon="11.8349898"><ele>160.0</ele><time>2026-04-18T08:40:46.036Z</time></trkpt><trkpt lat="42.0885735" lon="11.8351591"><ele>160.0</ele><time>2026-04-18T08:40:47.036Z</time></trkpt><trkpt lat="42.0886355" lon="11.8353204"><ele>160.25</ele><time>2026-04-18T08:40:48.036Z</time></trkpt><trkpt lat="42.0886808" lon="11.835456"><ele>160.5</ele><time>2026-04-18T08:40:49.036Z</time></trkpt><trkpt lat="42.0887117" lon="11.8356128"><ele>160.75</ele><time>2026-04-18T08:40:50.035Z</time></trkpt><trkpt lat="42.0887388" lon="11.8357783"><ele>161.0</ele><time>2026-04-18T08:40:51.035Z</time></trkpt><trkpt lat="42.0887591" lon="11.8359352"><ele>160.25</ele><time>2026-04-18T08:40:52.035Z</time></trkpt><trkpt lat="42.0888009" lon="11.8361023"><ele>159.5</ele><time>2026-04-18T08:40:53.037Z</time></trkpt><trkpt lat="42.0888677" lon="11.8362886"><ele>158.75</ele><time>2026-04-18T08:40:54.035Z</time></trkpt><trkpt lat="42.0889343" lon="11.8364503"><ele>158.0</ele><time>2026-04-18T08:40:55.035Z</time></trkpt><trkpt lat="42.0889789" lon="11.8365802"><ele>158.0</ele><time>2026-04-18T08:40:56.036Z</time></trkpt><trkpt lat="42.0890103" lon="11.8367347"><ele>158.0</ele><time>2026-04-18T08:40:57.037Z</time></trkpt><trkpt lat="42.0890413" lon="11.8369338"><ele>158.0</ele><time>2026-04-18T08:40:58.036Z</time></trkpt><trkpt lat="42.0890626" lon="11.8371239"><ele>158.0</ele><time>2026-04-18T08:40:59.035Z</time></trkpt><trkpt lat="42.0890912" lon="11.8372936"><ele>160.5</ele><time>2026-04-18T08:41:00.036Z</time></trkpt><trkpt lat="42.0891182" lon="11.8374592"><ele>163.0</ele><time>2026-04-18T08:41:01.035Z</time></trkpt><trkpt lat="42.0891443" lon="11.8376476"><ele>165.5</ele><time>2026-04-18T08:41:02.035Z</time></trkpt><trkpt lat="42.0891609" lon="11.8378334"><ele>168.0</ele><time>2026-04-18T08:41:03.036Z</time></trkpt><trkpt lat="42.0891633" lon="11.8380068"><ele>168.33333333333334</ele><time>2026-04-18T08:41:04.035Z</time></trkpt><trkpt lat="42.0891595" lon="11.8381991"><ele>168.66666666666669</ele><time>2026-04-18T08:41:05.036Z</time></trkpt><trkpt lat="42.0891516" lon="11.8384645"><ele>169.0</ele><time>2026-04-18T08:41:06.036Z</time></trkpt><trkpt lat="42.089149" lon="11.8386889"><ele>169.33333333333334</ele><time>2026-04-18T08:41:07.036Z</time></trkpt><trkpt lat="42.0891535" lon="11.8389067"><ele>169.66666666666666</ele><time>2026-04-18T08:41:08.035Z</time></trkpt><trkpt lat="42.089164" lon="11.8391159"><ele>170.0</ele><time>2026-04-18T08:41:09.035Z</time></trkpt><trkpt lat="42.089179" lon="11.8392932"><ele>171.25</ele><time>2026-04-18T08:41:10.035Z</time></trkpt><trkpt lat="42.0892038" lon="11.8394612"><ele>172.5</ele><time>2026-04-18T08:41:11.035Z</time></trkpt><trkpt lat="42.0892296" lon="11.8396317"><ele>173.75</ele><time>2026-04-18T08:41:12.037Z</time></trkpt><trkpt lat="42.0892268" lon="11.8397987"><ele>175.0</ele><time>2026-04-18T08:41:13.037Z</time></trkpt><trkpt lat="42.0892026" lon="11.8399966"><ele>176.33333333333334</ele><time>2026-04-18T08:41:14.035Z</time></trkpt><trkpt lat="42.0891663" lon="11.8402162"><ele>177.66666666666666</ele><time>2026-04-18T08:41:15.036Z</time></trkpt><trkpt lat="42.0891343" lon="11.8404344"><ele>179.0</ele><time>2026-04-18T08:41:16.035Z</time></trkpt><trkpt lat="42.0891273" lon="11.8406391"><ele>179.0</ele><time>2026-04-18T08:41:17.036Z</time></trkpt><trkpt lat="42.0891334" lon="11.8408308"><ele>179.0</ele><time>2026-04-18T08:41:18.035Z</time></trkpt><trkpt lat="42.0891319" lon="11.8410221"><ele>179.0</ele><time>2026-04-18T08:41:19.035Z</time></trkpt><trkpt lat="42.0891167" lon="11.8412006"><ele>179.0</ele><time>2026-04-18T08:41:20.035Z</time></trkpt><trkpt lat="42.0890986" lon="11.8413377"><ele>178.0</ele><time>2026-04-18T08:41:21.037Z</time></trkpt><trkpt lat="42.0890739" lon="11.8414531"><ele>177.0</ele><time>2026-04-18T08:41:22.035Z</time></trkpt><trkpt lat="42.0890416" lon="11.8415747"><ele>176.0</ele><time>2026-04-18T08:41:23.036Z</time></trkpt><trkpt lat="42.0890302" lon="11.8416962"><ele>175.0</ele><time>2026-04-18T08:41:24.036Z</time></trkpt><trkpt lat="42.0890527" lon="11.8418062"><ele>174.0</ele><time>2026-04-18T08:41:25.036Z</time></trkpt><trkpt lat="42.0890831" lon="11.8419695"><ele>177.5</ele><time>2026-04-18T08:41:26.035Z</time></trkpt><trkpt lat="42.089108" lon="11.8421707"><ele>181.0</ele><time>2026-04-18T08:41:27.036Z</time></trkpt><trkpt lat="42.0891265" lon="11.8423424"><ele>184.5</ele><time>2026-04-18T08:41:28.036Z</time></trkpt><trkpt lat="42.0891461" lon="11.8424758"><ele>188.0</ele><time>2026-04-18T08:41:29.036Z</time></trkpt><trkpt lat="42.0891769" lon="11.8426082"><ele>189.25</ele><time>2026-04-18T08:41:30.036Z</time></trkpt><trkpt lat="42.0892142" lon="11.8427312"><ele>190.5</ele><time>2026-04-18T08:41:31.036Z</time></trkpt><trkpt lat="42.089262" lon="11.842851"><ele>191.75</ele><time>2026-04-18T08:41:32.035Z</time></trkpt><trkpt lat="42.0893333" lon="11.8429924"><ele>193.0</ele><time>2026-04-18T08:41:33.035Z</time></trkpt><trkpt lat="42.0894017" lon="11.8431544"><ele>193.0</ele><time>2026-04-18T08:41:34.036Z</time></trkpt><trkpt lat="42.0894583" lon="11.8432999"><ele>193.0</ele><time>2026-04-18T08:41:35.037Z</time></trkpt><trkpt lat="42.0895053" lon="11.8433863"><ele>193.0</ele><time>2026-04-18T08:41:36.036Z</time></trkpt><trkpt lat="42.0895611" lon="11.8434314"><ele>193.0</ele><time>2026-04-18T08:41:37.036Z</time></trkpt><trkpt lat="42.0896455" lon="11.8434583"><ele>193.0</ele><time>2026-04-18T08:41:38.036Z</time></trkpt><trkpt lat="42.0897608" lon="11.8434633"><ele>193.2</ele><time>2026-04-18T08:41:39.035Z</time></trkpt><trkpt lat="42.0898761" lon="11.8434702"><ele>193.4</ele><time>2026-04-18T08:41:40.035Z</time></trkpt><trkpt lat="42.0899777" lon="11.8435003"><ele>193.6</ele><time>2026-04-18T08:41:41.035Z</time></trkpt><trkpt lat="42.0900729" lon="11.843547"><ele>193.79999999999998</ele><time>2026-04-18T08:41:42.035Z</time></trkpt><trkpt lat="42.0901574" lon="11.8436244"><ele>194.0</ele><time>2026-04-18T08:41:43.036Z</time></trkpt><trkpt lat="42.0902378" lon="11.8437255"><ele>196.39999999999998</ele><time>2026-04-18T08:41:44.036Z</time></trkpt><trkpt lat="42.0903014" lon="11.8438335"><ele>198.8</ele><time>2026-04-18T08:41:45.036Z</time></trkpt><trkpt lat="42.090356" lon="11.843942"><ele>201.2</ele><time>2026-04-18T08:41:46.035Z</time></trkpt><trkpt lat="42.0904011" lon="11.8440733"><ele>203.60000000000002</ele><time>2026-04-18T08:41:47.035Z</time></trkpt><trkpt lat="42.090432" lon="11.8442186"><ele>206.0</ele><time>2026-04-18T08:41:48.035Z</time></trkpt><trkpt lat="42.0904762" lon="11.8443598"><ele>208.0</ele><time>2026-04-18T08:41:49.035Z</time></trkpt><trkpt lat="42.0905469" lon="11.8444962"><ele>210.0</ele><time>2026-04-18T08:41:50.036Z</time></trkpt><trkpt lat="42.0906388" lon="11.8446381"><ele>212.0</ele><time>2026-04-18T08:41:51.036Z</time></trkpt><trkpt lat="42.0907139" lon="11.8447578"><ele>214.0</ele><time>2026-04-18T08:41:52.035Z</time></trkpt><trkpt lat="42.0907717" lon="11.8448803"><ele>214.0</ele><time>2026-04-18T08:41:53.035Z</time></trkpt><trkpt lat="42.0908313" lon="11.8450387"><ele>214.0</ele><time>2026-04-18T08:41:54.037Z</time></trkpt><trkpt lat="42.0908909" lon="11.8452002"><ele>214.0</ele><time>2026-04-18T08:41:55.036Z</time></trkpt><trkpt lat="42.0909477" lon="11.8453477"><ele>214.0</ele><time>2026-04-18T08:41:56.035Z</time></trkpt><trkpt lat="42.0909937" lon="11.8455072"><ele>217.5</ele><time>2026-04-18T08:41:57.037Z</time></trkpt><trkpt lat="42.0910342" lon="11.8456649"><ele>221.0</ele><time>2026-04-18T08:41:58.036Z</time></trkpt><trkpt lat="42.0910847" lon="11.8457943"><ele>224.5</ele><time>2026-04-18T08:41:59.036Z</time></trkpt><trkpt lat="42.0911594" lon="11.8459084"><ele>228.0</ele><time>2026-04-18T08:42:00.037Z</time></trkpt><trkpt lat="42.0912499" lon="11.846021"><ele>229.5</ele><time>2026-04-18T08:42:01.035Z</time></trkpt><trkpt lat="42.0913746" lon="11.8461638"><ele>231.0</ele><time>2026-04-18T08:42:02.036Z</time></trkpt><trkpt lat="42.0914872" lon="11.8463033"><ele>232.5</ele><time>2026-04-18T08:42:03.035Z</time></trkpt><trkpt lat="42.0915792" lon="11.8464316"><ele>234.0</ele><time>2026-04-18T08:42:04.035Z</time></trkpt><trkpt lat="42.0916836" lon="11.8465856"><ele>234.0</ele><time>2026-04-18T08:42:05.036Z</time></trkpt><trkpt lat="42.0917921" lon="11.8467339"><ele>233.99999999999997</ele><time>2026-04-18T08:42:06.035Z</time></trkpt><trkpt lat="42.0918753" lon="11.8468427"><ele>233.99999999999997</ele><time>2026-04-18T08:42:07.036Z</time></trkpt><trkpt lat="42.0919509" lon="11.8469193"><ele>234.0</ele><time>2026-04-18T08:42:08.036Z</time></trkpt><trkpt lat="42.0920157" lon="11.8469615"><ele>234.0</ele><time>2026-04-18T08:42:09.035Z</time></trkpt><trkpt lat="42.09209" lon="11.8469686"><ele>237.75</ele><time>2026-04-18T08:42:10.035Z</time></trkpt><trkpt lat="42.0922029" lon="11.8469498"><ele>241.5</ele><time>2026-04-18T08:42:11.035Z</time></trkpt><trkpt lat="42.0923494" lon="11.846911"><ele>245.25</ele><time>2026-04-18T08:42:12.035Z</time></trkpt><trkpt lat="42.0924925" lon="11.8468622"><ele>249.0</ele><time>2026-04-18T08:42:13.035Z</time></trkpt><trkpt lat="42.0926117" lon="11.8467973"><ele>246.6</ele><time>2026-04-18T08:42:14.035Z</time></trkpt><trkpt lat="42.0927256" lon="11.8467409"><ele>244.2</ele><time>2026-04-18T08:42:15.036Z</time></trkpt><trkpt lat="42.0928307" lon="11.8467128"><ele>241.79999999999998</ele><time>2026-04-18T08:42:16.037Z</time></trkpt><trkpt lat="42.0929333" lon="11.8467092"><ele>239.39999999999998</ele><time>2026-04-18T08:42:17.035Z</time></trkpt><trkpt lat="42.0930138" lon="11.846726"><ele>237.0</ele><time>2026-04-18T08:42:18.036Z</time></trkpt><trkpt lat="42.0930899" lon="11.8467561"><ele>239.66666666666666</ele><time>2026-04-18T08:42:19.036Z</time></trkpt><trkpt lat="42.0931571" lon="11.8468028"><ele>242.33333333333331</ele><time>2026-04-18T08:42:20.036Z</time></trkpt><trkpt lat="42.093209" lon="11.8468703"><ele>245.0</ele><time>2026-04-18T08:42:21.035Z</time></trkpt><trkpt lat="42.0932687" lon="11.846952"><ele>247.66666666666666</ele><time>2026-04-18T08:42:22.035Z</time></trkpt><trkpt lat="42.0933291" lon="11.8470471"><ele>250.33333333333331</ele><time>2026-04-18T08:42:23.035Z</time></trkpt><trkpt lat="42.0933862" lon="11.847151"><ele>253.0</ele><time>2026-04-18T08:42:24.035Z</time></trkpt><trkpt lat="42.0934424" lon="11.8472624"><ele>253.4</ele><time>2026-04-18T08:42:25.035Z</time></trkpt><trkpt lat="42.0934956" lon="11.847378"><ele>253.8</ele><time>2026-04-18T08:42:26.035Z</time></trkpt><trkpt lat="42.0935491" lon="11.8475002"><ele>254.2</ele><time>2026-04-18T08:42:27.035Z</time></trkpt><trkpt lat="42.0935975" lon="11.8476119"><ele>254.6</ele><time>2026-04-18T08:42:28.036Z</time></trkpt><trkpt lat="42.093647" lon="11.8477253"><ele>255.0</ele><time>2026-04-18T08:42:29.036Z</time></trkpt><trkpt lat="42.0937012" lon="11.8478791"><ele>258.0</ele><time>2026-04-18T08:42:30.035Z</time></trkpt><trkpt lat="42.0937509" lon="11.8480385"><ele>261.0</ele><time>2026-04-18T08:42:31.035Z</time></trkpt><trkpt lat="42.0937907" lon="11.8481613"><ele>264.0</ele><time>2026-04-18T08:42:32.036Z</time></trkpt><trkpt lat="42.0938239" lon="11.848266"><ele>267.0</ele><time>2026-04-18T08:42:33.035Z</time></trkpt><trkpt lat="42.0938504" lon="11.8483468"><ele>270.0</ele><time>2026-04-18T08:42:34.035Z</time></trkpt><trkpt lat="42.0938851" lon="11.8484878"><ele>270.0</ele><time>2026-04-18T08:42:36.035Z</time></trkpt><trkpt lat="42.0939617" lon="11.8486604"><ele>270.0</ele><time>2026-04-18T08:42:38.035Z</time></trkpt><trkpt lat="42.0940226" lon="11.8487923"><ele>270.0</ele><time>2026-04-18T08:42:39.037Z</time></trkpt><trkpt lat="42.0940962" lon="11.848939"><ele>270.0</ele><time>2026-04-18T08:42:40.036Z</time></trkpt><trkpt lat="42.0941707" lon="11.8490691"><ele>270.0</ele><time>2026-04-18T08:42:41.035Z</time></trkpt><trkpt lat="42.0942348" lon="11.8491624"><ele>270.0</ele><time>2026-04-18T08:42:42.036Z</time></trkpt><trkpt lat="42.0942813" lon="11.8492457"><ele>270.0</ele><time>2026-04-18T08:42:43.036Z</time></trkpt><trkpt lat="42.0943035" lon="11.8493272"><ele>270.0</ele><time>2026-04-18T08:42:44.035Z</time></trkpt><trkpt lat="42.0942999" lon="11.8494167"><ele>270.0</ele><time>2026-04-18T08:42:45.035Z</time></trkpt><trkpt lat="42.0942734" lon="11.8495226"><ele>270.0</ele><time>2026-04-18T08:42:46.036Z</time></trkpt><trkpt lat="42.094226" lon="11.8496372"><ele>269.8</ele><time>2026-04-18T08:42:47.036Z</time></trkpt><trkpt lat="42.0941575" lon="11.8497691"><ele>269.6</ele><time>2026-04-18T08:42:48.035Z</time></trkpt><trkpt lat="42.0940914" lon="11.8498806"><ele>269.4</ele><time>2026-04-18T08:42:49.035Z</time></trkpt><trkpt lat="42.0940337" lon="11.8499411"><ele>269.2</ele><time>2026-04-18T08:42:50.036Z</time></trkpt><trkpt lat="42.0939599" lon="11.8499749"><ele>269.0</ele><time>2026-04-18T08:42:51.035Z</time></trkpt><trkpt lat="42.0938568" lon="11.8499947"><ele>272.6666666666667</ele><time>2026-04-18T08:42:52.035Z</time></trkpt><trkpt lat="42.0937162" lon="11.8500014"><ele>276.3333333333333</ele><time>2026-04-18T08:42:53.036Z</time></trkpt><trkpt lat="42.0935647" lon="11.8500025"><ele>280.0</ele><time>2026-04-18T08:42:54.036Z</time></trkpt><trkpt lat="42.0933814" lon="11.8500127"><ele>283.3333333333333</ele><time>2026-04-18T08:42:55.035Z</time></trkpt><trkpt lat="42.0931912" lon="11.850029"><ele>286.6666666666667</ele><time>2026-04-18T08:42:56.035Z</time></trkpt><trkpt lat="42.0930304" lon="11.8500553"><ele>290.0</ele><time>2026-04-18T08:42:57.036Z</time></trkpt><trkpt lat="42.0928657" lon="11.8501004"><ele>289.6666666666667</ele><time>2026-04-18T08:42:58.035Z</time></trkpt><trkpt lat="42.092695" lon="11.8501592"><ele>289.3333333333333</ele><time>2026-04-18T08:42:59.035Z</time></trkpt><trkpt lat="42.092538" lon="11.8502184"><ele>289.0</ele><time>2026-04-18T08:43:00.036Z</time></trkpt><trkpt lat="42.092418" lon="11.8502735"><ele>288.4</ele><time>2026-04-18T08:43:01.036Z</time></trkpt><trkpt lat="42.0923192" lon="11.850343"><ele>287.79999999999995</ele><time>2026-04-18T08:43:02.035Z</time></trkpt><trkpt lat="42.0922265" lon="11.850428"><ele>287.20000000000005</ele><time>2026-04-18T08:43:03.036Z</time></trkpt><trkpt lat="42.0921477" lon="11.8505176"><ele>286.6</ele><time>2026-04-18T08:43:04.035Z</time></trkpt><trkpt lat="42.0920879" lon="11.8506003"><ele>286.0</ele><time>2026-04-18T08:43:05.035Z</time></trkpt><trkpt lat="42.0920541" lon="11.8506854"><ele>286.0</ele><time>2026-04-18T08:43:06.036Z</time></trkpt><trkpt lat="42.0920387" lon="11.8507929"><ele>286.0</ele><time>2026-04-18T08:43:07.035Z</time></trkpt><trkpt lat="42.0920315" lon="11.8509136"><ele>286.0</ele><time>2026-04-18T08:43:08.035Z</time></trkpt><trkpt lat="42.0920185" lon="11.8510171"><ele>286.0</ele><time>2026-04-18T08:43:09.036Z</time></trkpt><trkpt lat="42.0919841" lon="11.8511202"><ele>286.0</ele><time>2026-04-18T08:43:10.035Z</time></trkpt><trkpt lat="42.091929" lon="11.8512416"><ele>286.0</ele><time>2026-04-18T08:43:11.035Z</time></trkpt><trkpt lat="42.0918548" lon="11.8513669"><ele>286.2</ele><time>2026-04-18T08:43:12.036Z</time></trkpt><trkpt lat="42.0917813" lon="11.8514698"><ele>286.40000000000003</ele><time>2026-04-18T08:43:13.035Z</time></trkpt><trkpt lat="42.0917128" lon="11.8515471"><ele>286.6</ele><time>2026-04-18T08:43:14.036Z</time></trkpt><trkpt lat="42.0916395" lon="11.8516109"><ele>286.8</ele><time>2026-04-18T08:43:15.035Z</time></trkpt><trkpt lat="42.0915536" lon="11.8516691"><ele>287.0</ele><time>2026-04-18T08:43:16.037Z</time></trkpt><trkpt lat="42.0914556" lon="11.851728"><ele>290.8</ele><time>2026-04-18T08:43:17.035Z</time></trkpt><trkpt lat="42.0913463" lon="11.8517912"><ele>294.6</ele><time>2026-04-18T08:43:18.036Z</time></trkpt><trkpt lat="42.0912432" lon="11.8518487"><ele>298.40000000000003</ele><time>2026-04-18T08:43:19.036Z</time></trkpt><trkpt lat="42.0911569" lon="11.8518991"><ele>302.2</ele><time>2026-04-18T08:43:20.035Z</time></trkpt><trkpt lat="42.0910805" lon="11.8519454"><ele>306.0</ele><time>2026-04-18T08:43:21.036Z</time></trkpt><trkpt lat="42.0910167" lon="11.8519814"><ele>306.0</ele><time>2026-04-18T08:43:22.036Z</time></trkpt><trkpt lat="42.0909089" lon="11.8520555"><ele>306.0</ele><time>2026-04-18T08:43:24.035Z</time></trkpt><trkpt lat="42.0908448" lon="11.8521086"><ele>306.0</ele><time>2026-04-18T08:43:25.035Z</time></trkpt><trkpt lat="42.0907779" lon="11.8521806"><ele>306.0</ele><time>2026-04-18T08:43:26.035Z</time></trkpt><trkpt lat="42.090697" lon="11.8522584"><ele>306.0</ele><time>2026-04-18T08:43:27.035Z</time></trkpt><trkpt lat="42.0905974" lon="11.8523272"><ele>305.75</ele><time>2026-04-18T08:43:28.035Z</time></trkpt><trkpt lat="42.0904862" lon="11.8523951"><ele>305.5</ele><time>2026-04-18T08:43:29.035Z</time></trkpt><trkpt lat="42.0903566" lon="11.8524521"><ele>305.25</ele><time>2026-04-18T08:43:30.035Z</time></trkpt><trkpt lat="42.0902179" lon="11.8524964"><ele>305.0</ele><time>2026-04-18T08:43:31.036Z</time></trkpt><trkpt lat="42.0900928" lon="11.8525107"><ele>305.0</ele><time>2026-04-18T08:43:32.036Z</time></trkpt><trkpt lat="42.0899699" lon="11.8525134"><ele>305.0</ele><time>2026-04-18T08:43:33.035Z</time></trkpt><trkpt lat="42.0898371" lon="11.8525"><ele>305.0</ele><time>2026-04-18T08:43:34.036Z</time></trkpt><trkpt lat="42.0896936" lon="11.8524716"><ele>305.0</ele><time>2026-04-18T08:43:35.035Z</time></trkpt><trkpt lat="42.0895604" lon="11.852452"><ele>303.75</ele><time>2026-04-18T08:43:36.035Z</time></trkpt><trkpt lat="42.0894521" lon="11.8524544"><ele>302.5</ele><time>2026-04-18T08:43:37.036Z</time></trkpt><trkpt lat="42.0893626" lon="11.8524718"><ele>301.25</ele><time>2026-04-18T08:43:38.035Z</time></trkpt><trkpt lat="42.0892624" lon="11.8524875"><ele>300.0</ele><time>2026-04-18T08:43:40.035Z</time></trkpt><trkpt lat="42.0891112" lon="11.8524075"><ele>296.25</ele><time>2026-04-18T08:43:42.035Z</time></trkpt><trkpt lat="42.088997" lon="11.8523164"><ele>292.5</ele><time>2026-04-18T08:43:43.036Z</time></trkpt><trkpt lat="42.0888865" lon="11.852204"><ele>288.75</ele><time>2026-04-18T08:43:44.036Z</time></trkpt><trkpt lat="42.0887875" lon="11.8520961"><ele>285.0</ele><time>2026-04-18T08:43:45.035Z</time></trkpt><trkpt lat="42.0886888" lon="11.8519938"><ele>285.0</ele><time>2026-04-18T08:43:46.035Z</time></trkpt><trkpt lat="42.0885891" lon="11.8518758"><ele>285.0</ele><time>2026-04-18T08:43:47.035Z</time></trkpt><trkpt lat="42.0884932" lon="11.851756"><ele>285.0</ele><time>2026-04-18T08:43:48.036Z</time></trkpt><trkpt lat="42.0884009" lon="11.8516608"><ele>285.0</ele><time>2026-04-18T08:43:49.035Z</time></trkpt><trkpt lat="42.0882986" lon="11.8515852"><ele>283.5</ele><time>2026-04-18T08:43:50.035Z</time></trkpt><trkpt lat="42.0881942" lon="11.8515272"><ele>282.0</ele><time>2026-04-18T08:43:51.035Z</time></trkpt><trkpt lat="42.0880694" lon="11.8514851"><ele>280.5</ele><time>2026-04-18T08:43:52.036Z</time></trkpt><trkpt lat="42.0879312" lon="11.8514657"><ele>279.0</ele><time>2026-04-18T08:43:53.035Z</time></trkpt><trkpt lat="42.087791" lon="11.8514785"><ele>279.0</ele><time>2026-04-18T08:43:54.035Z</time></trkpt><trkpt lat="42.087648" lon="11.8515146"><ele>279.0</ele><time>2026-04-18T08:43:55.036Z</time></trkpt><trkpt lat="42.0874863" lon="11.8515771"><ele>279.0</ele><time>2026-04-18T08:43:56.035Z</time></trkpt><trkpt lat="42.0872994" lon="11.8516689"><ele>276.3333333333333</ele><time>2026-04-18T08:43:57.035Z</time></trkpt><trkpt lat="42.0870886" lon="11.8517729"><ele>273.66666666666663</ele><time>2026-04-18T08:43:58.035Z</time></trkpt><trkpt lat="42.0868787" lon="11.8518694"><ele>271.0</ele><time>2026-04-18T08:43:59.036Z</time></trkpt><trkpt lat="42.0866884" lon="11.851963"><ele>265.3333333333333</ele><time>2026-04-18T08:44:00.035Z</time></trkpt><trkpt lat="42.0865065" lon="11.8520516"><ele>259.6666666666667</ele><time>2026-04-18T08:44:01.035Z</time></trkpt><trkpt lat="42.0863177" lon="11.8521359"><ele>254.0</ele><time>2026-04-18T08:44:02.035Z</time></trkpt><trkpt lat="42.086129" lon="11.852223"><ele>254.0</ele><time>2026-04-18T08:44:03.035Z</time></trkpt><trkpt lat="42.0859578" lon="11.8523066"><ele>254.0</ele><time>2026-04-18T08:44:04.036Z</time></trkpt><trkpt lat="42.0857976" lon="11.8523941"><ele>254.0</ele><time>2026-04-18T08:44:05.036Z</time></trkpt><trkpt lat="42.0856512" lon="11.8524919"><ele>253.0</ele><time>2026-04-18T08:44:06.035Z</time></trkpt><trkpt lat="42.0855195" lon="11.8525882"><ele>252.0</ele><time>2026-04-18T08:44:07.035Z</time></trkpt><trkpt lat="42.0854014" lon="11.8526722"><ele>251.0</ele><time>2026-04-18T08:44:08.037Z</time></trkpt><trkpt lat="42.0852966" lon="11.8527283"><ele>250.0</ele><time>2026-04-18T08:44:09.036Z</time></trkpt><trkpt lat="42.0851918" lon="11.8527502"><ele>248.75</ele><time>2026-04-18T08:44:10.035Z</time></trkpt><trkpt lat="42.085083" lon="11.8527362"><ele>247.5</ele><time>2026-04-18T08:44:11.035Z</time></trkpt><trkpt lat="42.0849446" lon="11.8526837"><ele>246.25</ele><time>2026-04-18T08:44:12.035Z</time></trkpt><trkpt lat="42.0847758" lon="11.8526008"><ele>245.0</ele><time>2026-04-18T08:44:13.035Z</time></trkpt><trkpt lat="42.0846054" lon="11.8524996"><ele>242.66666666666669</ele><time>2026-04-18T08:44:14.035Z</time></trkpt><trkpt lat="42.0844455" lon="11.8523904"><ele>240.33333333333331</ele><time>2026-04-18T08:44:15.035Z</time></trkpt><trkpt lat="42.0842988" lon="11.8522919"><ele>238.0</ele><time>2026-04-18T08:44:16.035Z</time></trkpt><trkpt lat="42.0841539" lon="11.8522002"><ele>234.66666666666666</ele><time>2026-04-18T08:44:17.035Z</time></trkpt><trkpt lat="42.0840131" lon="11.8521023"><ele>231.33333333333331</ele><time>2026-04-18T08:44:18.035Z</time></trkpt><trkpt lat="42.0838743" lon="11.851972"><ele>228.0</ele><time>2026-04-18T08:44:19.035Z</time></trkpt><trkpt lat="42.0837255" lon="11.851831"><ele>229.66666666666669</ele><time>2026-04-18T08:44:20.036Z</time></trkpt><trkpt lat="42.0835862" lon="11.851704"><ele>231.33333333333334</ele><time>2026-04-18T08:44:21.035Z</time></trkpt><trkpt lat="42.0834559" lon="11.8515965"><ele>233.0</ele><time>2026-04-18T08:44:22.035Z</time></trkpt><trkpt lat="42.0833344" lon="11.8515029"><ele>230.33333333333334</ele><time>2026-04-18T08:44:23.034Z</time></trkpt><trkpt lat="42.0832062" lon="11.8514253"><ele>227.66666666666669</ele><time>2026-04-18T08:44:24.036Z</time></trkpt><trkpt lat="42.0830629" lon="11.851356"><ele>225.0</ele><time>2026-04-18T08:44:25.036Z</time></trkpt><trkpt lat="42.082894" lon="11.8512902"><ele>225.0</ele><time>2026-04-18T08:44:26.035Z</time></trkpt><trkpt lat="42.0827108" lon="11.8512265"><ele>225.0</ele><time>2026-04-18T08:44:27.035Z</time></trkpt><trkpt lat="42.0825428" lon="11.8511714"><ele>225.0</ele><time>2026-04-18T08:44:28.036Z</time></trkpt><trkpt lat="42.082403" lon="11.8511308"><ele>223.0</ele><time>2026-04-18T08:44:29.036Z</time></trkpt><trkpt lat="42.0822727" lon="11.851095"><ele>221.0</ele><time>2026-04-18T08:44:30.036Z</time></trkpt><trkpt lat="42.0821675" lon="11.85107"><ele>219.0</ele><time>2026-04-18T08:44:31.036Z</time></trkpt><trkpt lat="42.0820885" lon="11.851052"><ele>217.0</ele><time>2026-04-18T08:44:32.035Z</time></trkpt><trkpt lat="42.0820216" lon="11.8510348"><ele>215.0</ele><time>2026-04-18T08:44:33.035Z</time></trkpt><trkpt lat="42.0819578" lon="11.8510086"><ele>215.0</ele><time>2026-04-18T08:44:40.035Z</time></trkpt><trkpt lat="42.0820398" lon="11.8511149"><ele>215.0</ele><time>2026-04-18T08:44:47.035Z</time></trkpt><trkpt lat="42.0821305" lon="11.8511996"><ele>215.0</ele><time>2026-04-18T08:44:48.035Z</time></trkpt><trkpt lat="42.0822546" lon="11.8513187"><ele>215.0</ele><time>2026-04-18T08:44:49.036Z</time></trkpt><trkpt lat="42.0823768" lon="11.8514496"><ele>215.75</ele><time>2026-04-18T08:44:50.037Z</time></trkpt><trkpt lat="42.0824736" lon="11.8515699"><ele>216.5</ele><time>2026-04-18T08:44:51.035Z</time></trkpt><trkpt lat="42.0825672" lon="11.8517081"><ele>217.25</ele><time>2026-04-18T08:44:52.035Z</time></trkpt><trkpt lat="42.0826585" lon="11.8518677"><ele>218.0</ele><time>2026-04-18T08:44:53.035Z</time></trkpt><trkpt lat="42.0827455" lon="11.8520319"><ele>218.0</ele><time>2026-04-18T08:44:54.034Z</time></trkpt><trkpt lat="42.0828365" lon="11.8521989"><ele>218.0</ele><time>2026-04-18T08:44:55.035Z</time></trkpt><trkpt lat="42.0829325" lon="11.8523748"><ele>218.0</ele><time>2026-04-18T08:44:56.035Z</time></trkpt><trkpt lat="42.0830227" lon="11.8525456"><ele>219.0</ele><time>2026-04-18T08:44:57.035Z</time></trkpt><trkpt lat="42.0830972" lon="11.8527042"><ele>220.0</ele><time>2026-04-18T08:44:58.035Z</time></trkpt><trkpt lat="42.0831626" lon="11.8528537"><ele>221.0</ele><time>2026-04-18T08:44:59.035Z</time></trkpt><trkpt lat="42.0832168" lon="11.8529801"><ele>222.0</ele><time>2026-04-18T08:45:00.034Z</time></trkpt><trkpt lat="42.083255" lon="11.8530697"><ele>222.5</ele><time>2026-04-18T08:45:01.035Z</time></trkpt><trkpt lat="42.0832786" lon="11.8531489"><ele>223.0</ele><time>2026-04-18T08:45:02.036Z</time></trkpt><trkpt lat="42.0832801" lon="11.8533029"><ele>223.5</ele><time>2026-04-18T08:45:04.034Z</time></trkpt><trkpt lat="42.0832775" lon="11.8533883"><ele>224.0</ele><time>2026-04-18T08:45:07.034Z</time></trkpt><trkpt lat="42.083265" lon="11.8534765"><ele>224.5</ele><time>2026-04-18T08:45:24.035Z</time></trkpt><trkpt lat="42.0832627" lon="11.8535784"><ele>225.0</ele><time>2026-04-18T08:45:42.035Z</time></trkpt><trkpt lat="42.0832443" lon="11.8537058"><ele>223.0</ele><time>2026-04-18T08:45:43.035Z</time></trkpt><trkpt lat="42.0832187" lon="11.8538299"><ele>221.0</ele><time>2026-04-18T08:45:44.035Z</time></trkpt><trkpt lat="42.0831974" lon="11.8539261"><ele>219.0</ele><time>2026-04-18T08:45:45.036Z</time></trkpt><trkpt lat="42.083176" lon="11.8540686"><ele>217.0</ele><time>2026-04-18T08:45:47.035Z</time></trkpt><trkpt lat="42.0831649" lon="11.8542547"><ele>215.0</ele><time>2026-04-18T08:45:49.035Z</time></trkpt><trkpt lat="42.0831544" lon="11.8543889"><ele>212.8</ele><time>2026-04-18T08:45:50.035Z</time></trkpt><trkpt lat="42.0831457" lon="11.8545216"><ele>210.6</ele><time>2026-04-18T08:45:51.036Z</time></trkpt><trkpt lat="42.0831383" lon="11.8546472"><ele>208.39999999999998</ele><time>2026-04-18T08:45:52.035Z</time></trkpt><trkpt lat="42.0831324" lon="11.8547861"><ele>206.2</ele><time>2026-04-18T08:45:53.035Z</time></trkpt><trkpt lat="42.0831286" lon="11.8549396"><ele>204.0</ele><time>2026-04-18T08:45:54.034Z</time></trkpt><trkpt lat="42.0831073" lon="11.8550765"><ele>202.75</ele><time>2026-04-18T08:45:55.036Z</time></trkpt><trkpt lat="42.083066" lon="11.8552408"><ele>201.5</ele><time>2026-04-18T08:45:56.035Z</time></trkpt><trkpt lat="42.0830109" lon="11.8554268"><ele>200.25</ele><time>2026-04-18T08:45:57.035Z</time></trkpt><trkpt lat="42.0829533" lon="11.8555835"><ele>199.0</ele><time>2026-04-18T08:45:58.035Z</time></trkpt><trkpt lat="42.0828943" lon="11.8557164"><ele>198.99999999999997</ele><time>2026-04-18T08:45:59.036Z</time></trkpt><trkpt lat="42.0828504" lon="11.855828"><ele>199.0</ele><time>2026-04-18T08:46:00.035Z</time></trkpt><trkpt lat="42.0828193" lon="11.8559355"><ele>199.0</ele><time>2026-04-18T08:46:01.034Z</time></trkpt><trkpt lat="42.082799" lon="11.8560442"><ele>199.0</ele><time>2026-04-18T08:46:02.035Z</time></trkpt><trkpt lat="42.0827939" lon="11.8561446"><ele>198.99999999999997</ele><time>2026-04-18T08:46:03.035Z</time></trkpt><trkpt lat="42.0828052" lon="11.8562487"><ele>199.0</ele><time>2026-04-18T08:46:04.034Z</time></trkpt><trkpt lat="42.0828329" lon="11.8563736"><ele>197.79999999999998</ele><time>2026-04-18T08:46:05.036Z</time></trkpt><trkpt lat="42.0828746" lon="11.8565136"><ele>196.6</ele><time>2026-04-18T08:46:06.035Z</time></trkpt><trkpt lat="42.0829228" lon="11.8566482"><ele>195.4</ele><time>2026-04-18T08:46:07.037Z</time></trkpt><trkpt lat="42.082979" lon="11.8567508"><ele>194.2</ele><time>2026-04-18T08:46:08.035Z</time></trkpt><trkpt lat="42.0830547" lon="11.8568381"><ele>193.0</ele><time>2026-04-18T08:46:09.036Z</time></trkpt><trkpt lat="42.0831577" lon="11.8569342"><ele>193.0</ele><time>2026-04-18T08:46:10.036Z</time></trkpt><trkpt lat="42.0832536" lon="11.8570293"><ele>193.0</ele><time>2026-04-18T08:46:11.035Z</time></trkpt><trkpt lat="42.0833337" lon="11.8571069"><ele>193.0</ele><time>2026-04-18T08:46:12.035Z</time></trkpt><trkpt lat="42.0834097" lon="11.8571815"><ele>193.0</ele><time>2026-04-18T08:46:13.035Z</time></trkpt><trkpt lat="42.0835047" lon="11.8572508"><ele>193.0</ele><time>2026-04-18T08:46:14.035Z</time></trkpt><trkpt lat="42.0836271" lon="11.8573086"><ele>193.0</ele><time>2026-04-18T08:46:15.035Z</time></trkpt><trkpt lat="42.083751" lon="11.8573468"><ele>193.0</ele><time>2026-04-18T08:46:16.035Z</time></trkpt><trkpt lat="42.0838681" lon="11.8573764"><ele>193.0</ele><time>2026-04-18T08:46:17.035Z</time></trkpt><trkpt lat="42.0839684" lon="11.8574047"><ele>193.0</ele><time>2026-04-18T08:46:18.035Z</time></trkpt><trkpt lat="42.0840418" lon="11.8574218"><ele>193.0</ele><time>2026-04-18T08:46:19.035Z</time></trkpt><trkpt lat="42.0841356" lon="11.8574256"><ele>194.4</ele><time>2026-04-18T08:46:21.036Z</time></trkpt><trkpt lat="42.0842164" lon="11.8574395"><ele>195.8</ele><time>2026-04-18T08:46:23.034Z</time></trkpt><trkpt lat="42.0843056" lon="11.857458"><ele>197.2</ele><time>2026-04-18T08:46:25.034Z</time></trkpt><trkpt lat="42.0843749" lon="11.8575203"><ele>198.6</ele><time>2026-04-18T08:46:27.035Z</time></trkpt><trkpt lat="42.084351" lon="11.8576313"><ele>200.0</ele><time>2026-04-18T08:46:29.035Z</time></trkpt><trkpt lat="42.0842909" lon="11.8577894"><ele>200.0</ele><time>2026-04-18T08:46:31.037Z</time></trkpt><trkpt lat="42.0842103" lon="11.8579206"><ele>200.0</ele><time>2026-04-18T08:46:32.034Z</time></trkpt><trkpt lat="42.0841793" lon="11.8580189"><ele>200.0</ele><time>2026-04-18T08:46:33.034Z</time></trkpt><trkpt lat="42.0840995" lon="11.8581409"><ele>200.0</ele><time>2026-04-18T08:46:34.034Z</time></trkpt><trkpt lat="42.0840357" lon="11.8582471"><ele>200.0</ele><time>2026-04-18T08:46:35.035Z</time></trkpt><trkpt lat="42.0839855" lon="11.8583509"><ele>197.4</ele><time>2026-04-18T08:46:36.035Z</time></trkpt><trkpt lat="42.0839555" lon="11.8584399"><ele>194.8</ele><time>2026-04-18T08:46:37.035Z</time></trkpt><trkpt lat="42.083918" lon="11.8585934"><ele>192.2</ele><time>2026-04-18T08:46:39.034Z</time></trkpt><trkpt lat="42.0839355" lon="11.858735"><ele>189.6</ele><time>2026-04-18T08:46:41.035Z</time></trkpt><trkpt lat="42.0840281" lon="11.8588513"><ele>187.0</ele><time>2026-04-18T08:46:43.037Z</time></trkpt><trkpt lat="42.0841067" lon="11.8589411"><ele>187.0</ele><time>2026-04-18T08:46:44.036Z</time></trkpt><trkpt lat="42.0842016" lon="11.8590478"><ele>187.0</ele><time>2026-04-18T08:46:45.034Z</time></trkpt><trkpt lat="42.0842823" lon="11.8591664"><ele>187.0</ele><time>2026-04-18T08:46:46.035Z</time></trkpt><trkpt lat="42.0843451" lon="11.8592852"><ele>187.0</ele><time>2026-04-18T08:46:47.035Z</time></trkpt><trkpt lat="42.0843789" lon="11.8594067"><ele>187.0</ele><time>2026-04-18T08:46:48.035Z</time></trkpt><trkpt lat="42.0844069" lon="11.8595335"><ele>183.83333333333334</ele><time>2026-04-18T08:46:49.035Z</time></trkpt><trkpt lat="42.0844254" lon="11.8596542"><ele>180.66666666666669</ele><time>2026-04-18T08:46:50.035Z</time></trkpt><trkpt lat="42.0844355" lon="11.8597712"><ele>177.5</ele><time>2026-04-18T08:46:51.034Z</time></trkpt><trkpt lat="42.0844353" lon="11.8598646"><ele>174.33333333333334</ele><time>2026-04-18T08:46:52.034Z</time></trkpt><trkpt lat="42.0844549" lon="11.8600061"><ele>171.16666666666666</ele><time>2026-04-18T08:46:54.034Z</time></trkpt><trkpt lat="42.0845131" lon="11.8600476"><ele>168.0</ele><time>2026-04-18T08:46:55.035Z</time></trkpt><trkpt lat="42.084594" lon="11.8600817"><ele>168.0</ele><time>2026-04-18T08:46:56.034Z</time></trkpt><trkpt lat="42.0846858" lon="11.8601138"><ele>168.0</ele><time>2026-04-18T08:46:57.034Z</time></trkpt><trkpt lat="42.0847711" lon="11.8601395"><ele>168.0</ele><time>2026-04-18T08:46:58.035Z</time></trkpt><trkpt lat="42.0848485" lon="11.8601674"><ele>168.0</ele><time>2026-04-18T08:46:59.034Z</time></trkpt><trkpt lat="42.0849401" lon="11.8601971"><ele>168.0</ele><time>2026-04-18T08:47:00.036Z</time></trkpt><trkpt lat="42.0850404" lon="11.8602224"><ele>166.0</ele><time>2026-04-18T08:47:01.034Z</time></trkpt><trkpt lat="42.0851246" lon="11.8602336"><ele>164.0</ele><time>2026-04-18T08:47:02.034Z</time></trkpt><trkpt lat="42.0852035" lon="11.8602443"><ele>162.0</ele><time>2026-04-18T08:47:03.035Z</time></trkpt><trkpt lat="42.085276" lon="11.8602636"><ele>160.0</ele><time>2026-04-18T08:47:04.035Z</time></trkpt><trkpt lat="42.0853452" lon="11.8602931"><ele>158.0</ele><time>2026-04-18T08:47:05.035Z</time></trkpt><trkpt lat="42.0854233" lon="11.8603458"><ele>156.0</ele><time>2026-04-18T08:47:06.035Z</time></trkpt><trkpt lat="42.0855034" lon="11.8604338"><ele>156.0</ele><time>2026-04-18T08:47:07.035Z</time></trkpt><trkpt lat="42.0855797" lon="11.8605509"><ele>156.0</ele><time>2026-04-18T08:47:08.035Z</time></trkpt><trkpt lat="42.0856611" lon="11.8606928"><ele>156.0</ele><time>2026-04-18T08:47:09.036Z</time></trkpt><trkpt lat="42.0857402" lon="11.8608435"><ele>156.0</ele><time>2026-04-18T08:47:10.035Z</time></trkpt><trkpt lat="42.085827" lon="11.8609944"><ele>154.75</ele><time>2026-04-18T08:47:11.035Z</time></trkpt><trkpt lat="42.0859241" lon="11.8611444"><ele>153.5</ele><time>2026-04-18T08:47:12.035Z</time></trkpt><trkpt lat="42.0860175" lon="11.8612937"><ele>152.25</ele><time>2026-04-18T08:47:13.034Z</time></trkpt><trkpt lat="42.0860919" lon="11.8614206"><ele>151.0</ele><time>2026-04-18T08:47:14.034Z</time></trkpt><trkpt lat="42.0861667" lon="11.8615235"><ele>151.0</ele><time>2026-04-18T08:47:15.036Z</time></trkpt><trkpt lat="42.0862333" lon="11.8616265"><ele>151.0</ele><time>2026-04-18T08:47:16.034Z</time></trkpt><trkpt lat="42.0862774" lon="11.8617246"><ele>151.0</ele><time>2026-04-18T08:47:17.035Z</time></trkpt><trkpt lat="42.0862995" lon="11.8618109"><ele>151.0</ele><time>2026-04-18T08:47:18.035Z</time></trkpt><trkpt lat="42.0862936" lon="11.8619672"><ele>151.0</ele><time>2026-04-18T08:47:20.035Z</time></trkpt><trkpt lat="42.0862864" lon="11.8620634"><ele>151.0</ele><time>2026-04-18T08:47:21.035Z</time></trkpt><trkpt lat="42.0862664" lon="11.8622241"><ele>149.71428571428572</ele><time>2026-04-18T08:47:23.036Z</time></trkpt><trkpt lat="42.0862515" lon="11.8623083"><ele>148.42857142857144</ele><time>2026-04-18T08:47:24.034Z</time></trkpt><trkpt lat="42.0862367" lon="11.8624015"><ele>147.14285714285714</ele><time>2026-04-18T08:47:25.035Z</time></trkpt><trkpt lat="42.086217" lon="11.8624956"><ele>145.85714285714286</ele><time>2026-04-18T08:47:26.035Z</time></trkpt><trkpt lat="42.0861961" lon="11.8625849"><ele>144.57142857142856</ele><time>2026-04-18T08:47:27.035Z</time></trkpt><trkpt lat="42.086163" lon="11.8626614"><ele>143.28571428571428</ele><time>2026-04-18T08:47:28.035Z</time></trkpt><trkpt lat="42.0861112" lon="11.8627149"><ele>142.0</ele><time>2026-04-18T08:47:29.034Z</time></trkpt><trkpt lat="42.0860491" lon="11.8627487"><ele>141.33333333333334</ele><time>2026-04-18T08:47:30.035Z</time></trkpt><trkpt lat="42.0859838" lon="11.8627635"><ele>140.66666666666669</ele><time>2026-04-18T08:47:31.035Z</time></trkpt><trkpt lat="42.0859111" lon="11.8627549"><ele>140.0</ele><time>2026-04-18T08:47:32.035Z</time></trkpt><trkpt lat="42.0858253" lon="11.8627463"><ele>139.33333333333334</ele><time>2026-04-18T08:47:33.034Z</time></trkpt><trkpt lat="42.085735" lon="11.8627544"><ele>138.66666666666666</ele><time>2026-04-18T08:47:34.035Z</time></trkpt><trkpt lat="42.0856573" lon="11.8627614"><ele>138.0</ele><time>2026-04-18T08:47:35.034Z</time></trkpt><trkpt lat="42.0855897" lon="11.8627644"><ele>137.0</ele><time>2026-04-18T08:47:36.034Z</time></trkpt><trkpt lat="42.0854937" lon="11.8626788"><ele>136.0</ele><time>2026-04-18T08:47:38.034Z</time></trkpt><trkpt lat="42.085442" lon="11.8626047"><ele>135.0</ele><time>2026-04-18T08:47:39.035Z</time></trkpt><trkpt lat="42.0853781" lon="11.8625359"><ele>134.0</ele><time>2026-04-18T08:47:40.035Z</time></trkpt><trkpt lat="42.0853021" lon="11.8624823"><ele>133.0</ele><time>2026-04-18T08:47:41.034Z</time></trkpt><trkpt lat="42.0852209" lon="11.8624496"><ele>132.0</ele><time>2026-04-18T08:47:42.035Z</time></trkpt><trkpt lat="42.0851281" lon="11.8624186"><ele>132.0</ele><time>2026-04-18T08:47:43.034Z</time></trkpt><trkpt lat="42.0850236" lon="11.8623957"><ele>132.0</ele><time>2026-04-18T08:47:44.034Z</time></trkpt><trkpt lat="42.0849245" lon="11.8623982"><ele>132.0</ele><time>2026-04-18T08:47:45.035Z</time></trkpt><trkpt lat="42.0848389" lon="11.8623873"><ele>132.0</ele><time>2026-04-18T08:47:46.035Z</time></trkpt><trkpt lat="42.0847651" lon="11.8623473"><ele>132.0</ele><time>2026-04-18T08:47:47.035Z</time></trkpt><trkpt lat="42.0846995" lon="11.8622744"><ele>130.5</ele><time>2026-04-18T08:47:48.036Z</time></trkpt><trkpt lat="42.0846055" lon="11.8622125"><ele>129.0</ele><time>2026-04-18T08:47:49.034Z</time></trkpt><trkpt lat="42.0845312" lon="11.8621638"><ele>127.5</ele><time>2026-04-18T08:47:50.035Z</time></trkpt><trkpt lat="42.0844486" lon="11.8621203"><ele>126.0</ele><time>2026-04-18T08:47:51.035Z</time></trkpt><trkpt lat="42.0843815" lon="11.8620945"><ele>124.5</ele><time>2026-04-18T08:47:52.035Z</time></trkpt><trkpt lat="42.0843194" lon="11.8620782"><ele>123.0</ele><time>2026-04-18T08:47:53.035Z</time></trkpt><trkpt lat="42.0842389" lon="11.8620325"><ele>123.00000000000001</ele><time>2026-04-18T08:47:55.034Z</time></trkpt><trkpt lat="42.0841746" lon="11.8620126"><ele>123.0</ele><time>2026-04-18T08:47:57.034Z</time></trkpt><trkpt lat="42.084107" lon="11.8620116"><ele>123.00000000000001</ele><time>2026-04-18T08:48:00.034Z</time></trkpt><trkpt lat="42.0840216" lon="11.8620713"><ele>123.00000000000001</ele><time>2026-04-18T08:48:03.035Z</time></trkpt><trkpt lat="42.0839761" lon="11.8621303"><ele>123.0</ele><time>2026-04-18T08:48:05.035Z</time></trkpt><trkpt lat="42.0839099" lon="11.8621481"><ele>123.00000000000001</ele><time>2026-04-18T08:48:08.034Z</time></trkpt><trkpt lat="42.0838455" lon="11.8622166"><ele>123.00000000000001</ele><time>2026-04-18T08:48:14.035Z</time></trkpt><trkpt lat="42.0837376" lon="11.8622285"><ele>121.5</ele><time>2026-04-18T08:48:16.034Z</time></trkpt><trkpt lat="42.0836683" lon="11.8622909"><ele>120.0</ele><time>2026-04-18T08:48:18.034Z</time></trkpt><trkpt lat="42.0836123" lon="11.8623742"><ele>118.5</ele><time>2026-04-18T08:48:19.035Z</time></trkpt><trkpt lat="42.083552" lon="11.8624294"><ele>117.0</ele><time>2026-04-18T08:48:20.034Z</time></trkpt><trkpt lat="42.0834878" lon="11.8624585"><ele>115.5</ele><time>2026-04-18T08:48:21.035Z</time></trkpt><trkpt lat="42.0834205" lon="11.8624874"><ele>114.0</ele><time>2026-04-18T08:48:22.034Z</time></trkpt><trkpt lat="42.0833439" lon="11.8625148"><ele>114.0</ele><time>2026-04-18T08:48:23.035Z</time></trkpt><trkpt lat="42.0832806" lon="11.8625581"><ele>114.0</ele><time>2026-04-18T08:48:24.034Z</time></trkpt><trkpt lat="42.0832263" lon="11.8626025"><ele>114.0</ele><time>2026-04-18T08:48:25.034Z</time></trkpt><trkpt lat="42.0831741" lon="11.862706"><ele>114.0</ele><time>2026-04-18T08:48:27.035Z</time></trkpt><trkpt lat="42.08319" lon="11.8628445"><ele>114.0</ele><time>2026-04-18T08:48:29.035Z</time></trkpt><trkpt lat="42.0832109" lon="11.8629673"><ele>114.0</ele><time>2026-04-18T08:48:31.035Z</time></trkpt><trkpt lat="42.0832127" lon="11.8630537"><ele>111.2</ele><time>2026-04-18T08:48:32.034Z</time></trkpt><trkpt lat="42.0832299" lon="11.8632075"><ele>108.4</ele><time>2026-04-18T08:48:34.036Z</time></trkpt><trkpt lat="42.0832319" lon="11.8633417"><ele>105.6</ele><time>2026-04-18T08:48:36.034Z</time></trkpt><trkpt lat="42.0832472" lon="11.863466"><ele>102.8</ele><time>2026-04-18T08:48:38.034Z</time></trkpt><trkpt lat="42.0832775" lon="11.8635802"><ele>100.0</ele><time>2026-04-18T08:48:40.034Z</time></trkpt><trkpt lat="42.0833051" lon="11.8637077"><ele>100.00000000000001</ele><time>2026-04-18T08:48:42.034Z</time></trkpt><trkpt lat="42.0833164" lon="11.863805"><ele>100.0</ele><time>2026-04-18T08:48:43.034Z</time></trkpt><trkpt lat="42.0833237" lon="11.8639104"><ele>100.0</ele><time>2026-04-18T08:48:44.035Z</time></trkpt><trkpt lat="42.0833331" lon="11.8640134"><ele>100.0</ele><time>2026-04-18T08:48:45.034Z</time></trkpt><trkpt lat="42.0833478" lon="11.8641239"><ele>100.00000000000001</ele><time>2026-04-18T08:48:46.035Z</time></trkpt><trkpt lat="42.0833657" lon="11.864235"><ele>100.0</ele><time>2026-04-18T08:48:47.035Z</time></trkpt><trkpt lat="42.0833843" lon="11.8643244"><ele>99.50000000000001</ele><time>2026-04-18T08:48:48.034Z</time></trkpt><trkpt lat="42.0833937" lon="11.8644176"><ele>99.0</ele><time>2026-04-18T08:48:50.036Z</time></trkpt><trkpt lat="42.0833346" lon="11.8644543"><ele>98.5</ele><time>2026-04-18T08:48:53.034Z</time></trkpt><trkpt lat="42.0832572" lon="11.8644539"><ele>98.0</ele><time>2026-04-18T08:48:55.034Z</time></trkpt><trkpt lat="42.0831464" lon="11.8644497"><ele>97.50000000000001</ele><time>2026-04-18T08:48:57.034Z</time></trkpt><trkpt lat="42.0830528" lon="11.864478"><ele>97.0</ele><time>2026-04-18T08:48:59.035Z</time></trkpt><trkpt lat="42.083083" lon="11.8645789"><ele>97.0</ele><time>2026-04-18T08:49:30.035Z</time></trkpt><trkpt lat="42.0831155" lon="11.8646572"><ele>97.0</ele><time>2026-04-18T08:49:32.034Z</time></trkpt><trkpt lat="42.0831248" lon="11.8647465"><ele>97.0</ele><time>2026-04-18T08:49:34.034Z</time></trkpt><trkpt lat="42.0831099" lon="11.864834"><ele>97.0</ele><time>2026-04-18T08:49:37.035Z</time></trkpt><trkpt lat="42.0830974" lon="11.8649246"><ele>97.0</ele><time>2026-04-18T08:49:39.034Z</time></trkpt><trkpt lat="42.08313" lon="11.8650041"><ele>97.0</ele><time>2026-04-18T08:49:41.034Z</time></trkpt><trkpt lat="42.0832041" lon="11.8650489"><ele>97.0</ele><time>2026-04-18T08:49:43.034Z</time></trkpt><trkpt lat="42.083281" lon="11.8650952"><ele>97.50000000000001</ele><time>2026-04-18T08:49:45.035Z</time></trkpt><trkpt lat="42.0833528" lon="11.8651319"><ele>98.0</ele><time>2026-04-18T08:49:47.034Z</time></trkpt><trkpt lat="42.0834322" lon="11.8651978"><ele>98.5</ele><time>2026-04-18T08:49:49.034Z</time></trkpt><trkpt lat="42.0834998" lon="11.8652431"><ele>99.0</ele><time>2026-04-18T08:49:53.036Z</time></trkpt><trkpt lat="42.0835523" lon="11.8651878"><ele>99.50000000000001</ele><time>2026-04-18T08:49:55.034Z</time></trkpt><trkpt lat="42.0835851" lon="11.8651001"><ele>100.0</ele><time>2026-04-18T08:49:57.034Z</time></trkpt><trkpt lat="42.0834875" lon="11.8651619"><ele>100.00000000000001</ele><time>2026-04-18T08:49:58.034Z</time></trkpt><trkpt lat="42.0835119" lon="11.8652532"><ele>100.0</ele><time>2026-04-18T08:50:28.035Z</time></trkpt><trkpt lat="42.0835423" lon="11.8653332"><ele>100.0</ele><time>2026-04-18T08:50:32.041Z</time></trkpt><trkpt lat="42.0834543" lon="11.8653953"><ele>100.0</ele><time>2026-04-18T08:51:08.034Z</time></trkpt><trkpt lat="42.0834202" lon="11.8654823"><ele>100.00000000000001</ele><time>2026-04-18T08:51:12.034Z</time></trkpt><trkpt lat="42.0833663" lon="11.8655503"><ele>100.0</ele><time>2026-04-18T08:51:26.034Z</time></trkpt><trkpt lat="42.0833263" lon="11.8656654"><ele>100.00000000000001</ele><time>2026-04-18T08:51:28.034Z</time></trkpt><trkpt lat="42.0832961" lon="11.8657638"><ele>100.0</ele><time>2026-04-18T08:51:31.035Z</time></trkpt><trkpt lat="42.0832651" lon="11.865845"><ele>100.0</ele><time>2026-04-18T08:51:33.034Z</time></trkpt><trkpt lat="42.0832233" lon="11.8659689"><ele>100.0</ele><time>2026-04-18T08:51:35.034Z</time></trkpt><trkpt lat="42.0831939" lon="11.8660821"><ele>100.00000000000001</ele><time>2026-04-18T08:51:37.034Z</time></trkpt><trkpt lat="42.0831454" lon="11.8661946"><ele>100.0</ele><time>2026-04-18T08:51:39.034Z</time></trkpt><trkpt lat="42.0830882" lon="11.866249"><ele>104.4</ele><time>2026-04-18T08:51:41.034Z</time></trkpt><trkpt lat="42.0829976" lon="11.8662771"><ele>108.8</ele><time>2026-04-18T08:51:53.034Z</time></trkpt><trkpt lat="42.0829228" lon="11.8663104"><ele>113.19999999999999</ele><time>2026-04-18T08:51:55.036Z</time></trkpt><trkpt lat="42.0828249" lon="11.8663392"><ele>117.6</ele><time>2026-04-18T08:51:58.034Z</time></trkpt><trkpt lat="42.0827543" lon="11.8663522"><ele>122.0</ele><time>2026-04-18T08:52:02.036Z</time></trkpt><trkpt lat="42.0826414" lon="11.8663497"><ele>122.0</ele><time>2026-04-18T08:52:05.034Z</time></trkpt><trkpt lat="42.0825285" lon="11.8663427"><ele>121.99999999999999</ele><time>2026-04-18T08:52:07.034Z</time></trkpt><trkpt lat="42.0824246" lon="11.8663193"><ele>121.99999999999999</ele><time>2026-04-18T08:52:09.034Z</time></trkpt><trkpt lat="42.0823293" lon="11.866258"><ele>122.0</ele><time>2026-04-18T08:52:11.035Z</time></trkpt><trkpt lat="42.0822787" lon="11.8662069"><ele>122.0</ele><time>2026-04-18T08:52:12.034Z</time></trkpt><trkpt lat="42.0822224" lon="11.8661465"><ele>122.39999999999999</ele><time>2026-04-18T08:52:14.034Z</time></trkpt><trkpt lat="42.0822183" lon="11.8660293"><ele>122.79999999999998</ele><time>2026-04-18T08:52:17.035Z</time></trkpt><trkpt lat="42.0821796" lon="11.8659272"><ele>123.2</ele><time>2026-04-18T08:52:19.035Z</time></trkpt><trkpt lat="42.0821724" lon="11.8658052"><ele>123.6</ele><time>2026-04-18T08:52:22.035Z</time></trkpt><trkpt lat="42.082162" lon="11.8656809"><ele>124.0</ele><time>2026-04-18T08:52:24.004Z</time></trkpt><trkpt lat="42.0821013" lon="11.8655789"><ele>124.0</ele><time>2026-04-18T08:52:26.033Z</time></trkpt><trkpt lat="42.0820284" lon="11.8655717"><ele>124.0</ele><time>2026-04-18T08:52:28.035Z</time></trkpt><trkpt lat="42.0819351" lon="11.8655655"><ele>124.0</ele><time>2026-04-18T08:52:30.033Z</time></trkpt><trkpt lat="42.0818652" lon="11.8655881"><ele>124.0</ele><time>2026-04-18T08:52:31.034Z</time></trkpt><trkpt lat="42.0817534" lon="11.8655398"><ele>124.0</ele><time>2026-04-18T08:52:33.033Z</time></trkpt><trkpt lat="42.0816759" lon="11.8654563"><ele>125.00000000000001</ele><time>2026-04-18T08:52:35.034Z</time></trkpt><trkpt lat="42.0815842" lon="11.8654005"><ele>126.0</ele><time>2026-04-18T08:52:37.034Z</time></trkpt><trkpt lat="42.0815238" lon="11.8654366"><ele>127.0</ele><time>2026-04-18T08:52:48.034Z</time></trkpt><trkpt lat="42.0814402" lon="11.8654908"><ele>128.0</ele><time>2026-04-18T08:52:51.034Z</time></trkpt><trkpt lat="42.0813718" lon="11.8655277"><ele>129.0</ele><time>2026-04-18T08:52:53.033Z</time></trkpt><trkpt lat="42.0812862" lon="11.865578"><ele>130.0</ele><time>2026-04-18T08:52:55.035Z</time></trkpt><trkpt lat="42.0812141" lon="11.8656054"><ele>130.0</ele><time>2026-04-18T08:52:57.034Z</time></trkpt><trkpt lat="42.0810873" lon="11.8656143"><ele>130.0</ele><time>2026-04-18T08:52:59.034Z</time></trkpt><trkpt lat="42.0810136" lon="11.8656201"><ele>130.0</ele><time>2026-04-18T08:53:00.033Z</time></trkpt><trkpt lat="42.0809495" lon="11.8656332"><ele>130.0</ele><time>2026-04-18T08:53:01.034Z</time></trkpt><trkpt lat="42.0808455" lon="11.8656391"><ele>130.0</ele><time>2026-04-18T08:53:03.034Z</time></trkpt><trkpt lat="42.0807702" lon="11.8656498"><ele>130.0</ele><time>2026-04-18T08:53:05.033Z</time></trkpt><trkpt lat="42.080691" lon="11.8656703"><ele>131.0</ele><time>2026-04-18T08:53:34.034Z</time></trkpt><trkpt lat="42.0805655" lon="11.8657181"><ele>132.0</ele><time>2026-04-18T08:53:36.033Z</time></trkpt><trkpt lat="42.080489" lon="11.8657371"><ele>133.0</ele><time>2026-04-18T08:53:37.033Z</time></trkpt><trkpt lat="42.0804135" lon="11.8657484"><ele>134.0</ele><time>2026-04-18T08:53:38.033Z</time></trkpt><trkpt lat="42.080338" lon="11.8657566"><ele>135.0</ele><time>2026-04-18T08:53:39.035Z</time></trkpt><trkpt lat="42.0802138" lon="11.8657889"><ele>135.0</ele><time>2026-04-18T08:53:41.034Z</time></trkpt><trkpt lat="42.0801416" lon="11.8658066"><ele>135.0</ele><time>2026-04-18T08:53:42.035Z</time></trkpt><trkpt lat="42.0800696" lon="11.865826"><ele>135.0</ele><time>2026-04-18T08:53:43.034Z</time></trkpt><trkpt lat="42.0799628" lon="11.8658232"><ele>135.0</ele><time>2026-04-18T08:53:45.033Z</time></trkpt><trkpt lat="42.0798736" lon="11.8658588"><ele>135.0</ele><time>2026-04-18T08:53:47.034Z</time></trkpt><trkpt lat="42.0798073" lon="11.8659662"><ele>136.0</ele><time>2026-04-18T08:53:49.034Z</time></trkpt><trkpt lat="42.0797874" lon="11.8660509"><ele>137.0</ele><time>2026-04-18T08:53:50.034Z</time></trkpt><trkpt lat="42.0797696" lon="11.866137"><ele>138.0</ele><time>2026-04-18T08:53:51.035Z</time></trkpt><trkpt lat="42.0797378" lon="11.8662814"><ele>139.0</ele><time>2026-04-18T08:53:53.035Z</time></trkpt><trkpt lat="42.0797396" lon="11.8663819"><ele>140.0</ele><time>2026-04-18T08:53:55.034Z</time></trkpt><trkpt lat="42.07984" lon="11.8664421"><ele>141.0</ele><time>2026-04-18T08:53:57.034Z</time></trkpt><trkpt lat="42.0799393" lon="11.866441"><ele>141.66666666666666</ele><time>2026-04-18T08:53:58.033Z</time></trkpt><trkpt lat="42.0800316" lon="11.8664416"><ele>142.33333333333334</ele><time>2026-04-18T08:53:59.033Z</time></trkpt><trkpt lat="42.0801014" lon="11.8664615"><ele>143.0</ele><time>2026-04-18T08:54:00.034Z</time></trkpt><trkpt lat="42.0801535" lon="11.8665206"><ele>143.66666666666669</ele><time>2026-04-18T08:54:01.034Z</time></trkpt><trkpt lat="42.0801963" lon="11.8666034"><ele>144.33333333333334</ele><time>2026-04-18T08:54:02.034Z</time></trkpt><trkpt lat="42.080228" lon="11.8666928"><ele>145.0</ele><time>2026-04-18T08:54:03.033Z</time></trkpt><trkpt lat="42.0802345" lon="11.8668669"><ele>146.33333333333334</ele><time>2026-04-18T08:54:05.033Z</time></trkpt><trkpt lat="42.0802248" lon="11.8669815"><ele>147.66666666666669</ele><time>2026-04-18T08:54:06.034Z</time></trkpt><trkpt lat="42.0802069" lon="11.8671085"><ele>149.0</ele><time>2026-04-18T08:54:07.033Z</time></trkpt><trkpt lat="42.0801932" lon="11.8672211"><ele>150.33333333333334</ele><time>2026-04-18T08:54:08.035Z</time></trkpt><trkpt lat="42.0801888" lon="11.8673208"><ele>151.66666666666666</ele><time>2026-04-18T08:54:09.033Z</time></trkpt><trkpt lat="42.0801879" lon="11.8674217"><ele>153.0</ele><time>2026-04-18T08:54:10.034Z</time></trkpt><trkpt lat="42.080187" lon="11.8675379"><ele>154.0</ele><time>2026-04-18T08:54:11.034Z</time></trkpt><trkpt lat="42.0801852" lon="11.8676625"><ele>155.0</ele><time>2026-04-18T08:54:12.033Z</time></trkpt><trkpt lat="42.0801831" lon="11.8677791"><ele>156.0</ele><time>2026-04-18T08:54:13.034Z</time></trkpt><trkpt lat="42.0801799" lon="11.8678728"><ele>157.0</ele><time>2026-04-18T08:54:14.034Z</time></trkpt><trkpt lat="42.0801649" lon="11.8679659"><ele>158.0</ele><time>2026-04-18T08:54:15.034Z</time></trkpt><trkpt lat="42.0801319" lon="11.8680588"><ele>159.0</ele><time>2026-04-18T08:54:16.034Z</time></trkpt><trkpt lat="42.0800953" lon="11.8681434"><ele>159.0</ele><time>2026-04-18T08:54:17.034Z</time></trkpt><trkpt lat="42.0800402" lon="11.8682572"><ele>159.0</ele><time>2026-04-18T08:54:19.033Z</time></trkpt><trkpt lat="42.0800316" lon="11.8683625"><ele>159.0</ele><time>2026-04-18T08:54:24.034Z</time></trkpt><trkpt lat="42.0799897" lon="11.8684402"><ele>159.0</ele><time>2026-04-18T08:54:26.033Z</time></trkpt><trkpt lat="42.0799273" lon="11.8685678"><ele>159.0</ele><time>2026-04-18T08:54:28.034Z</time></trkpt><trkpt lat="42.0798772" lon="11.8687121"><ele>160.5</ele><time>2026-04-18T08:54:30.033Z</time></trkpt><trkpt lat="42.0798524" lon="11.8687969"><ele>162.0</ele><time>2026-04-18T08:54:31.034Z</time></trkpt><trkpt lat="42.0798263" lon="11.868897"><ele>163.5</ele><time>2026-04-18T08:54:32.034Z</time></trkpt><trkpt lat="42.0798007" lon="11.8689859"><ele>165.0</ele><time>2026-04-18T08:54:33.034Z</time></trkpt><trkpt lat="42.0797728" lon="11.8690655"><ele>166.5</ele><time>2026-04-18T08:54:34.035Z</time></trkpt><trkpt lat="42.0797257" lon="11.8692072"><ele>168.0</ele><time>2026-04-18T08:54:36.033Z</time></trkpt><trkpt lat="42.0796648" lon="11.8693437"><ele>169.42857142857142</ele><time>2026-04-18T08:54:38.033Z</time></trkpt><trkpt lat="42.0796229" lon="11.8694105"><ele>170.85714285714286</ele><time>2026-04-18T08:54:39.034Z</time></trkpt><trkpt lat="42.0795728" lon="11.8695062"><ele>172.28571428571428</ele><time>2026-04-18T08:54:41.034Z</time></trkpt><trkpt lat="42.0795366" lon="11.8695858"><ele>173.71428571428572</ele><time>2026-04-18T08:54:44.034Z</time></trkpt><trkpt lat="42.0795205" lon="11.8696769"><ele>175.14285714285714</ele><time>2026-04-18T08:54:59.033Z</time></trkpt><trkpt lat="42.0794868" lon="11.869773"><ele>176.57142857142856</ele><time>2026-04-18T08:55:01.033Z</time></trkpt><trkpt lat="42.0794452" lon="11.8698519"><ele>178.0</ele><time>2026-04-18T08:55:03.034Z</time></trkpt><trkpt lat="42.0794129" lon="11.8699277"><ele>178.0</ele><time>2026-04-18T08:55:32.034Z</time></trkpt><trkpt lat="42.0794046" lon="11.8700155"><ele>178.0</ele><time>2026-04-18T08:55:35.035Z</time></trkpt><trkpt lat="42.079444" lon="11.8701035"><ele>178.0</ele><time>2026-04-18T08:55:37.033Z</time></trkpt><trkpt lat="42.0795006" lon="11.8701473"><ele>178.0</ele><time>2026-04-18T08:55:39.034Z</time></trkpt><trkpt lat="42.07959" lon="11.8701947"><ele>178.0</ele><time>2026-04-18T08:55:41.033Z</time></trkpt><trkpt lat="42.0796834" lon="11.8702788"><ele>178.0</ele><time>2026-04-18T08:55:43.035Z</time></trkpt><trkpt lat="42.0797768" lon="11.870326"><ele>180.66666666666669</ele><time>2026-04-18T08:55:45.033Z</time></trkpt><trkpt lat="42.0798508" lon="11.8703786"><ele>183.33333333333334</ele><time>2026-04-18T08:55:47.035Z</time></trkpt><trkpt lat="42.0799209" lon="11.8704249"><ele>186.0</ele><time>2026-04-18T08:55:49.035Z</time></trkpt><trkpt lat="42.0800064" lon="11.8704803"><ele>188.66666666666669</ele><time>2026-04-18T08:58:22.033Z</time></trkpt><trkpt lat="42.0800837" lon="11.8704828"><ele>191.33333333333334</ele><time>2026-04-18T08:58:23.033Z</time></trkpt><trkpt lat="42.0801551" lon="11.8704833"><ele>194.0</ele><time>2026-04-18T08:58:24.034Z</time></trkpt><trkpt lat="42.0802427" lon="11.8704828"><ele>194.0</ele><time>2026-04-18T08:58:26.033Z</time></trkpt><trkpt lat="42.080332" lon="11.8705369"><ele>194.0</ele><time>2026-04-18T09:00:13.033Z</time></trkpt><trkpt lat="42.0804253" lon="11.8705706"><ele>194.0</ele><time>2026-04-18T09:00:15.033Z</time></trkpt><trkpt lat="42.0805282" lon="11.8706495"><ele>194.0</ele><time>2026-04-18T09:00:17.032Z</time></trkpt><trkpt lat="42.0805826" lon="11.8707355"><ele>194.0</ele><time>2026-04-18T09:00:18.032Z</time></trkpt><trkpt lat="42.0806338" lon="11.8708375"><ele>194.0</ele><time>2026-04-18T09:00:19.032Z</time></trkpt><trkpt lat="42.0806751" lon="11.8709265"><ele>194.0</ele><time>2026-04-18T09:00:20.034Z</time></trkpt><trkpt lat="42.0807437" lon="11.8709837"><ele>194.0</ele><time>2026-04-18T09:00:22.032Z</time></trkpt><trkpt lat="42.080836" lon="11.8709017"><ele>194.0</ele><time>2026-04-18T09:00:25.032Z</time></trkpt><trkpt lat="42.0808729" lon="11.8708218"><ele>194.0</ele><time>2026-04-18T09:00:26.033Z</time></trkpt><trkpt lat="42.0809679" lon="11.8707263"><ele>194.75</ele><time>2026-04-18T09:00:28.033Z</time></trkpt><trkpt lat="42.0810543" lon="11.8706338"><ele>195.5</ele><time>2026-04-18T09:00:30.033Z</time></trkpt><trkpt lat="42.0811501" lon="11.8705416"><ele>196.25</ele><time>2026-04-18T09:00:32.033Z</time></trkpt><trkpt lat="42.0812519" lon="11.8705076"><ele>197.0</ele><time>2026-04-18T09:00:34.032Z</time></trkpt><trkpt lat="42.0813632" lon="11.8704472"><ele>197.0</ele><time>2026-04-18T09:00:36.034Z</time></trkpt><trkpt lat="42.0814275" lon="11.8704313"><ele>197.0</ele><time>2026-04-18T09:00:37.032Z</time></trkpt><trkpt lat="42.0815508" lon="11.8704284"><ele>197.0</ele><time>2026-04-18T09:00:39.033Z</time></trkpt><trkpt lat="42.0816433" lon="11.8704542"><ele>197.0</ele><time>2026-04-18T09:00:41.033Z</time></trkpt><trkpt lat="42.0817608" lon="11.8705067"><ele>197.0</ele><time>2026-04-18T09:00:43.032Z</time></trkpt><trkpt lat="42.0818433" lon="11.8705524"><ele>198.50000000000003</ele><time>2026-04-18T09:00:44.033Z</time></trkpt><trkpt lat="42.0819352" lon="11.8706031"><ele>200.0</ele><time>2026-04-18T09:00:45.032Z</time></trkpt><trkpt lat="42.0820218" lon="11.8706434"><ele>201.5</ele><time>2026-04-18T09:00:46.033Z</time></trkpt><trkpt lat="42.0821027" lon="11.8706813"><ele>203.0</ele><time>2026-04-18T09:00:47.032Z</time></trkpt><trkpt lat="42.0821769" lon="11.8707114"><ele>204.50000000000003</ele><time>2026-04-18T09:00:48.032Z</time></trkpt><trkpt lat="42.0822466" lon="11.8707446"><ele>206.0</ele><time>2026-04-18T09:00:49.033Z</time></trkpt><trkpt lat="42.0823175" lon="11.8707898"><ele>205.99999999999997</ele><time>2026-04-18T09:00:50.033Z</time></trkpt><trkpt lat="42.082376" lon="11.8708239"><ele>206.0</ele><time>2026-04-18T09:00:51.032Z</time></trkpt><trkpt lat="42.0824357" lon="11.8708607"><ele>206.0</ele><time>2026-04-18T09:00:52.032Z</time></trkpt><trkpt lat="42.0825025" lon="11.8709029"><ele>206.0</ele><time>2026-04-18T09:00:53.033Z</time></trkpt><trkpt lat="42.0825689" lon="11.8709406"><ele>206.0</ele><time>2026-04-18T09:00:54.032Z</time></trkpt><trkpt lat="42.0826334" lon="11.8709663"><ele>205.99999999999997</ele><time>2026-04-18T09:00:55.034Z</time></trkpt><trkpt lat="42.082708" lon="11.8709873"><ele>206.0</ele><time>2026-04-18T09:00:56.032Z</time></trkpt><trkpt lat="42.08279" lon="11.8710032"><ele>208.4</ele><time>2026-04-18T09:00:57.032Z</time></trkpt><trkpt lat="42.0828713" lon="11.8710192"><ele>210.8</ele><time>2026-04-18T09:00:58.032Z</time></trkpt><trkpt lat="42.0829452" lon="11.8710469"><ele>213.20000000000002</ele><time>2026-04-18T09:00:59.033Z</time></trkpt><trkpt lat="42.0830417" lon="11.8711161"><ele>215.60000000000002</ele><time>2026-04-18T09:01:01.034Z</time></trkpt><trkpt lat="42.0831544" lon="11.8711696"><ele>218.0</ele><time>2026-04-18T09:01:03.032Z</time></trkpt><trkpt lat="42.0832141" lon="11.8712352"><ele>218.00000000000003</ele><time>2026-04-18T09:01:05.032Z</time></trkpt><trkpt lat="42.0832722" lon="11.871294"><ele>218.0</ele><time>2026-04-18T09:01:07.032Z</time></trkpt><trkpt lat="42.0833309" lon="11.8713828"><ele>218.0</ele><time>2026-04-18T09:01:09.032Z</time></trkpt><trkpt lat="42.0834367" lon="11.8714963"><ele>218.0</ele><time>2026-04-18T09:01:11.033Z</time></trkpt><trkpt lat="42.0834963" lon="11.8715637"><ele>218.00000000000003</ele><time>2026-04-18T09:01:12.033Z</time></trkpt><trkpt lat="42.0835546" lon="11.8716169"><ele>218.0</ele><time>2026-04-18T09:01:13.032Z</time></trkpt><trkpt lat="42.0836155" lon="11.8716669"><ele>218.00000000000003</ele><time>2026-04-18T09:01:14.032Z</time></trkpt><trkpt lat="42.0836796" lon="11.871723"><ele>218.0</ele><time>2026-04-18T09:01:15.032Z</time></trkpt><trkpt lat="42.0837382" lon="11.8717808"><ele>218.0</ele><time>2026-04-18T09:01:16.032Z</time></trkpt><trkpt lat="42.0837906" lon="11.8718453"><ele>218.0</ele><time>2026-04-18T09:01:17.033Z</time></trkpt><trkpt lat="42.083844" lon="11.8719225"><ele>218.00000000000003</ele><time>2026-04-18T09:01:18.033Z</time></trkpt><trkpt lat="42.0839019" lon="11.8719948"><ele>218.0</ele><time>2026-04-18T09:01:19.032Z</time></trkpt><trkpt lat="42.0839653" lon="11.8720572"><ele>219.85714285714286</ele><time>2026-04-18T09:01:20.033Z</time></trkpt><trkpt lat="42.0840436" lon="11.8721106"><ele>221.71428571428572</ele><time>2026-04-18T09:01:21.033Z</time></trkpt><trkpt lat="42.084124" lon="11.8721651"><ele>223.57142857142856</ele><time>2026-04-18T09:01:22.032Z</time></trkpt><trkpt lat="42.0841811" lon="11.8722125"><ele>225.42857142857144</ele><time>2026-04-18T09:01:23.033Z</time></trkpt><trkpt lat="42.0842238" lon="11.8722752"><ele>227.28571428571428</ele><time>2026-04-18T09:01:24.032Z</time></trkpt><trkpt lat="42.0842635" lon="11.8723545"><ele>229.14285714285714</ele><time>2026-04-18T09:01:25.032Z</time></trkpt><trkpt lat="42.0843146" lon="11.8724134"><ele>231.0</ele><time>2026-04-18T09:01:26.032Z</time></trkpt><trkpt lat="42.0843773" lon="11.8724587"><ele>231.0</ele><time>2026-04-18T09:01:27.033Z</time></trkpt><trkpt lat="42.0844306" lon="11.8725136"><ele>231.00000000000003</ele><time>2026-04-18T09:01:28.032Z</time></trkpt><trkpt lat="42.0845214" lon="11.8726328"><ele>231.00000000000003</ele><time>2026-04-18T09:01:30.033Z</time></trkpt><trkpt lat="42.0845769" lon="11.8726903"><ele>231.0</ele><time>2026-04-18T09:01:31.032Z</time></trkpt><trkpt lat="42.0846344" lon="11.8727395"><ele>231.0</ele><time>2026-04-18T09:01:33.032Z</time></trkpt><trkpt lat="42.0853661" lon="11.8722418"><ele>231.60000000000002</ele><time>2026-04-18T09:09:21.03Z</time></trkpt><trkpt lat="42.0854825" lon="11.8721595"><ele>232.20000000000002</ele><time>2026-04-18T09:09:55.032Z</time></trkpt><trkpt lat="42.0855384" lon="11.8721127"><ele>232.79999999999998</ele><time>2026-04-18T09:09:56.031Z</time></trkpt><trkpt lat="42.0855934" lon="11.8720655"><ele>233.39999999999998</ele><time>2026-04-18T09:09:57.03Z</time></trkpt><trkpt lat="42.0856495" lon="11.8720225"><ele>234.0</ele><time>2026-04-18T09:09:58.03Z</time></trkpt><trkpt lat="42.0857579" lon="11.8719369"><ele>234.16666666666666</ele><time>2026-04-18T09:10:00.031Z</time></trkpt><trkpt lat="42.0858135" lon="11.8718911"><ele>234.33333333333331</ele><time>2026-04-18T09:10:01.031Z</time></trkpt><trkpt lat="42.0858689" lon="11.8718343"><ele>234.5</ele><time>2026-04-18T09:10:02.03Z</time></trkpt><trkpt lat="42.0859218" lon="11.8717803"><ele>234.66666666666666</ele><time>2026-04-18T09:10:03.032Z</time></trkpt><trkpt lat="42.0859942" lon="11.8716895"><ele>234.83333333333331</ele><time>2026-04-18T09:10:05.031Z</time></trkpt><trkpt lat="42.0860256" lon="11.8716118"><ele>235.0</ele><time>2026-04-18T09:10:07.03Z</time></trkpt><trkpt lat="42.0861042" lon="11.8715129"><ele>235.0</ele><time>2026-04-18T09:10:10.03Z</time></trkpt><trkpt lat="42.0861816" lon="11.8714527"><ele>235.0</ele><time>2026-04-18T09:10:12.03Z</time></trkpt><trkpt lat="42.0862451" lon="11.8714295"><ele>235.0</ele><time>2026-04-18T09:10:14.031Z</time></trkpt><trkpt lat="42.0863686" lon="11.8714437"><ele>235.0</ele><time>2026-04-18T09:10:16.03Z</time></trkpt><trkpt lat="42.0864466" lon="11.8714681"><ele>235.0</ele><time>2026-04-18T09:10:17.03Z</time></trkpt><trkpt lat="42.0865437" lon="11.8715176"><ele>235.6</ele><time>2026-04-18T09:10:18.031Z</time></trkpt><trkpt lat="42.0866325" lon="11.8715638"><ele>236.2</ele><time>2026-04-18T09:10:19.031Z</time></trkpt><trkpt lat="42.0867221" lon="11.871592"><ele>236.8</ele><time>2026-04-18T09:10:20.032Z</time></trkpt><trkpt lat="42.0868089" lon="11.8715997"><ele>237.4</ele><time>2026-04-18T09:10:21.031Z</time></trkpt><trkpt lat="42.0868938" lon="11.8716037"><ele>238.0</ele><time>2026-04-18T09:10:22.031Z</time></trkpt><trkpt lat="42.0869855" lon="11.8715971"><ele>237.99999999999997</ele><time>2026-04-18T09:10:23.031Z</time></trkpt><trkpt lat="42.0870782" lon="11.8715851"><ele>238.0</ele><time>2026-04-18T09:10:24.03Z</time></trkpt><trkpt lat="42.0871611" lon="11.8715687"><ele>238.0</ele><time>2026-04-18T09:10:25.031Z</time></trkpt><trkpt lat="42.0872403" lon="11.8715573"><ele>238.0</ele><time>2026-04-18T09:10:26.031Z</time></trkpt><trkpt lat="42.0873235" lon="11.8715542"><ele>237.99999999999997</ele><time>2026-04-18T09:10:27.031Z</time></trkpt><trkpt lat="42.0874043" lon="11.8715519"><ele>238.0</ele><time>2026-04-18T09:10:28.031Z</time></trkpt><trkpt lat="42.0874691" lon="11.8715569"><ele>236.83333333333331</ele><time>2026-04-18T09:10:29.03Z</time></trkpt><trkpt lat="42.0875735" lon="11.8715878"><ele>235.66666666666666</ele><time>2026-04-18T09:10:31.03Z</time></trkpt><trkpt lat="42.0876798" lon="11.8715975"><ele>234.5</ele><time>2026-04-18T09:10:33.03Z</time></trkpt><trkpt lat="42.0877441" lon="11.8715538"><ele>233.33333333333331</ele><time>2026-04-18T09:10:35.03Z</time></trkpt><trkpt lat="42.0878094" lon="11.8715035"><ele>232.16666666666666</ele><time>2026-04-18T09:10:37.03Z</time></trkpt><trkpt lat="42.0878782" lon="11.8714785"><ele>231.0</ele><time>2026-04-18T09:10:38.031Z</time></trkpt><trkpt lat="42.0879748" lon="11.8714678"><ele>231.0</ele><time>2026-04-18T09:10:39.03Z</time></trkpt><trkpt lat="42.0880952" lon="11.8714724"><ele>231.0</ele><time>2026-04-18T09:10:40.031Z</time></trkpt><trkpt lat="42.0882339" lon="11.8714934"><ele>231.0</ele><time>2026-04-18T09:10:41.03Z</time></trkpt><trkpt lat="42.0883578" lon="11.8715301"><ele>231.0</ele><time>2026-04-18T09:10:42.03Z</time></trkpt><trkpt lat="42.0884583" lon="11.8715792"><ele>230.60000000000002</ele><time>2026-04-18T09:10:43.031Z</time></trkpt><trkpt lat="42.0885506" lon="11.8716398"><ele>230.20000000000002</ele><time>2026-04-18T09:10:44.03Z</time></trkpt><trkpt lat="42.0886459" lon="11.8716945"><ele>229.79999999999998</ele><time>2026-04-18T09:10:45.031Z</time></trkpt><trkpt lat="42.0887361" lon="11.8717471"><ele>229.39999999999998</ele><time>2026-04-18T09:10:46.03Z</time></trkpt><trkpt lat="42.0888213" lon="11.8717899"><ele>229.0</ele><time>2026-04-18T09:10:47.031Z</time></trkpt><trkpt lat="42.0888985" lon="11.8718223"><ele>227.66666666666666</ele><time>2026-04-18T09:10:48.031Z</time></trkpt><trkpt lat="42.0889771" lon="11.8718518"><ele>226.33333333333331</ele><time>2026-04-18T09:10:49.032Z</time></trkpt><trkpt lat="42.0890602" lon="11.8718718"><ele>225.0</ele><time>2026-04-18T09:10:50.031Z</time></trkpt><trkpt lat="42.0891327" lon="11.8718836"><ele>223.66666666666669</ele><time>2026-04-18T09:10:51.031Z</time></trkpt><trkpt lat="42.0891962" lon="11.8719053"><ele>222.33333333333334</ele><time>2026-04-18T09:10:52.031Z</time></trkpt><trkpt lat="42.0892691" lon="11.8719403"><ele>221.0</ele><time>2026-04-18T09:10:53.031Z</time></trkpt><trkpt lat="42.0893482" lon="11.87197"><ele>220.66666666666669</ele><time>2026-04-18T09:10:54.03Z</time></trkpt><trkpt lat="42.0894217" lon="11.8719725"><ele>220.33333333333334</ele><time>2026-04-18T09:10:55.03Z</time></trkpt><trkpt lat="42.0894887" lon="11.8719869"><ele>220.0</ele><time>2026-04-18T09:10:56.031Z</time></trkpt><trkpt lat="42.089612" lon="11.8720229"><ele>219.66666666666669</ele><time>2026-04-18T09:10:58.031Z</time></trkpt><trkpt lat="42.0896786" lon="11.8720414"><ele>219.33333333333334</ele><time>2026-04-18T09:10:59.031Z</time></trkpt><trkpt lat="42.0897435" lon="11.8720625"><ele>219.0</ele><time>2026-04-18T09:11:00.03Z</time></trkpt><trkpt lat="42.0898427" lon="11.872133"><ele>219.0</ele><time>2026-04-18T09:11:02.032Z</time></trkpt><trkpt lat="42.0898722" lon="11.8722093"><ele>219.0</ele><time>2026-04-18T09:11:04.03Z</time></trkpt><trkpt lat="42.0898657" lon="11.8723214"><ele>219.0</ele><time>2026-04-18T09:11:06.031Z</time></trkpt><trkpt lat="42.0898022" lon="11.8724216"><ele>219.0</ele><time>2026-04-18T09:11:08.03Z</time></trkpt><trkpt lat="42.0897384" lon="11.8724832"><ele>219.0</ele><time>2026-04-18T09:11:09.03Z</time></trkpt><trkpt lat="42.0896803" lon="11.8725576"><ele>219.0</ele><time>2026-04-18T09:11:10.03Z</time></trkpt><trkpt lat="42.0896255" lon="11.8726534"><ele>215.79999999999998</ele><time>2026-04-18T09:11:11.03Z</time></trkpt><trkpt lat="42.0895714" lon="11.872765"><ele>212.59999999999997</ele><time>2026-04-18T09:11:12.03Z</time></trkpt><trkpt lat="42.0895139" lon="11.8728953"><ele>209.4</ele><time>2026-04-18T09:11:13.03Z</time></trkpt><trkpt lat="42.0894531" lon="11.8730357"><ele>206.2</ele><time>2026-04-18T09:11:14.03Z</time></trkpt><trkpt lat="42.0893903" lon="11.873158"><ele>203.0</ele><time>2026-04-18T09:11:15.03Z</time></trkpt><trkpt lat="42.0893321" lon="11.8732773"><ele>203.0</ele><time>2026-04-18T09:11:16.03Z</time></trkpt><trkpt lat="42.0892807" lon="11.8733854"><ele>203.0</ele><time>2026-04-18T09:11:17.03Z</time></trkpt><trkpt lat="42.0892288" lon="11.8734891"><ele>203.0</ele><time>2026-04-18T09:11:18.031Z</time></trkpt><trkpt lat="42.0891734" lon="11.8735796"><ele>203.0</ele><time>2026-04-18T09:11:19.03Z</time></trkpt><trkpt lat="42.0891251" lon="11.8736774"><ele>203.0</ele><time>2026-04-18T09:11:20.03Z</time></trkpt><trkpt lat="42.0890864" lon="11.8737842"><ele>201.16666666666669</ele><time>2026-04-18T09:11:21.03Z</time></trkpt><trkpt lat="42.0890481" lon="11.8738869"><ele>199.33333333333334</ele><time>2026-04-18T09:11:22.03Z</time></trkpt><trkpt lat="42.0890034" lon="11.8739733"><ele>197.5</ele><time>2026-04-18T09:11:23.031Z</time></trkpt><trkpt lat="42.088954" lon="11.8740432"><ele>195.66666666666669</ele><time>2026-04-18T09:11:24.031Z</time></trkpt><trkpt lat="42.0889014" lon="11.8740947"><ele>193.83333333333334</ele><time>2026-04-18T09:11:25.03Z</time></trkpt><trkpt lat="42.0887891" lon="11.874149"><ele>192.0</ele><time>2026-04-18T09:11:27.03Z</time></trkpt><trkpt lat="42.0887255" lon="11.8741834"><ele>191.99999999999997</ele><time>2026-04-18T09:11:28.031Z</time></trkpt><trkpt lat="42.0886694" lon="11.8742351"><ele>192.0</ele><time>2026-04-18T09:11:29.031Z</time></trkpt><trkpt lat="42.0886205" lon="11.874305"><ele>192.0</ele><time>2026-04-18T09:11:30.031Z</time></trkpt><trkpt lat="42.0885847" lon="11.8743849"><ele>192.0</ele><time>2026-04-18T09:11:31.03Z</time></trkpt><trkpt lat="42.0885488" lon="11.8744705"><ele>192.0</ele><time>2026-04-18T09:11:32.03Z</time></trkpt><trkpt lat="42.0885021" lon="11.8745473"><ele>191.99999999999997</ele><time>2026-04-18T09:11:33.03Z</time></trkpt><trkpt lat="42.0884448" lon="11.8746135"><ele>192.0</ele><time>2026-04-18T09:11:34.031Z</time></trkpt><trkpt lat="42.0883897" lon="11.874674"><ele>189.0</ele><time>2026-04-18T09:11:35.03Z</time></trkpt><trkpt lat="42.0883024" lon="11.8747711"><ele>186.0</ele><time>2026-04-18T09:11:37.03Z</time></trkpt><trkpt lat="42.0882188" lon="11.8748504"><ele>183.0</ele><time>2026-04-18T09:11:39.031Z</time></trkpt><trkpt lat="42.0881532" lon="11.8749096"><ele>180.0</ele><time>2026-04-18T09:11:40.031Z</time></trkpt><trkpt lat="42.0880903" lon="11.8749568"><ele>177.0</ele><time>2026-04-18T09:11:41.031Z</time></trkpt><trkpt lat="42.087987" lon="11.8750454"><ele>177.0</ele><time>2026-04-18T09:11:43.03Z</time></trkpt><trkpt lat="42.0879301" lon="11.8751012"><ele>177.0</ele><time>2026-04-18T09:11:44.03Z</time></trkpt><trkpt lat="42.087861" lon="11.8751593"><ele>177.0</ele><time>2026-04-18T09:11:45.031Z</time></trkpt><trkpt lat="42.0877931" lon="11.8752059"><ele>177.0</ele><time>2026-04-18T09:11:46.032Z</time></trkpt><trkpt lat="42.0876841" lon="11.8752786"><ele>177.0</ele><time>2026-04-18T09:11:48.03Z</time></trkpt><trkpt lat="42.0876037" lon="11.8753913"><ele>176.0</ele><time>2026-04-18T09:11:50.031Z</time></trkpt><trkpt lat="42.0875709" lon="11.8755425"><ele>175.0</ele><time>2026-04-18T09:11:52.031Z</time></trkpt><trkpt lat="42.0875583" lon="11.8756293"><ele>174.0</ele><time>2026-04-18T09:11:53.03Z</time></trkpt><trkpt lat="42.0875415" lon="11.8757156"><ele>173.0</ele><time>2026-04-18T09:11:54.03Z</time></trkpt><trkpt lat="42.0874988" lon="11.8758608"><ele>172.0</ele><time>2026-04-18T09:11:56.03Z</time></trkpt><trkpt lat="42.087458" lon="11.875931"><ele>171.0</ele><time>2026-04-18T09:11:57.03Z</time></trkpt><trkpt lat="42.0874058" lon="11.8760137"><ele>169.16666666666666</ele><time>2026-04-18T09:11:58.03Z</time></trkpt><trkpt lat="42.0873666" lon="11.8761007"><ele>167.33333333333334</ele><time>2026-04-18T09:11:59.03Z</time></trkpt><trkpt lat="42.0873373" lon="11.8761845"><ele>165.5</ele><time>2026-04-18T09:12:00.031Z</time></trkpt><trkpt lat="42.087299" lon="11.8762754"><ele>163.66666666666669</ele><time>2026-04-18T09:12:01.03Z</time></trkpt><trkpt lat="42.0872449" lon="11.8763556"><ele>161.83333333333334</ele><time>2026-04-18T09:12:02.03Z</time></trkpt><trkpt lat="42.0871904" lon="11.8764328"><ele>160.0</ele><time>2026-04-18T09:12:03.03Z</time></trkpt><trkpt lat="42.0871418" lon="11.8765196"><ele>160.0</ele><time>2026-04-18T09:12:04.032Z</time></trkpt><trkpt lat="42.0871034" lon="11.8765998"><ele>160.0</ele><time>2026-04-18T09:12:05.031Z</time></trkpt><trkpt lat="42.0870771" lon="11.8766948"><ele>160.0</ele><time>2026-04-18T09:12:06.031Z</time></trkpt><trkpt lat="42.0870631" lon="11.8768116"><ele>160.0</ele><time>2026-04-18T09:12:07.031Z</time></trkpt><trkpt lat="42.0870445" lon="11.8769266"><ele>160.0</ele><time>2026-04-18T09:12:08.03Z</time></trkpt><trkpt lat="42.0870098" lon="11.8770297"><ele>160.0</ele><time>2026-04-18T09:12:09.031Z</time></trkpt><trkpt lat="42.0869596" lon="11.8771169"><ele>158.5</ele><time>2026-04-18T09:12:10.03Z</time></trkpt><trkpt lat="42.0869064" lon="11.8772024"><ele>157.0</ele><time>2026-04-18T09:12:11.03Z</time></trkpt><trkpt lat="42.0868524" lon="11.8772724"><ele>155.5</ele><time>2026-04-18T09:12:12.03Z</time></trkpt><trkpt lat="42.0867944" lon="11.8773228"><ele>154.0</ele><time>2026-04-18T09:12:13.031Z</time></trkpt><trkpt lat="42.0867275" lon="11.8773778"><ele>152.5</ele><time>2026-04-18T09:12:14.031Z</time></trkpt><trkpt lat="42.0866635" lon="11.8774518"><ele>151.0</ele><time>2026-04-18T09:12:15.031Z</time></trkpt><trkpt lat="42.0866094" lon="11.8775311"><ele>148.5</ele><time>2026-04-18T09:12:16.03Z</time></trkpt><trkpt lat="42.0865531" lon="11.8776151"><ele>146.0</ele><time>2026-04-18T09:12:18.03Z</time></trkpt><trkpt lat="42.0864778" lon="11.8776743"><ele>143.5</ele><time>2026-04-18T09:12:20.031Z</time></trkpt><trkpt lat="42.0863868" lon="11.877768"><ele>141.0</ele><time>2026-04-18T09:12:22.031Z</time></trkpt><trkpt lat="42.0863397" lon="11.8778351"><ele>138.5</ele><time>2026-04-18T09:12:23.031Z</time></trkpt><trkpt lat="42.0862947" lon="11.877916"><ele>136.0</ele><time>2026-04-18T09:12:24.031Z</time></trkpt><trkpt lat="42.0862425" lon="11.8780039"><ele>136.0</ele><time>2026-04-18T09:12:25.03Z</time></trkpt><trkpt lat="42.0862006" lon="11.8780814"><ele>136.0</ele><time>2026-04-18T09:12:26.03Z</time></trkpt><trkpt lat="42.0861618" lon="11.8781492"><ele>136.0</ele><time>2026-04-18T09:12:27.03Z</time></trkpt><trkpt lat="42.0860908" lon="11.8782795"><ele>136.0</ele><time>2026-04-18T09:12:29.03Z</time></trkpt><trkpt lat="42.0860326" lon="11.8784282"><ele>136.0</ele><time>2026-04-18T09:12:31.03Z</time></trkpt><trkpt lat="42.0860011" lon="11.8785091"><ele>136.0</ele><time>2026-04-18T09:12:32.03Z</time></trkpt><trkpt lat="42.0859665" lon="11.8785967"><ele>134.7142857142857</ele><time>2026-04-18T09:12:33.03Z</time></trkpt><trkpt lat="42.0859357" lon="11.878682"><ele>133.42857142857142</ele><time>2026-04-18T09:12:34.03Z</time></trkpt><trkpt lat="42.0859082" lon="11.8787655"><ele>132.14285714285714</ele><time>2026-04-18T09:12:35.03Z</time></trkpt><trkpt lat="42.085881" lon="11.8788513"><ele>130.85714285714283</ele><time>2026-04-18T09:12:36.03Z</time></trkpt><trkpt lat="42.085857" lon="11.8789389"><ele>129.57142857142856</ele><time>2026-04-18T09:12:37.031Z</time></trkpt><trkpt lat="42.0858381" lon="11.8790278"><ele>128.28571428571428</ele><time>2026-04-18T09:12:38.031Z</time></trkpt><trkpt lat="42.0858282" lon="11.8791126"><ele>127.0</ele><time>2026-04-18T09:12:39.03Z</time></trkpt><trkpt lat="42.0858271" lon="11.8792749"><ele>124.8</ele><time>2026-04-18T09:12:41.03Z</time></trkpt><trkpt lat="42.08584" lon="11.8794045"><ele>122.6</ele><time>2026-04-18T09:12:43.03Z</time></trkpt><trkpt lat="42.0858647" lon="11.879545"><ele>120.39999999999999</ele><time>2026-04-18T09:12:45.031Z</time></trkpt><trkpt lat="42.0858681" lon="11.8797026"><ele>118.19999999999999</ele><time>2026-04-18T09:12:47.03Z</time></trkpt><trkpt lat="42.0858414" lon="11.8798613"><ele>116.0</ele><time>2026-04-18T09:12:49.03Z</time></trkpt><trkpt lat="42.0858117" lon="11.8799413"><ele>116.00000000000001</ele><time>2026-04-18T09:12:50.03Z</time></trkpt><trkpt lat="42.0857726" lon="11.8800122"><ele>116.0</ele><time>2026-04-18T09:12:51.03Z</time></trkpt><trkpt lat="42.0857239" lon="11.8800749"><ele>116.00000000000001</ele><time>2026-04-18T09:12:52.03Z</time></trkpt><trkpt lat="42.0856637" lon="11.8801358"><ele>116.00000000000001</ele><time>2026-04-18T09:12:53.03Z</time></trkpt><trkpt lat="42.0856067" lon="11.8801994"><ele>116.0</ele><time>2026-04-18T09:12:54.031Z</time></trkpt><trkpt lat="42.0855535" lon="11.8802666"><ele>116.00000000000001</ele><time>2026-04-18T09:12:55.03Z</time></trkpt><trkpt lat="42.0854999" lon="11.8803363"><ele>116.00000000000001</ele><time>2026-04-18T09:12:56.03Z</time></trkpt><trkpt lat="42.0854474" lon="11.8804078"><ele>113.16666666666666</ele><time>2026-04-18T09:12:57.03Z</time></trkpt><trkpt lat="42.0854024" lon="11.8804825"><ele>110.33333333333333</ele><time>2026-04-18T09:12:58.03Z</time></trkpt><trkpt lat="42.085374" lon="11.8805586"><ele>107.5</ele><time>2026-04-18T09:12:59.03Z</time></trkpt><trkpt lat="42.0853501" lon="11.880718"><ele>104.66666666666666</ele><time>2026-04-18T09:13:01.031Z</time></trkpt><trkpt lat="42.0853232" lon="11.8807977"><ele>101.83333333333333</ele><time>2026-04-18T09:13:02.029Z</time></trkpt><trkpt lat="42.0852815" lon="11.8808816"><ele>99.0</ele><time>2026-04-18T09:13:03.029Z</time></trkpt><trkpt lat="42.0852318" lon="11.8809695"><ele>97.6</ele><time>2026-04-18T09:13:04.03Z</time></trkpt><trkpt lat="42.0851826" lon="11.8810937"><ele>96.2</ele><time>2026-04-18T09:13:06.029Z</time></trkpt><trkpt lat="42.0851701" lon="11.8812155"><ele>94.8</ele><time>2026-04-18T09:13:08.03Z</time></trkpt><trkpt lat="42.0851797" lon="11.8813828"><ele>93.39999999999999</ele><time>2026-04-18T09:13:10.03Z</time></trkpt><trkpt lat="42.0851737" lon="11.8815449"><ele>92.0</ele><time>2026-04-18T09:13:12.03Z</time></trkpt><trkpt lat="42.0851553" lon="11.8816541"><ele>91.83333333333334</ele><time>2026-04-18T09:13:13.03Z</time></trkpt><trkpt lat="42.0851262" lon="11.8817715"><ele>91.66666666666667</ele><time>2026-04-18T09:13:14.03Z</time></trkpt><trkpt lat="42.0850909" lon="11.8818912"><ele>91.5</ele><time>2026-04-18T09:13:15.03Z</time></trkpt><trkpt lat="42.0850628" lon="11.8819972"><ele>91.33333333333333</ele><time>2026-04-18T09:13:16.03Z</time></trkpt><trkpt lat="42.0850387" lon="11.8820849"><ele>91.16666666666666</ele><time>2026-04-18T09:13:17.03Z</time></trkpt><trkpt lat="42.0850093" lon="11.8821756"><ele>91.0</ele><time>2026-04-18T09:13:18.029Z</time></trkpt><trkpt lat="42.0849765" lon="11.8822827"><ele>91.0</ele><time>2026-04-18T09:13:19.03Z</time></trkpt><trkpt lat="42.0849473" lon="11.8823761"><ele>91.0</ele><time>2026-04-18T09:13:20.031Z</time></trkpt><trkpt lat="42.0849152" lon="11.882456"><ele>91.0</ele><time>2026-04-18T09:13:21.03Z</time></trkpt><trkpt lat="42.0848706" lon="11.8825326"><ele>91.0</ele><time>2026-04-18T09:13:22.031Z</time></trkpt><trkpt lat="42.0848052" lon="11.8826034"><ele>91.0</ele><time>2026-04-18T09:13:24.03Z</time></trkpt><trkpt lat="42.0847902" lon="11.8826867"><ele>91.0</ele><time>2026-04-18T09:13:28.03Z</time></trkpt><trkpt lat="42.0848441" lon="11.8827662"><ele>91.0</ele><time>2026-04-18T09:14:02.029Z</time></trkpt><trkpt lat="42.0848654" lon="11.8828462"><ele>90.83333333333333</ele><time>2026-04-18T09:14:14.03Z</time></trkpt><trkpt lat="42.0848319" lon="11.8829263"><ele>90.66666666666666</ele><time>2026-04-18T09:14:44.031Z</time></trkpt><trkpt lat="42.0847729" lon="11.8830226"><ele>90.5</ele><time>2026-04-18T09:14:47.031Z</time></trkpt><trkpt lat="42.0847179" lon="11.8830854"><ele>90.33333333333333</ele><time>2026-04-18T09:14:50.063Z</time></trkpt><trkpt lat="42.0846364" lon="11.8831088"><ele>90.16666666666667</ele><time>2026-04-18T09:14:52.031Z</time></trkpt><trkpt lat="42.0845634" lon="11.883123"><ele>90.0</ele><time>2026-04-18T09:14:54.03Z</time></trkpt><trkpt lat="42.084491" lon="11.8831544"><ele>90.0</ele><time>2026-04-18T09:14:56.029Z</time></trkpt><trkpt lat="42.0844374" lon="11.8832277"><ele>90.0</ele><time>2026-04-18T09:14:59.029Z</time></trkpt><trkpt lat="42.0844712" lon="11.883319"><ele>90.0</ele><time>2026-04-18T09:15:02.03Z</time></trkpt><trkpt lat="42.0845143" lon="11.88342"><ele>90.0</ele><time>2026-04-18T09:15:44.029Z</time></trkpt><trkpt lat="42.0845647" lon="11.8835047"><ele>90.0</ele><time>2026-04-18T09:15:45.03Z</time></trkpt><trkpt lat="42.0846135" lon="11.8836001"><ele>90.0</ele><time>2026-04-18T09:15:46.03Z</time></trkpt><trkpt lat="42.0846732" lon="11.8837079"><ele>90.66666666666667</ele><time>2026-04-18T09:15:47.03Z</time></trkpt><trkpt lat="42.0847449" lon="11.8838111"><ele>91.33333333333333</ele><time>2026-04-18T09:15:48.029Z</time></trkpt><trkpt lat="42.0848114" lon="11.8838892"><ele>92.0</ele><time>2026-04-18T09:15:49.03Z</time></trkpt><trkpt lat="42.0848724" lon="11.8839594"><ele>92.66666666666666</ele><time>2026-04-18T09:15:50.03Z</time></trkpt><trkpt lat="42.0849402" lon="11.884036"><ele>93.33333333333333</ele><time>2026-04-18T09:15:51.03Z</time></trkpt><trkpt lat="42.0850047" lon="11.8841126"><ele>94.0</ele><time>2026-04-18T09:15:52.029Z</time></trkpt><trkpt lat="42.0850633" lon="11.8841904"><ele>96.5</ele><time>2026-04-18T09:15:53.03Z</time></trkpt><trkpt lat="42.0851187" lon="11.8842762"><ele>99.0</ele><time>2026-04-18T09:15:54.03Z</time></trkpt><trkpt lat="42.0851729" lon="11.8843576"><ele>101.5</ele><time>2026-04-18T09:15:55.03Z</time></trkpt><trkpt lat="42.085225" lon="11.8844387"><ele>104.0</ele><time>2026-04-18T09:15:56.03Z</time></trkpt><trkpt lat="42.0852643" lon="11.8845194"><ele>106.50000000000001</ele><time>2026-04-18T09:15:57.03Z</time></trkpt><trkpt lat="42.0852815" lon="11.8846065"><ele>109.0</ele><time>2026-04-18T09:15:58.029Z</time></trkpt><trkpt lat="42.0852888" lon="11.8847088"><ele>109.00000000000001</ele><time>2026-04-18T09:15:59.03Z</time></trkpt><trkpt lat="42.0852866" lon="11.8848216"><ele>109.0</ele><time>2026-04-18T09:16:00.03Z</time></trkpt><trkpt lat="42.0852752" lon="11.8849236"><ele>109.0</ele><time>2026-04-18T09:16:01.029Z</time></trkpt><trkpt lat="42.0852601" lon="11.8850299"><ele>109.0</ele><time>2026-04-18T09:16:02.031Z</time></trkpt><trkpt lat="42.0852507" lon="11.8851241"><ele>109.00000000000001</ele><time>2026-04-18T09:16:03.03Z</time></trkpt><trkpt lat="42.0852095" lon="11.8852829"><ele>109.0</ele><time>2026-04-18T09:16:05.029Z</time></trkpt><trkpt lat="42.0851928" lon="11.8853687"><ele>111.0</ele><time>2026-04-18T09:16:06.031Z</time></trkpt><trkpt lat="42.0851759" lon="11.8854768"><ele>113.0</ele><time>2026-04-18T09:16:07.03Z</time></trkpt><trkpt lat="42.0851578" lon="11.8855986"><ele>115.0</ele><time>2026-04-18T09:16:08.031Z</time></trkpt><trkpt lat="42.0851364" lon="11.8857225"><ele>117.0</ele><time>2026-04-18T09:16:09.03Z</time></trkpt><trkpt lat="42.085123" lon="11.8858571"><ele>119.0</ele><time>2026-04-18T09:16:10.031Z</time></trkpt><trkpt lat="42.0851168" lon="11.8860014"><ele>119.80000000000001</ele><time>2026-04-18T09:16:11.029Z</time></trkpt><trkpt lat="42.0851253" lon="11.8861399"><ele>120.60000000000001</ele><time>2026-04-18T09:16:12.029Z</time></trkpt><trkpt lat="42.0851489" lon="11.8862757"><ele>121.4</ele><time>2026-04-18T09:16:13.03Z</time></trkpt><trkpt lat="42.0851716" lon="11.8864263"><ele>122.2</ele><time>2026-04-18T09:16:14.031Z</time></trkpt><trkpt lat="42.0851966" lon="11.8865839"><ele>123.0</ele><time>2026-04-18T09:16:15.031Z</time></trkpt><trkpt lat="42.0852255" lon="11.8867263"><ele>123.80000000000001</ele><time>2026-04-18T09:16:16.03Z</time></trkpt><trkpt lat="42.0852606" lon="11.8868468"><ele>124.60000000000001</ele><time>2026-04-18T09:16:17.029Z</time></trkpt><trkpt lat="42.0853014" lon="11.8869622"><ele>125.39999999999999</ele><time>2026-04-18T09:16:18.029Z</time></trkpt><trkpt lat="42.0853489" lon="11.8870757"><ele>126.19999999999999</ele><time>2026-04-18T09:16:19.03Z</time></trkpt><trkpt lat="42.0853953" lon="11.8871974"><ele>127.0</ele><time>2026-04-18T09:16:20.029Z</time></trkpt><trkpt lat="42.0854446" lon="11.8873282"><ele>127.0</ele><time>2026-04-18T09:16:21.03Z</time></trkpt><trkpt lat="42.0854902" lon="11.8874493"><ele>126.99999999999999</ele><time>2026-04-18T09:16:22.031Z</time></trkpt><trkpt lat="42.0855375" lon="11.887563"><ele>126.99999999999999</ele><time>2026-04-18T09:16:23.03Z</time></trkpt><trkpt lat="42.0855898" lon="11.8876783"><ele>127.0</ele><time>2026-04-18T09:16:24.029Z</time></trkpt><trkpt lat="42.0856482" lon="11.8877864"><ele>127.0</ele><time>2026-04-18T09:16:25.03Z</time></trkpt><trkpt lat="42.0857078" lon="11.88788"><ele>128.83333333333334</ele><time>2026-04-18T09:16:26.029Z</time></trkpt><trkpt lat="42.0857753" lon="11.8879584"><ele>130.66666666666669</ele><time>2026-04-18T09:16:27.029Z</time></trkpt><trkpt lat="42.0858474" lon="11.888038"><ele>132.5</ele><time>2026-04-18T09:16:28.029Z</time></trkpt><trkpt lat="42.0859064" lon="11.8881127"><ele>134.33333333333334</ele><time>2026-04-18T09:16:29.029Z</time></trkpt><trkpt lat="42.0859706" lon="11.8882328"><ele>136.16666666666666</ele><time>2026-04-18T09:16:31.029Z</time></trkpt><trkpt lat="42.0860064" lon="11.8883163"><ele>138.0</ele><time>2026-04-18T09:16:32.03Z</time></trkpt><trkpt lat="42.0860389" lon="11.888416"><ele>139.66666666666666</ele><time>2026-04-18T09:16:33.029Z</time></trkpt><trkpt lat="42.0860727" lon="11.88853"><ele>141.33333333333334</ele><time>2026-04-18T09:16:34.031Z</time></trkpt><trkpt lat="42.0861177" lon="11.8886473"><ele>143.0</ele><time>2026-04-18T09:16:35.03Z</time></trkpt><trkpt lat="42.0861584" lon="11.8887431"><ele>144.66666666666669</ele><time>2026-04-18T09:16:36.029Z</time></trkpt><trkpt lat="42.0862034" lon="11.8888242"><ele>146.33333333333334</ele><time>2026-04-18T09:16:37.03Z</time></trkpt><trkpt lat="42.0862577" lon="11.8889174"><ele>148.0</ele><time>2026-04-18T09:16:38.029Z</time></trkpt><trkpt lat="42.0863089" lon="11.8890143"><ele>148.0</ele><time>2026-04-18T09:16:39.031Z</time></trkpt><trkpt lat="42.0863566" lon="11.8890914"><ele>148.0</ele><time>2026-04-18T09:16:40.029Z</time></trkpt><trkpt lat="42.0864456" lon="11.8891717"><ele>148.0</ele><time>2026-04-18T09:16:42.03Z</time></trkpt><trkpt lat="42.0865131" lon="11.88919"><ele>148.0</ele><time>2026-04-18T09:16:45.03Z</time></trkpt><trkpt lat="42.0865858" lon="11.889203"><ele>148.0</ele><time>2026-04-18T09:17:00.029Z</time></trkpt><trkpt lat="42.0866643" lon="11.889245"><ele>148.0</ele><time>2026-04-18T09:17:01.03Z</time></trkpt><trkpt lat="42.0867401" lon="11.8893024"><ele>150.83333333333334</ele><time>2026-04-18T09:17:02.029Z</time></trkpt><trkpt lat="42.0868111" lon="11.8893693"><ele>153.66666666666669</ele><time>2026-04-18T09:17:03.029Z</time></trkpt><trkpt lat="42.0868791" lon="11.8894336"><ele>156.5</ele><time>2026-04-18T09:17:04.029Z</time></trkpt><trkpt lat="42.0869475" lon="11.8894943"><ele>159.33333333333334</ele><time>2026-04-18T09:17:05.029Z</time></trkpt><trkpt lat="42.0870155" lon="11.8895623"><ele>162.16666666666666</ele><time>2026-04-18T09:17:06.029Z</time></trkpt><trkpt lat="42.0870826" lon="11.8896299"><ele>165.0</ele><time>2026-04-18T09:17:07.029Z</time></trkpt><trkpt lat="42.0871463" lon="11.8896919"><ele>165.0</ele><time>2026-04-18T09:17:08.029Z</time></trkpt><trkpt lat="42.0872021" lon="11.8897408"><ele>165.0</ele><time>2026-04-18T09:17:09.03Z</time></trkpt><trkpt lat="42.0872543" lon="11.8898376"><ele>165.0</ele><time>2026-04-18T09:17:11.029Z</time></trkpt><trkpt lat="42.0872756" lon="11.8899778"><ele>165.0</ele><time>2026-04-18T09:17:13.029Z</time></trkpt><trkpt lat="42.0872845" lon="11.890142"><ele>165.0</ele><time>2026-04-18T09:17:15.03Z</time></trkpt><trkpt lat="42.0872776" lon="11.8902265"><ele>165.0</ele><time>2026-04-18T09:17:16.03Z</time></trkpt><trkpt lat="42.087228" lon="11.89034"><ele>166.6</ele><time>2026-04-18T09:17:18.03Z</time></trkpt><trkpt lat="42.0871533" lon="11.8904702"><ele>168.2</ele><time>2026-04-18T09:17:20.029Z</time></trkpt><trkpt lat="42.0871252" lon="11.8905861"><ele>169.8</ele><time>2026-04-18T09:17:22.029Z</time></trkpt><trkpt lat="42.0871175" lon="11.8907191"><ele>171.4</ele><time>2026-04-18T09:17:25.029Z</time></trkpt><trkpt lat="42.0871148" lon="11.8908145"><ele>173.0</ele><time>2026-04-18T09:17:26.029Z</time></trkpt><trkpt lat="42.0871159" lon="11.8909393"><ele>174.5</ele><time>2026-04-18T09:17:27.029Z</time></trkpt><trkpt lat="42.0871262" lon="11.8910845"><ele>176.0</ele><time>2026-04-18T09:17:28.029Z</time></trkpt><trkpt lat="42.0871392" lon="11.8912655"><ele>177.5</ele><time>2026-04-18T09:17:29.03Z</time></trkpt><trkpt lat="42.087149" lon="11.8914483"><ele>179.0</ele><time>2026-04-18T09:17:30.029Z</time></trkpt><trkpt lat="42.0871611" lon="11.8915886"><ele>179.0</ele><time>2026-04-18T09:17:31.029Z</time></trkpt><trkpt lat="42.0871817" lon="11.8916919"><ele>179.0</ele><time>2026-04-18T09:17:32.029Z</time></trkpt><trkpt lat="42.0872074" lon="11.8917703"><ele>179.0</ele><time>2026-04-18T09:17:33.029Z</time></trkpt><trkpt lat="42.0872698" lon="11.8919109"><ele>179.0</ele><time>2026-04-18T09:17:35.03Z</time></trkpt><trkpt lat="42.0873116" lon="11.8919902"><ele>179.0</ele><time>2026-04-18T09:17:36.029Z</time></trkpt><trkpt lat="42.0873565" lon="11.8920513"><ele>179.0</ele><time>2026-04-18T09:17:37.029Z</time></trkpt><trkpt lat="42.0874266" lon="11.8921038"><ele>179.0</ele><time>2026-04-18T09:17:39.029Z</time></trkpt><trkpt lat="42.0873809" lon="11.8920207"><ele>179.0</ele><time>2026-04-18T09:18:08.03Z</time></trkpt><trkpt lat="42.0873116" lon="11.8919658"><ele>179.0</ele><time>2026-04-18T09:18:10.029Z</time></trkpt><trkpt lat="42.0872475" lon="11.8918622"><ele>179.0</ele><time>2026-04-18T09:18:12.029Z</time></trkpt><trkpt lat="42.0871978" lon="11.8917317"><ele>179.0</ele><time>2026-04-18T09:18:14.029Z</time></trkpt><trkpt lat="42.0871641" lon="11.8915985"><ele>179.0</ele><time>2026-04-18T09:18:16.029Z</time></trkpt><trkpt lat="42.0871422" lon="11.8914477"><ele>179.0</ele><time>2026-04-18T09:18:18.029Z</time></trkpt><trkpt lat="42.0871388" lon="11.891362"><ele>179.0</ele><time>2026-04-18T09:18:19.03Z</time></trkpt><trkpt lat="42.0871417" lon="11.8912741"><ele>179.0</ele><time>2026-04-18T09:18:20.029Z</time></trkpt><trkpt lat="42.0871687" lon="11.8911327"><ele>179.0</ele><time>2026-04-18T09:18:22.029Z</time></trkpt><trkpt lat="42.0872645" lon="11.8910397"><ele>179.0</ele><time>2026-04-18T09:18:24.029Z</time></trkpt><trkpt lat="42.0873647" lon="11.8909783"><ele>179.0</ele><time>2026-04-18T09:18:26.029Z</time></trkpt><trkpt lat="42.0874212" lon="11.8909395"><ele>179.0</ele><time>2026-04-18T09:18:27.029Z</time></trkpt><trkpt lat="42.0874879" lon="11.8908911"><ele>179.0</ele><time>2026-04-18T09:18:28.029Z</time></trkpt><trkpt lat="42.0875649" lon="11.8908425"><ele>179.0</ele><time>2026-04-18T09:18:29.03Z</time></trkpt><trkpt lat="42.0876417" lon="11.8908012"><ele>179.0</ele><time>2026-04-18T09:18:30.028Z</time></trkpt><trkpt lat="42.08771" lon="11.8907708"><ele>178.25</ele><time>2026-04-18T09:18:31.029Z</time></trkpt><trkpt lat="42.0878189" lon="11.8907047"><ele>177.5</ele><time>2026-04-18T09:18:33.028Z</time></trkpt><trkpt lat="42.0879158" lon="11.8906106"><ele>176.75</ele><time>2026-04-18T09:18:35.029Z</time></trkpt><trkpt lat="42.0879867" lon="11.890511"><ele>176.0</ele><time>2026-04-18T09:18:37.029Z</time></trkpt><trkpt lat="42.0880228" lon="11.8903504"><ele>176.0</ele><time>2026-04-18T09:18:39.029Z</time></trkpt><trkpt lat="42.0880297" lon="11.8902506"><ele>176.0</ele><time>2026-04-18T09:18:40.03Z</time></trkpt><trkpt lat="42.0880643" lon="11.890099"><ele>176.0</ele><time>2026-04-18T09:18:42.029Z</time></trkpt><trkpt lat="42.0881082" lon="11.8899685"><ele>176.0</ele><time>2026-04-18T09:18:44.03Z</time></trkpt><trkpt lat="42.0881676" lon="11.8898241"><ele>176.0</ele><time>2026-04-18T09:18:47.03Z</time></trkpt><trkpt lat="42.0882038" lon="11.889738"><ele>176.0</ele><time>2026-04-18T09:18:48.029Z</time></trkpt><trkpt lat="42.0882499" lon="11.8896434"><ele>176.0</ele><time>2026-04-18T09:18:49.029Z</time></trkpt><trkpt lat="42.0882993" lon="11.8895388"><ele>176.0</ele><time>2026-04-18T09:18:50.029Z</time></trkpt><trkpt lat="42.088348" lon="11.8894269"><ele>176.0</ele><time>2026-04-18T09:18:51.029Z</time></trkpt><trkpt lat="42.0883939" lon="11.8893257"><ele>176.0</ele><time>2026-04-18T09:18:52.03Z</time></trkpt><trkpt lat="42.0884403" lon="11.8892417"><ele>176.0</ele><time>2026-04-18T09:18:53.028Z</time></trkpt><trkpt lat="42.0884904" lon="11.8891499"><ele>173.60000000000002</ele><time>2026-04-18T09:18:54.03Z</time></trkpt><trkpt lat="42.0885248" lon="11.8890691"><ele>171.2</ele><time>2026-04-18T09:18:55.029Z</time></trkpt><trkpt lat="42.088588" lon="11.8889379"><ele>168.8</ele><time>2026-04-18T09:18:57.029Z</time></trkpt><trkpt lat="42.0886808" lon="11.8888527"><ele>166.39999999999998</ele><time>2026-04-18T09:18:59.03Z</time></trkpt><trkpt lat="42.0887573" lon="11.8888164"><ele>164.0</ele><time>2026-04-18T09:19:00.029Z</time></trkpt><trkpt lat="42.0888526" lon="11.8887827"><ele>164.0</ele><time>2026-04-18T09:19:01.028Z</time></trkpt><trkpt lat="42.0889437" lon="11.888741"><ele>164.0</ele><time>2026-04-18T09:19:02.03Z</time></trkpt><trkpt lat="42.0890231" lon="11.8886906"><ele>164.0</ele><time>2026-04-18T09:19:03.03Z</time></trkpt><trkpt lat="42.0891156" lon="11.8886292"><ele>164.0</ele><time>2026-04-18T09:19:04.029Z</time></trkpt><trkpt lat="42.0892056" lon="11.8885697"><ele>164.0</ele><time>2026-04-18T09:19:05.028Z</time></trkpt><trkpt lat="42.0892835" lon="11.8885066"><ele>163.16666666666666</ele><time>2026-04-18T09:19:06.029Z</time></trkpt><trkpt lat="42.0893634" lon="11.8884351"><ele>162.33333333333331</ele><time>2026-04-18T09:19:07.029Z</time></trkpt><trkpt lat="42.0894391" lon="11.8883462"><ele>161.5</ele><time>2026-04-18T09:19:08.029Z</time></trkpt><trkpt lat="42.0894997" lon="11.8882538"><ele>160.66666666666666</ele><time>2026-04-18T09:19:09.029Z</time></trkpt><trkpt lat="42.0895521" lon="11.8881697"><ele>159.83333333333334</ele><time>2026-04-18T09:19:10.029Z</time></trkpt><trkpt lat="42.0896004" lon="11.8880881"><ele>159.0</ele><time>2026-04-18T09:19:11.028Z</time></trkpt><trkpt lat="42.0896475" lon="11.8880154"><ele>159.0</ele><time>2026-04-18T09:19:12.03Z</time></trkpt><trkpt lat="42.089695" lon="11.8879565"><ele>159.0</ele><time>2026-04-18T09:19:13.03Z</time></trkpt><trkpt lat="42.089748" lon="11.887904"><ele>159.0</ele><time>2026-04-18T09:19:14.029Z</time></trkpt><trkpt lat="42.08984" lon="11.8878499"><ele>159.0</ele><time>2026-04-18T09:19:16.029Z</time></trkpt><trkpt lat="42.0899018" lon="11.8878216"><ele>159.0</ele><time>2026-04-18T09:19:18.029Z</time></trkpt><trkpt lat="42.0899663" lon="11.8878086"><ele>159.0</ele><time>2026-04-18T09:19:20.03Z</time></trkpt><trkpt lat="42.0900754" lon="11.8878383"><ele>159.0</ele><time>2026-04-18T09:19:22.029Z</time></trkpt><trkpt lat="42.0901439" lon="11.8878676"><ele>159.0</ele><time>2026-04-18T09:19:23.029Z</time></trkpt><trkpt lat="42.0902035" lon="11.8878999"><ele>159.0</ele><time>2026-04-18T09:19:24.029Z</time></trkpt><trkpt lat="42.0903058" lon="11.8879598"><ele>159.0</ele><time>2026-04-18T09:19:26.028Z</time></trkpt><trkpt lat="42.0904263" lon="11.8880171"><ele>159.0</ele><time>2026-04-18T09:19:28.028Z</time></trkpt><trkpt lat="42.090493" lon="11.8880288"><ele>159.0</ele><time>2026-04-18T09:19:29.029Z</time></trkpt><trkpt lat="42.0905637" lon="11.8880376"><ele>159.0</ele><time>2026-04-18T09:19:30.03Z</time></trkpt><trkpt lat="42.090643" lon="11.8880415"><ele>159.0</ele><time>2026-04-18T09:19:31.028Z</time></trkpt><trkpt lat="42.0907142" lon="11.888035"><ele>159.0</ele><time>2026-04-18T09:19:32.029Z</time></trkpt><trkpt lat="42.0907828" lon="11.8880163"><ele>159.0</ele><time>2026-04-18T09:19:33.029Z</time></trkpt><trkpt lat="42.0908602" lon="11.8879898"><ele>159.0</ele><time>2026-04-18T09:19:34.029Z</time></trkpt><trkpt lat="42.0909239" lon="11.8879816"><ele>159.0</ele><time>2026-04-18T09:19:35.029Z</time></trkpt><trkpt lat="42.0910118" lon="11.8879845"><ele>158.4</ele><time>2026-04-18T09:19:37.03Z</time></trkpt><trkpt lat="42.0910786" lon="11.8880211"><ele>157.8</ele><time>2026-04-18T09:19:41.029Z</time></trkpt><trkpt lat="42.0911506" lon="11.888059"><ele>157.2</ele><time>2026-04-18T09:19:43.028Z</time></trkpt><trkpt lat="42.0912634" lon="11.8881471"><ele>156.6</ele><time>2026-04-18T09:19:45.029Z</time></trkpt><trkpt lat="42.0913144" lon="11.8881971"><ele>156.0</ele><time>2026-04-18T09:19:46.028Z</time></trkpt><trkpt lat="42.0914182" lon="11.8883101"><ele>156.0</ele><time>2026-04-18T09:19:48.029Z</time></trkpt><trkpt lat="42.0914706" lon="11.8883798"><ele>156.0</ele><time>2026-04-18T09:19:49.028Z</time></trkpt><trkpt lat="42.0915127" lon="11.8884513"><ele>156.0</ele><time>2026-04-18T09:19:50.029Z</time></trkpt><trkpt lat="42.0915516" lon="11.8885428"><ele>156.0</ele><time>2026-04-18T09:19:51.028Z</time></trkpt><trkpt lat="42.0915902" lon="11.8886484"><ele>156.0</ele><time>2026-04-18T09:19:52.028Z</time></trkpt><trkpt lat="42.091624" lon="11.8887436"><ele>156.0</ele><time>2026-04-18T09:19:53.029Z</time></trkpt><trkpt lat="42.0916466" lon="11.888833"><ele>155.0</ele><time>2026-04-18T09:19:54.029Z</time></trkpt><trkpt lat="42.0916666" lon="11.8889495"><ele>154.0</ele><time>2026-04-18T09:19:55.029Z</time></trkpt><trkpt lat="42.0916894" lon="11.8890641"><ele>153.0</ele><time>2026-04-18T09:19:56.029Z</time></trkpt><trkpt lat="42.0917137" lon="11.8891664"><ele>152.0</ele><time>2026-04-18T09:19:57.029Z</time></trkpt><trkpt lat="42.0917352" lon="11.8892601"><ele>151.0</ele><time>2026-04-18T09:19:58.03Z</time></trkpt><trkpt lat="42.0917576" lon="11.8893447"><ele>150.0</ele><time>2026-04-18T09:19:59.029Z</time></trkpt><trkpt lat="42.0918043" lon="11.8894887"><ele>150.0</ele><time>2026-04-18T09:20:01.029Z</time></trkpt><trkpt lat="42.0918278" lon="11.8896082"><ele>150.0</ele><time>2026-04-18T09:20:03.029Z</time></trkpt><trkpt lat="42.0918307" lon="11.88974"><ele>150.0</ele><time>2026-04-18T09:20:05.028Z</time></trkpt><trkpt lat="42.0918065" lon="11.8898545"><ele>150.0</ele><time>2026-04-18T09:20:07.028Z</time></trkpt><trkpt lat="42.0918282" lon="11.8899379"><ele>150.0</ele><time>2026-04-18T09:20:09.03Z</time></trkpt><trkpt lat="42.091952" lon="11.8899813"><ele>150.0</ele><time>2026-04-18T09:20:11.03Z</time></trkpt><trkpt lat="42.092023" lon="11.8900044"><ele>150.0</ele><time>2026-04-18T09:20:12.028Z</time></trkpt><trkpt lat="42.0921324" lon="11.8900645"><ele>150.0</ele><time>2026-04-18T09:20:14.028Z</time></trkpt><trkpt lat="42.0922044" lon="11.8900966"><ele>150.0</ele><time>2026-04-18T09:20:15.029Z</time></trkpt><trkpt lat="42.0922745" lon="11.8901218"><ele>150.0</ele><time>2026-04-18T09:20:16.03Z</time></trkpt><trkpt lat="42.0924036" lon="11.8901413"><ele>151.75</ele><time>2026-04-18T09:20:18.029Z</time></trkpt><trkpt lat="42.0924778" lon="11.8901444"><ele>153.5</ele><time>2026-04-18T09:20:19.029Z</time></trkpt><trkpt lat="42.0925888" lon="11.8901367"><ele>155.25</ele><time>2026-04-18T09:20:21.029Z</time></trkpt><trkpt lat="42.0927573" lon="11.8900359"><ele>157.0</ele><time>2026-04-18T09:20:37.029Z</time></trkpt><trkpt lat="42.0928998" lon="11.8899912"><ele>157.0</ele><time>2026-04-18T09:20:40.03Z</time></trkpt><trkpt lat="42.092987" lon="11.8899915"><ele>157.0</ele><time>2026-04-18T09:20:42.029Z</time></trkpt><trkpt lat="42.0930812" lon="11.8900126"><ele>157.0</ele><time>2026-04-18T09:20:44.029Z</time></trkpt><trkpt lat="42.0931498" lon="11.8900648"><ele>157.0</ele><time>2026-04-18T09:20:45.029Z</time></trkpt><trkpt lat="42.0932219" lon="11.890116"><ele>157.0</ele><time>2026-04-18T09:20:46.029Z</time></trkpt><trkpt lat="42.0932838" lon="11.8901552"><ele>157.0</ele><time>2026-04-18T09:20:47.029Z</time></trkpt><trkpt lat="42.0933849" lon="11.8902291"><ele>155.6</ele><time>2026-04-18T09:20:49.029Z</time></trkpt><trkpt lat="42.0934685" lon="11.8903093"><ele>154.2</ele><time>2026-04-18T09:20:51.028Z</time></trkpt><trkpt lat="42.0935723" lon="11.8903891"><ele>152.8</ele><time>2026-04-18T09:20:53.029Z</time></trkpt><trkpt lat="42.0936349" lon="11.8904323"><ele>151.4</ele><time>2026-04-18T09:20:54.029Z</time></trkpt><trkpt lat="42.0937092" lon="11.8904982"><ele>150.0</ele><time>2026-04-18T09:20:55.029Z</time></trkpt><trkpt lat="42.0937749" lon="11.8905594"><ele>150.0</ele><time>2026-04-18T09:20:56.028Z</time></trkpt><trkpt lat="42.0938525" lon="11.8906593"><ele>150.0</ele><time>2026-04-18T09:20:58.029Z</time></trkpt><trkpt lat="42.0939423" lon="11.8907476"><ele>150.0</ele><time>2026-04-18T09:21:00.028Z</time></trkpt><trkpt lat="42.0940002" lon="11.8908032"><ele>150.0</ele><time>2026-04-18T09:21:01.028Z</time></trkpt><trkpt lat="42.0940687" lon="11.8908868"><ele>150.0</ele><time>2026-04-18T09:21:02.028Z</time></trkpt><trkpt lat="42.0941279" lon="11.8909604"><ele>150.2</ele><time>2026-04-18T09:21:03.029Z</time></trkpt><trkpt lat="42.0941813" lon="11.8910154"><ele>150.4</ele><time>2026-04-18T09:21:04.029Z</time></trkpt><trkpt lat="42.0942896" lon="11.8910746"><ele>150.6</ele><time>2026-04-18T09:21:06.028Z</time></trkpt><trkpt lat="42.0943921" lon="11.8911083"><ele>150.8</ele><time>2026-04-18T09:21:08.03Z</time></trkpt><trkpt lat="42.0944716" lon="11.8911485"><ele>151.0</ele><time>2026-04-18T09:21:10.03Z</time></trkpt><trkpt lat="42.094548" lon="11.8912064"><ele>151.0</ele><time>2026-04-18T09:21:12.029Z</time></trkpt><trkpt lat="42.0946135" lon="11.8912718"><ele>151.0</ele><time>2026-04-18T09:21:14.03Z</time></trkpt><trkpt lat="42.094673" lon="11.8913711"><ele>151.0</ele><time>2026-04-18T09:21:16.029Z</time></trkpt><trkpt lat="42.0947066" lon="11.8914524"><ele>151.0</ele><time>2026-04-18T09:21:17.028Z</time></trkpt><trkpt lat="42.0947523" lon="11.8915824"><ele>151.0</ele><time>2026-04-18T09:21:19.03Z</time></trkpt><trkpt lat="42.0948217" lon="11.8916426"><ele>151.0</ele><time>2026-04-18T09:21:21.028Z</time></trkpt><trkpt lat="42.0948896" lon="11.8916561"><ele>151.33333333333334</ele><time>2026-04-18T09:21:22.029Z</time></trkpt><trkpt lat="42.0949539" lon="11.8916742"><ele>151.66666666666669</ele><time>2026-04-18T09:21:23.028Z</time></trkpt><trkpt lat="42.0950726" lon="11.8917209"><ele>152.0</ele><time>2026-04-18T09:21:25.029Z</time></trkpt><trkpt lat="42.0951339" lon="11.8917442"><ele>152.33333333333334</ele><time>2026-04-18T09:21:26.029Z</time></trkpt><trkpt lat="42.0952435" lon="11.8918017"><ele>152.66666666666666</ele><time>2026-04-18T09:21:28.029Z</time></trkpt><trkpt lat="42.0953059" lon="11.8918467"><ele>153.0</ele><time>2026-04-18T09:21:29.028Z</time></trkpt><trkpt lat="42.0953645" lon="11.8919186"><ele>153.0</ele><time>2026-04-18T09:21:30.03Z</time></trkpt><trkpt lat="42.0954264" lon="11.8920079"><ele>153.0</ele><time>2026-04-18T09:21:31.028Z</time></trkpt><trkpt lat="42.0954862" lon="11.8920985"><ele>153.0</ele><time>2026-04-18T09:21:32.029Z</time></trkpt><trkpt lat="42.0955382" lon="11.8921683"><ele>153.0</ele><time>2026-04-18T09:21:33.029Z</time></trkpt><trkpt lat="42.0956105" lon="11.8922685"><ele>153.0</ele><time>2026-04-18T09:21:35.028Z</time></trkpt><trkpt lat="42.0956652" lon="11.8923139"><ele>153.0</ele><time>2026-04-18T09:21:37.028Z</time></trkpt><trkpt lat="42.0957171" lon="11.892394"><ele>150.83333333333334</ele><time>2026-04-18T09:21:39.029Z</time></trkpt><trkpt lat="42.0957878" lon="11.8924622"><ele>148.66666666666666</ele><time>2026-04-18T09:21:41.028Z</time></trkpt><trkpt lat="42.0958483" lon="11.892518"><ele>146.5</ele><time>2026-04-18T09:21:52.03Z</time></trkpt><trkpt lat="42.0959182" lon="11.8925581"><ele>144.33333333333331</ele><time>2026-04-18T09:21:55.028Z</time></trkpt><trkpt lat="42.0959636" lon="11.8926502"><ele>142.16666666666666</ele><time>2026-04-18T09:21:57.029Z</time></trkpt><trkpt lat="42.0960124" lon="11.8927497"><ele>140.0</ele><time>2026-04-18T09:21:59.028Z</time></trkpt><trkpt lat="42.0960577" lon="11.8928626"><ele>140.0</ele><time>2026-04-18T09:22:01.028Z</time></trkpt><trkpt lat="42.0960856" lon="11.8929715"><ele>140.0</ele><time>2026-04-18T09:22:03.028Z</time></trkpt><trkpt lat="42.0961186" lon="11.8930757"><ele>140.0</ele><time>2026-04-18T09:22:05.028Z</time></trkpt><trkpt lat="42.0962252" lon="11.8931278"><ele>140.0</ele><time>2026-04-18T09:22:07.029Z</time></trkpt><trkpt lat="42.0962961" lon="11.8931477"><ele>140.0</ele><time>2026-04-18T09:22:08.028Z</time></trkpt><trkpt lat="42.0963654" lon="11.8931601"><ele>140.0</ele><time>2026-04-18T09:22:09.029Z</time></trkpt><trkpt lat="42.0964731" lon="11.8931645"><ele>140.0</ele><time>2026-04-18T09:22:11.029Z</time></trkpt><trkpt lat="42.096541" lon="11.8932195"><ele>140.0</ele><time>2026-04-18T09:22:13.029Z</time></trkpt><trkpt lat="42.0966495" lon="11.8932904"><ele>140.0</ele><time>2026-04-18T09:22:15.028Z</time></trkpt><trkpt lat="42.0967411" lon="11.8933737"><ele>140.0</ele><time>2026-04-18T09:22:17.028Z</time></trkpt><trkpt lat="42.0968031" lon="11.8934623"><ele>140.0</ele><time>2026-04-18T09:22:19.028Z</time></trkpt><trkpt lat="42.0968803" lon="11.8935788"><ele>138.66666666666666</ele><time>2026-04-18T09:22:21.03Z</time></trkpt><trkpt lat="42.0969191" lon="11.8936521"><ele>137.33333333333331</ele><time>2026-04-18T09:22:22.029Z</time></trkpt><trkpt lat="42.0969616" lon="11.893733"><ele>136.0</ele><time>2026-04-18T09:22:23.029Z</time></trkpt><trkpt lat="42.0970029" lon="11.8938235"><ele>134.66666666666666</ele><time>2026-04-18T09:22:24.028Z</time></trkpt><trkpt lat="42.0970478" lon="11.8938971"><ele>133.33333333333334</ele><time>2026-04-18T09:22:25.028Z</time></trkpt><trkpt lat="42.0971389" lon="11.8939785"><ele>132.0</ele><time>2026-04-18T09:22:27.03Z</time></trkpt><trkpt lat="42.0972012" lon="11.8940512"><ele>132.0</ele><time>2026-04-18T09:22:34.028Z</time></trkpt><trkpt lat="42.09725" lon="11.8941239"><ele>132.0</ele><time>2026-04-18T09:22:35.028Z</time></trkpt><trkpt lat="42.0973035" lon="11.8942013"><ele>132.0</ele><time>2026-04-18T09:22:36.029Z</time></trkpt><trkpt lat="42.0973471" lon="11.8942723"><ele>132.0</ele><time>2026-04-18T09:22:37.028Z</time></trkpt><trkpt lat="42.0974066" lon="11.8943893"><ele>132.0</ele><time>2026-04-18T09:22:39.03Z</time></trkpt><trkpt lat="42.0974769" lon="11.8944722"><ele>132.0</ele><time>2026-04-18T09:22:41.029Z</time></trkpt><trkpt lat="42.0975567" lon="11.8945334"><ele>132.5</ele><time>2026-04-18T09:22:43.029Z</time></trkpt><trkpt lat="42.097639" lon="11.8945961"><ele>133.0</ele><time>2026-04-18T09:22:45.028Z</time></trkpt><trkpt lat="42.0977005" lon="11.8946421"><ele>133.5</ele><time>2026-04-18T09:22:46.029Z</time></trkpt><trkpt lat="42.0977757" lon="11.8946827"><ele>134.0</ele><time>2026-04-18T09:22:47.029Z</time></trkpt><trkpt lat="42.097854" lon="11.8947224"><ele>134.5</ele><time>2026-04-18T09:22:48.03Z</time></trkpt><trkpt lat="42.0979229" lon="11.8947591"><ele>135.0</ele><time>2026-04-18T09:22:49.03Z</time></trkpt><trkpt lat="42.0979826" lon="11.894794"><ele>135.0</ele><time>2026-04-18T09:22:50.029Z</time></trkpt><trkpt lat="42.0980966" lon="11.8948506"><ele>135.0</ele><time>2026-04-18T09:22:52.028Z</time></trkpt><trkpt lat="42.0981911" lon="11.8948965"><ele>135.0</ele><time>2026-04-18T09:22:53.029Z</time></trkpt><trkpt lat="42.0982745" lon="11.8949366"><ele>135.0</ele><time>2026-04-18T09:22:54.028Z</time></trkpt><trkpt lat="42.0983405" lon="11.8949648"><ele>135.0</ele><time>2026-04-18T09:22:55.031Z</time></trkpt><trkpt lat="42.0984105" lon="11.8949811"><ele>134.66666666666666</ele><time>2026-04-18T09:22:56.029Z</time></trkpt><trkpt lat="42.0984839" lon="11.8950104"><ele>134.33333333333334</ele><time>2026-04-18T09:22:57.029Z</time></trkpt><trkpt lat="42.0985549" lon="11.8950577"><ele>134.0</ele><time>2026-04-18T09:22:58.029Z</time></trkpt><trkpt lat="42.098612" lon="11.8951265"><ele>133.66666666666669</ele><time>2026-04-18T09:22:59.028Z</time></trkpt><trkpt lat="42.0986636" lon="11.8952098"><ele>133.33333333333334</ele><time>2026-04-18T09:23:00.028Z</time></trkpt><trkpt lat="42.0987117" lon="11.8952936"><ele>133.0</ele><time>2026-04-18T09:23:01.028Z</time></trkpt><trkpt lat="42.0987713" lon="11.8953928"><ele>134.0</ele><time>2026-04-18T09:23:02.028Z</time></trkpt><trkpt lat="42.0988289" lon="11.8955001"><ele>135.0</ele><time>2026-04-18T09:23:03.028Z</time></trkpt><trkpt lat="42.0988722" lon="11.8956066"><ele>136.0</ele><time>2026-04-18T09:23:04.03Z</time></trkpt><trkpt lat="42.098915" lon="11.8957317"><ele>137.0</ele><time>2026-04-18T09:23:05.028Z</time></trkpt><trkpt lat="42.0989507" lon="11.8958419"><ele>138.0</ele><time>2026-04-18T09:23:06.028Z</time></trkpt><trkpt lat="42.0990001" lon="11.8959564"><ele>141.0</ele><time>2026-04-18T09:23:08.03Z</time></trkpt><trkpt lat="42.0991048" lon="11.8960216"><ele>144.0</ele><time>2026-04-18T09:23:10.028Z</time></trkpt><trkpt lat="42.0992175" lon="11.896047"><ele>147.0</ele><time>2026-04-18T09:23:12.028Z</time></trkpt><trkpt lat="42.0993262" lon="11.8959907"><ele>150.0</ele><time>2026-04-18T09:23:14.028Z</time></trkpt><trkpt lat="42.0994273" lon="11.8959452"><ele>150.0</ele><time>2026-04-18T09:23:16.028Z</time></trkpt><trkpt lat="42.0995265" lon="11.8959548"><ele>150.0</ele><time>2026-04-18T09:23:18.029Z</time></trkpt><trkpt lat="42.0996117" lon="11.8960482"><ele>150.0</ele><time>2026-04-18T09:23:20.028Z</time></trkpt><trkpt lat="42.0996595" lon="11.8961205"><ele>150.0</ele><time>2026-04-18T09:23:21.028Z</time></trkpt><trkpt lat="42.0997125" lon="11.8962118"><ele>150.0</ele><time>2026-04-18T09:23:22.029Z</time></trkpt><trkpt lat="42.0997595" lon="11.8962959"><ele>150.0</ele><time>2026-04-18T09:23:23.028Z</time></trkpt><trkpt lat="42.0998461" lon="11.8964132"><ele>150.8</ele><time>2026-04-18T09:23:25.028Z</time></trkpt><trkpt lat="42.0999341" lon="11.8965082"><ele>151.6</ele><time>2026-04-18T09:23:27.029Z</time></trkpt><trkpt lat="42.10004" lon="11.8966073"><ele>152.4</ele><time>2026-04-18T09:23:29.028Z</time></trkpt><trkpt lat="42.1001013" lon="11.8966643"><ele>153.2</ele><time>2026-04-18T09:23:30.028Z</time></trkpt><trkpt lat="42.100188" lon="11.8967351"><ele>154.0</ele><time>2026-04-18T09:23:31.028Z</time></trkpt><trkpt lat="42.1002766" lon="11.8968105"><ele>154.0</ele><time>2026-04-18T09:23:32.029Z</time></trkpt><trkpt lat="42.1003718" lon="11.8968861"><ele>154.0</ele><time>2026-04-18T09:23:33.028Z</time></trkpt><trkpt lat="42.1004797" lon="11.8969622"><ele>154.0</ele><time>2026-04-18T09:23:34.029Z</time></trkpt><trkpt lat="42.1005841" lon="11.8970489"><ele>154.0</ele><time>2026-04-18T09:23:35.028Z</time></trkpt><trkpt lat="42.1006749" lon="11.8971428"><ele>152.6</ele><time>2026-04-18T09:23:36.028Z</time></trkpt><trkpt lat="42.1007684" lon="11.8972426"><ele>151.2</ele><time>2026-04-18T09:23:37.028Z</time></trkpt><trkpt lat="42.1008618" lon="11.897329"><ele>149.79999999999998</ele><time>2026-04-18T09:23:38.028Z</time></trkpt><trkpt lat="42.1009337" lon="11.8974046"><ele>148.4</ele><time>2026-04-18T09:23:39.028Z</time></trkpt><trkpt lat="42.1009835" lon="11.8974877"><ele>147.0</ele><time>2026-04-18T09:23:40.028Z</time></trkpt><trkpt lat="42.1010161" lon="11.8975773"><ele>148.6</ele><time>2026-04-18T09:23:41.029Z</time></trkpt><trkpt lat="42.1010363" lon="11.8976633"><ele>150.2</ele><time>2026-04-18T09:23:42.028Z</time></trkpt><trkpt lat="42.1010649" lon="11.8977922"><ele>151.8</ele><time>2026-04-18T09:23:44.028Z</time></trkpt><trkpt lat="42.1010839" lon="11.8978843"><ele>153.4</ele><time>2026-04-18T09:23:46.028Z</time></trkpt><trkpt lat="42.1011487" lon="11.8979888"><ele>155.0</ele><time>2026-04-18T09:23:48.028Z</time></trkpt><trkpt lat="42.1012657" lon="11.8980739"><ele>155.0</ele><time>2026-04-18T09:23:50.029Z</time></trkpt><trkpt lat="42.101324" lon="11.8981205"><ele>155.0</ele><time>2026-04-18T09:23:51.028Z</time></trkpt><trkpt lat="42.1013907" lon="11.898163"><ele>155.0</ele><time>2026-04-18T09:23:52.029Z</time></trkpt><trkpt lat="42.1014671" lon="11.8982102"><ele>155.0</ele><time>2026-04-18T09:23:53.028Z</time></trkpt><trkpt lat="42.101546" lon="11.8982593"><ele>155.0</ele><time>2026-04-18T09:23:54.029Z</time></trkpt><trkpt lat="42.1016097" lon="11.8983092"><ele>155.0</ele><time>2026-04-18T09:23:55.028Z</time></trkpt><trkpt lat="42.1016971" lon="11.8984009"><ele>156.2</ele><time>2026-04-18T09:23:57.029Z</time></trkpt><trkpt lat="42.1017696" lon="11.8984915"><ele>157.4</ele><time>2026-04-18T09:23:59.029Z</time></trkpt><trkpt lat="42.1018208" lon="11.8985595"><ele>158.60000000000002</ele><time>2026-04-18T09:24:02.029Z</time></trkpt><trkpt lat="42.1018658" lon="11.8986277"><ele>159.8</ele><time>2026-04-18T09:24:15.029Z</time></trkpt><trkpt lat="42.1019484" lon="11.8987534"><ele>161.0</ele><time>2026-04-18T09:24:17.028Z</time></trkpt><trkpt lat="42.1020442" lon="11.8988429"><ele>161.0</ele><time>2026-04-18T09:24:19.028Z</time></trkpt><trkpt lat="42.1021451" lon="11.8988584"><ele>161.0</ele><time>2026-04-18T09:24:21.028Z</time></trkpt><trkpt lat="42.1022596" lon="11.898893"><ele>161.0</ele><time>2026-04-18T09:24:23.029Z</time></trkpt><trkpt lat="42.1023292" lon="11.8989521"><ele>161.0</ele><time>2026-04-18T09:24:25.028Z</time></trkpt><trkpt lat="42.1023842" lon="11.8990115"><ele>161.0</ele><time>2026-04-18T09:25:40.029Z</time></trkpt><trkpt lat="42.1024595" lon="11.899104"><ele>160.4</ele><time>2026-04-18T09:25:42.028Z</time></trkpt><trkpt lat="42.1025311" lon="11.8992478"><ele>159.8</ele><time>2026-04-18T09:25:44.028Z</time></trkpt><trkpt lat="42.1025954" lon="11.8993816"><ele>159.20000000000002</ele><time>2026-04-18T09:25:46.029Z</time></trkpt><trkpt lat="42.1026387" lon="11.8994462"><ele>158.60000000000002</ele><time>2026-04-18T09:25:47.028Z</time></trkpt><trkpt lat="42.10268" lon="11.8995272"><ele>158.0</ele><time>2026-04-18T09:25:48.027Z</time></trkpt><trkpt lat="42.1027244" lon="11.8996154"><ele>158.00000000000003</ele><time>2026-04-18T09:25:49.029Z</time></trkpt><trkpt lat="42.102755" lon="11.8997027"><ele>158.0</ele><time>2026-04-18T09:25:50.028Z</time></trkpt><trkpt lat="42.1027857" lon="11.899791"><ele>158.0</ele><time>2026-04-18T09:25:51.029Z</time></trkpt><trkpt lat="42.1028213" lon="11.8998895"><ele>158.0</ele><time>2026-04-18T09:25:52.027Z</time></trkpt><trkpt lat="42.1028569" lon="11.8999826"><ele>158.0</ele><time>2026-04-18T09:25:53.028Z</time></trkpt><trkpt lat="42.1028885" lon="11.9000579"><ele>158.00000000000003</ele><time>2026-04-18T09:25:54.028Z</time></trkpt><trkpt lat="42.1029178" lon="11.900134"><ele>158.0</ele><time>2026-04-18T09:25:55.029Z</time></trkpt><trkpt lat="42.1029565" lon="11.9002391"><ele>160.8</ele><time>2026-04-18T09:25:56.028Z</time></trkpt><trkpt lat="42.1030087" lon="11.9003529"><ele>163.60000000000002</ele><time>2026-04-18T09:25:57.028Z</time></trkpt><trkpt lat="42.1030557" lon="11.9004381"><ele>166.39999999999998</ele><time>2026-04-18T09:25:58.028Z</time></trkpt><trkpt lat="42.1031094" lon="11.9005662"><ele>169.2</ele><time>2026-04-18T09:26:00.027Z</time></trkpt><trkpt lat="42.1031448" lon="11.900673"><ele>172.0</ele><time>2026-04-18T09:26:02.028Z</time></trkpt><trkpt lat="42.1031885" lon="11.9007863"><ele>172.00000000000003</ele><time>2026-04-18T09:26:04.028Z</time></trkpt><trkpt lat="42.1032181" lon="11.9008632"><ele>172.0</ele><time>2026-04-18T09:26:06.029Z</time></trkpt><trkpt lat="42.1032776" lon="11.900896"><ele>172.0</ele><time>2026-04-18T09:26:09.029Z</time></trkpt><trkpt lat="42.1033599" lon="11.9009181"><ele>172.0</ele><time>2026-04-18T09:26:11.029Z</time></trkpt><trkpt lat="42.1034216" lon="11.9009722"><ele>172.0</ele><time>2026-04-18T09:26:12.028Z</time></trkpt><trkpt lat="42.1034868" lon="11.9010109"><ele>172.00000000000003</ele><time>2026-04-18T09:26:13.028Z</time></trkpt><trkpt lat="42.1035738" lon="11.9010295"><ele>172.0</ele><time>2026-04-18T09:26:15.027Z</time></trkpt><trkpt lat="42.103646" lon="11.9010372"><ele>171.16666666666669</ele><time>2026-04-18T09:26:17.029Z</time></trkpt><trkpt lat="42.1037143" lon="11.9010336"><ele>170.33333333333334</ele><time>2026-04-18T09:26:19.028Z</time></trkpt><trkpt lat="42.1037751" lon="11.9009257"><ele>169.5</ele><time>2026-04-18T09:26:22.029Z</time></trkpt><trkpt lat="42.1038617" lon="11.9008749"><ele>168.66666666666666</ele><time>2026-04-18T09:26:24.029Z</time></trkpt><trkpt lat="42.1039673" lon="11.9008133"><ele>167.83333333333331</ele><time>2026-04-18T09:26:26.028Z</time></trkpt><trkpt lat="42.1040327" lon="11.900796"><ele>167.0</ele><time>2026-04-18T09:26:27.027Z</time></trkpt><trkpt lat="42.1041" lon="11.9007902"><ele>165.71428571428572</ele><time>2026-04-18T09:26:28.028Z</time></trkpt><trkpt lat="42.1041641" lon="11.900788"><ele>164.42857142857144</ele><time>2026-04-18T09:26:29.029Z</time></trkpt><trkpt lat="42.1042301" lon="11.9007764"><ele>163.14285714285717</ele><time>2026-04-18T09:26:30.028Z</time></trkpt><trkpt lat="42.1043043" lon="11.9007679"><ele>161.85714285714286</ele><time>2026-04-18T09:26:31.027Z</time></trkpt><trkpt lat="42.1043884" lon="11.9007705"><ele>160.57142857142858</ele><time>2026-04-18T09:26:32.028Z</time></trkpt><trkpt lat="42.1044713" lon="11.9007742"><ele>159.2857142857143</ele><time>2026-04-18T09:26:33.028Z</time></trkpt><trkpt lat="42.1045467" lon="11.9007809"><ele>158.0</ele><time>2026-04-18T09:26:34.029Z</time></trkpt><trkpt lat="42.1046313" lon="11.9007883"><ele>158.00000000000003</ele><time>2026-04-18T09:26:35.028Z</time></trkpt><trkpt lat="42.1047217" lon="11.9008009"><ele>158.0</ele><time>2026-04-18T09:26:36.029Z</time></trkpt><trkpt lat="42.1048075" lon="11.9008117"><ele>158.0</ele><time>2026-04-18T09:26:37.027Z</time></trkpt><trkpt lat="42.1048776" lon="11.9008221"><ele>158.0</ele><time>2026-04-18T09:26:38.028Z</time></trkpt><trkpt lat="42.1049475" lon="11.9008368"><ele>158.0</ele><time>2026-04-18T09:26:39.027Z</time></trkpt><trkpt lat="42.105008" lon="11.9008612"><ele>158.00000000000003</ele><time>2026-04-18T09:26:40.028Z</time></trkpt><trkpt lat="42.1050606" lon="11.9009129"><ele>158.0</ele><time>2026-04-18T09:26:41.028Z</time></trkpt><trkpt lat="42.105118" lon="11.9009858"><ele>161.0</ele><time>2026-04-18T09:26:42.028Z</time></trkpt><trkpt lat="42.1051872" lon="11.9010592"><ele>164.0</ele><time>2026-04-18T09:26:43.028Z</time></trkpt><trkpt lat="42.1052558" lon="11.9011162"><ele>167.0</ele><time>2026-04-18T09:26:44.028Z</time></trkpt><trkpt lat="42.1053441" lon="11.901168"><ele>170.0</ele><time>2026-04-18T09:26:46.028Z</time></trkpt><trkpt lat="42.1054093" lon="11.9011844"><ele>173.0</ele><time>2026-04-18T09:26:49.028Z</time></trkpt><trkpt lat="42.1054268" lon="11.9013071"><ele>176.0</ele><time>2026-04-18T09:29:35.027Z</time></trkpt><trkpt lat="42.1053873" lon="11.9013737"><ele>176.0</ele><time>2026-04-18T09:29:36.028Z</time></trkpt><trkpt lat="42.1053408" lon="11.9014538"><ele>176.0</ele><time>2026-04-18T09:29:37.027Z</time></trkpt><trkpt lat="42.1052828" lon="11.9015865"><ele>176.0</ele><time>2026-04-18T09:29:39.027Z</time></trkpt><trkpt lat="42.1053147" lon="11.9016723"><ele>176.0</ele><time>2026-04-18T09:29:42.027Z</time></trkpt><trkpt lat="42.105395" lon="11.9017586"><ele>176.0</ele><time>2026-04-18T09:29:46.028Z</time></trkpt><trkpt lat="42.1054808" lon="11.9018523"><ele>177.57142857142858</ele><time>2026-04-18T09:29:48.028Z</time></trkpt><trkpt lat="42.105519" lon="11.9019362"><ele>179.14285714285714</ele><time>2026-04-18T09:29:49.027Z</time></trkpt><trkpt lat="42.1055422" lon="11.9020296"><ele>180.71428571428572</ele><time>2026-04-18T09:29:50.028Z</time></trkpt><trkpt lat="42.1055703" lon="11.9021165"><ele>182.28571428571428</ele><time>2026-04-18T09:29:51.027Z</time></trkpt><trkpt lat="42.1056156" lon="11.9021995"><ele>183.85714285714286</ele><time>2026-04-18T09:29:52.027Z</time></trkpt><trkpt lat="42.1056704" lon="11.9022816"><ele>185.42857142857142</ele><time>2026-04-18T09:29:53.027Z</time></trkpt><trkpt lat="42.1057125" lon="11.9023565"><ele>187.0</ele><time>2026-04-18T09:29:54.027Z</time></trkpt><trkpt lat="42.1057835" lon="11.9024876"><ele>187.0</ele><time>2026-04-18T09:29:56.027Z</time></trkpt><trkpt lat="42.1058794" lon="11.9025695"><ele>187.0</ele><time>2026-04-18T09:29:58.028Z</time></trkpt><trkpt lat="42.1059774" lon="11.9025977"><ele>187.0</ele><time>2026-04-18T09:30:00.027Z</time></trkpt><trkpt lat="42.1060758" lon="11.9025415"><ele>187.0</ele><time>2026-04-18T09:30:02.027Z</time></trkpt><trkpt lat="42.1061318" lon="11.9024892"><ele>187.0</ele><time>2026-04-18T09:30:03.027Z</time></trkpt><trkpt lat="42.1061843" lon="11.9024285"><ele>187.0</ele><time>2026-04-18T09:30:04.027Z</time></trkpt><trkpt lat="42.106237" lon="11.9023619"><ele>187.0</ele><time>2026-04-18T09:30:05.027Z</time></trkpt><trkpt lat="42.106343" lon="11.9022695"><ele>187.0</ele><time>2026-04-18T09:30:07.027Z</time></trkpt><trkpt lat="42.1064012" lon="11.9022246"><ele>187.0</ele><time>2026-04-18T09:30:08.028Z</time></trkpt><trkpt lat="42.1065001" lon="11.9021819"><ele>187.0</ele><time>2026-04-18T09:30:10.027Z</time></trkpt><trkpt lat="42.1065676" lon="11.9021728"><ele>187.0</ele><time>2026-04-18T09:30:11.027Z</time></trkpt><trkpt lat="42.1066747" lon="11.9022057"><ele>188.2</ele><time>2026-04-18T09:30:13.027Z</time></trkpt><trkpt lat="42.1067577" lon="11.9022828"><ele>189.39999999999998</ele><time>2026-04-18T09:30:15.027Z</time></trkpt><trkpt lat="42.1068122" lon="11.9023833"><ele>190.60000000000002</ele><time>2026-04-18T09:30:17.027Z</time></trkpt><trkpt lat="42.1068891" lon="11.9025169"><ele>191.8</ele><time>2026-04-18T09:30:19.028Z</time></trkpt><trkpt lat="42.1069326" lon="11.9025941"><ele>193.0</ele><time>2026-04-18T09:30:20.027Z</time></trkpt><trkpt lat="42.1069713" lon="11.9026815"><ele>194.83333333333331</ele><time>2026-04-18T09:30:21.027Z</time></trkpt><trkpt lat="42.1070163" lon="11.902779"><ele>196.66666666666666</ele><time>2026-04-18T09:30:22.027Z</time></trkpt><trkpt lat="42.1070667" lon="11.9028772"><ele>198.5</ele><time>2026-04-18T09:30:23.027Z</time></trkpt><trkpt lat="42.1071232" lon="11.902963"><ele>200.33333333333331</ele><time>2026-04-18T09:30:24.027Z</time></trkpt><trkpt lat="42.1071813" lon="11.9030483"><ele>202.16666666666666</ele><time>2026-04-18T09:30:25.027Z</time></trkpt><trkpt lat="42.107226" lon="11.9031345"><ele>204.0</ele><time>2026-04-18T09:30:26.028Z</time></trkpt><trkpt lat="42.1072529" lon="11.903224"><ele>204.0</ele><time>2026-04-18T09:30:27.026Z</time></trkpt><trkpt lat="42.1072904" lon="11.9033414"><ele>204.0</ele><time>2026-04-18T09:30:29.028Z</time></trkpt><trkpt lat="42.1073567" lon="11.9033701"><ele>204.0</ele><time>2026-04-18T09:30:32.027Z</time></trkpt><trkpt lat="42.1074114" lon="11.9034179"><ele>204.0</ele><time>2026-04-18T09:30:34.027Z</time></trkpt><trkpt lat="42.1074459" lon="11.9035192"><ele>204.0</ele><time>2026-04-18T09:30:48.027Z</time></trkpt><trkpt lat="42.1075096" lon="11.9036363"><ele>204.0</ele><time>2026-04-18T09:30:49.027Z</time></trkpt><trkpt lat="42.1075599" lon="11.9037027"><ele>207.39999999999998</ele><time>2026-04-18T09:30:50.027Z</time></trkpt><trkpt lat="42.1076556" lon="11.9036971"><ele>210.8</ele><time>2026-04-18T09:30:52.027Z</time></trkpt><trkpt lat="42.1077564" lon="11.9036093"><ele>214.20000000000002</ele><time>2026-04-18T09:30:54.027Z</time></trkpt><trkpt lat="42.1078138" lon="11.9035616"><ele>217.60000000000002</ele><time>2026-04-18T09:30:55.026Z</time></trkpt><trkpt lat="42.1079374" lon="11.9035541"><ele>221.0</ele><time>2026-04-18T09:30:57.027Z</time></trkpt><trkpt lat="42.1080188" lon="11.9035778"><ele>221.0</ele><time>2026-04-18T09:30:58.027Z</time></trkpt><trkpt lat="42.1081115" lon="11.903586"><ele>221.00000000000003</ele><time>2026-04-18T09:30:59.027Z</time></trkpt><trkpt lat="42.1081923" lon="11.9035838"><ele>221.00000000000003</ele><time>2026-04-18T09:31:00.027Z</time></trkpt><trkpt lat="42.1082957" lon="11.9035905"><ele>221.0</ele><time>2026-04-18T09:31:02.028Z</time></trkpt><trkpt lat="42.1084027" lon="11.9036766"><ele>221.0</ele><time>2026-04-18T09:31:04.027Z</time></trkpt><trkpt lat="42.1084442" lon="11.9037547"><ele>220.85714285714286</ele><time>2026-04-18T09:31:05.028Z</time></trkpt><trkpt lat="42.1084802" lon="11.9038469"><ele>220.71428571428572</ele><time>2026-04-18T09:31:06.028Z</time></trkpt><trkpt lat="42.1085028" lon="11.90393"><ele>220.57142857142856</ele><time>2026-04-18T09:31:07.026Z</time></trkpt><trkpt lat="42.1085692" lon="11.904006"><ele>220.42857142857144</ele><time>2026-04-18T09:31:09.027Z</time></trkpt><trkpt lat="42.1086259" lon="11.9040501"><ele>220.28571428571428</ele><time>2026-04-18T09:31:10.027Z</time></trkpt><trkpt lat="42.1086811" lon="11.9041222"><ele>220.14285714285714</ele><time>2026-04-18T09:31:11.027Z</time></trkpt><trkpt lat="42.108728" lon="11.9042002"><ele>220.0</ele><time>2026-04-18T09:31:12.027Z</time></trkpt><trkpt lat="42.1087823" lon="11.9042865"><ele>222.4</ele><time>2026-04-18T09:31:13.028Z</time></trkpt><trkpt lat="42.108837" lon="11.9043886"><ele>224.8</ele><time>2026-04-18T09:31:14.027Z</time></trkpt><trkpt lat="42.1088857" lon="11.9044758"><ele>227.2</ele><time>2026-04-18T09:31:15.028Z</time></trkpt><trkpt lat="42.1089661" lon="11.9045963"><ele>229.6</ele><time>2026-04-18T09:31:17.026Z</time></trkpt><trkpt lat="42.1090118" lon="11.9046607"><ele>232.0</ele><time>2026-04-18T09:31:18.027Z</time></trkpt><trkpt lat="42.1090825" lon="11.9047649"><ele>231.99999999999997</ele><time>2026-04-18T09:31:20.027Z</time></trkpt><trkpt lat="42.1091762" lon="11.9048148"><ele>232.0</ele><time>2026-04-18T09:31:22.027Z</time></trkpt><trkpt lat="42.109299" lon="11.9048702"><ele>232.0</ele><time>2026-04-18T09:31:24.027Z</time></trkpt><trkpt lat="42.1093689" lon="11.904903"><ele>232.0</ele><time>2026-04-18T09:31:25.027Z</time></trkpt><trkpt lat="42.109425" lon="11.9049533"><ele>231.99999999999997</ele><time>2026-04-18T09:31:26.027Z</time></trkpt><trkpt lat="42.1094754" lon="11.90502"><ele>232.0</ele><time>2026-04-18T09:31:27.027Z</time></trkpt><trkpt lat="42.1095296" lon="11.9050788"><ele>234.6</ele><time>2026-04-18T09:31:28.027Z</time></trkpt><trkpt lat="42.1096292" lon="11.9051355"><ele>237.2</ele><time>2026-04-18T09:31:30.027Z</time></trkpt><trkpt lat="42.1097352" lon="11.9051787"><ele>239.8</ele><time>2026-04-18T09:31:32.028Z</time></trkpt><trkpt lat="42.109832" lon="11.9052447"><ele>242.4</ele><time>2026-04-18T09:31:34.026Z</time></trkpt><trkpt lat="42.1099112" lon="11.9053608"><ele>245.0</ele><time>2026-04-18T09:31:36.027Z</time></trkpt><trkpt lat="42.1099791" lon="11.9054745"><ele>245.0</ele><time>2026-04-18T09:31:38.027Z</time></trkpt><trkpt lat="42.1100302" lon="11.905527"><ele>245.0</ele><time>2026-04-18T09:31:39.027Z</time></trkpt><trkpt lat="42.1100873" lon="11.9055726"><ele>245.0</ele><time>2026-04-18T09:31:40.027Z</time></trkpt><trkpt lat="42.1101976" lon="11.9056192"><ele>245.0</ele><time>2026-04-18T09:31:42.027Z</time></trkpt><trkpt lat="42.1103223" lon="11.9055679"><ele>245.0</ele><time>2026-04-18T09:31:44.026Z</time></trkpt><trkpt lat="42.1103864" lon="11.9055047"><ele>245.00000000000003</ele><time>2026-04-18T09:31:45.027Z</time></trkpt><trkpt lat="42.1104566" lon="11.9054229"><ele>245.0</ele><time>2026-04-18T09:31:46.027Z</time></trkpt><trkpt lat="42.1105304" lon="11.905329"><ele>245.0</ele><time>2026-04-18T09:31:47.028Z</time></trkpt><trkpt lat="42.1105962" lon="11.9052489"><ele>245.0</ele><time>2026-04-18T09:31:48.027Z</time></trkpt><trkpt lat="42.1106527" lon="11.9051813"><ele>245.00000000000003</ele><time>2026-04-18T09:31:49.027Z</time></trkpt><trkpt lat="42.1107066" lon="11.9051237"><ele>245.0</ele><time>2026-04-18T09:31:50.027Z</time></trkpt><trkpt lat="42.1107625" lon="11.9050816"><ele>245.00000000000003</ele><time>2026-04-18T09:31:51.027Z</time></trkpt><trkpt lat="42.1108549" lon="11.905051"><ele>245.0</ele><time>2026-04-18T09:31:53.027Z</time></trkpt><trkpt lat="42.1109421" lon="11.9051434"><ele>245.0</ele><time>2026-04-18T09:31:55.026Z</time></trkpt><trkpt lat="42.1109835" lon="11.9052308"><ele>245.0</ele><time>2026-04-18T09:31:56.028Z</time></trkpt><trkpt lat="42.1110164" lon="11.9053232"><ele>245.00000000000003</ele><time>2026-04-18T09:31:57.029Z</time></trkpt><trkpt lat="42.1110419" lon="11.9054186"><ele>245.0</ele><time>2026-04-18T09:31:58.027Z</time></trkpt><trkpt lat="42.111064" lon="11.9055187"><ele>246.50000000000003</ele><time>2026-04-18T09:31:59.027Z</time></trkpt><trkpt lat="42.1110711" lon="11.9056222"><ele>248.0</ele><time>2026-04-18T09:32:00.028Z</time></trkpt><trkpt lat="42.1110783" lon="11.9057204"><ele>249.5</ele><time>2026-04-18T09:32:01.028Z</time></trkpt><trkpt lat="42.111086" lon="11.9058249"><ele>251.0</ele><time>2026-04-18T09:32:02.027Z</time></trkpt><trkpt lat="42.1110912" lon="11.9059287"><ele>252.50000000000003</ele><time>2026-04-18T09:32:03.027Z</time></trkpt><trkpt lat="42.1110926" lon="11.9060189"><ele>254.0</ele><time>2026-04-18T09:32:04.027Z</time></trkpt><trkpt lat="42.1110928" lon="11.9061304"><ele>255.50000000000003</ele><time>2026-04-18T09:32:05.028Z</time></trkpt><trkpt lat="42.1111006" lon="11.9062517"><ele>257.0</ele><time>2026-04-18T09:32:06.027Z</time></trkpt><trkpt lat="42.1111113" lon="11.9063463"><ele>258.5</ele><time>2026-04-18T09:32:07.028Z</time></trkpt><trkpt lat="42.1111118" lon="11.9064505"><ele>260.0</ele><time>2026-04-18T09:32:08.027Z</time></trkpt><trkpt lat="42.1111125" lon="11.9065589"><ele>261.5</ele><time>2026-04-18T09:32:09.028Z</time></trkpt><trkpt lat="42.1111128" lon="11.9066591"><ele>263.0</ele><time>2026-04-18T09:32:10.026Z</time></trkpt><trkpt lat="42.1111102" lon="11.9067546"><ele>265.8</ele><time>2026-04-18T09:32:11.027Z</time></trkpt><trkpt lat="42.111106" lon="11.9068457"><ele>268.6</ele><time>2026-04-18T09:32:12.027Z</time></trkpt><trkpt lat="42.1110505" lon="11.9070117"><ele>271.4</ele><time>2026-04-18T09:32:14.027Z</time></trkpt><trkpt lat="42.1109944" lon="11.9071052"><ele>274.2</ele><time>2026-04-18T09:32:15.027Z</time></trkpt><trkpt lat="42.110954" lon="11.9071746"><ele>277.0</ele><time>2026-04-18T09:32:16.027Z</time></trkpt><trkpt lat="42.1109234" lon="11.9073507"><ele>277.0</ele><time>2026-04-18T09:32:18.027Z</time></trkpt><trkpt lat="42.1109063" lon="11.9074357"><ele>277.0</ele><time>2026-04-18T09:32:19.027Z</time></trkpt><trkpt lat="42.1108873" lon="11.9075208"><ele>277.0</ele><time>2026-04-18T09:32:20.027Z</time></trkpt><trkpt lat="42.1108473" lon="11.9076594"><ele>277.0</ele><time>2026-04-18T09:32:22.027Z</time></trkpt><trkpt lat="42.1108225" lon="11.9077462"><ele>277.0</ele><time>2026-04-18T09:32:23.027Z</time></trkpt><trkpt lat="42.1107789" lon="11.9078752"><ele>277.0</ele><time>2026-04-18T09:32:25.027Z</time></trkpt><trkpt lat="42.110707" lon="11.9080249"><ele>279.5</ele><time>2026-04-18T09:32:27.027Z</time></trkpt><trkpt lat="42.1106886" lon="11.9081564"><ele>282.0</ele><time>2026-04-18T09:32:29.028Z</time></trkpt><trkpt lat="42.1106766" lon="11.9082777"><ele>284.5</ele><time>2026-04-18T09:32:31.027Z</time></trkpt><trkpt lat="42.1106" lon="11.9083955"><ele>287.0</ele><time>2026-04-18T09:32:33.027Z</time></trkpt><trkpt lat="42.1105502" lon="11.9084599"><ele>289.5</ele><time>2026-04-18T09:32:34.027Z</time></trkpt><trkpt lat="42.1104959" lon="11.9085147"><ele>292.0</ele><time>2026-04-18T09:32:35.027Z</time></trkpt><trkpt lat="42.1104334" lon="11.9085608"><ele>294.8</ele><time>2026-04-18T09:32:36.026Z</time></trkpt><trkpt lat="42.1103782" lon="11.9086117"><ele>297.6</ele><time>2026-04-18T09:32:37.026Z</time></trkpt><trkpt lat="42.1102937" lon="11.9086994"><ele>300.40000000000003</ele><time>2026-04-18T09:32:39.027Z</time></trkpt><trkpt lat="42.1102348" lon="11.9087973"><ele>303.2</ele><time>2026-04-18T09:32:41.027Z</time></trkpt><trkpt lat="42.1102039" lon="11.9088837"><ele>306.0</ele><time>2026-04-18T09:32:43.026Z</time></trkpt><trkpt lat="42.1100547" lon="11.9089736"><ele>306.0</ele><time>2026-04-18T09:33:01.029Z</time></trkpt><trkpt lat="42.1099404" lon="11.9090033"><ele>306.0</ele><time>2026-04-18T09:33:02.027Z</time></trkpt><trkpt lat="42.109829" lon="11.9090128"><ele>306.0</ele><time>2026-04-18T09:33:03.028Z</time></trkpt><trkpt lat="42.1097392" lon="11.9090191"><ele>306.0</ele><time>2026-04-18T09:33:04.026Z</time></trkpt><trkpt lat="42.1096428" lon="11.9090484"><ele>306.0</ele><time>2026-04-18T09:33:06.027Z</time></trkpt><trkpt lat="42.1096246" lon="11.9091716"><ele>306.6666666666667</ele><time>2026-04-18T09:33:09.026Z</time></trkpt><trkpt lat="42.1096861" lon="11.9093246"><ele>307.3333333333333</ele><time>2026-04-18T09:33:11.027Z</time></trkpt><trkpt lat="42.1097234" lon="11.9093956"><ele>308.0</ele><time>2026-04-18T09:33:12.027Z</time></trkpt><trkpt lat="42.1097609" lon="11.9094736"><ele>308.66666666666663</ele><time>2026-04-18T09:33:13.028Z</time></trkpt><trkpt lat="42.1098109" lon="11.9095646"><ele>309.3333333333333</ele><time>2026-04-18T09:33:14.027Z</time></trkpt><trkpt lat="42.1098628" lon="11.9096749"><ele>310.0</ele><time>2026-04-18T09:33:15.027Z</time></trkpt><trkpt lat="42.1099161" lon="11.9097938"><ele>311.5</ele><time>2026-04-18T09:33:16.026Z</time></trkpt><trkpt lat="42.109974" lon="11.9099049"><ele>313.0</ele><time>2026-04-18T09:33:17.026Z</time></trkpt><trkpt lat="42.1100219" lon="11.9099974"><ele>314.5</ele><time>2026-04-18T09:33:18.027Z</time></trkpt><trkpt lat="42.1100523" lon="11.9100788"><ele>316.0</ele><time>2026-04-18T09:33:19.027Z</time></trkpt><trkpt lat="42.1101202" lon="11.9102042"><ele>317.5</ele><time>2026-04-18T09:33:21.027Z</time></trkpt><trkpt lat="42.1101552" lon="11.9102752"><ele>319.0</ele><time>2026-04-18T09:33:22.026Z</time></trkpt><trkpt lat="42.1101922" lon="11.9103533"><ele>320.16666666666663</ele><time>2026-04-18T09:33:23.027Z</time></trkpt><trkpt lat="42.1102349" lon="11.9104189"><ele>321.3333333333333</ele><time>2026-04-18T09:33:24.027Z</time></trkpt><trkpt lat="42.1102828" lon="11.9104766"><ele>322.5</ele><time>2026-04-18T09:33:28.027Z</time></trkpt><trkpt lat="42.1103416" lon="11.91053"><ele>323.6666666666667</ele><time>2026-04-18T09:34:05.026Z</time></trkpt><trkpt lat="42.1103684" lon="11.9106272"><ele>324.83333333333337</ele><time>2026-04-18T09:34:08.028Z</time></trkpt><trkpt lat="42.1104133" lon="11.9107342"><ele>326.0</ele><time>2026-04-18T09:34:10.026Z</time></trkpt><trkpt lat="42.1104769" lon="11.9108768"><ele>326.6</ele><time>2026-04-18T09:34:12.026Z</time></trkpt><trkpt lat="42.1105503" lon="11.9110071"><ele>327.20000000000005</ele><time>2026-04-18T09:34:14.026Z</time></trkpt><trkpt lat="42.1106194" lon="11.9111143"><ele>327.79999999999995</ele><time>2026-04-18T09:34:16.028Z</time></trkpt><trkpt lat="42.1107098" lon="11.9111893"><ele>328.4</ele><time>2026-04-18T09:34:18.026Z</time></trkpt><trkpt lat="42.1107831" lon="11.9112002"><ele>329.0</ele><time>2026-04-18T09:34:19.026Z</time></trkpt><trkpt lat="42.1109335" lon="11.9111806"><ele>331.6666666666667</ele><time>2026-04-18T09:34:21.027Z</time></trkpt><trkpt lat="42.1110148" lon="11.9111428"><ele>334.33333333333337</ele><time>2026-04-18T09:34:22.026Z</time></trkpt><trkpt lat="42.1111006" lon="11.911092"><ele>337.0</ele><time>2026-04-18T09:34:23.027Z</time></trkpt><trkpt lat="42.1111745" lon="11.911042"><ele>339.6666666666667</ele><time>2026-04-18T09:34:24.027Z</time></trkpt><trkpt lat="42.1112515" lon="11.9110054"><ele>342.3333333333333</ele><time>2026-04-18T09:34:25.027Z</time></trkpt><trkpt lat="42.1113302" lon="11.9109637"><ele>345.0</ele><time>2026-04-18T09:34:26.026Z</time></trkpt><trkpt lat="42.1114039" lon="11.9109204"><ele>344.3333333333333</ele><time>2026-04-18T09:34:27.026Z</time></trkpt><trkpt lat="42.1114803" lon="11.9108799"><ele>343.6666666666667</ele><time>2026-04-18T09:34:28.026Z</time></trkpt><trkpt lat="42.1115708" lon="11.9108324"><ele>343.0</ele><time>2026-04-18T09:34:29.026Z</time></trkpt><trkpt lat="42.1116588" lon="11.9107738"><ele>342.33333333333337</ele><time>2026-04-18T09:34:30.027Z</time></trkpt><trkpt lat="42.1117384" lon="11.9107252"><ele>341.6666666666667</ele><time>2026-04-18T09:34:31.026Z</time></trkpt><trkpt lat="42.1118191" lon="11.9107014"><ele>341.0</ele><time>2026-04-18T09:34:32.027Z</time></trkpt><trkpt lat="42.1118985" lon="11.9106904"><ele>341.0</ele><time>2026-04-18T09:34:33.026Z</time></trkpt><trkpt lat="42.111987" lon="11.9107041"><ele>341.0</ele><time>2026-04-18T09:34:34.026Z</time></trkpt><trkpt lat="42.1120829" lon="11.9107229"><ele>341.0</ele><time>2026-04-18T09:34:35.026Z</time></trkpt><trkpt lat="42.1122039" lon="11.9107397"><ele>341.0</ele><time>2026-04-18T09:34:36.027Z</time></trkpt><trkpt lat="42.1123021" lon="11.9107615"><ele>341.0</ele><time>2026-04-18T09:34:37.026Z</time></trkpt><trkpt lat="42.1123942" lon="11.9107935"><ele>341.8</ele><time>2026-04-18T09:34:38.027Z</time></trkpt><trkpt lat="42.112476" lon="11.9108162"><ele>342.6</ele><time>2026-04-18T09:34:39.026Z</time></trkpt><trkpt lat="42.1125543" lon="11.9108323"><ele>343.4</ele><time>2026-04-18T09:34:40.027Z</time></trkpt><trkpt lat="42.1126295" lon="11.9109207"><ele>344.2</ele><time>2026-04-18T09:34:42.026Z</time></trkpt><trkpt lat="42.1126963" lon="11.9110685"><ele>345.0</ele><time>2026-04-18T09:34:44.027Z</time></trkpt><trkpt lat="42.1127158" lon="11.9111743"><ele>346.6666666666667</ele><time>2026-04-18T09:34:45.028Z</time></trkpt><trkpt lat="42.1127387" lon="11.9112769"><ele>348.3333333333333</ele><time>2026-04-18T09:34:46.027Z</time></trkpt><trkpt lat="42.1127652" lon="11.9113642"><ele>350.0</ele><time>2026-04-18T09:34:47.027Z</time></trkpt><trkpt lat="42.1128449" lon="11.9114725"><ele>351.66666666666663</ele><time>2026-04-18T09:34:49.026Z</time></trkpt><trkpt lat="42.112911" lon="11.9115292"><ele>353.3333333333333</ele><time>2026-04-18T09:34:50.027Z</time></trkpt><trkpt lat="42.1129984" lon="11.9115815"><ele>355.0</ele><time>2026-04-18T09:34:51.026Z</time></trkpt><trkpt lat="42.1130983" lon="11.911624"><ele>355.0</ele><time>2026-04-18T09:34:52.029Z</time></trkpt><trkpt lat="42.1131954" lon="11.9116569"><ele>355.0</ele><time>2026-04-18T09:34:53.027Z</time></trkpt><trkpt lat="42.1132834" lon="11.9116783"><ele>355.0</ele><time>2026-04-18T09:34:54.027Z</time></trkpt><trkpt lat="42.1133588" lon="11.9116988"><ele>355.0</ele><time>2026-04-18T09:34:55.026Z</time></trkpt><trkpt lat="42.1134304" lon="11.9117102"><ele>355.0</ele><time>2026-04-18T09:34:56.026Z</time></trkpt><trkpt lat="42.1135302" lon="11.9116924"><ele>355.0</ele><time>2026-04-18T09:34:58.026Z</time></trkpt><trkpt lat="42.1135975" lon="11.9116704"><ele>354.0</ele><time>2026-04-18T09:35:00.028Z</time></trkpt><trkpt lat="42.1136958" lon="11.9116271"><ele>353.0</ele><time>2026-04-18T09:35:02.027Z</time></trkpt><trkpt lat="42.1137645" lon="11.9115998"><ele>352.0</ele><time>2026-04-18T09:35:04.027Z</time></trkpt><trkpt lat="42.1139437" lon="11.9115801"><ele>351.0</ele><time>2026-04-18T09:35:25.026Z</time></trkpt><trkpt lat="42.1140207" lon="11.9115817"><ele>350.0</ele><time>2026-04-18T09:35:27.026Z</time></trkpt><trkpt lat="42.1141485" lon="11.911568"><ele>350.0</ele><time>2026-04-18T09:35:28.026Z</time></trkpt><trkpt lat="42.1142504" lon="11.9115548"><ele>350.0</ele><time>2026-04-18T09:35:29.027Z</time></trkpt><trkpt lat="42.1143243" lon="11.9115347"><ele>350.0</ele><time>2026-04-18T09:35:30.026Z</time></trkpt><trkpt lat="42.1144423" lon="11.9115153"><ele>350.0</ele><time>2026-04-18T09:35:32.027Z</time></trkpt><trkpt lat="42.1145278" lon="11.9115636"><ele>350.0</ele><time>2026-04-18T09:35:34.026Z</time></trkpt><trkpt lat="42.1145948" lon="11.9116962"><ele>351.5</ele><time>2026-04-18T09:35:36.028Z</time></trkpt><trkpt lat="42.1146382" lon="11.9118339"><ele>353.0</ele><time>2026-04-18T09:35:38.026Z</time></trkpt><trkpt lat="42.1146543" lon="11.9119768"><ele>354.5</ele><time>2026-04-18T09:35:40.027Z</time></trkpt><trkpt lat="42.1146562" lon="11.9120729"><ele>356.0</ele><time>2026-04-18T09:35:41.026Z</time></trkpt><trkpt lat="42.1146604" lon="11.9121772"><ele>357.5</ele><time>2026-04-18T09:35:42.026Z</time></trkpt><trkpt lat="42.1146732" lon="11.9122786"><ele>359.0</ele><time>2026-04-18T09:35:43.026Z</time></trkpt><trkpt lat="42.1146887" lon="11.9123758"><ele>359.0</ele><time>2026-04-18T09:35:44.026Z</time></trkpt><trkpt lat="42.1147062" lon="11.9124783"><ele>359.0</ele><time>2026-04-18T09:35:45.026Z</time></trkpt><trkpt lat="42.1147303" lon="11.9125769"><ele>359.0</ele><time>2026-04-18T09:35:46.027Z</time></trkpt><trkpt lat="42.1147565" lon="11.9126702"><ele>359.0</ele><time>2026-04-18T09:35:47.027Z</time></trkpt><trkpt lat="42.1147847" lon="11.9127713"><ele>359.0</ele><time>2026-04-18T09:35:48.026Z</time></trkpt><trkpt lat="42.1148124" lon="11.9128821"><ele>359.0</ele><time>2026-04-18T09:35:49.026Z</time></trkpt><trkpt lat="42.1148284" lon="11.9129815"><ele>360.1666666666667</ele><time>2026-04-18T09:35:50.026Z</time></trkpt><trkpt lat="42.1148181" lon="11.9131034"><ele>361.33333333333337</ele><time>2026-04-18T09:35:51.026Z</time></trkpt><trkpt lat="42.1148007" lon="11.9132169"><ele>362.5</ele><time>2026-04-18T09:35:52.026Z</time></trkpt><trkpt lat="42.1147817" lon="11.9133291"><ele>363.6666666666667</ele><time>2026-04-18T09:35:53.027Z</time></trkpt><trkpt lat="42.1147662" lon="11.9134342"><ele>364.8333333333333</ele><time>2026-04-18T09:35:54.026Z</time></trkpt><trkpt lat="42.114751" lon="11.9135359"><ele>366.0</ele><time>2026-04-18T09:35:55.028Z</time></trkpt><trkpt lat="42.1147385" lon="11.9136336"><ele>368.6</ele><time>2026-04-18T09:35:56.027Z</time></trkpt><trkpt lat="42.114722" lon="11.9137777"><ele>371.20000000000005</ele><time>2026-04-18T09:35:58.026Z</time></trkpt><trkpt lat="42.1147038" lon="11.9139511"><ele>373.79999999999995</ele><time>2026-04-18T09:36:00.028Z</time></trkpt><trkpt lat="42.1146878" lon="11.9140667"><ele>376.4</ele><time>2026-04-18T09:36:01.026Z</time></trkpt><trkpt lat="42.1146642" lon="11.9141851"><ele>379.0</ele><time>2026-04-18T09:36:02.026Z</time></trkpt><trkpt lat="42.1146421" lon="11.9143209"><ele>382.4</ele><time>2026-04-18T09:36:03.027Z</time></trkpt><trkpt lat="42.1146293" lon="11.9144554"><ele>385.79999999999995</ele><time>2026-04-18T09:36:04.026Z</time></trkpt><trkpt lat="42.1146173" lon="11.9145717"><ele>389.20000000000005</ele><time>2026-04-18T09:36:05.027Z</time></trkpt><trkpt lat="42.1145997" lon="11.9146945"><ele>392.6</ele><time>2026-04-18T09:36:06.026Z</time></trkpt><trkpt lat="42.1145842" lon="11.9148171"><ele>396.0</ele><time>2026-04-18T09:36:07.027Z</time></trkpt><trkpt lat="42.1145696" lon="11.9149356"><ele>396.0</ele><time>2026-04-18T09:36:08.027Z</time></trkpt><trkpt lat="42.1145517" lon="11.9150436"><ele>396.0</ele><time>2026-04-18T09:36:09.026Z</time></trkpt><trkpt lat="42.1145408" lon="11.9151288"><ele>396.0</ele><time>2026-04-18T09:36:10.027Z</time></trkpt><trkpt lat="42.1145348" lon="11.9152456"><ele>396.0</ele><time>2026-04-18T09:36:12.026Z</time></trkpt><trkpt lat="42.1145664" lon="11.9153442"><ele>396.0</ele><time>2026-04-18T09:36:14.026Z</time></trkpt><trkpt lat="42.1146007" lon="11.9154337"><ele>396.0</ele><time>2026-04-18T09:36:15.026Z</time></trkpt><trkpt lat="42.1146339" lon="11.9155176"><ele>396.0</ele><time>2026-04-18T09:36:16.026Z</time></trkpt><trkpt lat="42.1146779" lon="11.9156366"><ele>396.0</ele><time>2026-04-18T09:36:18.026Z</time></trkpt><trkpt lat="42.1147061" lon="11.9157231"><ele>396.0</ele><time>2026-04-18T09:36:20.027Z</time></trkpt><trkpt lat="42.114736" lon="11.9158093"><ele>396.0</ele><time>2026-04-18T09:36:21.026Z</time></trkpt><trkpt lat="42.1147806" lon="11.9159085"><ele>396.0</ele><time>2026-04-18T09:36:22.026Z</time></trkpt><trkpt lat="42.114835" lon="11.9160253"><ele>396.0</ele><time>2026-04-18T09:36:23.027Z</time></trkpt><trkpt lat="42.114895" lon="11.9161525"><ele>397.75</ele><time>2026-04-18T09:36:24.026Z</time></trkpt><trkpt lat="42.1149604" lon="11.9162974"><ele>399.5</ele><time>2026-04-18T09:36:25.026Z</time></trkpt><trkpt lat="42.11502" lon="11.9164494"><ele>401.25</ele><time>2026-04-18T09:36:26.026Z</time></trkpt><trkpt lat="42.1150768" lon="11.9165762"><ele>403.0</ele><time>2026-04-18T09:36:27.026Z</time></trkpt><trkpt lat="42.1151221" lon="11.9167054"><ele>403.4</ele><time>2026-04-18T09:36:28.027Z</time></trkpt><trkpt lat="42.1151681" lon="11.9168357"><ele>403.79999999999995</ele><time>2026-04-18T09:36:29.027Z</time></trkpt><trkpt lat="42.1152235" lon="11.9169486"><ele>404.2</ele><time>2026-04-18T09:36:30.026Z</time></trkpt><trkpt lat="42.1153003" lon="11.9170422"><ele>404.6</ele><time>2026-04-18T09:36:31.026Z</time></trkpt><trkpt lat="42.115383" lon="11.9171375"><ele>405.0</ele><time>2026-04-18T09:36:32.026Z</time></trkpt><trkpt lat="42.1154594" lon="11.9172375"><ele>405.0</ele><time>2026-04-18T09:36:33.027Z</time></trkpt><trkpt lat="42.1155371" lon="11.9173466"><ele>405.0</ele><time>2026-04-18T09:36:34.027Z</time></trkpt><trkpt lat="42.1156181" lon="11.9174675"><ele>405.0</ele><time>2026-04-18T09:36:35.027Z</time></trkpt><trkpt lat="42.1157042" lon="11.9175929"><ele>405.0</ele><time>2026-04-18T09:36:36.027Z</time></trkpt><trkpt lat="42.1157902" lon="11.917719"><ele>409.0</ele><time>2026-04-18T09:36:37.026Z</time></trkpt><trkpt lat="42.1158773" lon="11.9178464"><ele>413.0</ele><time>2026-04-18T09:36:38.025Z</time></trkpt><trkpt lat="42.1159644" lon="11.9179773"><ele>417.0</ele><time>2026-04-18T09:36:39.027Z</time></trkpt><trkpt lat="42.1160578" lon="11.9181097"><ele>421.0</ele><time>2026-04-18T09:36:40.026Z</time></trkpt><trkpt lat="42.1161497" lon="11.918257"><ele>421.75</ele><time>2026-04-18T09:36:41.026Z</time></trkpt><trkpt lat="42.1162428" lon="11.9184018"><ele>422.5</ele><time>2026-04-18T09:36:42.026Z</time></trkpt><trkpt lat="42.1163386" lon="11.9185482"><ele>423.25</ele><time>2026-04-18T09:36:43.026Z</time></trkpt><trkpt lat="42.116429" lon="11.918675"><ele>424.0</ele><time>2026-04-18T09:36:44.026Z</time></trkpt><trkpt lat="42.1165012" lon="11.9187772"><ele>424.0</ele><time>2026-04-18T09:36:45.026Z</time></trkpt><trkpt lat="42.1165647" lon="11.9188704"><ele>424.0</ele><time>2026-04-18T09:36:46.026Z</time></trkpt><trkpt lat="42.1166238" lon="11.9189675"><ele>424.0</ele><time>2026-04-18T09:36:47.026Z</time></trkpt><trkpt lat="42.1166631" lon="11.9190679"><ele>424.0</ele><time>2026-04-18T09:36:48.026Z</time></trkpt><trkpt lat="42.1166846" lon="11.9191765"><ele>424.0</ele><time>2026-04-18T09:36:49.027Z</time></trkpt><trkpt lat="42.1166937" lon="11.9193093"><ele>425.75</ele><time>2026-04-18T09:36:50.026Z</time></trkpt><trkpt lat="42.1166892" lon="11.9194617"><ele>427.5</ele><time>2026-04-18T09:36:51.026Z</time></trkpt><trkpt lat="42.1166615" lon="11.9196363"><ele>429.25</ele><time>2026-04-18T09:36:52.026Z</time></trkpt><trkpt lat="42.1166232" lon="11.9198426"><ele>431.0</ele><time>2026-04-18T09:36:53.026Z</time></trkpt><trkpt lat="42.1165952" lon="11.9200434"><ele>431.3333333333333</ele><time>2026-04-18T09:36:54.027Z</time></trkpt><trkpt lat="42.1165847" lon="11.9202453"><ele>431.66666666666663</ele><time>2026-04-18T09:36:55.026Z</time></trkpt><trkpt lat="42.1165756" lon="11.9204674"><ele>432.0</ele><time>2026-04-18T09:36:56.026Z</time></trkpt><trkpt lat="42.1165611" lon="11.9206733"><ele>432.0</ele><time>2026-04-18T09:36:57.026Z</time></trkpt><trkpt lat="42.1165532" lon="11.9208378"><ele>432.00000000000006</ele><time>2026-04-18T09:36:58.026Z</time></trkpt><trkpt lat="42.1165457" lon="11.9209625"><ele>432.00000000000006</ele><time>2026-04-18T09:36:59.027Z</time></trkpt><trkpt lat="42.11655" lon="11.9210697"><ele>432.0</ele><time>2026-04-18T09:37:00.026Z</time></trkpt><trkpt lat="42.1165719" lon="11.9211694"><ele>432.0</ele><time>2026-04-18T09:37:01.026Z</time></trkpt><trkpt lat="42.1166125" lon="11.9212831"><ele>432.40000000000003</ele><time>2026-04-18T09:37:02.026Z</time></trkpt><trkpt lat="42.1166706" lon="11.9214204"><ele>432.80000000000007</ele><time>2026-04-18T09:37:03.026Z</time></trkpt><trkpt lat="42.1167325" lon="11.9215528"><ele>433.2</ele><time>2026-04-18T09:37:04.027Z</time></trkpt><trkpt lat="42.116788" lon="11.9216632"><ele>433.6</ele><time>2026-04-18T09:37:05.025Z</time></trkpt><trkpt lat="42.116838" lon="11.9217608"><ele>434.0</ele><time>2026-04-18T09:37:06.026Z</time></trkpt><trkpt lat="42.1168789" lon="11.9218624"><ele>433.99999999999994</ele><time>2026-04-18T09:37:07.026Z</time></trkpt><trkpt lat="42.1169066" lon="11.9219595"><ele>434.0</ele><time>2026-04-18T09:37:08.026Z</time></trkpt><trkpt lat="42.116926" lon="11.9220483"><ele>434.0</ele><time>2026-04-18T09:37:09.027Z</time></trkpt><trkpt lat="42.116918" lon="11.9221377"><ele>434.0</ele><time>2026-04-18T09:37:10.026Z</time></trkpt><trkpt lat="42.1168814" lon="11.9222583"><ele>433.99999999999994</ele><time>2026-04-18T09:37:11.026Z</time></trkpt><trkpt lat="42.1168352" lon="11.9224134"><ele>434.0</ele><time>2026-04-18T09:37:12.026Z</time></trkpt><trkpt lat="42.1167975" lon="11.9225698"><ele>431.0</ele><time>2026-04-18T09:37:13.025Z</time></trkpt><trkpt lat="42.1167667" lon="11.9227104"><ele>428.0</ele><time>2026-04-18T09:37:14.026Z</time></trkpt><trkpt lat="42.1167223" lon="11.9228394"><ele>425.0</ele><time>2026-04-18T09:37:15.026Z</time></trkpt><trkpt lat="42.1166588" lon="11.9229804"><ele>422.0</ele><time>2026-04-18T09:37:16.026Z</time></trkpt><trkpt lat="42.1165925" lon="11.9231251"><ele>421.6</ele><time>2026-04-18T09:37:17.025Z</time></trkpt><trkpt lat="42.1165363" lon="11.9232609"><ele>421.20000000000005</ele><time>2026-04-18T09:37:18.026Z</time></trkpt><trkpt lat="42.1164849" lon="11.9233892"><ele>420.8</ele><time>2026-04-18T09:37:19.027Z</time></trkpt><trkpt lat="42.1164339" lon="11.9235228"><ele>420.4</ele><time>2026-04-18T09:37:20.026Z</time></trkpt><trkpt lat="42.11639" lon="11.9236623"><ele>420.0</ele><time>2026-04-18T09:37:21.027Z</time></trkpt><trkpt lat="42.1163678" lon="11.9237895"><ele>420.0</ele><time>2026-04-18T09:37:22.026Z</time></trkpt><trkpt lat="42.1163687" lon="11.9239319"><ele>420.0</ele><time>2026-04-18T09:37:23.026Z</time></trkpt><trkpt lat="42.1163951" lon="11.9241007"><ele>420.0</ele><time>2026-04-18T09:37:24.027Z</time></trkpt><trkpt lat="42.1164371" lon="11.9242591"><ele>420.0</ele><time>2026-04-18T09:37:25.026Z</time></trkpt><trkpt lat="42.1164738" lon="11.9243831"><ele>420.0</ele><time>2026-04-18T09:37:26.026Z</time></trkpt><trkpt lat="42.1165154" lon="11.9244827"><ele>420.0</ele><time>2026-04-18T09:37:27.025Z</time></trkpt><trkpt lat="42.1165694" lon="11.9245581"><ele>420.0</ele><time>2026-04-18T09:37:28.025Z</time></trkpt><trkpt lat="42.1166217" lon="11.9246161"><ele>420.0</ele><time>2026-04-18T09:37:29.026Z</time></trkpt><trkpt lat="42.1167007" lon="11.9246984"><ele>420.0</ele><time>2026-04-18T09:37:31.025Z</time></trkpt><trkpt lat="42.1167385" lon="11.9247754"><ele>420.0</ele><time>2026-04-18T09:37:33.025Z</time></trkpt><trkpt lat="42.116799" lon="11.9248242"><ele>420.0</ele><time>2026-04-18T09:42:18.025Z</time></trkpt><trkpt lat="42.116855" lon="11.9248835"><ele>420.0</ele><time>2026-04-18T09:42:20.026Z</time></trkpt><trkpt lat="42.1167892" lon="11.9248587"><ele>420.0</ele><time>2026-04-18T09:42:29.025Z</time></trkpt><trkpt lat="42.1167478" lon="11.9247925"><ele>420.0</ele><time>2026-04-18T09:42:30.026Z</time></trkpt><trkpt lat="42.1166911" lon="11.9247147"><ele>420.0</ele><time>2026-04-18T09:42:31.026Z</time></trkpt><trkpt lat="42.11664" lon="11.9246524"><ele>420.0</ele><time>2026-04-18T09:42:32.025Z</time></trkpt><trkpt lat="42.1165902" lon="11.9245886"><ele>420.0</ele><time>2026-04-18T09:42:33.025Z</time></trkpt><trkpt lat="42.1165447" lon="11.9245152"><ele>420.0</ele><time>2026-04-18T09:42:34.026Z</time></trkpt><trkpt lat="42.1164913" lon="11.9244343"><ele>420.0</ele><time>2026-04-18T09:42:35.027Z</time></trkpt><trkpt lat="42.1164511" lon="11.9243319"><ele>420.0</ele><time>2026-04-18T09:42:36.025Z</time></trkpt><trkpt lat="42.1164147" lon="11.924222"><ele>420.0</ele><time>2026-04-18T09:42:37.026Z</time></trkpt><trkpt lat="42.1163852" lon="11.9241105"><ele>420.0</ele><time>2026-04-18T09:42:38.026Z</time></trkpt><trkpt lat="42.1163612" lon="11.9240058"><ele>420.0</ele><time>2026-04-18T09:42:39.025Z</time></trkpt><trkpt lat="42.1163507" lon="11.9239151"><ele>420.0</ele><time>2026-04-18T09:42:40.026Z</time></trkpt><trkpt lat="42.1163528" lon="11.9238254"><ele>420.0</ele><time>2026-04-18T09:42:42.025Z</time></trkpt><trkpt lat="42.1163781" lon="11.9237177"><ele>420.0</ele><time>2026-04-18T09:42:45.025Z</time></trkpt><trkpt lat="42.1164073" lon="11.9235768"><ele>420.0</ele><time>2026-04-18T09:42:47.025Z</time></trkpt><trkpt lat="42.1164385" lon="11.9234892"><ele>420.0</ele><time>2026-04-18T09:42:48.026Z</time></trkpt><trkpt lat="42.1164784" lon="11.9233909"><ele>420.0</ele><time>2026-04-18T09:42:49.025Z</time></trkpt><trkpt lat="42.1165282" lon="11.9232809"><ele>420.4</ele><time>2026-04-18T09:42:50.026Z</time></trkpt><trkpt lat="42.1165849" lon="11.9231598"><ele>420.8</ele><time>2026-04-18T09:42:51.026Z</time></trkpt><trkpt lat="42.116638" lon="11.923037"><ele>421.20000000000005</ele><time>2026-04-18T09:42:52.027Z</time></trkpt><trkpt lat="42.1166864" lon="11.9229135"><ele>421.6</ele><time>2026-04-18T09:42:53.025Z</time></trkpt><trkpt lat="42.1167277" lon="11.922792"><ele>422.0</ele><time>2026-04-18T09:42:54.026Z</time></trkpt><trkpt lat="42.1167634" lon="11.9226692"><ele>423.99999999999994</ele><time>2026-04-18T09:42:55.025Z</time></trkpt><trkpt lat="42.1167903" lon="11.9225381"><ele>426.0</ele><time>2026-04-18T09:42:56.026Z</time></trkpt><trkpt lat="42.1168158" lon="11.922409"><ele>428.0</ele><time>2026-04-18T09:42:57.025Z</time></trkpt><trkpt lat="42.1168471" lon="11.9222902"><ele>430.0</ele><time>2026-04-18T09:42:58.025Z</time></trkpt><trkpt lat="42.1168818" lon="11.9221851"><ele>431.99999999999994</ele><time>2026-04-18T09:42:59.025Z</time></trkpt><trkpt lat="42.1169058" lon="11.9221002"><ele>434.0</ele><time>2026-04-18T09:43:00.026Z</time></trkpt><trkpt lat="42.1169104" lon="11.9219324"><ele>434.0</ele><time>2026-04-18T09:43:02.025Z</time></trkpt><trkpt lat="42.116884" lon="11.9218433"><ele>434.0</ele><time>2026-04-18T09:43:03.025Z</time></trkpt><trkpt lat="42.1168292" lon="11.9217337"><ele>434.0</ele><time>2026-04-18T09:43:04.027Z</time></trkpt><trkpt lat="42.1167579" lon="11.9216032"><ele>434.0</ele><time>2026-04-18T09:43:05.026Z</time></trkpt><trkpt lat="42.116689" lon="11.9214596"><ele>434.0</ele><time>2026-04-18T09:43:06.025Z</time></trkpt><trkpt lat="42.1166339" lon="11.9213223"><ele>434.2</ele><time>2026-04-18T09:43:07.026Z</time></trkpt><trkpt lat="42.1165943" lon="11.9212"><ele>434.4</ele><time>2026-04-18T09:43:08.026Z</time></trkpt><trkpt lat="42.1165598" lon="11.9210934"><ele>434.6</ele><time>2026-04-18T09:43:09.026Z</time></trkpt><trkpt lat="42.1165365" lon="11.9209996"><ele>434.8</ele><time>2026-04-18T09:43:10.025Z</time></trkpt><trkpt lat="42.1165403" lon="11.920866"><ele>435.0</ele><time>2026-04-18T09:43:12.026Z</time></trkpt><trkpt lat="42.1165497" lon="11.9206749"><ele>435.0</ele><time>2026-04-18T09:43:14.026Z</time></trkpt><trkpt lat="42.1165563" lon="11.9205454"><ele>435.0</ele><time>2026-04-18T09:43:15.025Z</time></trkpt><trkpt lat="42.1165654" lon="11.9204038"><ele>435.0</ele><time>2026-04-18T09:43:16.026Z</time></trkpt><trkpt lat="42.1165766" lon="11.9202703"><ele>435.0</ele><time>2026-04-18T09:43:17.025Z</time></trkpt><trkpt lat="42.1165869" lon="11.9201484"><ele>435.0</ele><time>2026-04-18T09:43:18.025Z</time></trkpt><trkpt lat="42.1166004" lon="11.9200258"><ele>434.2</ele><time>2026-04-18T09:43:19.025Z</time></trkpt><trkpt lat="42.1166163" lon="11.9198982"><ele>433.4</ele><time>2026-04-18T09:43:20.026Z</time></trkpt><trkpt lat="42.1166319" lon="11.9197645"><ele>432.6</ele><time>2026-04-18T09:43:21.026Z</time></trkpt><trkpt lat="42.1166506" lon="11.9196271"><ele>431.8</ele><time>2026-04-18T09:43:22.026Z</time></trkpt><trkpt lat="42.1166712" lon="11.9194829"><ele>431.0</ele><time>2026-04-18T09:43:23.025Z</time></trkpt><trkpt lat="42.1166807" lon="11.9193329"><ele>430.49999999999994</ele><time>2026-04-18T09:43:24.025Z</time></trkpt><trkpt lat="42.1166769" lon="11.9191896"><ele>430.0</ele><time>2026-04-18T09:43:25.025Z</time></trkpt><trkpt lat="42.1166655" lon="11.9190676"><ele>429.5</ele><time>2026-04-18T09:43:26.025Z</time></trkpt><trkpt lat="42.1166366" lon="11.918965"><ele>429.0</ele><time>2026-04-18T09:43:27.025Z</time></trkpt><trkpt lat="42.1165943" lon="11.9188793"><ele>428.49999999999994</ele><time>2026-04-18T09:43:28.025Z</time></trkpt><trkpt lat="42.116544" lon="11.9187996"><ele>428.0</ele><time>2026-04-18T09:43:29.025Z</time></trkpt><trkpt lat="42.116479" lon="11.9187109"><ele>427.0</ele><time>2026-04-18T09:43:30.025Z</time></trkpt><trkpt lat="42.1164067" lon="11.9186105"><ele>426.0</ele><time>2026-04-18T09:43:31.025Z</time></trkpt><trkpt lat="42.1163312" lon="11.9185076"><ele>425.0</ele><time>2026-04-18T09:43:32.025Z</time></trkpt><trkpt lat="42.1162457" lon="11.9183887"><ele>424.0</ele><time>2026-04-18T09:43:33.026Z</time></trkpt><trkpt lat="42.1161503" lon="11.9182559"><ele>423.25</ele><time>2026-04-18T09:43:34.025Z</time></trkpt><trkpt lat="42.1160591" lon="11.9181273"><ele>422.5</ele><time>2026-04-18T09:43:35.025Z</time></trkpt><trkpt lat="42.1159757" lon="11.9180038"><ele>421.75</ele><time>2026-04-18T09:43:36.025Z</time></trkpt><trkpt lat="42.1158918" lon="11.9178776"><ele>421.0</ele><time>2026-04-18T09:43:37.025Z</time></trkpt><trkpt lat="42.1158114" lon="11.9177577"><ele>418.0</ele><time>2026-04-18T09:43:38.025Z</time></trkpt><trkpt lat="42.1157289" lon="11.9176438"><ele>415.0</ele><time>2026-04-18T09:43:39.026Z</time></trkpt><trkpt lat="42.1156462" lon="11.9175292"><ele>412.0</ele><time>2026-04-18T09:43:40.025Z</time></trkpt><trkpt lat="42.1155691" lon="11.9174195"><ele>409.0</ele><time>2026-04-18T09:43:41.024Z</time></trkpt><trkpt lat="42.1154917" lon="11.9173059"><ele>408.0</ele><time>2026-04-18T09:43:42.025Z</time></trkpt><trkpt lat="42.1154129" lon="11.9171905"><ele>407.0</ele><time>2026-04-18T09:43:43.025Z</time></trkpt><trkpt lat="42.1153357" lon="11.9170764"><ele>406.0</ele><time>2026-04-18T09:43:44.026Z</time></trkpt><trkpt lat="42.1152556" lon="11.9169649"><ele>405.0</ele><time>2026-04-18T09:43:45.025Z</time></trkpt><trkpt lat="42.1151819" lon="11.9168528"><ele>405.0</ele><time>2026-04-18T09:43:46.025Z</time></trkpt><trkpt lat="42.1151156" lon="11.916737"><ele>405.0</ele><time>2026-04-18T09:43:47.025Z</time></trkpt><trkpt lat="42.1150516" lon="11.9165997"><ele>405.0</ele><time>2026-04-18T09:43:48.024Z</time></trkpt><trkpt lat="42.114986" lon="11.9164497"><ele>405.0</ele><time>2026-04-18T09:43:49.025Z</time></trkpt><trkpt lat="42.114924" lon="11.9163099"><ele>404.0</ele><time>2026-04-18T09:43:50.025Z</time></trkpt><trkpt lat="42.1148678" lon="11.916174"><ele>403.0</ele><time>2026-04-18T09:43:51.025Z</time></trkpt><trkpt lat="42.1148174" lon="11.9160371"><ele>402.0</ele><time>2026-04-18T09:43:52.025Z</time></trkpt><trkpt lat="42.1147708" lon="11.915905"><ele>401.0</ele><time>2026-04-18T09:43:53.025Z</time></trkpt><trkpt lat="42.1147272" lon="11.9157789"><ele>400.0</ele><time>2026-04-18T09:43:54.025Z</time></trkpt><trkpt lat="42.1146856" lon="11.9156554"><ele>400.00000000000006</ele><time>2026-04-18T09:43:55.025Z</time></trkpt><trkpt lat="42.1146435" lon="11.9155389"><ele>400.0</ele><time>2026-04-18T09:43:56.025Z</time></trkpt><trkpt lat="42.1146078" lon="11.9154339"><ele>400.0</ele><time>2026-04-18T09:43:57.026Z</time></trkpt><trkpt lat="42.1145824" lon="11.9153479"><ele>400.0</ele><time>2026-04-18T09:43:58.025Z</time></trkpt><trkpt lat="42.114552" lon="11.9152151"><ele>400.00000000000006</ele><time>2026-04-18T09:44:00.025Z</time></trkpt><trkpt lat="42.1145415" lon="11.9150941"><ele>400.0</ele><time>2026-04-18T09:44:02.024Z</time></trkpt><trkpt lat="42.1145374" lon="11.9150009"><ele>399.33333333333337</ele><time>2026-04-18T09:44:04.025Z</time></trkpt><trkpt lat="42.1145611" lon="11.9148931"><ele>398.6666666666667</ele><time>2026-04-18T09:44:06.025Z</time></trkpt><trkpt lat="42.1145852" lon="11.9147399"><ele>398.0</ele><time>2026-04-18T09:44:08.025Z</time></trkpt><trkpt lat="42.1145933" lon="11.9146556"><ele>397.33333333333337</ele><time>2026-04-18T09:44:09.024Z</time></trkpt><trkpt lat="42.1146111" lon="11.9145666"><ele>396.6666666666667</ele><time>2026-04-18T09:44:10.025Z</time></trkpt><trkpt lat="42.1146284" lon="11.9144778"><ele>396.0</ele><time>2026-04-18T09:44:11.026Z</time></trkpt><trkpt lat="42.1146366" lon="11.9143658"><ele>393.1666666666667</ele><time>2026-04-18T09:44:12.025Z</time></trkpt><trkpt lat="42.1146486" lon="11.9142379"><ele>390.3333333333333</ele><time>2026-04-18T09:44:13.025Z</time></trkpt><trkpt lat="42.1146686" lon="11.9141204"><ele>387.5</ele><time>2026-04-18T09:44:14.024Z</time></trkpt><trkpt lat="42.1146858" lon="11.9140069"><ele>384.66666666666663</ele><time>2026-04-18T09:44:15.025Z</time></trkpt><trkpt lat="42.1146974" lon="11.9138943"><ele>381.8333333333333</ele><time>2026-04-18T09:44:16.026Z</time></trkpt><trkpt lat="42.1147048" lon="11.9137893"><ele>379.0</ele><time>2026-04-18T09:44:17.026Z</time></trkpt><trkpt lat="42.1147166" lon="11.9136917"><ele>379.00000000000006</ele><time>2026-04-18T09:44:18.025Z</time></trkpt><trkpt lat="42.1147263" lon="11.9136074"><ele>379.0</ele><time>2026-04-18T09:44:19.025Z</time></trkpt><trkpt lat="42.1147317" lon="11.9135213"><ele>379.0</ele><time>2026-04-18T09:44:20.025Z</time></trkpt><trkpt lat="42.1147337" lon="11.9134323"><ele>379.0</ele><time>2026-04-18T09:44:21.024Z</time></trkpt><trkpt lat="42.1147392" lon="11.9133435"><ele>379.0</ele><time>2026-04-18T09:44:22.027Z</time></trkpt><trkpt lat="42.1147486" lon="11.913248"><ele>379.00000000000006</ele><time>2026-04-18T09:44:23.025Z</time></trkpt><trkpt lat="42.1147628" lon="11.9131378"><ele>379.0</ele><time>2026-04-18T09:44:24.025Z</time></trkpt><trkpt lat="42.1147759" lon="11.9130239"><ele>376.8333333333333</ele><time>2026-04-18T09:44:25.025Z</time></trkpt><trkpt lat="42.114786" lon="11.9129185"><ele>374.66666666666663</ele><time>2026-04-18T09:44:26.025Z</time></trkpt><trkpt lat="42.1147814" lon="11.9128193"><ele>372.5</ele><time>2026-04-18T09:44:27.025Z</time></trkpt><trkpt lat="42.1147564" lon="11.9127252"><ele>370.3333333333333</ele><time>2026-04-18T09:44:28.025Z</time></trkpt><trkpt lat="42.1147281" lon="11.9126321"><ele>368.1666666666667</ele><time>2026-04-18T09:44:29.025Z</time></trkpt><trkpt lat="42.1147012" lon="11.9125453"><ele>366.0</ele><time>2026-04-18T09:44:30.025Z</time></trkpt><trkpt lat="42.114667" lon="11.912377"><ele>364.8333333333333</ele><time>2026-04-18T09:44:32.024Z</time></trkpt><trkpt lat="42.1146515" lon="11.9122808"><ele>363.6666666666667</ele><time>2026-04-18T09:44:33.025Z</time></trkpt><trkpt lat="42.1146406" lon="11.9121754"><ele>362.5</ele><time>2026-04-18T09:44:34.025Z</time></trkpt><trkpt lat="42.1146223" lon="11.9120587"><ele>361.33333333333337</ele><time>2026-04-18T09:44:35.025Z</time></trkpt><trkpt lat="42.1146222" lon="11.9119556"><ele>360.1666666666667</ele><time>2026-04-18T09:44:36.025Z</time></trkpt><trkpt lat="42.114623" lon="11.9118692"><ele>359.0</ele><time>2026-04-18T09:44:37.025Z</time></trkpt><trkpt lat="42.1145982" lon="11.9117289"><ele>357.5</ele><time>2026-04-18T09:44:39.024Z</time></trkpt><trkpt lat="42.1145637" lon="11.9116499"><ele>356.0</ele><time>2026-04-18T09:44:40.025Z</time></trkpt><trkpt lat="42.1145136" lon="11.911583"><ele>354.5</ele><time>2026-04-18T09:44:41.025Z</time></trkpt><trkpt lat="42.1144648" lon="11.9115251"><ele>353.0</ele><time>2026-04-18T09:44:42.026Z</time></trkpt><trkpt lat="42.1143686" lon="11.9114856"><ele>351.5</ele><time>2026-04-18T09:44:44.025Z</time></trkpt><trkpt lat="42.1142814" lon="11.9115245"><ele>350.0</ele><time>2026-04-18T09:44:46.025Z</time></trkpt><trkpt lat="42.1142158" lon="11.9115513"><ele>350.0</ele><time>2026-04-18T09:44:47.025Z</time></trkpt><trkpt lat="42.114145" lon="11.9115666"><ele>350.0</ele><time>2026-04-18T09:44:48.024Z</time></trkpt><trkpt lat="42.1140302" lon="11.9115686"><ele>350.0</ele><time>2026-04-18T09:44:50.025Z</time></trkpt><trkpt lat="42.1139104" lon="11.911562"><ele>350.0</ele><time>2026-04-18T09:44:52.025Z</time></trkpt><trkpt lat="42.1138156" lon="11.9115845"><ele>350.0</ele><time>2026-04-18T09:44:54.025Z</time></trkpt><trkpt lat="42.1136844" lon="11.9116315"><ele>349.83333333333337</ele><time>2026-04-18T09:44:56.025Z</time></trkpt><trkpt lat="42.1135889" lon="11.9116673"><ele>349.6666666666667</ele><time>2026-04-18T09:44:57.025Z</time></trkpt><trkpt lat="42.1134986" lon="11.9116969"><ele>349.5</ele><time>2026-04-18T09:44:58.025Z</time></trkpt><trkpt lat="42.1134314" lon="11.9117128"><ele>349.3333333333333</ele><time>2026-04-18T09:44:59.025Z</time></trkpt><trkpt lat="42.1133632" lon="11.9117116"><ele>349.16666666666663</ele><time>2026-04-18T09:45:00.025Z</time></trkpt><trkpt lat="42.1132784" lon="11.9116988"><ele>349.0</ele><time>2026-04-18T09:45:01.024Z</time></trkpt><trkpt lat="42.1132009" lon="11.9116875"><ele>350.0</ele><time>2026-04-18T09:45:02.025Z</time></trkpt><trkpt lat="42.113137" lon="11.9116679"><ele>351.0</ele><time>2026-04-18T09:45:03.026Z</time></trkpt><trkpt lat="42.1130212" lon="11.9116086"><ele>352.0</ele><time>2026-04-18T09:45:05.026Z</time></trkpt><trkpt lat="42.1129532" lon="11.9115719"><ele>353.0</ele><time>2026-04-18T09:45:06.024Z</time></trkpt><trkpt lat="42.112887" lon="11.9115329"><ele>354.0</ele><time>2026-04-18T09:45:07.024Z</time></trkpt><trkpt lat="42.1128324" lon="11.9114902"><ele>355.0</ele><time>2026-04-18T09:45:08.025Z</time></trkpt><trkpt lat="42.1127521" lon="11.911386"><ele>355.0</ele><time>2026-04-18T09:45:10.025Z</time></trkpt><trkpt lat="42.1127049" lon="11.9112119"><ele>355.0</ele><time>2026-04-18T09:45:12.026Z</time></trkpt><trkpt lat="42.1126837" lon="11.9111034"><ele>355.0</ele><time>2026-04-18T09:45:13.025Z</time></trkpt><trkpt lat="42.1126649" lon="11.9110211"><ele>355.0</ele><time>2026-04-18T09:45:14.026Z</time></trkpt><trkpt lat="42.1125972" lon="11.9109144"><ele>355.0</ele><time>2026-04-18T09:45:16.024Z</time></trkpt><trkpt lat="42.1125212" lon="11.9108315"><ele>353.3333333333333</ele><time>2026-04-18T09:45:18.024Z</time></trkpt><trkpt lat="42.1124598" lon="11.9108103"><ele>351.66666666666663</ele><time>2026-04-18T09:45:19.025Z</time></trkpt><trkpt lat="42.112377" lon="11.9107885"><ele>350.0</ele><time>2026-04-18T09:45:20.025Z</time></trkpt><trkpt lat="42.1122844" lon="11.9107739"><ele>348.3333333333333</ele><time>2026-04-18T09:45:21.024Z</time></trkpt><trkpt lat="42.1121896" lon="11.9107623"><ele>346.6666666666667</ele><time>2026-04-18T09:45:22.025Z</time></trkpt><trkpt lat="42.1120991" lon="11.910745"><ele>345.0</ele><time>2026-04-18T09:45:23.025Z</time></trkpt><trkpt lat="42.11202" lon="11.9107283"><ele>344.3333333333333</ele><time>2026-04-18T09:45:24.025Z</time></trkpt><trkpt lat="42.1119404" lon="11.9107111"><ele>343.6666666666667</ele><time>2026-04-18T09:45:25.025Z</time></trkpt><trkpt lat="42.1118586" lon="11.9107022"><ele>343.0</ele><time>2026-04-18T09:45:26.024Z</time></trkpt><trkpt lat="42.1117862" lon="11.9107077"><ele>342.33333333333337</ele><time>2026-04-18T09:45:27.025Z</time></trkpt><trkpt lat="42.1117138" lon="11.9107356"><ele>341.6666666666667</ele><time>2026-04-18T09:45:28.024Z</time></trkpt><trkpt lat="42.1116294" lon="11.9107902"><ele>341.0</ele><time>2026-04-18T09:45:29.026Z</time></trkpt><trkpt lat="42.1115394" lon="11.9108574"><ele>341.6666666666667</ele><time>2026-04-18T09:45:30.024Z</time></trkpt><trkpt lat="42.111448" lon="11.9109154"><ele>342.33333333333337</ele><time>2026-04-18T09:45:31.025Z</time></trkpt><trkpt lat="42.1113639" lon="11.9109585"><ele>343.0</ele><time>2026-04-18T09:45:32.025Z</time></trkpt><trkpt lat="42.111286" lon="11.9110027"><ele>343.6666666666667</ele><time>2026-04-18T09:45:33.025Z</time></trkpt><trkpt lat="42.1112082" lon="11.9110357"><ele>344.3333333333333</ele><time>2026-04-18T09:45:34.025Z</time></trkpt><trkpt lat="42.1111246" lon="11.9110641"><ele>345.0</ele><time>2026-04-18T09:45:35.026Z</time></trkpt><trkpt lat="42.1110329" lon="11.9111186"><ele>345.0</ele><time>2026-04-18T09:45:36.024Z</time></trkpt><trkpt lat="42.1109343" lon="11.9111771"><ele>345.0</ele><time>2026-04-18T09:45:37.025Z</time></trkpt><trkpt lat="42.11085" lon="11.9112157"><ele>345.0</ele><time>2026-04-18T09:45:38.026Z</time></trkpt><trkpt lat="42.110785" lon="11.9112207"><ele>345.0</ele><time>2026-04-18T09:45:39.025Z</time></trkpt><trkpt lat="42.1107196" lon="11.9112029"><ele>345.0</ele><time>2026-04-18T09:45:40.024Z</time></trkpt><trkpt lat="42.1106587" lon="11.9111698"><ele>345.0</ele><time>2026-04-18T09:45:41.024Z</time></trkpt><trkpt lat="42.1105786" lon="11.9110682"><ele>342.3333333333333</ele><time>2026-04-18T09:45:43.024Z</time></trkpt><trkpt lat="42.1105405" lon="11.9109874"><ele>339.6666666666667</ele><time>2026-04-18T09:45:44.025Z</time></trkpt><trkpt lat="42.1104927" lon="11.9109047"><ele>337.0</ele><time>2026-04-18T09:45:45.024Z</time></trkpt><trkpt lat="42.1104488" lon="11.9108252"><ele>334.33333333333337</ele><time>2026-04-18T09:45:46.025Z</time></trkpt><trkpt lat="42.1104093" lon="11.9107487"><ele>331.6666666666667</ele><time>2026-04-18T09:45:47.025Z</time></trkpt><trkpt lat="42.1103769" lon="11.9106726"><ele>329.0</ele><time>2026-04-18T09:45:48.024Z</time></trkpt><trkpt lat="42.1103114" lon="11.9105393"><ele>328.4</ele><time>2026-04-18T09:45:50.024Z</time></trkpt><trkpt lat="42.1102387" lon="11.9104246"><ele>327.79999999999995</ele><time>2026-04-18T09:45:52.025Z</time></trkpt><trkpt lat="42.1101764" lon="11.9103296"><ele>327.20000000000005</ele><time>2026-04-18T09:46:05.025Z</time></trkpt><trkpt lat="42.1101172" lon="11.910244"><ele>326.6</ele><time>2026-04-18T09:46:07.026Z</time></trkpt><trkpt lat="42.1100776" lon="11.9101522"><ele>326.0</ele><time>2026-04-18T09:46:10.022Z</time></trkpt><trkpt lat="42.111286" lon="11.9110027"><ele>329.8</ele><time>2026-04-18T09:45:33.025Z</time></trkpt><trkpt lat="42.1112082" lon="11.9110357"><ele>333.6</ele><time>2026-04-18T09:45:34.025Z</time></trkpt><trkpt lat="42.1111246" lon="11.9110641"><ele>337.4</ele><time>2026-04-18T09:45:35.026Z</time></trkpt><trkpt lat="42.1110329" lon="11.9111186"><ele>341.2</ele><time>2026-04-18T09:45:36.024Z</time></trkpt><trkpt lat="42.1109343" lon="11.9111771"><ele>345.0</ele><time>2026-04-18T09:45:37.025Z</time></trkpt><trkpt lat="42.11085" lon="11.9112157"><ele>345.0</ele><time>2026-04-18T09:45:38.026Z</time></trkpt><trkpt lat="42.110785" lon="11.9112207"><ele>345.0</ele><time>2026-04-18T09:45:39.025Z</time></trkpt><trkpt lat="42.1107196" lon="11.9112029"><ele>345.0</ele><time>2026-04-18T09:45:40.024Z</time></trkpt><trkpt lat="42.1106587" lon="11.9111698"><ele>345.0</ele><time>2026-04-18T09:45:41.024Z</time></trkpt><trkpt lat="42.1105786" lon="11.9110682"><ele>345.0</ele><time>2026-04-18T09:45:43.024Z</time></trkpt><trkpt lat="42.1105405" lon="11.9109874"><ele>345.0</ele><time>2026-04-18T09:45:44.025Z</time></trkpt><trkpt lat="42.1104927" lon="11.9109047"><ele>341.8333333333333</ele><time>2026-04-18T09:45:45.024Z</time></trkpt><trkpt lat="42.1104488" lon="11.9108252"><ele>338.6666666666667</ele><time>2026-04-18T09:45:46.025Z</time></trkpt><trkpt lat="42.1104093" lon="11.9107487"><ele>335.5</ele><time>2026-04-18T09:45:47.025Z</time></trkpt><trkpt lat="42.1103769" lon="11.9106726"><ele>332.33333333333337</ele><time>2026-04-18T09:45:48.024Z</time></trkpt><trkpt lat="42.1103114" lon="11.9105393"><ele>329.1666666666667</ele><time>2026-04-18T09:45:50.024Z</time></trkpt><trkpt lat="42.1102387" lon="11.9104246"><ele>326.0</ele><time>2026-04-18T09:45:52.025Z</time></trkpt><trkpt lat="42.1101764" lon="11.9103296"><ele>326.0</ele><time>2026-04-18T09:46:05.025Z</time></trkpt><trkpt lat="42.1101172" lon="11.910244"><ele>326.0</ele><time>2026-04-18T09:46:07.026Z</time></trkpt><trkpt lat="42.1100776" lon="11.9101522"><ele>326.0</ele><time>2026-04-18T09:46:10.022Z</time></trkpt><trkpt lat="42.1100714" lon="11.9100646"><ele>326.0</ele><time>2026-04-18T09:46:14.024Z</time></trkpt><trkpt lat="42.1100558" lon="11.9099489"><ele>326.0</ele><time>2026-04-18T09:46:50.025Z</time></trkpt><trkpt lat="42.1100673" lon="11.9098367"><ele>326.0</ele><time>2026-04-18T09:46:52.025Z</time></trkpt><trkpt lat="42.1100832" lon="11.9097192"><ele>324.83333333333337</ele><time>2026-04-18T09:46:54.024Z</time></trkpt><trkpt lat="42.1100955" lon="11.9096167"><ele>323.6666666666667</ele><time>2026-04-18T09:46:56.024Z</time></trkpt><trkpt lat="42.110113" lon="11.9094806"><ele>322.5</ele><time>2026-04-18T09:46:58.025Z</time></trkpt><trkpt lat="42.1101356" lon="11.909401"><ele>321.3333333333333</ele><time>2026-04-18T09:46:59.025Z</time></trkpt><trkpt lat="42.1101709" lon="11.9092422"><ele>320.16666666666663</ele><time>2026-04-18T09:47:01.026Z</time></trkpt><trkpt lat="42.1101879" lon="11.9091597"><ele>319.0</ele><time>2026-04-18T09:47:02.025Z</time></trkpt><trkpt lat="42.1102062" lon="11.9090029"><ele>316.4</ele><time>2026-04-18T09:47:04.025Z</time></trkpt><trkpt lat="42.1102066" lon="11.9089168"><ele>313.79999999999995</ele><time>2026-04-18T09:47:05.025Z</time></trkpt><trkpt lat="42.1102322" lon="11.9087915"><ele>311.20000000000005</ele><time>2026-04-18T09:47:07.025Z</time></trkpt><trkpt lat="42.1102919" lon="11.9086851"><ele>308.6</ele><time>2026-04-18T09:47:09.024Z</time></trkpt><trkpt lat="42.110363" lon="11.9085876"><ele>306.0</ele><time>2026-04-18T09:47:11.025Z</time></trkpt><trkpt lat="42.1104654" lon="11.9084892"><ele>306.0</ele><time>2026-04-18T09:47:13.026Z</time></trkpt><trkpt lat="42.1105262" lon="11.9084521"><ele>306.0</ele><time>2026-04-18T09:47:14.025Z</time></trkpt><trkpt lat="42.1106258" lon="11.9083428"><ele>306.0</ele><time>2026-04-18T09:47:16.025Z</time></trkpt><trkpt lat="42.1106681" lon="11.9082651"><ele>306.0</ele><time>2026-04-18T09:47:17.024Z</time></trkpt><trkpt lat="42.1106974" lon="11.9081879"><ele>306.0</ele><time>2026-04-18T09:47:18.025Z</time></trkpt><trkpt lat="42.110711" lon="11.9080295"><ele>306.0</ele><time>2026-04-18T09:47:20.024Z</time></trkpt><trkpt lat="42.1107727" lon="11.9078687"><ele>303.0</ele><time>2026-04-18T09:47:22.024Z</time></trkpt><trkpt lat="42.1108141" lon="11.9077615"><ele>300.0</ele><time>2026-04-18T09:47:23.025Z</time></trkpt><trkpt lat="42.1108441" lon="11.9076454"><ele>297.0</ele><time>2026-04-18T09:47:24.026Z</time></trkpt><trkpt lat="42.1108775" lon="11.9075181"><ele>294.0</ele><time>2026-04-18T09:47:25.025Z</time></trkpt><trkpt lat="42.1109023" lon="11.9074107"><ele>291.0</ele><time>2026-04-18T09:47:26.024Z</time></trkpt><trkpt lat="42.1109182" lon="11.9073068"><ele>288.0</ele><time>2026-04-18T09:47:27.025Z</time></trkpt><trkpt lat="42.110937" lon="11.9071994"><ele>285.8</ele><time>2026-04-18T09:47:28.024Z</time></trkpt><trkpt lat="42.1109655" lon="11.9071064"><ele>283.6</ele><time>2026-04-18T09:47:29.024Z</time></trkpt><trkpt lat="42.1110347" lon="11.9069704"><ele>281.4</ele><time>2026-04-18T09:47:31.025Z</time></trkpt><trkpt lat="42.1110802" lon="11.906828"><ele>279.2</ele><time>2026-04-18T09:47:33.026Z</time></trkpt><trkpt lat="42.1111105" lon="11.9066535"><ele>277.0</ele><time>2026-04-18T09:47:35.025Z</time></trkpt><trkpt lat="42.1111147" lon="11.9065586"><ele>274.66666666666663</ele><time>2026-04-18T09:47:36.025Z</time></trkpt><trkpt lat="42.1111103" lon="11.9064523"><ele>272.3333333333333</ele><time>2026-04-18T09:47:37.025Z</time></trkpt><trkpt lat="42.1111053" lon="11.9063455"><ele>270.0</ele><time>2026-04-18T09:47:38.024Z</time></trkpt><trkpt lat="42.1111014" lon="11.9062546"><ele>267.6666666666667</ele><time>2026-04-18T09:47:39.025Z</time></trkpt><trkpt lat="42.1110956" lon="11.9061531"><ele>265.33333333333337</ele><time>2026-04-18T09:47:40.025Z</time></trkpt><trkpt lat="42.111087" lon="11.9060396"><ele>263.0</ele><time>2026-04-18T09:47:41.024Z</time></trkpt><trkpt lat="42.1110763" lon="11.9059127"><ele>261.5</ele><time>2026-04-18T09:47:42.024Z</time></trkpt><trkpt lat="42.1110644" lon="11.9057819"><ele>260.0</ele><time>2026-04-18T09:47:43.025Z</time></trkpt><trkpt lat="42.1110553" lon="11.9056701"><ele>258.5</ele><time>2026-04-18T09:47:44.025Z</time></trkpt><trkpt lat="42.1110485" lon="11.9055668"><ele>257.0</ele><time>2026-04-18T09:47:45.025Z</time></trkpt><trkpt lat="42.1110406" lon="11.9054796"><ele>255.50000000000003</ele><time>2026-04-18T09:47:46.025Z</time></trkpt><trkpt lat="42.1110247" lon="11.9053576"><ele>254.0</ele><time>2026-04-18T09:47:48.024Z</time></trkpt><trkpt lat="42.1109947" lon="11.9052445"><ele>254.0</ele><time>2026-04-18T09:47:50.025Z</time></trkpt><trkpt lat="42.1109326" lon="11.9051199"><ele>253.99999999999997</ele><time>2026-04-18T09:47:52.024Z</time></trkpt><trkpt lat="42.1108478" lon="11.9050411"><ele>253.99999999999997</ele><time>2026-04-18T09:47:54.024Z</time></trkpt><trkpt lat="42.1107508" lon="11.9050551"><ele>254.0</ele><time>2026-04-18T09:47:56.024Z</time></trkpt><trkpt lat="42.1106732" lon="11.9051231"><ele>254.0</ele><time>2026-04-18T09:47:58.025Z</time></trkpt><trkpt lat="42.1106189" lon="11.9052039"><ele>252.2</ele><time>2026-04-18T09:47:59.024Z</time></trkpt><trkpt lat="42.1105333" lon="11.9053198"><ele>250.39999999999998</ele><time>2026-04-18T09:48:00.024Z</time></trkpt><trkpt lat="42.1104463" lon="11.9054142"><ele>248.6</ele><time>2026-04-18T09:48:01.025Z</time></trkpt><trkpt lat="42.1103677" lon="11.9054763"><ele>246.8</ele><time>2026-04-18T09:48:02.025Z</time></trkpt><trkpt lat="42.1102949" lon="11.9055116"><ele>245.0</ele><time>2026-04-18T09:48:03.025Z</time></trkpt><trkpt lat="42.1102326" lon="11.905529"><ele>245.0</ele><time>2026-04-18T09:48:04.024Z</time></trkpt><trkpt lat="42.1101302" lon="11.9055647"><ele>245.0</ele><time>2026-04-18T09:48:06.024Z</time></trkpt><trkpt lat="42.1100382" lon="11.9055279"><ele>245.0</ele><time>2026-04-18T09:48:08.025Z</time></trkpt><trkpt lat="42.1099474" lon="11.9054405"><ele>245.0</ele><time>2026-04-18T09:48:10.025Z</time></trkpt><trkpt lat="42.1098739" lon="11.9053169"><ele>245.0</ele><time>2026-04-18T09:48:12.025Z</time></trkpt><trkpt lat="42.1097821" lon="11.9052151"><ele>245.00000000000003</ele><time>2026-04-18T09:48:14.026Z</time></trkpt><trkpt lat="42.109685" lon="11.9051632"><ele>245.0</ele><time>2026-04-18T09:48:16.026Z</time></trkpt><trkpt lat="42.1095766" lon="11.9051025"><ele>245.0</ele><time>2026-04-18T09:48:18.026Z</time></trkpt><trkpt lat="42.1095129" lon="11.9050498"><ele>245.0</ele><time>2026-04-18T09:48:19.026Z</time></trkpt><trkpt lat="42.1094528" lon="11.9049846"><ele>245.00000000000003</ele><time>2026-04-18T09:48:20.024Z</time></trkpt><trkpt lat="42.1093938" lon="11.9049227"><ele>245.0</ele><time>2026-04-18T09:48:21.024Z</time></trkpt><trkpt lat="42.1093327" lon="11.9048697"><ele>243.0</ele><time>2026-04-18T09:48:22.025Z</time></trkpt><trkpt lat="42.109256" lon="11.9048364"><ele>241.0</ele><time>2026-04-18T09:48:23.024Z</time></trkpt><trkpt lat="42.1091849" lon="11.9048231"><ele>239.0</ele><time>2026-04-18T09:48:24.024Z</time></trkpt><trkpt lat="42.1090795" lon="11.904764"><ele>237.0</ele><time>2026-04-18T09:48:26.026Z</time></trkpt><trkpt lat="42.1089925" lon="11.9046409"><ele>235.0</ele><time>2026-04-18T09:48:28.025Z</time></trkpt><trkpt lat="42.1089316" lon="11.9045736"><ele>234.99999999999997</ele><time>2026-04-18T09:48:29.025Z</time></trkpt><trkpt lat="42.1088699" lon="11.9044916"><ele>235.0</ele><time>2026-04-18T09:48:30.025Z</time></trkpt><trkpt lat="42.1088179" lon="11.9043985"><ele>235.0</ele><time>2026-04-18T09:48:31.024Z</time></trkpt><trkpt lat="42.1087713" lon="11.9043082"><ele>235.0</ele><time>2026-04-18T09:48:32.024Z</time></trkpt><trkpt lat="42.1087271" lon="11.9042288"><ele>234.99999999999997</ele><time>2026-04-18T09:48:33.026Z</time></trkpt><trkpt lat="42.1086747" lon="11.9041503"><ele>235.0</ele><time>2026-04-18T09:48:34.025Z</time></trkpt><trkpt lat="42.1086302" lon="11.9040835"><ele>232.66666666666666</ele><time>2026-04-18T09:48:35.025Z</time></trkpt><trkpt lat="42.108546" lon="11.9039655"><ele>230.33333333333331</ele><time>2026-04-18T09:48:37.024Z</time></trkpt><trkpt lat="42.1084702" lon="11.9038543"><ele>228.0</ele><time>2026-04-18T09:48:39.024Z</time></trkpt><trkpt lat="42.1084267" lon="11.9037609"><ele>225.66666666666669</ele><time>2026-04-18T09:48:40.024Z</time></trkpt><trkpt lat="42.1083902" lon="11.9036829"><ele>223.33333333333334</ele><time>2026-04-18T09:48:41.026Z</time></trkpt><trkpt lat="42.1083434" lon="11.9036209"><ele>221.0</ele><time>2026-04-18T09:48:42.024Z</time></trkpt><trkpt lat="42.1082393" lon="11.9035782"><ele>221.0</ele><time>2026-04-18T09:48:44.026Z</time></trkpt><trkpt lat="42.1080926" lon="11.9035691"><ele>221.00000000000003</ele><time>2026-04-18T09:48:46.024Z</time></trkpt><trkpt lat="42.1079952" lon="11.9035651"><ele>221.00000000000003</ele><time>2026-04-18T09:48:47.024Z</time></trkpt><trkpt lat="42.1079116" lon="11.9035621"><ele>221.0</ele><time>2026-04-18T09:48:48.024Z</time></trkpt><trkpt lat="42.1078008" lon="11.9035874"><ele>221.0</ele><time>2026-04-18T09:48:50.024Z</time></trkpt><trkpt lat="42.1077433" lon="11.9036292"><ele>221.0</ele><time>2026-04-18T09:48:51.025Z</time></trkpt><trkpt lat="42.107682" lon="11.9036745"><ele>221.00000000000003</ele><time>2026-04-18T09:48:52.025Z</time></trkpt><trkpt lat="42.107587" lon="11.9037143"><ele>221.00000000000003</ele><time>2026-04-18T09:48:54.024Z</time></trkpt><trkpt lat="42.1074912" lon="11.9036377"><ele>221.0</ele><time>2026-04-18T09:48:56.024Z</time></trkpt><trkpt lat="42.1074399" lon="11.9035004"><ele>221.0</ele><time>2026-04-18T09:48:58.024Z</time></trkpt><trkpt lat="42.1073779" lon="11.9033983"><ele>218.16666666666669</ele><time>2026-04-18T09:49:00.024Z</time></trkpt><trkpt lat="42.1072863" lon="11.9033304"><ele>215.33333333333334</ele><time>2026-04-18T09:49:02.025Z</time></trkpt><trkpt lat="42.1072335" lon="11.9032149"><ele>212.5</ele><time>2026-04-18T09:49:04.025Z</time></trkpt><trkpt lat="42.1072137" lon="11.9031258"><ele>209.66666666666669</ele><time>2026-04-18T09:49:05.025Z</time></trkpt><trkpt lat="42.1071833" lon="11.9030365"><ele>206.83333333333334</ele><time>2026-04-18T09:49:06.024Z</time></trkpt><trkpt lat="42.107141" lon="11.9029675"><ele>204.0</ele><time>2026-04-18T09:49:07.024Z</time></trkpt><trkpt lat="42.1070823" lon="11.9028814"><ele>204.0</ele><time>2026-04-18T09:49:08.024Z</time></trkpt><trkpt lat="42.1070218" lon="11.9027939"><ele>204.0</ele><time>2026-04-18T09:49:09.025Z</time></trkpt><trkpt lat="42.1069771" lon="11.9027235"><ele>204.0</ele><time>2026-04-18T09:49:10.025Z</time></trkpt><trkpt lat="42.1069232" lon="11.9025955"><ele>204.0</ele><time>2026-04-18T09:49:12.024Z</time></trkpt><trkpt lat="42.1068836" lon="11.9024838"><ele>204.0</ele><time>2026-04-18T09:49:14.024Z</time></trkpt><trkpt lat="42.1068292" lon="11.9023785"><ele>202.16666666666666</ele><time>2026-04-18T09:49:16.024Z</time></trkpt><trkpt lat="42.106784" lon="11.9023123"><ele>200.33333333333331</ele><time>2026-04-18T09:49:17.024Z</time></trkpt><trkpt lat="42.1067278" lon="11.9022451"><ele>198.5</ele><time>2026-04-18T09:49:18.025Z</time></trkpt><trkpt lat="42.1066645" lon="11.9022006"><ele>196.66666666666666</ele><time>2026-04-18T09:49:19.024Z</time></trkpt><trkpt lat="42.1065992" lon="11.9021723"><ele>194.83333333333331</ele><time>2026-04-18T09:49:20.024Z</time></trkpt><trkpt lat="42.1064645" lon="11.9021797"><ele>193.0</ele><time>2026-04-18T09:49:22.025Z</time></trkpt><trkpt lat="42.1063863" lon="11.9022078"><ele>192.14285714285717</ele><time>2026-04-18T09:49:23.024Z</time></trkpt><trkpt lat="42.1063207" lon="11.9022479"><ele>191.28571428571428</ele><time>2026-04-18T09:49:24.024Z</time></trkpt><trkpt lat="42.1062644" lon="11.9022981"><ele>190.42857142857144</ele><time>2026-04-18T09:49:25.025Z</time></trkpt><trkpt lat="42.1062088" lon="11.9023629"><ele>189.57142857142858</ele><time>2026-04-18T09:49:26.024Z</time></trkpt><trkpt lat="42.1061527" lon="11.9024354"><ele>188.71428571428572</ele><time>2026-04-18T09:49:27.025Z</time></trkpt><trkpt lat="42.1060975" lon="11.9024982"><ele>187.85714285714286</ele><time>2026-04-18T09:49:28.024Z</time></trkpt><trkpt lat="42.1060385" lon="11.9025506"><ele>187.0</ele><time>2026-04-18T09:49:29.025Z</time></trkpt><trkpt lat="42.1059795" lon="11.902589"><ele>187.0</ele><time>2026-04-18T09:49:30.025Z</time></trkpt><trkpt lat="42.1058599" lon="11.9025708"><ele>187.0</ele><time>2026-04-18T09:49:32.025Z</time></trkpt><trkpt lat="42.1057927" lon="11.9025165"><ele>187.0</ele><time>2026-04-18T09:49:33.024Z</time></trkpt><trkpt lat="42.1057347" lon="11.9024406"><ele>187.0</ele><time>2026-04-18T09:49:34.024Z</time></trkpt><trkpt lat="42.1056878" lon="11.902352"><ele>187.0</ele><time>2026-04-18T09:49:35.024Z</time></trkpt><trkpt lat="42.1056438" lon="11.9022625"><ele>187.0</ele><time>2026-04-18T09:49:36.024Z</time></trkpt><trkpt lat="42.105599" lon="11.9021814"><ele>187.85714285714286</ele><time>2026-04-18T09:49:37.026Z</time></trkpt><trkpt lat="42.1055465" lon="11.9020914"><ele>188.71428571428572</ele><time>2026-04-18T09:49:38.027Z</time></trkpt><trkpt lat="42.1055056" lon="11.9019993"><ele>189.57142857142858</ele><time>2026-04-18T09:49:39.024Z</time></trkpt><trkpt lat="42.1054712" lon="11.9019152"><ele>190.42857142857144</ele><time>2026-04-18T09:49:40.024Z</time></trkpt><trkpt lat="42.1054347" lon="11.9018331"><ele>191.28571428571428</ele><time>2026-04-18T09:49:41.024Z</time></trkpt><trkpt lat="42.1053811" lon="11.901763"><ele>192.14285714285717</ele><time>2026-04-18T09:49:42.024Z</time></trkpt><trkpt lat="42.1053339" lon="11.9017013"><ele>193.0</ele><time>2026-04-18T09:49:43.024Z</time></trkpt><trkpt lat="42.1052868" lon="11.9015944"><ele>190.16666666666666</ele><time>2026-04-18T09:49:45.024Z</time></trkpt><trkpt lat="42.1052686" lon="11.9015087"><ele>187.33333333333331</ele><time>2026-04-18T09:50:02.024Z</time></trkpt><trkpt lat="42.1053313" lon="11.9014336"><ele>184.5</ele><time>2026-04-18T09:50:04.982Z</time></trkpt><trkpt lat="42.1053877" lon="11.9013068"><ele>181.66666666666666</ele><time>2026-04-18T09:50:06.024Z</time></trkpt><trkpt lat="42.1053911" lon="11.9012182"><ele>178.83333333333331</ele><time>2026-04-18T09:50:07.024Z</time></trkpt><trkpt lat="42.1053126" lon="11.9011251"><ele>176.0</ele><time>2026-04-18T09:50:09.024Z</time></trkpt><trkpt lat="42.1052522" lon="11.9010966"><ele>176.0</ele><time>2026-04-18T09:50:10.024Z</time></trkpt><trkpt lat="42.1051906" lon="11.9010572"><ele>176.0</ele><time>2026-04-18T09:50:11.025Z</time></trkpt><trkpt lat="42.105086" lon="11.9009537"><ele>176.0</ele><time>2026-04-18T09:50:13.024Z</time></trkpt><trkpt lat="42.10503" lon="11.9008984"><ele>176.0</ele><time>2026-04-18T09:50:14.025Z</time></trkpt><trkpt lat="42.1049729" lon="11.9008521"><ele>176.0</ele><time>2026-04-18T09:50:15.024Z</time></trkpt><trkpt lat="42.1049071" lon="11.9008314"><ele>176.0</ele><time>2026-04-18T09:50:16.024Z</time></trkpt><trkpt lat="42.104828" lon="11.9008191"><ele>172.4</ele><time>2026-04-18T09:50:17.024Z</time></trkpt><trkpt lat="42.1047495" lon="11.9008035"><ele>168.8</ele><time>2026-04-18T09:50:18.025Z</time></trkpt><trkpt lat="42.1046848" lon="11.9007924"><ele>165.20000000000002</ele><time>2026-04-18T09:50:19.024Z</time></trkpt><trkpt lat="42.1045937" lon="11.9007861"><ele>161.60000000000002</ele><time>2026-04-18T09:50:21.025Z</time></trkpt><trkpt lat="42.1044525" lon="11.9007765"><ele>158.0</ele><time>2026-04-18T09:50:38.025Z</time></trkpt><trkpt lat="42.1043614" lon="11.9007721"><ele>158.0</ele><time>2026-04-18T09:50:39.025Z</time></trkpt><trkpt lat="42.1042807" lon="11.9007747"><ele>158.0</ele><time>2026-04-18T09:50:40.024Z</time></trkpt><trkpt lat="42.1042135" lon="11.9007854"><ele>158.0</ele><time>2026-04-18T09:50:41.024Z</time></trkpt><trkpt lat="42.1041" lon="11.9007953"><ele>158.0</ele><time>2026-04-18T09:50:43.026Z</time></trkpt><trkpt lat="42.1039958" lon="11.9008107"><ele>158.0</ele><time>2026-04-18T09:50:45.024Z</time></trkpt><trkpt lat="42.1039158" lon="11.9008384"><ele>158.0</ele><time>2026-04-18T09:50:47.025Z</time></trkpt><trkpt lat="42.1038446" lon="11.900876"><ele>158.0</ele><time>2026-04-18T09:50:49.024Z</time></trkpt><trkpt lat="42.1037576" lon="11.9009347"><ele>158.0</ele><time>2026-04-18T09:50:51.024Z</time></trkpt><trkpt lat="42.1036531" lon="11.9010114"><ele>158.0</ele><time>2026-04-18T09:50:53.024Z</time></trkpt><trkpt lat="42.1035275" lon="11.9010103"><ele>158.0</ele><time>2026-04-18T09:50:55.025Z</time></trkpt><trkpt lat="42.1034246" lon="11.9009541"><ele>158.0</ele><time>2026-04-18T09:50:57.024Z</time></trkpt><trkpt lat="42.1033418" lon="11.9008927"><ele>158.0</ele><time>2026-04-18T09:50:59.024Z</time></trkpt><trkpt lat="42.1032691" lon="11.9008427"><ele>158.0</ele><time>2026-04-18T09:51:01.024Z</time></trkpt><trkpt lat="42.1031864" lon="11.9007705"><ele>158.0</ele><time>2026-04-18T09:51:03.024Z</time></trkpt><trkpt lat="42.103121" lon="11.9006363"><ele>158.0</ele><time>2026-04-18T09:51:05.024Z</time></trkpt><trkpt lat="42.103078" lon="11.9005193"><ele>158.0</ele><time>2026-04-18T09:51:06.023Z</time></trkpt><trkpt lat="42.1030348" lon="11.9004051"><ele>158.0</ele><time>2026-04-18T09:51:07.025Z</time></trkpt><trkpt lat="42.1029776" lon="11.9002809"><ele>158.0</ele><time>2026-04-18T09:51:08.024Z</time></trkpt><trkpt lat="42.1029314" lon="11.9001549"><ele>158.0</ele><time>2026-04-18T09:51:09.024Z</time></trkpt><trkpt lat="42.1028988" lon="11.9000421"><ele>158.0</ele><time>2026-04-18T09:51:10.024Z</time></trkpt><trkpt lat="42.1028669" lon="11.8999427"><ele>158.0</ele><time>2026-04-18T09:51:11.024Z</time></trkpt><trkpt lat="42.1028398" lon="11.8998553"><ele>158.0</ele><time>2026-04-18T09:51:12.025Z</time></trkpt><trkpt lat="42.1028214" lon="11.899771"><ele>158.0</ele><time>2026-04-18T09:51:13.024Z</time></trkpt><trkpt lat="42.10279" lon="11.899616"><ele>158.0</ele><time>2026-04-18T09:51:15.024Z</time></trkpt><trkpt lat="42.102753" lon="11.8995063"><ele>158.0</ele><time>2026-04-18T09:51:17.023Z</time></trkpt><trkpt lat="42.1026478" lon="11.8993966"><ele>158.0</ele><time>2026-04-18T09:51:19.024Z</time></trkpt><trkpt lat="42.1025733" lon="11.8993247"><ele>158.0</ele><time>2026-04-18T09:51:20.025Z</time></trkpt><trkpt lat="42.1025041" lon="11.8992259"><ele>158.0</ele><time>2026-04-18T09:51:21.025Z</time></trkpt><trkpt lat="42.1024497" lon="11.8991164"><ele>158.0</ele><time>2026-04-18T09:51:22.023Z</time></trkpt><trkpt lat="42.1023967" lon="11.8990292"><ele>158.0</ele><time>2026-04-18T09:51:23.023Z</time></trkpt><trkpt lat="42.1023403" lon="11.8989633"><ele>158.0</ele><time>2026-04-18T09:51:24.024Z</time></trkpt><trkpt lat="42.1022516" lon="11.8988749"><ele>158.5</ele><time>2026-04-18T09:51:26.024Z</time></trkpt><trkpt lat="42.1021393" lon="11.8988429"><ele>159.0</ele><time>2026-04-18T09:51:28.023Z</time></trkpt><trkpt lat="42.1020636" lon="11.8988276"><ele>159.5</ele><time>2026-04-18T09:51:29.024Z</time></trkpt><trkpt lat="42.1019897" lon="11.8988048"><ele>160.0</ele><time>2026-04-18T09:51:30.024Z</time></trkpt><trkpt lat="42.1019298" lon="11.8987441"><ele>160.5</ele><time>2026-04-18T09:51:31.024Z</time></trkpt><trkpt lat="42.1018814" lon="11.8986623"><ele>161.0</ele><time>2026-04-18T09:51:32.024Z</time></trkpt><trkpt lat="42.1018385" lon="11.8985879"><ele>161.0</ele><time>2026-04-18T09:51:33.024Z</time></trkpt><trkpt lat="42.1017683" lon="11.8984927"><ele>161.0</ele><time>2026-04-18T09:51:35.024Z</time></trkpt><trkpt lat="42.101714" lon="11.8984277"><ele>161.0</ele><time>2026-04-18T09:51:37.023Z</time></trkpt><trkpt lat="42.1016456" lon="11.8983508"><ele>161.0</ele><time>2026-04-18T09:51:39.024Z</time></trkpt><trkpt lat="42.1015912" lon="11.898295"><ele>161.0</ele><time>2026-04-18T09:51:40.023Z</time></trkpt><trkpt lat="42.101517" lon="11.8982405"><ele>161.0</ele><time>2026-04-18T09:51:41.024Z</time></trkpt><trkpt lat="42.1014384" lon="11.8981932"><ele>160.0</ele><time>2026-04-18T09:51:42.024Z</time></trkpt><trkpt lat="42.1013669" lon="11.8981506"><ele>159.0</ele><time>2026-04-18T09:51:43.024Z</time></trkpt><trkpt lat="42.1012617" lon="11.8980871"><ele>158.0</ele><time>2026-04-18T09:51:45.025Z</time></trkpt><trkpt lat="42.1012063" lon="11.8980297"><ele>157.0</ele><time>2026-04-18T09:51:46.024Z</time></trkpt><trkpt lat="42.1011407" lon="11.8979651"><ele>156.0</ele><time>2026-04-18T09:51:47.024Z</time></trkpt><trkpt lat="42.1010894" lon="11.8979107"><ele>155.0</ele><time>2026-04-18T09:51:48.024Z</time></trkpt><trkpt lat="42.1010592" lon="11.8978361"><ele>155.0</ele><time>2026-04-18T09:51:49.024Z</time></trkpt><trkpt lat="42.1010428" lon="11.8977342"><ele>155.0</ele><time>2026-04-18T09:51:50.024Z</time></trkpt><trkpt lat="42.1010148" lon="11.8976297"><ele>155.0</ele><time>2026-04-18T09:51:51.025Z</time></trkpt><trkpt lat="42.1009785" lon="11.8975388"><ele>155.0</ele><time>2026-04-18T09:51:52.023Z</time></trkpt><trkpt lat="42.1009291" lon="11.8974394"><ele>155.0</ele><time>2026-04-18T09:51:53.024Z</time></trkpt><trkpt lat="42.1008588" lon="11.8973402"><ele>155.0</ele><time>2026-04-18T09:51:54.023Z</time></trkpt><trkpt lat="42.1007615" lon="11.897237"><ele>154.75</ele><time>2026-04-18T09:51:55.024Z</time></trkpt><trkpt lat="42.1006477" lon="11.8971247"><ele>154.5</ele><time>2026-04-18T09:51:56.023Z</time></trkpt><trkpt lat="42.1005386" lon="11.8970084"><ele>154.25</ele><time>2026-04-18T09:51:57.025Z</time></trkpt><trkpt lat="42.1004347" lon="11.8969241"><ele>154.0</ele><time>2026-04-18T09:51:58.024Z</time></trkpt><trkpt lat="42.1003339" lon="11.896855"><ele>154.0</ele><time>2026-04-18T09:51:59.024Z</time></trkpt><trkpt lat="42.1002516" lon="11.8967826"><ele>154.0</ele><time>2026-04-18T09:52:00.024Z</time></trkpt><trkpt lat="42.1001802" lon="11.8967135"><ele>154.0</ele><time>2026-04-18T09:52:01.023Z</time></trkpt><trkpt lat="42.1001114" lon="11.8966508"><ele>154.0</ele><time>2026-04-18T09:52:02.024Z</time></trkpt><trkpt lat="42.1000415" lon="11.8965933"><ele>154.0</ele><time>2026-04-18T09:52:03.024Z</time></trkpt><trkpt lat="42.0999675" lon="11.8965296"><ele>154.0</ele><time>2026-04-18T09:52:04.024Z</time></trkpt><trkpt lat="42.0998883" lon="11.8964508"><ele>153.33333333333334</ele><time>2026-04-18T09:52:05.024Z</time></trkpt><trkpt lat="42.0998101" lon="11.896362"><ele>152.66666666666669</ele><time>2026-04-18T09:52:06.024Z</time></trkpt><trkpt lat="42.0997475" lon="11.896283"><ele>152.0</ele><time>2026-04-18T09:52:07.024Z</time></trkpt><trkpt lat="42.0997055" lon="11.8962079"><ele>151.33333333333334</ele><time>2026-04-18T09:52:08.026Z</time></trkpt><trkpt lat="42.0996673" lon="11.8961314"><ele>150.66666666666666</ele><time>2026-04-18T09:52:09.024Z</time></trkpt><trkpt lat="42.0996249" lon="11.8960618"><ele>150.0</ele><time>2026-04-18T09:52:10.024Z</time></trkpt><trkpt lat="42.0995391" lon="11.8959619"><ele>150.0</ele><time>2026-04-18T09:52:12.025Z</time></trkpt><trkpt lat="42.0994144" lon="11.8959274"><ele>150.0</ele><time>2026-04-18T09:52:14.024Z</time></trkpt><trkpt lat="42.0993383" lon="11.8959598"><ele>150.0</ele><time>2026-04-18T09:52:15.024Z</time></trkpt><trkpt lat="42.0992639" lon="11.8959992"><ele>150.0</ele><time>2026-04-18T09:52:16.024Z</time></trkpt><trkpt lat="42.0991907" lon="11.8960183"><ele>150.0</ele><time>2026-04-18T09:52:17.024Z</time></trkpt><trkpt lat="42.0991148" lon="11.8960169"><ele>150.0</ele><time>2026-04-18T09:52:18.024Z</time></trkpt><trkpt lat="42.099049" lon="11.895994"><ele>150.0</ele><time>2026-04-18T09:52:19.024Z</time></trkpt><trkpt lat="42.0989912" lon="11.8959535"><ele>150.0</ele><time>2026-04-18T09:52:20.024Z</time></trkpt><trkpt lat="42.0989239" lon="11.8958074"><ele>150.0</ele><time>2026-04-18T09:52:22.024Z</time></trkpt><trkpt lat="42.0988876" lon="11.895686"><ele>150.0</ele><time>2026-04-18T09:52:23.023Z</time></trkpt><trkpt lat="42.0988499" lon="11.8955709"><ele>150.0</ele><time>2026-04-18T09:52:24.024Z</time></trkpt><trkpt lat="42.0988036" lon="11.8954673"><ele>147.6</ele><time>2026-04-18T09:52:25.023Z</time></trkpt><trkpt lat="42.098752" lon="11.8953556"><ele>145.2</ele><time>2026-04-18T09:52:26.025Z</time></trkpt><trkpt lat="42.0986907" lon="11.8952462"><ele>142.8</ele><time>2026-04-18T09:52:27.023Z</time></trkpt><trkpt lat="42.0986195" lon="11.8951532"><ele>140.4</ele><time>2026-04-18T09:52:28.024Z</time></trkpt><trkpt lat="42.0985464" lon="11.8950672"><ele>138.0</ele><time>2026-04-18T09:52:29.024Z</time></trkpt><trkpt lat="42.0984757" lon="11.8950023"><ele>137.4</ele><time>2026-04-18T09:52:30.024Z</time></trkpt><trkpt lat="42.0983891" lon="11.8949656"><ele>136.8</ele><time>2026-04-18T09:52:31.025Z</time></trkpt><trkpt lat="42.0982886" lon="11.8949371"><ele>136.2</ele><time>2026-04-18T09:52:32.025Z</time></trkpt><trkpt lat="42.098194" lon="11.8948957"><ele>135.6</ele><time>2026-04-18T09:52:33.025Z</time></trkpt><trkpt lat="42.0981134" lon="11.8948536"><ele>135.0</ele><time>2026-04-18T09:52:34.024Z</time></trkpt><trkpt lat="42.0980335" lon="11.8948265"><ele>135.0</ele><time>2026-04-18T09:52:35.025Z</time></trkpt><trkpt lat="42.0979652" lon="11.8948002"><ele>135.0</ele><time>2026-04-18T09:52:36.026Z</time></trkpt><trkpt lat="42.0979055" lon="11.8947532"><ele>135.0</ele><time>2026-04-18T09:52:37.024Z</time></trkpt><trkpt lat="42.0978272" lon="11.8946972"><ele>135.0</ele><time>2026-04-18T09:52:38.026Z</time></trkpt><trkpt lat="42.0977397" lon="11.8946444"><ele>135.0</ele><time>2026-04-18T09:52:39.024Z</time></trkpt><trkpt lat="42.0976643" lon="11.8945883"><ele>135.0</ele><time>2026-04-18T09:52:40.024Z</time></trkpt><trkpt lat="42.0976102" lon="11.8945448"><ele>135.0</ele><time>2026-04-18T09:52:41.024Z</time></trkpt><trkpt lat="42.0975276" lon="11.8944878"><ele>135.0</ele><time>2026-04-18T09:52:43.023Z</time></trkpt><trkpt lat="42.097431" lon="11.8944044"><ele>135.0</ele><time>2026-04-18T09:52:45.024Z</time></trkpt><trkpt lat="42.0973753" lon="11.8943231"><ele>135.0</ele><time>2026-04-18T09:52:46.024Z</time></trkpt><trkpt lat="42.097315" lon="11.894222"><ele>135.0</ele><time>2026-04-18T09:52:47.024Z</time></trkpt><trkpt lat="42.0972622" lon="11.8941414"><ele>134.5</ele><time>2026-04-18T09:52:48.024Z</time></trkpt><trkpt lat="42.0972125" lon="11.8940752"><ele>134.0</ele><time>2026-04-18T09:52:49.024Z</time></trkpt><trkpt lat="42.0971241" lon="11.8939615"><ele>133.5</ele><time>2026-04-18T09:52:51.024Z</time></trkpt><trkpt lat="42.0970394" lon="11.893878"><ele>133.0</ele><time>2026-04-18T09:52:53.025Z</time></trkpt><trkpt lat="42.0969977" lon="11.8938123"><ele>132.5</ele><time>2026-04-18T09:52:54.024Z</time></trkpt><trkpt lat="42.0969542" lon="11.8937107"><ele>132.0</ele><time>2026-04-18T09:52:55.024Z</time></trkpt><trkpt lat="42.0969003" lon="11.8936018"><ele>132.0</ele><time>2026-04-18T09:52:56.023Z</time></trkpt><trkpt lat="42.0968495" lon="11.8935282"><ele>132.0</ele><time>2026-04-18T09:52:57.024Z</time></trkpt><trkpt lat="42.0967958" lon="11.8934673"><ele>132.0</ele><time>2026-04-18T09:52:58.023Z</time></trkpt><trkpt lat="42.0967451" lon="11.8934167"><ele>132.0</ele><time>2026-04-18T09:52:59.023Z</time></trkpt><trkpt lat="42.0966712" lon="11.8933464"><ele>132.0</ele><time>2026-04-18T09:53:01.023Z</time></trkpt><trkpt lat="42.0966086" lon="11.8932884"><ele>132.0</ele><time>2026-04-18T09:53:03.024Z</time></trkpt><trkpt lat="42.0965128" lon="11.8932034"><ele>133.6</ele><time>2026-04-18T09:53:05.023Z</time></trkpt><trkpt lat="42.0964179" lon="11.8931349"><ele>135.2</ele><time>2026-04-18T09:53:07.025Z</time></trkpt><trkpt lat="42.0963081" lon="11.8931056"><ele>136.8</ele><time>2026-04-18T09:53:09.023Z</time></trkpt><trkpt lat="42.0962241" lon="11.8930866"><ele>138.4</ele><time>2026-04-18T09:53:10.024Z</time></trkpt><trkpt lat="42.0961453" lon="11.8930573"><ele>140.0</ele><time>2026-04-18T09:53:11.024Z</time></trkpt><trkpt lat="42.0960729" lon="11.892986"><ele>140.0</ele><time>2026-04-18T09:53:13.024Z</time></trkpt><trkpt lat="42.0960371" lon="11.8928579"><ele>140.0</ele><time>2026-04-18T09:53:15.025Z</time></trkpt><trkpt lat="42.0960349" lon="11.8927703"><ele>140.0</ele><time>2026-04-18T09:53:17.024Z</time></trkpt><trkpt lat="42.0959802" lon="11.8926575"><ele>140.0</ele><time>2026-04-18T09:53:19.024Z</time></trkpt><trkpt lat="42.0959221" lon="11.8926122"><ele>140.0</ele><time>2026-04-18T09:53:22.024Z</time></trkpt><trkpt lat="42.0958424" lon="11.8925488"><ele>140.0</ele><time>2026-04-18T09:53:33.023Z</time></trkpt><trkpt lat="42.0958054" lon="11.892466"><ele>142.16666666666666</ele><time>2026-04-18T09:53:36.024Z</time></trkpt><trkpt lat="42.0957422" lon="11.8923962"><ele>144.33333333333331</ele><time>2026-04-18T09:53:48.034Z</time></trkpt><trkpt lat="42.0956581" lon="11.8923298"><ele>146.5</ele><time>2026-04-18T09:53:50.023Z</time></trkpt><trkpt lat="42.0955953" lon="11.8922646"><ele>148.66666666666666</ele><time>2026-04-18T09:53:51.024Z</time></trkpt><trkpt lat="42.0955328" lon="11.8921748"><ele>150.83333333333334</ele><time>2026-04-18T09:53:53.025Z</time></trkpt><trkpt lat="42.0954865" lon="11.8921054"><ele>153.0</ele><time>2026-04-18T09:53:55.024Z</time></trkpt><trkpt lat="42.0954364" lon="11.8920176"><ele>153.0</ele><time>2026-04-18T09:54:20.024Z</time></trkpt><trkpt lat="42.0953719" lon="11.8919211"><ele>153.0</ele><time>2026-04-18T09:54:22.025Z</time></trkpt><trkpt lat="42.09529" lon="11.8918044"><ele>153.0</ele><time>2026-04-18T09:54:24.024Z</time></trkpt><trkpt lat="42.0951913" lon="11.8917365"><ele>153.0</ele><time>2026-04-18T09:54:26.024Z</time></trkpt><trkpt lat="42.0950732" lon="11.8917043"><ele>153.0</ele><time>2026-04-18T09:54:28.024Z</time></trkpt><trkpt lat="42.0950123" lon="11.8916814"><ele>152.6</ele><time>2026-04-18T09:54:29.024Z</time></trkpt><trkpt lat="42.0948984" lon="11.8916286"><ele>152.20000000000002</ele><time>2026-04-18T09:54:31.025Z</time></trkpt><trkpt lat="42.0948014" lon="11.8915945"><ele>151.8</ele><time>2026-04-18T09:54:33.023Z</time></trkpt><trkpt lat="42.0947303" lon="11.8915333"><ele>151.4</ele><time>2026-04-18T09:54:35.023Z</time></trkpt><trkpt lat="42.0947082" lon="11.891433"><ele>151.0</ele><time>2026-04-18T09:54:37.025Z</time></trkpt><trkpt lat="42.0946477" lon="11.8912896"><ele>151.00000000000003</ele><time>2026-04-18T09:54:39.024Z</time></trkpt><trkpt lat="42.0945974" lon="11.8912161"><ele>151.0</ele><time>2026-04-18T09:54:40.025Z</time></trkpt><trkpt lat="42.0945488" lon="11.8911596"><ele>151.0</ele><time>2026-04-18T09:54:41.023Z</time></trkpt><trkpt lat="42.0944929" lon="11.8911178"><ele>151.0</ele><time>2026-04-18T09:54:42.023Z</time></trkpt><trkpt lat="42.0944205" lon="11.8910826"><ele>151.0</ele><time>2026-04-18T09:54:43.023Z</time></trkpt><trkpt lat="42.0943384" lon="11.8910539"><ele>151.00000000000003</ele><time>2026-04-18T09:54:44.024Z</time></trkpt><trkpt lat="42.0942587" lon="11.8910316"><ele>151.0</ele><time>2026-04-18T09:54:45.023Z</time></trkpt><trkpt lat="42.0941929" lon="11.8910044"><ele>150.83333333333334</ele><time>2026-04-18T09:54:46.024Z</time></trkpt><trkpt lat="42.0941011" lon="11.8909225"><ele>150.66666666666669</ele><time>2026-04-18T09:54:48.024Z</time></trkpt><trkpt lat="42.0940503" lon="11.8908582"><ele>150.5</ele><time>2026-04-18T09:54:49.023Z</time></trkpt><trkpt lat="42.0939917" lon="11.8907869"><ele>150.33333333333334</ele><time>2026-04-18T09:54:50.023Z</time></trkpt><trkpt lat="42.0939358" lon="11.8907291"><ele>150.16666666666666</ele><time>2026-04-18T09:54:51.023Z</time></trkpt><trkpt lat="42.0938816" lon="11.8906753"><ele>150.0</ele><time>2026-04-18T09:54:52.025Z</time></trkpt><trkpt lat="42.0938325" lon="11.8906186"><ele>150.0</ele><time>2026-04-18T09:54:53.024Z</time></trkpt><trkpt lat="42.0937307" lon="11.8905067"><ele>150.0</ele><time>2026-04-18T09:54:55.023Z</time></trkpt><trkpt lat="42.0936783" lon="11.8904562"><ele>150.0</ele><time>2026-04-18T09:54:56.024Z</time></trkpt><trkpt lat="42.093579" lon="11.8903805"><ele>150.0</ele><time>2026-04-18T09:54:58.023Z</time></trkpt><trkpt lat="42.0935014" lon="11.8903169"><ele>150.0</ele><time>2026-04-18T09:55:00.023Z</time></trkpt><trkpt lat="42.0933926" lon="11.8902028"><ele>150.0</ele><time>2026-04-18T09:55:02.023Z</time></trkpt><trkpt lat="42.0933367" lon="11.8901625"><ele>150.0</ele><time>2026-04-18T09:55:03.024Z</time></trkpt><trkpt lat="42.0932609" lon="11.8901134"><ele>150.0</ele><time>2026-04-18T09:55:04.023Z</time></trkpt><trkpt lat="42.0931722" lon="11.890059"><ele>150.0</ele><time>2026-04-18T09:55:05.023Z</time></trkpt><trkpt lat="42.0930997" lon="11.8900104"><ele>150.0</ele><time>2026-04-18T09:55:06.024Z</time></trkpt><trkpt lat="42.0930055" lon="11.889947"><ele>150.0</ele><time>2026-04-18T09:55:08.024Z</time></trkpt><trkpt lat="42.0929149" lon="11.8899508"><ele>151.4</ele><time>2026-04-18T09:55:11.024Z</time></trkpt><trkpt lat="42.0928534" lon="11.8899759"><ele>152.8</ele><time>2026-04-18T09:55:12.023Z</time></trkpt><trkpt lat="42.0927542" lon="11.8900305"><ele>154.2</ele><time>2026-04-18T09:55:14.024Z</time></trkpt><trkpt lat="42.0926744" lon="11.8900971"><ele>155.6</ele><time>2026-04-18T09:55:16.024Z</time></trkpt><trkpt lat="42.0925822" lon="11.8901423"><ele>157.0</ele><time>2026-04-18T09:55:18.024Z</time></trkpt><trkpt lat="42.0924687" lon="11.8901374"><ele>155.83333333333334</ele><time>2026-04-18T09:55:20.024Z</time></trkpt><trkpt lat="42.0923944" lon="11.890125"><ele>154.66666666666669</ele><time>2026-04-18T09:55:21.023Z</time></trkpt><trkpt lat="42.0923247" lon="11.890117"><ele>153.5</ele><time>2026-04-18T09:55:22.024Z</time></trkpt><trkpt lat="42.0922107" lon="11.8900897"><ele>152.33333333333334</ele><time>2026-04-18T09:55:24.023Z</time></trkpt><trkpt lat="42.0920992" lon="11.890036"><ele>151.16666666666666</ele><time>2026-04-18T09:55:26.025Z</time></trkpt><trkpt lat="42.0920333" lon="11.8900118"><ele>150.0</ele><time>2026-04-18T09:55:27.023Z</time></trkpt><trkpt lat="42.0919688" lon="11.8899875"><ele>150.0</ele><time>2026-04-18T09:55:28.024Z</time></trkpt><trkpt lat="42.0918642" lon="11.8899574"><ele>150.0</ele><time>2026-04-18T09:55:30.023Z</time></trkpt><trkpt lat="42.0918079" lon="11.8899001"><ele>150.0</ele><time>2026-04-18T09:55:32.025Z</time></trkpt><trkpt lat="42.0918103" lon="11.8897698"><ele>150.0</ele><time>2026-04-18T09:55:35.024Z</time></trkpt><trkpt lat="42.0918319" lon="11.8896687"><ele>150.0</ele><time>2026-04-18T09:55:37.025Z</time></trkpt><trkpt lat="42.0918082" lon="11.8895363"><ele>150.0</ele><time>2026-04-18T09:55:39.023Z</time></trkpt><trkpt lat="42.0917863" lon="11.8894541"><ele>150.0</ele><time>2026-04-18T09:55:40.023Z</time></trkpt><trkpt lat="42.091728" lon="11.8892746"><ele>150.0</ele><time>2026-04-18T09:55:42.024Z</time></trkpt><trkpt lat="42.091699" lon="11.8891628"><ele>150.0</ele><time>2026-04-18T09:55:43.024Z</time></trkpt><trkpt lat="42.0916808" lon="11.8890609"><ele>150.0</ele><time>2026-04-18T09:55:44.025Z</time></trkpt><trkpt lat="42.0916672" lon="11.8889635"><ele>150.0</ele><time>2026-04-18T09:55:45.023Z</time></trkpt><trkpt lat="42.0916447" lon="11.888858"><ele>149.0</ele><time>2026-04-18T09:55:46.023Z</time></trkpt><trkpt lat="42.0916115" lon="11.8887388"><ele>148.0</ele><time>2026-04-18T09:55:47.024Z</time></trkpt><trkpt lat="42.091575" lon="11.8886225"><ele>147.0</ele><time>2026-04-18T09:55:48.024Z</time></trkpt><trkpt lat="42.0915402" lon="11.8885232"><ele>146.0</ele><time>2026-04-18T09:55:49.024Z</time></trkpt><trkpt lat="42.0914999" lon="11.8884372"><ele>145.0</ele><time>2026-04-18T09:55:50.023Z</time></trkpt><trkpt lat="42.0914471" lon="11.8883469"><ele>144.0</ele><time>2026-04-18T09:55:51.023Z</time></trkpt><trkpt lat="42.091389" lon="11.888264"><ele>146.0</ele><time>2026-04-18T09:55:52.023Z</time></trkpt><trkpt lat="42.0913311" lon="11.8881969"><ele>148.0</ele><time>2026-04-18T09:55:53.023Z</time></trkpt><trkpt lat="42.0912662" lon="11.8881381"><ele>150.0</ele><time>2026-04-18T09:55:54.023Z</time></trkpt><trkpt lat="42.0911951" lon="11.8880744"><ele>152.0</ele><time>2026-04-18T09:55:55.023Z</time></trkpt><trkpt lat="42.0911283" lon="11.8880127"><ele>154.0</ele><time>2026-04-18T09:55:56.023Z</time></trkpt><trkpt lat="42.0910154" lon="11.8879538"><ele>156.0</ele><time>2026-04-18T09:55:58.024Z</time></trkpt><trkpt lat="42.0909444" lon="11.8879541"><ele>156.0</ele><time>2026-04-18T09:55:59.023Z</time></trkpt><trkpt lat="42.0908411" lon="11.8879711"><ele>156.0</ele><time>2026-04-18T09:56:01.024Z</time></trkpt><trkpt lat="42.090768" lon="11.8879919"><ele>156.0</ele><time>2026-04-18T09:56:03.025Z</time></trkpt><trkpt lat="42.0906978" lon="11.8880194"><ele>156.0</ele><time>2026-04-18T09:56:05.024Z</time></trkpt><trkpt lat="42.0906342" lon="11.8880299"><ele>156.0</ele><time>2026-04-18T09:56:07.024Z</time></trkpt><trkpt lat="42.0905295" lon="11.8880452"><ele>156.0</ele><time>2026-04-18T09:56:25.023Z</time></trkpt><trkpt lat="42.0904261" lon="11.8880206"><ele>156.6</ele><time>2026-04-18T09:56:27.023Z</time></trkpt><trkpt lat="42.090293" lon="11.8879568"><ele>157.2</ele><time>2026-04-18T09:56:29.023Z</time></trkpt><trkpt lat="42.0902175" lon="11.8879064"><ele>157.8</ele><time>2026-04-18T09:56:30.023Z</time></trkpt><trkpt lat="42.0901523" lon="11.8878628"><ele>158.4</ele><time>2026-04-18T09:56:31.024Z</time></trkpt><trkpt lat="42.0900388" lon="11.8878321"><ele>159.0</ele><time>2026-04-18T09:56:33.024Z</time></trkpt><trkpt lat="42.0899363" lon="11.8878164"><ele>159.0</ele><time>2026-04-18T09:56:35.023Z</time></trkpt><trkpt lat="42.0898428" lon="11.8878653"><ele>159.0</ele><time>2026-04-18T09:56:38.024Z</time></trkpt><trkpt lat="42.0897794" lon="11.887901"><ele>159.0</ele><time>2026-04-18T09:56:39.023Z</time></trkpt><trkpt lat="42.0897177" lon="11.8879359"><ele>159.0</ele><time>2026-04-18T09:56:40.023Z</time></trkpt><trkpt lat="42.0896646" lon="11.8879882"><ele>159.0</ele><time>2026-04-18T09:56:41.024Z</time></trkpt><trkpt lat="42.0896154" lon="11.8880605"><ele>159.0</ele><time>2026-04-18T09:56:42.023Z</time></trkpt><trkpt lat="42.0895565" lon="11.888151"><ele>159.0</ele><time>2026-04-18T09:56:43.023Z</time></trkpt><trkpt lat="42.0894987" lon="11.8882427"><ele>159.0</ele><time>2026-04-18T09:56:44.023Z</time></trkpt><trkpt lat="42.0894427" lon="11.8883335"><ele>159.0</ele><time>2026-04-18T09:56:45.023Z</time></trkpt><trkpt lat="42.0893754" lon="11.8884174"><ele>159.0</ele><time>2026-04-18T09:56:46.023Z</time></trkpt><trkpt lat="42.0893" lon="11.8884891"><ele>159.0</ele><time>2026-04-18T09:56:47.024Z</time></trkpt><trkpt lat="42.0892246" lon="11.8885565"><ele>159.83333333333334</ele><time>2026-04-18T09:56:48.024Z</time></trkpt><trkpt lat="42.0891509" lon="11.8886137"><ele>160.66666666666666</ele><time>2026-04-18T09:56:49.023Z</time></trkpt><trkpt lat="42.0890717" lon="11.8886655"><ele>161.5</ele><time>2026-04-18T09:56:50.023Z</time></trkpt><trkpt lat="42.0889888" lon="11.8887175"><ele>162.33333333333331</ele><time>2026-04-18T09:56:51.023Z</time></trkpt><trkpt lat="42.0889077" lon="11.8887695"><ele>163.16666666666666</ele><time>2026-04-18T09:56:52.024Z</time></trkpt><trkpt lat="42.088822" lon="11.8888084"><ele>164.0</ele><time>2026-04-18T09:56:53.023Z</time></trkpt><trkpt lat="42.0887372" lon="11.8888396"><ele>164.0</ele><time>2026-04-18T09:56:54.023Z</time></trkpt><trkpt lat="42.0886718" lon="11.8888688"><ele>164.0</ele><time>2026-04-18T09:56:55.023Z</time></trkpt><trkpt lat="42.0885848" lon="11.8889643"><ele>164.0</ele><time>2026-04-18T09:56:57.024Z</time></trkpt><trkpt lat="42.088537" lon="11.8890485"><ele>164.0</ele><time>2026-04-18T09:56:58.023Z</time></trkpt><trkpt lat="42.088493" lon="11.8891501"><ele>164.0</ele><time>2026-04-18T09:56:59.023Z</time></trkpt><trkpt lat="42.0884403" lon="11.8892639"><ele>164.0</ele><time>2026-04-18T09:57:00.023Z</time></trkpt><trkpt lat="42.0883857" lon="11.8893738"><ele>164.5</ele><time>2026-04-18T09:57:01.023Z</time></trkpt><trkpt lat="42.0883398" lon="11.8894733"><ele>165.0</ele><time>2026-04-18T09:57:02.023Z</time></trkpt><trkpt lat="42.0882988" lon="11.8895777"><ele>165.5</ele><time>2026-04-18T09:57:03.023Z</time></trkpt><trkpt lat="42.0882573" lon="11.8896744"><ele>166.0</ele><time>2026-04-18T09:57:04.023Z</time></trkpt><trkpt lat="42.0882171" lon="11.8897505"><ele>166.5</ele><time>2026-04-18T09:57:05.023Z</time></trkpt><trkpt lat="42.0881718" lon="11.8898332"><ele>167.0</ele><time>2026-04-18T09:57:06.023Z</time></trkpt><trkpt lat="42.0881232" lon="11.8899276"><ele>167.0</ele><time>2026-04-18T09:57:07.023Z</time></trkpt><trkpt lat="42.088085" lon="11.8900179"><ele>167.0</ele><time>2026-04-18T09:57:08.023Z</time></trkpt><trkpt lat="42.0880536" lon="11.8901"><ele>167.0</ele><time>2026-04-18T09:57:09.023Z</time></trkpt><trkpt lat="42.0880317" lon="11.890181"><ele>167.0</ele><time>2026-04-18T09:57:10.023Z</time></trkpt><trkpt lat="42.0880104" lon="11.890335"><ele>167.0</ele><time>2026-04-18T09:57:12.023Z</time></trkpt><trkpt lat="42.0879846" lon="11.8904815"><ele>167.0</ele><time>2026-04-18T09:57:14.023Z</time></trkpt><trkpt lat="42.0879334" lon="11.8905869"><ele>168.8</ele><time>2026-04-18T09:57:16.023Z</time></trkpt><trkpt lat="42.0878481" lon="11.8906912"><ele>170.6</ele><time>2026-04-18T09:57:18.023Z</time></trkpt><trkpt lat="42.087768" lon="11.8907581"><ele>172.4</ele><time>2026-04-18T09:57:20.023Z</time></trkpt><trkpt lat="42.0877073" lon="11.8907929"><ele>174.20000000000002</ele><time>2026-04-18T09:57:22.958Z</time></trkpt><trkpt lat="42.0876068" lon="11.890819"><ele>176.0</ele><time>2026-04-18T09:57:45.023Z</time></trkpt><trkpt lat="42.0875339" lon="11.8908629"><ele>176.60000000000002</ele><time>2026-04-18T09:57:46.023Z</time></trkpt><trkpt lat="42.0874325" lon="11.8909385"><ele>177.2</ele><time>2026-04-18T09:57:48.024Z</time></trkpt><trkpt lat="42.0873397" lon="11.8910038"><ele>177.8</ele><time>2026-04-18T09:57:50.023Z</time></trkpt><trkpt lat="42.0872487" lon="11.8910656"><ele>178.39999999999998</ele><time>2026-04-18T09:57:52.023Z</time></trkpt><trkpt lat="42.0871675" lon="11.891104"><ele>179.0</ele><time>2026-04-18T09:57:54.024Z</time></trkpt><trkpt lat="42.0871188" lon="11.8910414"><ele>177.79999999999998</ele><time>2026-04-18T09:57:56.024Z</time></trkpt><trkpt lat="42.0871042" lon="11.8909164"><ele>176.6</ele><time>2026-04-18T09:57:58.023Z</time></trkpt><trkpt lat="42.0871044" lon="11.8907587"><ele>175.4</ele><time>2026-04-18T09:58:00.023Z</time></trkpt><trkpt lat="42.0871102" lon="11.8906628"><ele>174.2</ele><time>2026-04-18T09:58:02.023Z</time></trkpt><trkpt lat="42.0871202" lon="11.8905688"><ele>173.0</ele><time>2026-04-18T09:58:04.023Z</time></trkpt><trkpt lat="42.0871545" lon="11.89044"><ele>173.0</ele><time>2026-04-18T09:58:06.023Z</time></trkpt><trkpt lat="42.0871912" lon="11.8903579"><ele>173.0</ele><time>2026-04-18T09:58:07.023Z</time></trkpt><trkpt lat="42.0872351" lon="11.89029"><ele>173.0</ele><time>2026-04-18T09:58:08.023Z</time></trkpt><trkpt lat="42.0872885" lon="11.8901597"><ele>173.0</ele><time>2026-04-18T09:58:10.023Z</time></trkpt><trkpt lat="42.0872952" lon="11.8900685"><ele>173.0</ele><time>2026-04-18T09:58:11.023Z</time></trkpt><trkpt lat="42.0872895" lon="11.8899522"><ele>173.0</ele><time>2026-04-18T09:58:12.023Z</time></trkpt><trkpt lat="42.0872729" lon="11.8898543"><ele>171.4</ele><time>2026-04-18T09:58:13.023Z</time></trkpt><trkpt lat="42.0872478" lon="11.8897757"><ele>169.8</ele><time>2026-04-18T09:58:14.023Z</time></trkpt><trkpt lat="42.087209" lon="11.8897054"><ele>168.2</ele><time>2026-04-18T09:58:15.024Z</time></trkpt><trkpt lat="42.0870884" lon="11.8896063"><ele>166.6</ele><time>2026-04-18T09:58:17.023Z</time></trkpt><trkpt lat="42.0869964" lon="11.8895254"><ele>165.0</ele><time>2026-04-18T09:58:18.023Z</time></trkpt><trkpt lat="42.0869011" lon="11.8894417"><ele>165.0</ele><time>2026-04-18T09:58:19.022Z</time></trkpt><trkpt lat="42.0868149" lon="11.8893704"><ele>165.0</ele><time>2026-04-18T09:58:20.023Z</time></trkpt><trkpt lat="42.0867329" lon="11.8893017"><ele>165.0</ele><time>2026-04-18T09:58:21.024Z</time></trkpt><trkpt lat="42.0866451" lon="11.8892368"><ele>165.0</ele><time>2026-04-18T09:58:22.024Z</time></trkpt><trkpt lat="42.0865456" lon="11.8891839"><ele>165.0</ele><time>2026-04-18T09:58:23.023Z</time></trkpt><trkpt lat="42.0864525" lon="11.8891439"><ele>162.16666666666666</ele><time>2026-04-18T09:58:24.023Z</time></trkpt><trkpt lat="42.0863879" lon="11.8891059"><ele>159.33333333333334</ele><time>2026-04-18T09:58:25.024Z</time></trkpt><trkpt lat="42.0863254" lon="11.8890395"><ele>156.5</ele><time>2026-04-18T09:58:26.023Z</time></trkpt><trkpt lat="42.0862652" lon="11.8889436"><ele>153.66666666666669</ele><time>2026-04-18T09:58:27.023Z</time></trkpt><trkpt lat="42.0862071" lon="11.8888395"><ele>150.83333333333334</ele><time>2026-04-18T09:58:28.023Z</time></trkpt><trkpt lat="42.0861533" lon="11.8887357"><ele>148.0</ele><time>2026-04-18T09:58:29.023Z</time></trkpt><trkpt lat="42.0861008" lon="11.8886299"><ele>148.0</ele><time>2026-04-18T09:58:30.022Z</time></trkpt><trkpt lat="42.0860576" lon="11.8885222"><ele>148.0</ele><time>2026-04-18T09:58:31.022Z</time></trkpt><trkpt lat="42.0860233" lon="11.8884158"><ele>148.0</ele><time>2026-04-18T09:58:32.023Z</time></trkpt><trkpt lat="42.0859977" lon="11.8883199"><ele>148.0</ele><time>2026-04-18T09:58:33.024Z</time></trkpt><trkpt lat="42.0859686" lon="11.8882326"><ele>148.0</ele><time>2026-04-18T09:58:34.022Z</time></trkpt><trkpt lat="42.0859296" lon="11.8881564"><ele>148.0</ele><time>2026-04-18T09:58:35.023Z</time></trkpt><trkpt lat="42.0858838" lon="11.8880888"><ele>146.33333333333334</ele><time>2026-04-18T09:58:36.022Z</time></trkpt><trkpt lat="42.0858357" lon="11.8880315"><ele>144.66666666666669</ele><time>2026-04-18T09:58:37.023Z</time></trkpt><trkpt lat="42.0857787" lon="11.887966"><ele>143.0</ele><time>2026-04-18T09:58:38.022Z</time></trkpt><trkpt lat="42.085711" lon="11.8878859"><ele>141.33333333333334</ele><time>2026-04-18T09:58:39.023Z</time></trkpt><trkpt lat="42.0856472" lon="11.8878009"><ele>139.66666666666666</ele><time>2026-04-18T09:58:40.023Z</time></trkpt><trkpt lat="42.0855909" lon="11.8876854"><ele>138.0</ele><time>2026-04-18T09:58:41.024Z</time></trkpt><trkpt lat="42.0855264" lon="11.8875398"><ele>135.25</ele><time>2026-04-18T09:58:42.022Z</time></trkpt><trkpt lat="42.0854598" lon="11.8873766"><ele>132.5</ele><time>2026-04-18T09:58:43.023Z</time></trkpt><trkpt lat="42.0854075" lon="11.8872229"><ele>129.75</ele><time>2026-04-18T09:58:44.023Z</time></trkpt><trkpt lat="42.0853569" lon="11.8870902"><ele>127.0</ele><time>2026-04-18T09:58:45.023Z</time></trkpt><trkpt lat="42.0853087" lon="11.8869597"><ele>127.0</ele><time>2026-04-18T09:58:46.023Z</time></trkpt><trkpt lat="42.0852663" lon="11.8868257"><ele>126.99999999999999</ele><time>2026-04-18T09:58:47.024Z</time></trkpt><trkpt lat="42.0852322" lon="11.8866996"><ele>126.99999999999999</ele><time>2026-04-18T09:58:48.024Z</time></trkpt><trkpt lat="42.0852083" lon="11.8865726"><ele>127.0</ele><time>2026-04-18T09:58:49.023Z</time></trkpt><trkpt lat="42.0851854" lon="11.8864397"><ele>127.0</ele><time>2026-04-18T09:58:50.023Z</time></trkpt><trkpt lat="42.0851608" lon="11.8863131"><ele>126.33333333333334</ele><time>2026-04-18T09:58:51.023Z</time></trkpt><trkpt lat="42.0851406" lon="11.8862011"><ele>125.66666666666667</ele><time>2026-04-18T09:58:52.024Z</time></trkpt><trkpt lat="42.0851207" lon="11.8861065"><ele>125.0</ele><time>2026-04-18T09:58:53.024Z</time></trkpt><trkpt lat="42.0851106" lon="11.8860012"><ele>124.33333333333334</ele><time>2026-04-18T09:58:54.023Z</time></trkpt><trkpt lat="42.0851199" lon="11.8858834"><ele>123.66666666666667</ele><time>2026-04-18T09:58:55.022Z</time></trkpt><trkpt lat="42.0851297" lon="11.885773"><ele>123.0</ele><time>2026-04-18T09:58:56.023Z</time></trkpt><trkpt lat="42.0851392" lon="11.8856759"><ele>122.33333333333333</ele><time>2026-04-18T09:58:57.024Z</time></trkpt><trkpt lat="42.0851522" lon="11.885586"><ele>121.66666666666666</ele><time>2026-04-18T09:58:58.023Z</time></trkpt><trkpt lat="42.0851681" lon="11.8854979"><ele>121.0</ele><time>2026-04-18T09:58:59.023Z</time></trkpt><trkpt lat="42.0851822" lon="11.8854085"><ele>120.33333333333333</ele><time>2026-04-18T09:59:00.024Z</time></trkpt><trkpt lat="42.0851976" lon="11.8852597"><ele>119.66666666666666</ele><time>2026-04-18T09:59:02.023Z</time></trkpt><trkpt lat="42.0852274" lon="11.8851292"><ele>119.0</ele><time>2026-04-18T09:59:04.023Z</time></trkpt><trkpt lat="42.0852692" lon="11.8849871"><ele>117.33333333333333</ele><time>2026-04-18T09:59:06.024Z</time></trkpt><trkpt lat="42.0852707" lon="11.8848993"><ele>115.66666666666666</ele><time>2026-04-18T09:59:07.023Z</time></trkpt><trkpt lat="42.0852811" lon="11.8848075"><ele>114.0</ele><time>2026-04-18T09:59:08.024Z</time></trkpt><trkpt lat="42.0852984" lon="11.8847047"><ele>112.33333333333334</ele><time>2026-04-18T09:59:09.023Z</time></trkpt><trkpt lat="42.0853088" lon="11.8846071"><ele>110.66666666666667</ele><time>2026-04-18T09:59:10.023Z</time></trkpt><trkpt lat="42.0852917" lon="11.8845252"><ele>109.0</ele><time>2026-04-18T09:59:11.022Z</time></trkpt><trkpt lat="42.0852172" lon="11.8843921"><ele>109.00000000000001</ele><time>2026-04-18T09:59:13.024Z</time></trkpt><trkpt lat="42.0851568" lon="11.8843267"><ele>109.0</ele><time>2026-04-18T09:59:14.023Z</time></trkpt><trkpt lat="42.0851023" lon="11.884274"><ele>109.0</ele><time>2026-04-18T09:59:15.022Z</time></trkpt><trkpt lat="42.0850488" lon="11.8842052"><ele>109.0</ele><time>2026-04-18T09:59:16.024Z</time></trkpt><trkpt lat="42.0849934" lon="11.8841293"><ele>109.00000000000001</ele><time>2026-04-18T09:59:17.022Z</time></trkpt><trkpt lat="42.0849411" lon="11.8840505"><ele>109.0</ele><time>2026-04-18T09:59:18.023Z</time></trkpt><trkpt lat="42.0848916" lon="11.8839768"><ele>106.50000000000001</ele><time>2026-04-18T09:59:19.024Z</time></trkpt><trkpt lat="42.0848432" lon="11.883913"><ele>104.0</ele><time>2026-04-18T09:59:20.023Z</time></trkpt><trkpt lat="42.0847861" lon="11.8838322"><ele>101.5</ele><time>2026-04-18T09:59:22.023Z</time></trkpt><trkpt lat="42.0847214" lon="11.8837842"><ele>99.0</ele><time>2026-04-18T09:59:26.023Z</time></trkpt><trkpt lat="42.0846146" lon="11.8838032"><ele>96.5</ele><time>2026-04-18T09:59:29.023Z</time></trkpt><trkpt lat="42.0845443" lon="11.8838099"><ele>94.0</ele><time>2026-04-18T09:59:30.023Z</time></trkpt><trkpt lat="42.0844701" lon="11.883813"><ele>94.0</ele><time>2026-04-18T09:59:31.023Z</time></trkpt><trkpt lat="42.084395" lon="11.8838208"><ele>94.0</ele><time>2026-04-18T09:59:32.023Z</time></trkpt><trkpt lat="42.0843149" lon="11.8838321"><ele>94.0</ele><time>2026-04-18T09:59:33.023Z</time></trkpt><trkpt lat="42.0842325" lon="11.8838603"><ele>94.0</ele><time>2026-04-18T09:59:34.023Z</time></trkpt><trkpt lat="42.0841444" lon="11.8838895"><ele>94.0</ele><time>2026-04-18T09:59:35.023Z</time></trkpt><trkpt lat="42.0840513" lon="11.8839114"><ele>94.0</ele><time>2026-04-18T09:59:36.023Z</time></trkpt><trkpt lat="42.0839585" lon="11.8839309"><ele>93.0</ele><time>2026-04-18T09:59:37.023Z</time></trkpt><trkpt lat="42.0838748" lon="11.883954"><ele>92.0</ele><time>2026-04-18T09:59:38.022Z</time></trkpt><trkpt lat="42.0837881" lon="11.8840035"><ele>91.0</ele><time>2026-04-18T09:59:39.023Z</time></trkpt><trkpt lat="42.0836873" lon="11.8840825"><ele>90.0</ele><time>2026-04-18T09:59:40.023Z</time></trkpt><trkpt lat="42.0835902" lon="11.8841636"><ele>89.0</ele><time>2026-04-18T09:59:41.022Z</time></trkpt><trkpt lat="42.0835087" lon="11.8842283"><ele>88.5</ele><time>2026-04-18T09:59:42.023Z</time></trkpt><trkpt lat="42.0834316" lon="11.8842819"><ele>88.0</ele><time>2026-04-18T09:59:43.023Z</time></trkpt><trkpt lat="42.0833585" lon="11.8843305"><ele>87.5</ele><time>2026-04-18T09:59:44.024Z</time></trkpt><trkpt lat="42.0832911" lon="11.8843724"><ele>87.0</ele><time>2026-04-18T09:59:45.024Z</time></trkpt><trkpt lat="42.0832229" lon="11.8844178"><ele>86.5</ele><time>2026-04-18T09:59:46.024Z</time></trkpt><trkpt lat="42.0831442" lon="11.8844713"><ele>86.0</ele><time>2026-04-18T09:59:47.025Z</time></trkpt><trkpt lat="42.0830532" lon="11.884532"><ele>86.0</ele><time>2026-04-18T09:59:48.023Z</time></trkpt><trkpt lat="42.082952" lon="11.8846072"><ele>86.0</ele><time>2026-04-18T09:59:49.023Z</time></trkpt><trkpt lat="42.0828516" lon="11.8846866"><ele>86.0</ele><time>2026-04-18T09:59:50.024Z</time></trkpt><trkpt lat="42.0827634" lon="11.8847594"><ele>86.0</ele><time>2026-04-18T09:59:51.023Z</time></trkpt><trkpt lat="42.0826928" lon="11.884818"><ele>86.0</ele><time>2026-04-18T09:59:52.023Z</time></trkpt><trkpt lat="42.0826079" lon="11.8848863"><ele>86.00000000000001</ele><time>2026-04-18T09:59:54.023Z</time></trkpt><trkpt lat="42.082563" lon="11.8849517"><ele>86.0</ele><time>2026-04-18T09:59:56.022Z</time></trkpt><trkpt lat="42.0825333" lon="11.8850524"><ele>86.0</ele><time>2026-04-18T09:59:59.023Z</time></trkpt><trkpt lat="42.0825008" lon="11.8851293"><ele>86.0</ele><time>2026-04-18T10:00:01.024Z</time></trkpt><trkpt lat="42.0824292" lon="11.8851559"><ele>86.0</ele><time>2026-04-18T10:00:03.023Z</time></trkpt><trkpt lat="42.0823638" lon="11.8851487"><ele>86.00000000000001</ele><time>2026-04-18T10:00:04.023Z</time></trkpt><trkpt lat="42.0822806" lon="11.8851445"><ele>86.0</ele><time>2026-04-18T10:00:05.022Z</time></trkpt><trkpt lat="42.0821811" lon="11.8851639"><ele>85.5</ele><time>2026-04-18T10:00:06.022Z</time></trkpt><trkpt lat="42.0820784" lon="11.8851946"><ele>85.0</ele><time>2026-04-18T10:00:07.023Z</time></trkpt><trkpt lat="42.081965" lon="11.885242"><ele>84.5</ele><time>2026-04-18T10:00:08.023Z</time></trkpt><trkpt lat="42.0818508" lon="11.8853038"><ele>84.0</ele><time>2026-04-18T10:00:09.022Z</time></trkpt><trkpt lat="42.0817431" lon="11.8853669"><ele>84.0</ele><time>2026-04-18T10:00:10.024Z</time></trkpt><trkpt lat="42.0816394" lon="11.885436"><ele>84.0</ele><time>2026-04-18T10:00:11.023Z</time></trkpt><trkpt lat="42.0815303" lon="11.8855231"><ele>84.0</ele><time>2026-04-18T10:00:12.024Z</time></trkpt><trkpt lat="42.0814322" lon="11.885625"><ele>84.0</ele><time>2026-04-18T10:00:13.022Z</time></trkpt><trkpt lat="42.0813368" lon="11.8857208"><ele>84.16666666666667</ele><time>2026-04-18T10:00:14.023Z</time></trkpt><trkpt lat="42.0812579" lon="11.8858158"><ele>84.33333333333333</ele><time>2026-04-18T10:00:15.024Z</time></trkpt><trkpt lat="42.0811839" lon="11.8859034"><ele>84.5</ele><time>2026-04-18T10:00:16.023Z</time></trkpt><trkpt lat="42.081116" lon="11.8859745"><ele>84.66666666666666</ele><time>2026-04-18T10:00:17.023Z</time></trkpt><trkpt lat="42.0810543" lon="11.8860363"><ele>84.83333333333333</ele><time>2026-04-18T10:00:18.023Z</time></trkpt><trkpt lat="42.0810074" lon="11.8861068"><ele>85.0</ele><time>2026-04-18T10:00:19.023Z</time></trkpt><trkpt lat="42.0809736" lon="11.8861951"><ele>84.2</ele><time>2026-04-18T10:00:20.023Z</time></trkpt><trkpt lat="42.0809496" lon="11.8862768"><ele>83.4</ele><time>2026-04-18T10:00:21.023Z</time></trkpt><trkpt lat="42.0809037" lon="11.886419"><ele>82.6</ele><time>2026-04-18T10:00:23.023Z</time></trkpt><trkpt lat="42.0808328" lon="11.8865392"><ele>81.8</ele><time>2026-04-18T10:00:25.023Z</time></trkpt><trkpt lat="42.0807646" lon="11.8865942"><ele>81.0</ele><time>2026-04-18T10:00:27.022Z</time></trkpt><trkpt lat="42.0806722" lon="11.8866085"><ele>80.6</ele><time>2026-04-18T10:00:29.023Z</time></trkpt><trkpt lat="42.0806073" lon="11.8866508"><ele>80.19999999999999</ele><time>2026-04-18T10:00:31.022Z</time></trkpt><trkpt lat="42.0805419" lon="11.8867622"><ele>79.80000000000001</ele><time>2026-04-18T10:00:33.022Z</time></trkpt><trkpt lat="42.080421" lon="11.8868194"><ele>79.4</ele><time>2026-04-18T10:00:35.022Z</time></trkpt><trkpt lat="42.0803447" lon="11.8868193"><ele>79.0</ele><time>2026-04-18T10:00:36.022Z</time></trkpt><trkpt lat="42.0802455" lon="11.8868218"><ele>79.0</ele><time>2026-04-18T10:00:37.023Z</time></trkpt><trkpt lat="42.0801301" lon="11.8868366"><ele>79.0</ele><time>2026-04-18T10:00:38.023Z</time></trkpt><trkpt lat="42.0800284" lon="11.8868544"><ele>79.0</ele><time>2026-04-18T10:00:39.022Z</time></trkpt><trkpt lat="42.0799489" lon="11.8868563"><ele>79.0</ele><time>2026-04-18T10:00:40.022Z</time></trkpt><trkpt lat="42.0798836" lon="11.8868262"><ele>79.0</ele><time>2026-04-18T10:00:41.023Z</time></trkpt><trkpt lat="42.0798135" lon="11.8867557"><ele>78.5</ele><time>2026-04-18T10:00:42.022Z</time></trkpt><trkpt lat="42.0797429" lon="11.8866799"><ele>78.0</ele><time>2026-04-18T10:00:43.023Z</time></trkpt><trkpt lat="42.0796773" lon="11.8866313"><ele>77.5</ele><time>2026-04-18T10:00:44.023Z</time></trkpt><trkpt lat="42.0796163" lon="11.8866039"><ele>77.0</ele><time>2026-04-18T10:00:45.023Z</time></trkpt><trkpt lat="42.0795452" lon="11.8865929"><ele>76.5</ele><time>2026-04-18T10:00:46.023Z</time></trkpt><trkpt lat="42.0794524" lon="11.8865904"><ele>76.0</ele><time>2026-04-18T10:00:47.022Z</time></trkpt><trkpt lat="42.0793424" lon="11.8865746"><ele>76.0</ele><time>2026-04-18T10:00:48.023Z</time></trkpt><trkpt lat="42.0792367" lon="11.8865416"><ele>76.0</ele><time>2026-04-18T10:00:49.023Z</time></trkpt><trkpt lat="42.0791517" lon="11.8865007"><ele>76.0</ele><time>2026-04-18T10:00:50.022Z</time></trkpt><trkpt lat="42.0790819" lon="11.8864419"><ele>76.0</ele><time>2026-04-18T10:00:51.024Z</time></trkpt><trkpt lat="42.0790119" lon="11.8863551"><ele>76.0</ele><time>2026-04-18T10:00:52.023Z</time></trkpt><trkpt lat="42.0789382" lon="11.8862551"><ele>76.33333333333333</ele><time>2026-04-18T10:00:53.023Z</time></trkpt><trkpt lat="42.0788818" lon="11.8861751"><ele>76.66666666666666</ele><time>2026-04-18T10:00:54.022Z</time></trkpt><trkpt lat="42.0788315" lon="11.8861051"><ele>77.0</ele><time>2026-04-18T10:00:55.024Z</time></trkpt><trkpt lat="42.0787545" lon="11.8860055"><ele>77.33333333333333</ele><time>2026-04-18T10:00:57.023Z</time></trkpt><trkpt lat="42.0787" lon="11.8859414"><ele>77.66666666666667</ele><time>2026-04-18T10:00:59.024Z</time></trkpt><trkpt lat="42.0786383" lon="11.8858351"><ele>78.0</ele><time>2026-04-18T10:01:24.022Z</time></trkpt><trkpt lat="42.0785903" lon="11.88576"><ele>77.6</ele><time>2026-04-18T10:01:25.022Z</time></trkpt><trkpt lat="42.0785268" lon="11.8856713"><ele>77.19999999999999</ele><time>2026-04-18T10:01:26.022Z</time></trkpt><trkpt lat="42.0784505" lon="11.8855831"><ele>76.8</ele><time>2026-04-18T10:01:27.023Z</time></trkpt><trkpt lat="42.0783535" lon="11.8854855"><ele>76.39999999999999</ele><time>2026-04-18T10:01:28.022Z</time></trkpt><trkpt lat="42.0782458" lon="11.8853761"><ele>76.0</ele><time>2026-04-18T10:01:29.023Z</time></trkpt><trkpt lat="42.0781407" lon="11.8852666"><ele>76.0</ele><time>2026-04-18T10:01:30.022Z</time></trkpt><trkpt lat="42.0780496" lon="11.8851751"><ele>76.0</ele><time>2026-04-18T10:01:31.024Z</time></trkpt><trkpt lat="42.0779636" lon="11.8851022"><ele>76.0</ele><time>2026-04-18T10:01:32.023Z</time></trkpt><trkpt lat="42.077859" lon="11.8850217"><ele>76.0</ele><time>2026-04-18T10:01:33.023Z</time></trkpt><trkpt lat="42.0777532" lon="11.8849543"><ele>76.2</ele><time>2026-04-18T10:01:34.022Z</time></trkpt><trkpt lat="42.0776439" lon="11.8849013"><ele>76.39999999999999</ele><time>2026-04-18T10:01:35.022Z</time></trkpt><trkpt lat="42.0775353" lon="11.8848421"><ele>76.6</ele><time>2026-04-18T10:01:36.023Z</time></trkpt><trkpt lat="42.0774301" lon="11.8847825"><ele>76.8</ele><time>2026-04-18T10:01:37.022Z</time></trkpt><trkpt lat="42.0773369" lon="11.8847439"><ele>77.0</ele><time>2026-04-18T10:01:38.022Z</time></trkpt><trkpt lat="42.0772555" lon="11.884737"><ele>77.0</ele><time>2026-04-18T10:01:39.022Z</time></trkpt><trkpt lat="42.0771669" lon="11.8847424"><ele>77.0</ele><time>2026-04-18T10:01:40.023Z</time></trkpt><trkpt lat="42.0770679" lon="11.8847692"><ele>77.0</ele><time>2026-04-18T10:01:41.023Z</time></trkpt><trkpt lat="42.0769745" lon="11.8847988"><ele>77.0</ele><time>2026-04-18T10:01:42.022Z</time></trkpt><trkpt lat="42.076883" lon="11.8848192"><ele>77.0</ele><time>2026-04-18T10:01:43.023Z</time></trkpt><trkpt lat="42.076797" lon="11.8848092"><ele>77.0</ele><time>2026-04-18T10:01:44.023Z</time></trkpt><trkpt lat="42.076703" lon="11.8847858"><ele>77.0</ele><time>2026-04-18T10:01:45.023Z</time></trkpt><trkpt lat="42.076604" lon="11.8847532"><ele>77.0</ele><time>2026-04-18T10:01:46.022Z</time></trkpt><trkpt lat="42.0765118" lon="11.8847206"><ele>77.0</ele><time>2026-04-18T10:01:47.023Z</time></trkpt><trkpt lat="42.0764317" lon="11.8846996"><ele>77.0</ele><time>2026-04-18T10:01:48.022Z</time></trkpt><trkpt lat="42.0763581" lon="11.8846689"><ele>76.8</ele><time>2026-04-18T10:01:49.022Z</time></trkpt><trkpt lat="42.0762711" lon="11.8846405"><ele>76.6</ele><time>2026-04-18T10:01:50.023Z</time></trkpt><trkpt lat="42.0761757" lon="11.884608"><ele>76.39999999999999</ele><time>2026-04-18T10:01:51.022Z</time></trkpt><trkpt lat="42.0760626" lon="11.8845779"><ele>76.2</ele><time>2026-04-18T10:01:52.022Z</time></trkpt><trkpt lat="42.0759475" lon="11.8845526"><ele>76.0</ele><time>2026-04-18T10:01:53.024Z</time></trkpt><trkpt lat="42.0758331" lon="11.8845428"><ele>76.75</ele><time>2026-04-18T10:01:54.022Z</time></trkpt><trkpt lat="42.0757027" lon="11.8845305"><ele>77.5</ele><time>2026-04-18T10:01:55.022Z</time></trkpt><trkpt lat="42.0755798" lon="11.884504"><ele>78.25</ele><time>2026-04-18T10:01:56.022Z</time></trkpt><trkpt lat="42.0754689" lon="11.8844897"><ele>79.0</ele><time>2026-04-18T10:01:57.022Z</time></trkpt><trkpt lat="42.0753742" lon="11.8844774"><ele>79.0</ele><time>2026-04-18T10:01:58.023Z</time></trkpt><trkpt lat="42.0752672" lon="11.8844749"><ele>79.0</ele><time>2026-04-18T10:01:59.024Z</time></trkpt><trkpt lat="42.0751502" lon="11.8844773"><ele>79.0</ele><time>2026-04-18T10:02:00.024Z</time></trkpt><trkpt lat="42.0750177" lon="11.8844732"><ele>79.0</ele><time>2026-04-18T10:02:01.023Z</time></trkpt><trkpt lat="42.074903" lon="11.8844602"><ele>79.2</ele><time>2026-04-18T10:02:02.023Z</time></trkpt><trkpt lat="42.074793" lon="11.8844394"><ele>79.4</ele><time>2026-04-18T10:02:03.023Z</time></trkpt><trkpt lat="42.0746945" lon="11.8843996"><ele>79.6</ele><time>2026-04-18T10:02:04.022Z</time></trkpt><trkpt lat="42.0746045" lon="11.8843638"><ele>79.8</ele><time>2026-04-18T10:02:05.022Z</time></trkpt><trkpt lat="42.0744998" lon="11.8843207"><ele>80.0</ele><time>2026-04-18T10:02:06.022Z</time></trkpt><trkpt lat="42.0743803" lon="11.8842903"><ele>79.0</ele><time>2026-04-18T10:02:07.022Z</time></trkpt><trkpt lat="42.0742493" lon="11.8842559"><ele>78.0</ele><time>2026-04-18T10:02:08.022Z</time></trkpt><trkpt lat="42.0741162" lon="11.8842159"><ele>77.0</ele><time>2026-04-18T10:02:09.022Z</time></trkpt><trkpt lat="42.0739942" lon="11.8841759"><ele>76.0</ele><time>2026-04-18T10:02:10.025Z</time></trkpt><trkpt lat="42.073878" lon="11.8841531"><ele>75.2</ele><time>2026-04-18T10:02:11.022Z</time></trkpt><trkpt lat="42.0737737" lon="11.8841516"><ele>74.39999999999999</ele><time>2026-04-18T10:02:12.023Z</time></trkpt><trkpt lat="42.0736925" lon="11.884159"><ele>73.6</ele><time>2026-04-18T10:02:13.022Z</time></trkpt><trkpt lat="42.073621" lon="11.8841645"><ele>72.8</ele><time>2026-04-18T10:02:14.022Z</time></trkpt><trkpt lat="42.073516" lon="11.884162"><ele>72.0</ele><time>2026-04-18T10:02:16.022Z</time></trkpt><trkpt lat="42.0733981" lon="11.8841484"><ele>72.0</ele><time>2026-04-18T10:02:18.023Z</time></trkpt><trkpt lat="42.0732814" lon="11.8841813"><ele>72.0</ele><time>2026-04-18T10:02:20.024Z</time></trkpt><trkpt lat="42.0731631" lon="11.8842251"><ele>72.0</ele><time>2026-04-18T10:02:22.023Z</time></trkpt><trkpt lat="42.0730373" lon="11.8842717"><ele>72.0</ele><time>2026-04-18T10:02:24.022Z</time></trkpt><trkpt lat="42.0729553" lon="11.8842785"><ele>72.2</ele><time>2026-04-18T10:02:25.022Z</time></trkpt><trkpt lat="42.0728796" lon="11.8842687"><ele>72.4</ele><time>2026-04-18T10:02:26.022Z</time></trkpt><trkpt lat="42.0727644" lon="11.8842567"><ele>72.6</ele><time>2026-04-18T10:02:28.023Z</time></trkpt><trkpt lat="42.0726866" lon="11.8842452"><ele>72.8</ele><time>2026-04-18T10:02:30.022Z</time></trkpt><trkpt lat="42.0726721" lon="11.8843288"><ele>73.0</ele><time>2026-04-18T10:02:36.023Z</time></trkpt><trkpt lat="42.0726593" lon="11.8844859"><ele>72.57142857142857</ele><time>2026-04-18T10:02:38.022Z</time></trkpt><trkpt lat="42.072658" lon="11.8845785"><ele>72.14285714285714</ele><time>2026-04-18T10:02:39.023Z</time></trkpt><trkpt lat="42.0726454" lon="11.8846794"><ele>71.71428571428572</ele><time>2026-04-18T10:02:40.022Z</time></trkpt><trkpt lat="42.0726358" lon="11.8847844"><ele>71.28571428571428</ele><time>2026-04-18T10:02:41.023Z</time></trkpt><trkpt lat="42.0726317" lon="11.8848753"><ele>70.85714285714286</ele><time>2026-04-18T10:02:42.022Z</time></trkpt><trkpt lat="42.0726346" lon="11.8849665"><ele>70.42857142857143</ele><time>2026-04-18T10:02:43.023Z</time></trkpt><trkpt lat="42.0726369" lon="11.8850607"><ele>70.0</ele><time>2026-04-18T10:02:44.022Z</time></trkpt><trkpt lat="42.0726337" lon="11.885151"><ele>71.85714285714286</ele><time>2026-04-18T10:02:45.022Z</time></trkpt><trkpt lat="42.0726253" lon="11.885246"><ele>73.71428571428572</ele><time>2026-04-18T10:02:46.022Z</time></trkpt><trkpt lat="42.0726171" lon="11.8853392"><ele>75.57142857142857</ele><time>2026-04-18T10:02:47.022Z</time></trkpt><trkpt lat="42.072605" lon="11.885446"><ele>77.42857142857143</ele><time>2026-04-18T10:02:48.022Z</time></trkpt><trkpt lat="42.0725906" lon="11.8855466"><ele>79.28571428571429</ele><time>2026-04-18T10:02:49.022Z</time></trkpt><trkpt lat="42.0725785" lon="11.8856381"><ele>81.14285714285714</ele><time>2026-04-18T10:02:50.022Z</time></trkpt><trkpt lat="42.0725683" lon="11.8857297"><ele>83.0</ele><time>2026-04-18T10:02:51.022Z</time></trkpt><trkpt lat="42.0725618" lon="11.8858237"><ele>83.0</ele><time>2026-04-18T10:02:52.023Z</time></trkpt><trkpt lat="42.0725508" lon="11.8859268"><ele>83.0</ele><time>2026-04-18T10:02:53.023Z</time></trkpt><trkpt lat="42.0725217" lon="11.8860429"><ele>83.0</ele><time>2026-04-18T10:02:54.023Z</time></trkpt><trkpt lat="42.0724993" lon="11.8861445"><ele>83.0</ele><time>2026-04-18T10:02:55.022Z</time></trkpt><trkpt lat="42.072488" lon="11.8862429"><ele>83.0</ele><time>2026-04-18T10:02:56.022Z</time></trkpt><trkpt lat="42.0724853" lon="11.886365"><ele>83.0</ele><time>2026-04-18T10:02:57.022Z</time></trkpt><trkpt lat="42.0724816" lon="11.8865018"><ele>85.0</ele><time>2026-04-18T10:02:58.022Z</time></trkpt><trkpt lat="42.07246" lon="11.8866543"><ele>87.0</ele><time>2026-04-18T10:02:59.022Z</time></trkpt><trkpt lat="42.0724291" lon="11.8868189"><ele>89.0</ele><time>2026-04-18T10:03:00.023Z</time></trkpt><trkpt lat="42.0724032" lon="11.8869681"><ele>91.0</ele><time>2026-04-18T10:03:01.022Z</time></trkpt><trkpt lat="42.072381" lon="11.8870947"><ele>91.6</ele><time>2026-04-18T10:03:02.023Z</time></trkpt><trkpt lat="42.0723621" lon="11.887206"><ele>92.19999999999999</ele><time>2026-04-18T10:03:03.023Z</time></trkpt><trkpt lat="42.0723405" lon="11.8873268"><ele>92.80000000000001</ele><time>2026-04-18T10:03:04.023Z</time></trkpt><trkpt lat="42.0723141" lon="11.8874732"><ele>93.4</ele><time>2026-04-18T10:03:05.022Z</time></trkpt><trkpt lat="42.072285" lon="11.8876292"><ele>94.0</ele><time>2026-04-18T10:03:06.023Z</time></trkpt><trkpt lat="42.072254" lon="11.8877848"><ele>95.5</ele><time>2026-04-18T10:03:07.023Z</time></trkpt><trkpt lat="42.0722153" lon="11.8879611"><ele>97.0</ele><time>2026-04-18T10:03:08.023Z</time></trkpt><trkpt lat="42.0721741" lon="11.8881552"><ele>98.5</ele><time>2026-04-18T10:03:09.022Z</time></trkpt><trkpt lat="42.0721415" lon="11.888323"><ele>100.0</ele><time>2026-04-18T10:03:10.022Z</time></trkpt><trkpt lat="42.0721221" lon="11.8884621"><ele>101.2</ele><time>2026-04-18T10:03:11.022Z</time></trkpt><trkpt lat="42.0721028" lon="11.8886046"><ele>102.4</ele><time>2026-04-18T10:03:12.022Z</time></trkpt><trkpt lat="42.0720799" lon="11.8887492"><ele>103.6</ele><time>2026-04-18T10:03:13.023Z</time></trkpt><trkpt lat="42.0720504" lon="11.8888989"><ele>104.8</ele><time>2026-04-18T10:03:14.023Z</time></trkpt><trkpt lat="42.0720261" lon="11.889043"><ele>106.0</ele><time>2026-04-18T10:03:15.022Z</time></trkpt><trkpt lat="42.0720092" lon="11.8891796"><ele>106.8</ele><time>2026-04-18T10:03:16.022Z</time></trkpt><trkpt lat="42.0719835" lon="11.8893304"><ele>107.6</ele><time>2026-04-18T10:03:17.023Z</time></trkpt><trkpt lat="42.0719558" lon="11.8894772"><ele>108.4</ele><time>2026-04-18T10:03:18.023Z</time></trkpt><trkpt lat="42.0719302" lon="11.8895961"><ele>109.2</ele><time>2026-04-18T10:03:19.022Z</time></trkpt><trkpt lat="42.0719137" lon="11.8896991"><ele>110.0</ele><time>2026-04-18T10:03:20.023Z</time></trkpt><trkpt lat="42.0718956" lon="11.8897915"><ele>109.99999999999999</ele><time>2026-04-18T10:03:21.023Z</time></trkpt><trkpt lat="42.0718659" lon="11.889945"><ele>110.0</ele><time>2026-04-18T10:03:23.022Z</time></trkpt><trkpt lat="42.0718385" lon="11.8900613"><ele>110.0</ele><time>2026-04-18T10:03:25.023Z</time></trkpt><trkpt lat="42.071769" lon="11.8900701"><ele>110.0</ele><time>2026-04-18T10:03:28.023Z</time></trkpt><trkpt lat="42.0718169" lon="11.8901579"><ele>109.99999999999999</ele><time>2026-04-18T10:04:02.99Z</time></trkpt><trkpt lat="42.0718084" lon="11.890268"><ele>110.0</ele><time>2026-04-18T10:04:05.023Z</time></trkpt><trkpt lat="42.0717819" lon="11.8903757"><ele>110.16666666666666</ele><time>2026-04-18T10:04:07.022Z</time></trkpt><trkpt lat="42.0716961" lon="11.890454"><ele>110.33333333333333</ele><time>2026-04-18T10:04:10.022Z</time></trkpt><trkpt lat="42.0716135" lon="11.8904255"><ele>110.5</ele><time>2026-04-18T10:04:12.022Z</time></trkpt><trkpt lat="42.0715489" lon="11.890395"><ele>110.66666666666666</ele><time>2026-04-18T10:04:14.023Z</time></trkpt><trkpt lat="42.0714794" lon="11.8903711"><ele>110.83333333333333</ele><time>2026-04-18T10:04:16.022Z</time></trkpt><trkpt lat="42.0713923" lon="11.8903067"><ele>111.0</ele><time>2026-04-18T10:04:45.022Z</time></trkpt><trkpt lat="42.0713413" lon="11.8902008"><ele>110.0</ele><time>2026-04-18T10:04:47.022Z</time></trkpt><trkpt lat="42.0713" lon="11.8900268"><ele>109.0</ele><time>2026-04-18T10:04:49.022Z</time></trkpt><trkpt lat="42.0712754" lon="11.8899055"><ele>108.0</ele><time>2026-04-18T10:04:50.022Z</time></trkpt><trkpt lat="42.0712589" lon="11.8898025"><ele>107.0</ele><time>2026-04-18T10:04:51.022Z</time></trkpt><trkpt lat="42.0712422" lon="11.8897105"><ele>106.0</ele><time>2026-04-18T10:04:52.021Z</time></trkpt><trkpt lat="42.071188" lon="11.889608"><ele>106.00000000000001</ele><time>2026-04-18T10:04:54.022Z</time></trkpt><trkpt lat="42.0711145" lon="11.8895392"><ele>106.0</ele><time>2026-04-18T10:04:56.022Z</time></trkpt><trkpt lat="42.0710455" lon="11.8894608"><ele>106.0</ele><time>2026-04-18T10:04:58.023Z</time></trkpt><trkpt lat="42.0709858" lon="11.8893701"><ele>106.0</ele><time>2026-04-18T10:05:00.021Z</time></trkpt><trkpt lat="42.0709417" lon="11.8892738"><ele>106.00000000000001</ele><time>2026-04-18T10:05:02.022Z</time></trkpt><trkpt lat="42.0708853" lon="11.8891959"><ele>106.0</ele><time>2026-04-18T10:05:15.022Z</time></trkpt><trkpt lat="42.0708202" lon="11.8891132"><ele>106.00000000000001</ele><time>2026-04-18T10:05:17.022Z</time></trkpt><trkpt lat="42.0707736" lon="11.889031"><ele>106.0</ele><time>2026-04-18T10:05:19.022Z</time></trkpt><trkpt lat="42.0707253" lon="11.8889703"><ele>106.0</ele><time>2026-04-18T10:05:22.022Z</time></trkpt><trkpt lat="42.0707573" lon="11.8890434"><ele>106.0</ele><time>2026-04-18T10:07:00.021Z</time></trkpt><trkpt lat="42.0707671" lon="11.8891924"><ele>106.00000000000001</ele><time>2026-04-18T10:07:23.021Z</time></trkpt><trkpt lat="42.0707803" lon="11.889341"><ele>106.0</ele><time>2026-04-18T10:07:25.021Z</time></trkpt><trkpt lat="42.0707914" lon="11.8894261"><ele>106.00000000000001</ele><time>2026-04-18T10:07:26.021Z</time></trkpt><trkpt lat="42.070831" lon="11.8895615"><ele>106.0</ele><time>2026-04-18T10:07:28.022Z</time></trkpt><trkpt lat="42.0708607" lon="11.8896535"><ele>106.0</ele><time>2026-04-18T10:07:29.022Z</time></trkpt><trkpt lat="42.0708955" lon="11.8897645"><ele>106.0</ele><time>2026-04-18T10:07:30.021Z</time></trkpt><trkpt lat="42.0709344" lon="11.8898482"><ele>106.00000000000001</ele><time>2026-04-18T10:07:31.021Z</time></trkpt><trkpt lat="42.0709917" lon="11.8899367"><ele>106.0</ele><time>2026-04-18T10:07:32.022Z</time></trkpt><trkpt lat="42.0710425" lon="11.8899929"><ele>107.0</ele><time>2026-04-18T10:07:33.022Z</time></trkpt><trkpt lat="42.0710007" lon="11.8901068"><ele>108.0</ele><time>2026-04-18T10:07:36.023Z</time></trkpt><trkpt lat="42.0709461" lon="11.890203"><ele>109.0</ele><time>2026-04-18T10:07:38.023Z</time></trkpt><trkpt lat="42.0708984" lon="11.8902888"><ele>110.0</ele><time>2026-04-18T10:07:40.021Z</time></trkpt><trkpt lat="42.0710009" lon="11.8904047"><ele>111.0</ele><time>2026-04-18T10:08:09.021Z</time></trkpt><trkpt lat="42.0710622" lon="11.8904815"><ele>111.0</ele><time>2026-04-18T10:08:10.022Z</time></trkpt><trkpt lat="42.0710682" lon="11.8906138"><ele>111.0</ele><time>2026-04-18T10:08:12.021Z</time></trkpt><trkpt lat="42.0711154" lon="11.8906931"><ele>111.0</ele><time>2026-04-18T10:08:15.021Z</time></trkpt><trkpt lat="42.0711604" lon="11.890757"><ele>111.0</ele><time>2026-04-18T10:09:20.022Z</time></trkpt><trkpt lat="42.0712464" lon="11.8907772"><ele>111.0</ele><time>2026-04-18T10:09:23.021Z</time></trkpt><trkpt lat="42.0713329" lon="11.8908671"><ele>111.0</ele><time>2026-04-18T10:10:25.021Z</time></trkpt><trkpt lat="42.0714093" lon="11.8909093"><ele>111.0</ele><time>2026-04-18T10:10:28.021Z</time></trkpt><trkpt lat="42.0714695" lon="11.8909542"><ele>111.0</ele><time>2026-04-18T10:10:31.021Z</time></trkpt><trkpt lat="42.0715114" lon="11.8908847"><ele>111.0</ele><time>2026-04-18T10:10:34.021Z</time></trkpt><trkpt lat="42.0715391" lon="11.8907793"><ele>111.0</ele><time>2026-04-18T10:10:37.02Z</time></trkpt><trkpt lat="42.0715982" lon="11.8907079"><ele>111.0</ele><time>2026-04-18T10:10:49.021Z</time></trkpt><trkpt lat="42.071661" lon="11.8907405"><ele>111.0</ele><time>2026-04-18T10:10:51.021Z</time></trkpt><trkpt lat="42.0716842" lon="11.8908875"><ele>112.8</ele><time>2026-04-18T10:10:53.02Z</time></trkpt><trkpt lat="42.0716829" lon="11.891031"><ele>114.6</ele><time>2026-04-18T10:10:55.021Z</time></trkpt><trkpt lat="42.0716685" lon="11.8911146"><ele>116.4</ele><time>2026-04-18T10:10:56.021Z</time></trkpt><trkpt lat="42.0716507" lon="11.8912082"><ele>118.2</ele><time>2026-04-18T10:10:57.022Z</time></trkpt><trkpt lat="42.0716136" lon="11.8913532"><ele>120.0</ele><time>2026-04-18T10:10:59.02Z</time></trkpt><trkpt lat="42.0715462" lon="11.8914853"><ele>120.0</ele><time>2026-04-18T10:11:01.021Z</time></trkpt><trkpt lat="42.0715026" lon="11.8915654"><ele>120.0</ele><time>2026-04-18T10:11:02.021Z</time></trkpt><trkpt lat="42.0714501" lon="11.8916502"><ele>120.0</ele><time>2026-04-18T10:11:03.021Z</time></trkpt><trkpt lat="42.0713968" lon="11.8917299"><ele>120.0</ele><time>2026-04-18T10:11:04.022Z</time></trkpt><trkpt lat="42.0713347" lon="11.8918084"><ele>120.0</ele><time>2026-04-18T10:11:05.022Z</time></trkpt><trkpt lat="42.0712755" lon="11.8918965"><ele>120.0</ele><time>2026-04-18T10:11:06.021Z</time></trkpt><trkpt lat="42.0712132" lon="11.8919723"><ele>121.2</ele><time>2026-04-18T10:11:07.022Z</time></trkpt><trkpt lat="42.0711518" lon="11.892058"><ele>122.4</ele><time>2026-04-18T10:11:08.02Z</time></trkpt><trkpt lat="42.0710854" lon="11.8921467"><ele>123.6</ele><time>2026-04-18T10:11:09.021Z</time></trkpt><trkpt lat="42.0710087" lon="11.8922365"><ele>124.8</ele><time>2026-04-18T10:11:10.022Z</time></trkpt><trkpt lat="42.0709371" lon="11.8923392"><ele>126.0</ele><time>2026-04-18T10:11:11.021Z</time></trkpt><trkpt lat="42.0708651" lon="11.892461"><ele>126.0</ele><time>2026-04-18T10:11:12.021Z</time></trkpt><trkpt lat="42.0707876" lon="11.8925753"><ele>126.0</ele><time>2026-04-18T10:11:13.022Z</time></trkpt><trkpt lat="42.0707123" lon="11.8926687"><ele>126.0</ele><time>2026-04-18T10:11:14.02Z</time></trkpt><trkpt lat="42.0706379" lon="11.8927633"><ele>126.0</ele><time>2026-04-18T10:11:15.021Z</time></trkpt><trkpt lat="42.0705637" lon="11.8928639"><ele>126.0</ele><time>2026-04-18T10:11:16.021Z</time></trkpt><trkpt lat="42.0704935" lon="11.8929608"><ele>128.6</ele><time>2026-04-18T10:11:17.02Z</time></trkpt><trkpt lat="42.0704239" lon="11.8930604"><ele>131.2</ele><time>2026-04-18T10:11:18.021Z</time></trkpt><trkpt lat="42.0703589" lon="11.8931613"><ele>133.8</ele><time>2026-04-18T10:11:19.021Z</time></trkpt><trkpt lat="42.0702796" lon="11.8932635"><ele>136.4</ele><time>2026-04-18T10:11:20.02Z</time></trkpt><trkpt lat="42.0702068" lon="11.8933648"><ele>139.0</ele><time>2026-04-18T10:11:21.021Z</time></trkpt><trkpt lat="42.0701383" lon="11.8934706"><ele>140.0</ele><time>2026-04-18T10:11:22.021Z</time></trkpt><trkpt lat="42.070071" lon="11.8935667"><ele>141.0</ele><time>2026-04-18T10:11:23.021Z</time></trkpt><trkpt lat="42.0700053" lon="11.8936584"><ele>142.0</ele><time>2026-04-18T10:11:24.021Z</time></trkpt><trkpt lat="42.0699358" lon="11.8937578"><ele>143.0</ele><time>2026-04-18T10:11:25.021Z</time></trkpt><trkpt lat="42.0698682" lon="11.8938449"><ele>144.0</ele><time>2026-04-18T10:11:26.022Z</time></trkpt><trkpt lat="42.0698064" lon="11.8939148"><ele>144.5</ele><time>2026-04-18T10:11:27.021Z</time></trkpt><trkpt lat="42.0697548" lon="11.8939727"><ele>145.0</ele><time>2026-04-18T10:11:28.02Z</time></trkpt><trkpt lat="42.0696928" lon="11.8940565"><ele>145.5</ele><time>2026-04-18T10:11:30.02Z</time></trkpt><trkpt lat="42.0696241" lon="11.8941224"><ele>146.0</ele><time>2026-04-18T10:11:32.021Z</time></trkpt><trkpt lat="42.069542" lon="11.8941103"><ele>146.5</ele><time>2026-04-18T10:11:34.02Z</time></trkpt><trkpt lat="42.069438" lon="11.8940156"><ele>147.0</ele><time>2026-04-18T10:11:36.022Z</time></trkpt><trkpt lat="42.0693739" lon="11.8939676"><ele>147.0</ele><time>2026-04-18T10:11:37.021Z</time></trkpt><trkpt lat="42.0693028" lon="11.8939425"><ele>147.0</ele><time>2026-04-18T10:11:38.021Z</time></trkpt><trkpt lat="42.0692348" lon="11.8939143"><ele>147.0</ele><time>2026-04-18T10:11:39.02Z</time></trkpt><trkpt lat="42.0691722" lon="11.8938645"><ele>147.0</ele><time>2026-04-18T10:11:40.021Z</time></trkpt><trkpt lat="42.069114" lon="11.8938085"><ele>147.0</ele><time>2026-04-18T10:11:41.02Z</time></trkpt><trkpt lat="42.0690372" lon="11.8937276"><ele>147.0</ele><time>2026-04-18T10:11:43.021Z</time></trkpt><trkpt lat="42.0690439" lon="11.8936296"><ele>146.0</ele><time>2026-04-18T10:11:46.021Z</time></trkpt><trkpt lat="42.0690789" lon="11.8935584"><ele>146.0</ele><time>2026-04-18T10:11:48.02Z</time></trkpt><trkpt lat="42.0691265" lon="11.8934934"><ele>147.0</ele><time>2026-04-18T10:11:51.02Z</time></trkpt></trkseg><trkseg><trkpt lat="42.0691139" lon="11.8936058"><ele>147.0</ele><time>2026-04-18T10:36:37.016Z</time></trkpt><trkpt lat="42.0690486" lon="11.8936879"><ele>147.0</ele><time>2026-04-18T10:36:39.016Z</time></trkpt><trkpt lat="42.0690603" lon="11.8937747"><ele>147.0</ele><time>2026-04-18T10:36:42.016Z</time></trkpt><trkpt lat="42.0692361" lon="11.8938955"><ele>147.0</ele><time>2026-04-18T10:36:48.016Z</time></trkpt><trkpt lat="42.0693049" lon="11.8939626"><ele>147.0</ele><time>2026-04-18T10:36:49.016Z</time></trkpt><trkpt lat="42.0693759" lon="11.8940159"><ele>147.0</ele><time>2026-04-18T10:36:50.018Z</time></trkpt><trkpt lat="42.0694787" lon="11.8940768"><ele>147.0</ele><time>2026-04-18T10:36:52.015Z</time></trkpt><trkpt lat="42.0695326" lon="11.8941582"><ele>147.0</ele><time>2026-04-18T10:36:54.015Z</time></trkpt><trkpt lat="42.0695678" lon="11.8943159"><ele>147.0</ele><time>2026-04-18T10:36:56.017Z</time></trkpt><trkpt lat="42.0695854" lon="11.8944007"><ele>147.0</ele><time>2026-04-18T10:36:57.016Z</time></trkpt><trkpt lat="42.0696125" lon="11.8944856"><ele>147.0</ele><time>2026-04-18T10:36:58.017Z</time></trkpt><trkpt lat="42.0696604" lon="11.8945831"><ele>146.0</ele><time>2026-04-18T10:36:59.015Z</time></trkpt><trkpt lat="42.0697264" lon="11.8947023"><ele>145.0</ele><time>2026-04-18T10:37:00.016Z</time></trkpt><trkpt lat="42.069798" lon="11.8948281"><ele>144.0</ele><time>2026-04-18T10:37:01.016Z</time></trkpt><trkpt lat="42.0698619" lon="11.8949422"><ele>143.0</ele><time>2026-04-18T10:37:02.016Z</time></trkpt><trkpt lat="42.0699191" lon="11.89504"><ele>142.0</ele><time>2026-04-18T10:37:03.016Z</time></trkpt><trkpt lat="42.0700009" lon="11.8952189"><ele>142.0</ele><time>2026-04-18T10:37:05.016Z</time></trkpt><trkpt lat="42.0700312" lon="11.8952984"><ele>142.0</ele><time>2026-04-18T10:37:06.015Z</time></trkpt><trkpt lat="42.0700774" lon="11.8953812"><ele>142.0</ele><time>2026-04-18T10:37:09.016Z</time></trkpt><trkpt lat="42.0701161" lon="11.8954555"><ele>142.0</ele><time>2026-04-18T10:37:11.016Z</time></trkpt><trkpt lat="42.0701498" lon="11.8956117"><ele>142.0</ele><time>2026-04-18T10:37:13.017Z</time></trkpt><trkpt lat="42.0701508" lon="11.8957237"><ele>142.0</ele><time>2026-04-18T10:37:14.016Z</time></trkpt><trkpt lat="42.070142" lon="11.8958494"><ele>141.79999999999998</ele><time>2026-04-18T10:37:15.015Z</time></trkpt><trkpt lat="42.070137" lon="11.8959678"><ele>141.6</ele><time>2026-04-18T10:37:16.015Z</time></trkpt><trkpt lat="42.0701383" lon="11.8960645"><ele>141.39999999999998</ele><time>2026-04-18T10:37:17.015Z</time></trkpt><trkpt lat="42.0701341" lon="11.8961708"><ele>141.2</ele><time>2026-04-18T10:37:18.016Z</time></trkpt><trkpt lat="42.0701251" lon="11.8963117"><ele>141.0</ele><time>2026-04-18T10:37:19.016Z</time></trkpt><trkpt lat="42.0701164" lon="11.8964559"><ele>141.0</ele><time>2026-04-18T10:37:20.016Z</time></trkpt><trkpt lat="42.0701236" lon="11.8965652"><ele>141.0</ele><time>2026-04-18T10:37:21.016Z</time></trkpt><trkpt lat="42.0701508" lon="11.8966723"><ele>141.0</ele><time>2026-04-18T10:37:22.016Z</time></trkpt><trkpt lat="42.070191" lon="11.8967989"><ele>141.0</ele><time>2026-04-18T10:37:23.016Z</time></trkpt><trkpt lat="42.0702352" lon="11.8969316"><ele>141.0</ele><time>2026-04-18T10:37:24.015Z</time></trkpt><trkpt lat="42.0703181" lon="11.8971586"><ele>141.4</ele><time>2026-04-18T10:37:26.015Z</time></trkpt><trkpt lat="42.0703675" lon="11.897242"><ele>141.8</ele><time>2026-04-18T10:37:27.015Z</time></trkpt><trkpt lat="42.0704457" lon="11.8973082"><ele>142.20000000000002</ele><time>2026-04-18T10:37:28.015Z</time></trkpt><trkpt lat="42.0705577" lon="11.897369"><ele>142.6</ele><time>2026-04-18T10:37:29.015Z</time></trkpt><trkpt lat="42.0706843" lon="11.8974171"><ele>143.0</ele><time>2026-04-18T10:37:30.016Z</time></trkpt><trkpt lat="42.0708069" lon="11.8974649"><ele>143.0</ele><time>2026-04-18T10:37:31.015Z</time></trkpt><trkpt lat="42.0709314" lon="11.8975227"><ele>143.0</ele><time>2026-04-18T10:37:32.016Z</time></trkpt><trkpt lat="42.0710548" lon="11.897571"><ele>143.0</ele><time>2026-04-18T10:37:33.018Z</time></trkpt><trkpt lat="42.0711685" lon="11.8976094"><ele>143.0</ele><time>2026-04-18T10:37:34.015Z</time></trkpt><trkpt lat="42.0712707" lon="11.8976593"><ele>142.6</ele><time>2026-04-18T10:37:35.017Z</time></trkpt><trkpt lat="42.0713716" lon="11.8977211"><ele>142.20000000000002</ele><time>2026-04-18T10:37:36.017Z</time></trkpt><trkpt lat="42.0714716" lon="11.8977781"><ele>141.8</ele><time>2026-04-18T10:37:37.016Z</time></trkpt><trkpt lat="42.0715599" lon="11.897837"><ele>141.4</ele><time>2026-04-18T10:37:38.016Z</time></trkpt><trkpt lat="42.0716538" lon="11.8979104"><ele>141.0</ele><time>2026-04-18T10:37:39.016Z</time></trkpt><trkpt lat="42.0717576" lon="11.8980022"><ele>141.0</ele><time>2026-04-18T10:37:40.015Z</time></trkpt><trkpt lat="42.0718554" lon="11.8980937"><ele>141.0</ele><time>2026-04-18T10:37:41.017Z</time></trkpt><trkpt lat="42.0719513" lon="11.8981675"><ele>141.0</ele><time>2026-04-18T10:37:42.015Z</time></trkpt><trkpt lat="42.0720415" lon="11.8982318"><ele>141.0</ele><time>2026-04-18T10:37:43.016Z</time></trkpt><trkpt lat="42.0721347" lon="11.8982795"><ele>141.0</ele><time>2026-04-18T10:37:44.017Z</time></trkpt><trkpt lat="42.0722419" lon="11.898319"><ele>141.0</ele><time>2026-04-18T10:37:45.017Z</time></trkpt><trkpt lat="42.0724235" lon="11.8983774"><ele>141.0</ele><time>2026-04-18T10:37:47.017Z</time></trkpt><trkpt lat="42.0725276" lon="11.8983994"><ele>141.0</ele><time>2026-04-18T10:37:48.015Z</time></trkpt><trkpt lat="42.0726492" lon="11.8984196"><ele>141.0</ele><time>2026-04-18T10:37:49.017Z</time></trkpt><trkpt lat="42.0727766" lon="11.8984445"><ele>141.0</ele><time>2026-04-18T10:37:50.015Z</time></trkpt><trkpt lat="42.0728969" lon="11.8984708"><ele>141.0</ele><time>2026-04-18T10:37:51.016Z</time></trkpt><trkpt lat="42.0730072" lon="11.8984927"><ele>141.0</ele><time>2026-04-18T10:37:52.015Z</time></trkpt><trkpt lat="42.0731225" lon="11.8985167"><ele>141.0</ele><time>2026-04-18T10:37:53.016Z</time></trkpt><trkpt lat="42.0732197" lon="11.8985435"><ele>141.0</ele><time>2026-04-18T10:37:54.015Z</time></trkpt><trkpt lat="42.073281" lon="11.898583"><ele>143.33333333333334</ele><time>2026-04-18T10:37:55.016Z</time></trkpt><trkpt lat="42.0733402" lon="11.8986483"><ele>145.66666666666666</ele><time>2026-04-18T10:37:56.016Z</time></trkpt><trkpt lat="42.0734125" lon="11.8987334"><ele>148.0</ele><time>2026-04-18T10:37:57.015Z</time></trkpt><trkpt lat="42.0734835" lon="11.8988032"><ele>150.33333333333331</ele><time>2026-04-18T10:37:58.015Z</time></trkpt><trkpt lat="42.0735575" lon="11.8988514"><ele>152.66666666666666</ele><time>2026-04-18T10:37:59.015Z</time></trkpt><trkpt lat="42.0736446" lon="11.8988816"><ele>155.0</ele><time>2026-04-18T10:38:00.016Z</time></trkpt><trkpt lat="42.0737253" lon="11.8988918"><ele>155.0</ele><time>2026-04-18T10:38:01.015Z</time></trkpt><trkpt lat="42.0737927" lon="11.8989012"><ele>155.0</ele><time>2026-04-18T10:38:02.016Z</time></trkpt><trkpt lat="42.0738666" lon="11.8989251"><ele>155.0</ele><time>2026-04-18T10:38:03.016Z</time></trkpt><trkpt lat="42.0739509" lon="11.8989329"><ele>155.0</ele><time>2026-04-18T10:38:04.015Z</time></trkpt><trkpt lat="42.0740361" lon="11.8989187"><ele>155.0</ele><time>2026-04-18T10:38:05.015Z</time></trkpt><trkpt lat="42.0741315" lon="11.8988902"><ele>155.0</ele><time>2026-04-18T10:38:06.016Z</time></trkpt><trkpt lat="42.0743328" lon="11.8988325"><ele>156.4</ele><time>2026-04-18T10:38:08.015Z</time></trkpt><trkpt lat="42.0744245" lon="11.8988102"><ele>157.8</ele><time>2026-04-18T10:38:09.015Z</time></trkpt><trkpt lat="42.0745209" lon="11.8987835"><ele>159.2</ele><time>2026-04-18T10:38:10.017Z</time></trkpt><trkpt lat="42.0746305" lon="11.8987331"><ele>160.6</ele><time>2026-04-18T10:38:11.015Z</time></trkpt><trkpt lat="42.0747517" lon="11.8986739"><ele>162.0</ele><time>2026-04-18T10:38:12.016Z</time></trkpt><trkpt lat="42.0748651" lon="11.8986181"><ele>161.4</ele><time>2026-04-18T10:38:13.015Z</time></trkpt><trkpt lat="42.0749624" lon="11.8985663"><ele>160.79999999999998</ele><time>2026-04-18T10:38:14.015Z</time></trkpt><trkpt lat="42.0750593" lon="11.8985288"><ele>160.2</ele><time>2026-04-18T10:38:15.015Z</time></trkpt><trkpt lat="42.0751748" lon="11.8985047"><ele>159.6</ele><time>2026-04-18T10:38:16.015Z</time></trkpt><trkpt lat="42.0752794" lon="11.8984812"><ele>159.0</ele><time>2026-04-18T10:38:17.016Z</time></trkpt><trkpt lat="42.0753764" lon="11.8984432"><ele>161.0</ele><time>2026-04-18T10:38:18.017Z</time></trkpt><trkpt lat="42.0754776" lon="11.8983851"><ele>163.0</ele><time>2026-04-18T10:38:19.017Z</time></trkpt><trkpt lat="42.075563" lon="11.8983179"><ele>165.0</ele><time>2026-04-18T10:38:20.016Z</time></trkpt><trkpt lat="42.0756186" lon="11.8982531"><ele>167.0</ele><time>2026-04-18T10:38:21.015Z</time></trkpt><trkpt lat="42.0757392" lon="11.8982016"><ele>169.0</ele><time>2026-04-18T10:38:23.017Z</time></trkpt><trkpt lat="42.0758356" lon="11.8981957"><ele>169.0</ele><time>2026-04-18T10:38:24.015Z</time></trkpt><trkpt lat="42.0759474" lon="11.898179"><ele>169.0</ele><time>2026-04-18T10:38:25.015Z</time></trkpt><trkpt lat="42.0760587" lon="11.8981451"><ele>169.0</ele><time>2026-04-18T10:38:26.015Z</time></trkpt><trkpt lat="42.0761542" lon="11.898106"><ele>169.0</ele><time>2026-04-18T10:38:27.015Z</time></trkpt><trkpt lat="42.0763385" lon="11.897945"><ele>169.0</ele><time>2026-04-18T10:38:29.016Z</time></trkpt><trkpt lat="42.0764342" lon="11.8978427"><ele>169.0</ele><time>2026-04-18T10:38:30.016Z</time></trkpt><trkpt lat="42.0765245" lon="11.8977533"><ele>169.0</ele><time>2026-04-18T10:38:31.015Z</time></trkpt><trkpt lat="42.0766072" lon="11.8976934"><ele>169.0</ele><time>2026-04-18T10:38:32.015Z</time></trkpt><trkpt lat="42.0766859" lon="11.8976496"><ele>169.0</ele><time>2026-04-18T10:38:33.015Z</time></trkpt><trkpt lat="42.0767542" lon="11.8975833"><ele>170.75</ele><time>2026-04-18T10:38:34.016Z</time></trkpt><trkpt lat="42.0768275" lon="11.8974854"><ele>172.5</ele><time>2026-04-18T10:38:35.016Z</time></trkpt><trkpt lat="42.0769182" lon="11.8973799"><ele>174.25</ele><time>2026-04-18T10:38:36.015Z</time></trkpt><trkpt lat="42.0770193" lon="11.8972875"><ele>176.0</ele><time>2026-04-18T10:38:37.016Z</time></trkpt><trkpt lat="42.0771189" lon="11.8972228"><ele>176.0</ele><time>2026-04-18T10:38:38.016Z</time></trkpt><trkpt lat="42.0772183" lon="11.8971757"><ele>176.0</ele><time>2026-04-18T10:38:39.016Z</time></trkpt><trkpt lat="42.0773122" lon="11.8971363"><ele>176.0</ele><time>2026-04-18T10:38:40.016Z</time></trkpt><trkpt lat="42.0774004" lon="11.8971158"><ele>176.0</ele><time>2026-04-18T10:38:41.015Z</time></trkpt><trkpt lat="42.0774825" lon="11.8971187"><ele>176.0</ele><time>2026-04-18T10:38:42.017Z</time></trkpt><trkpt lat="42.0775542" lon="11.8971438"><ele>176.0</ele><time>2026-04-18T10:38:43.017Z</time></trkpt><trkpt lat="42.0776179" lon="11.8971786"><ele>174.60000000000002</ele><time>2026-04-18T10:38:44.017Z</time></trkpt><trkpt lat="42.0777152" lon="11.8972518"><ele>173.2</ele><time>2026-04-18T10:38:46.016Z</time></trkpt><trkpt lat="42.0777655" lon="11.8973178"><ele>171.8</ele><time>2026-04-18T10:38:48.016Z</time></trkpt><trkpt lat="42.0778527" lon="11.8974456"><ele>170.39999999999998</ele><time>2026-04-18T10:38:58.016Z</time></trkpt><trkpt lat="42.0778886" lon="11.8975555"><ele>169.0</ele><time>2026-04-18T10:39:01.015Z</time></trkpt><trkpt lat="42.0779211" lon="11.8976587"><ele>169.0</ele><time>2026-04-18T10:39:02.016Z</time></trkpt><trkpt lat="42.0779584" lon="11.8977588"><ele>169.0</ele><time>2026-04-18T10:39:03.015Z</time></trkpt><trkpt lat="42.0779963" lon="11.8978333"><ele>169.0</ele><time>2026-04-18T10:39:04.015Z</time></trkpt><trkpt lat="42.0780789" lon="11.8979108"><ele>169.0</ele><time>2026-04-18T10:39:06.016Z</time></trkpt><trkpt lat="42.0781691" lon="11.89793"><ele>169.0</ele><time>2026-04-18T10:39:08.016Z</time></trkpt><trkpt lat="42.0782702" lon="11.8979375"><ele>169.0</ele><time>2026-04-18T10:39:10.015Z</time></trkpt><trkpt lat="42.0784702" lon="11.8978675"><ele>170.66666666666669</ele><time>2026-04-18T10:39:13.015Z</time></trkpt><trkpt lat="42.0785613" lon="11.897839"><ele>172.33333333333334</ele><time>2026-04-18T10:39:14.016Z</time></trkpt><trkpt lat="42.0786417" lon="11.8978456"><ele>174.0</ele><time>2026-04-18T10:39:15.015Z</time></trkpt><trkpt lat="42.0787238" lon="11.8978693"><ele>175.66666666666666</ele><time>2026-04-18T10:39:16.016Z</time></trkpt><trkpt lat="42.0787879" lon="11.8979225"><ele>177.33333333333331</ele><time>2026-04-18T10:39:17.016Z</time></trkpt><trkpt lat="42.0788472" lon="11.8980086"><ele>179.0</ele><time>2026-04-18T10:39:18.016Z</time></trkpt><trkpt lat="42.0789087" lon="11.8981115"><ele>179.0</ele><time>2026-04-18T10:39:19.016Z</time></trkpt><trkpt lat="42.0789621" lon="11.8982212"><ele>179.0</ele><time>2026-04-18T10:39:20.015Z</time></trkpt><trkpt lat="42.0790101" lon="11.8983439"><ele>179.0</ele><time>2026-04-18T10:39:21.015Z</time></trkpt><trkpt lat="42.0790669" lon="11.8984804"><ele>179.0</ele><time>2026-04-18T10:39:22.015Z</time></trkpt><trkpt lat="42.0791289" lon="11.8986219"><ele>179.0</ele><time>2026-04-18T10:39:23.015Z</time></trkpt><trkpt lat="42.0791919" lon="11.8987651"><ele>181.2</ele><time>2026-04-18T10:39:24.016Z</time></trkpt><trkpt lat="42.0792574" lon="11.898914"><ele>183.39999999999998</ele><time>2026-04-18T10:39:25.015Z</time></trkpt><trkpt lat="42.0793188" lon="11.8990601"><ele>185.6</ele><time>2026-04-18T10:39:26.016Z</time></trkpt><trkpt lat="42.0793672" lon="11.899153"><ele>187.8</ele><time>2026-04-18T10:39:27.016Z</time></trkpt><trkpt lat="42.0794075" lon="11.8992193"><ele>190.0</ele><time>2026-04-18T10:39:28.015Z</time></trkpt><trkpt lat="42.0794652" lon="11.8992835"><ele>190.0</ele><time>2026-04-18T10:39:30.015Z</time></trkpt><trkpt lat="42.0795883" lon="11.8993177"><ele>190.0</ele><time>2026-04-18T10:40:46.016Z</time></trkpt><trkpt lat="42.0797807" lon="11.8992055"><ele>190.0</ele><time>2026-04-18T10:40:49.015Z</time></trkpt><trkpt lat="42.0798533" lon="11.8991299"><ele>190.0</ele><time>2026-04-18T10:40:50.015Z</time></trkpt><trkpt lat="42.0799338" lon="11.8990276"><ele>192.8</ele><time>2026-04-18T10:40:51.015Z</time></trkpt><trkpt lat="42.0800154" lon="11.8989124"><ele>195.6</ele><time>2026-04-18T10:40:52.015Z</time></trkpt><trkpt lat="42.0800991" lon="11.8988024"><ele>198.39999999999998</ele><time>2026-04-18T10:40:53.015Z</time></trkpt><trkpt lat="42.0801774" lon="11.8987192"><ele>201.2</ele><time>2026-04-18T10:40:54.015Z</time></trkpt><trkpt lat="42.0802544" lon="11.8986456"><ele>204.0</ele><time>2026-04-18T10:40:55.016Z</time></trkpt><trkpt lat="42.0803358" lon="11.8985761"><ele>204.0</ele><time>2026-04-18T10:40:56.017Z</time></trkpt><trkpt lat="42.0804176" lon="11.8985125"><ele>204.0</ele><time>2026-04-18T10:40:57.016Z</time></trkpt><trkpt lat="42.0804857" lon="11.8984515"><ele>204.0</ele><time>2026-04-18T10:40:58.016Z</time></trkpt><trkpt lat="42.080549" lon="11.8984043"><ele>204.0</ele><time>2026-04-18T10:40:59.015Z</time></trkpt><trkpt lat="42.0806109" lon="11.898384"><ele>204.0</ele><time>2026-04-18T10:41:00.016Z</time></trkpt><trkpt lat="42.0807249" lon="11.8984229"><ele>204.0</ele><time>2026-04-18T10:41:02.016Z</time></trkpt><trkpt lat="42.0807913" lon="11.8984882"><ele>206.39999999999998</ele><time>2026-04-18T10:41:03.018Z</time></trkpt><trkpt lat="42.0808557" lon="11.8985742"><ele>208.8</ele><time>2026-04-18T10:41:04.015Z</time></trkpt><trkpt lat="42.0808974" lon="11.898656"><ele>211.20000000000002</ele><time>2026-04-18T10:41:05.016Z</time></trkpt><trkpt lat="42.0809324" lon="11.8987564"><ele>213.60000000000002</ele><time>2026-04-18T10:41:06.015Z</time></trkpt><trkpt lat="42.0809889" lon="11.8989032"><ele>216.0</ele><time>2026-04-18T10:41:07.015Z</time></trkpt><trkpt lat="42.0811111" lon="11.8992133"><ele>216.60000000000002</ele><time>2026-04-18T10:41:09.015Z</time></trkpt><trkpt lat="42.0811621" lon="11.8993445"><ele>217.20000000000002</ele><time>2026-04-18T10:41:10.015Z</time></trkpt><trkpt lat="42.0812184" lon="11.8994413"><ele>217.79999999999998</ele><time>2026-04-18T10:41:11.016Z</time></trkpt><trkpt lat="42.0812958" lon="11.8995206"><ele>218.39999999999998</ele><time>2026-04-18T10:41:12.015Z</time></trkpt><trkpt lat="42.0813936" lon="11.8995817"><ele>219.0</ele><time>2026-04-18T10:41:13.015Z</time></trkpt><trkpt lat="42.0815089" lon="11.8996382"><ele>220.83333333333334</ele><time>2026-04-18T10:41:14.015Z</time></trkpt><trkpt lat="42.0816161" lon="11.8996832"><ele>222.66666666666669</ele><time>2026-04-18T10:41:15.015Z</time></trkpt><trkpt lat="42.081697" lon="11.8997246"><ele>224.5</ele><time>2026-04-18T10:41:16.016Z</time></trkpt><trkpt lat="42.0817546" lon="11.8997715"><ele>226.33333333333334</ele><time>2026-04-18T10:41:17.015Z</time></trkpt><trkpt lat="42.0818052" lon="11.8998856"><ele>228.16666666666669</ele><time>2026-04-18T10:41:19.015Z</time></trkpt><trkpt lat="42.0818083" lon="11.8999732"><ele>230.0</ele><time>2026-04-18T10:41:20.015Z</time></trkpt><trkpt lat="42.0818025" lon="11.9000808"><ele>231.00000000000003</ele><time>2026-04-18T10:41:21.015Z</time></trkpt><trkpt lat="42.0817898" lon="11.9001978"><ele>232.0</ele><time>2026-04-18T10:41:22.015Z</time></trkpt><trkpt lat="42.0817707" lon="11.9003182"><ele>233.0</ele><time>2026-04-18T10:41:23.015Z</time></trkpt><trkpt lat="42.0817516" lon="11.9004214"><ele>234.0</ele><time>2026-04-18T10:41:24.015Z</time></trkpt><trkpt lat="42.0817406" lon="11.9005274"><ele>235.00000000000003</ele><time>2026-04-18T10:41:25.015Z</time></trkpt><trkpt lat="42.0817443" lon="11.900654"><ele>236.0</ele><time>2026-04-18T10:41:26.015Z</time></trkpt><trkpt lat="42.0817512" lon="11.9007859"><ele>236.0</ele><time>2026-04-18T10:41:27.015Z</time></trkpt><trkpt lat="42.0817509" lon="11.9009057"><ele>236.00000000000003</ele><time>2026-04-18T10:41:28.015Z</time></trkpt><trkpt lat="42.0817403" lon="11.9011004"><ele>236.00000000000003</ele><time>2026-04-18T10:41:30.017Z</time></trkpt><trkpt lat="42.0817327" lon="11.9012208"><ele>236.0</ele><time>2026-04-18T10:41:31.015Z</time></trkpt><trkpt lat="42.0817379" lon="11.9013296"><ele>236.0</ele><time>2026-04-18T10:41:32.016Z</time></trkpt><trkpt lat="42.0817619" lon="11.9014413"><ele>236.20000000000002</ele><time>2026-04-18T10:41:33.015Z</time></trkpt><trkpt lat="42.0818157" lon="11.9015575"><ele>236.40000000000003</ele><time>2026-04-18T10:41:34.015Z</time></trkpt><trkpt lat="42.0818881" lon="11.9016676"><ele>236.6</ele><time>2026-04-18T10:41:35.016Z</time></trkpt><trkpt lat="42.0819739" lon="11.9017621"><ele>236.8</ele><time>2026-04-18T10:41:36.015Z</time></trkpt><trkpt lat="42.0820737" lon="11.9018357"><ele>237.0</ele><time>2026-04-18T10:41:37.015Z</time></trkpt><trkpt lat="42.0821609" lon="11.9019023"><ele>236.2</ele><time>2026-04-18T10:41:38.015Z</time></trkpt><trkpt lat="42.0822279" lon="11.9019849"><ele>235.39999999999998</ele><time>2026-04-18T10:41:39.015Z</time></trkpt><trkpt lat="42.0822999" lon="11.9020998"><ele>234.60000000000002</ele><time>2026-04-18T10:41:40.016Z</time></trkpt><trkpt lat="42.0823803" lon="11.9022265"><ele>233.8</ele><time>2026-04-18T10:41:41.015Z</time></trkpt><trkpt lat="42.0824547" lon="11.9023345"><ele>233.0</ele><time>2026-04-18T10:41:42.015Z</time></trkpt><trkpt lat="42.082523" lon="11.902447"><ele>236.0</ele><time>2026-04-18T10:41:43.015Z</time></trkpt><trkpt lat="42.082592" lon="11.9025791"><ele>239.0</ele><time>2026-04-18T10:41:44.015Z</time></trkpt><trkpt lat="42.0826567" lon="11.9026904"><ele>242.0</ele><time>2026-04-18T10:41:45.015Z</time></trkpt><trkpt lat="42.0827139" lon="11.9027722"><ele>245.0</ele><time>2026-04-18T10:41:46.015Z</time></trkpt><trkpt lat="42.0827754" lon="11.9028402"><ele>248.0</ele><time>2026-04-18T10:41:47.015Z</time></trkpt><trkpt lat="42.0828384" lon="11.9028917"><ele>248.0</ele><time>2026-04-18T10:41:48.015Z</time></trkpt><trkpt lat="42.0829368" lon="11.9029423"><ele>248.0</ele><time>2026-04-18T10:41:50.015Z</time></trkpt><trkpt lat="42.0830584" lon="11.9028298"><ele>248.0</ele><time>2026-04-18T10:41:53.016Z</time></trkpt><trkpt lat="42.0830966" lon="11.9027372"><ele>248.0</ele><time>2026-04-18T10:41:54.015Z</time></trkpt><trkpt lat="42.0831376" lon="11.9026222"><ele>248.0</ele><time>2026-04-18T10:41:55.016Z</time></trkpt><trkpt lat="42.0831735" lon="11.9024982"><ele>248.8</ele><time>2026-04-18T10:41:56.015Z</time></trkpt><trkpt lat="42.0831962" lon="11.9023799"><ele>249.60000000000002</ele><time>2026-04-18T10:41:57.015Z</time></trkpt><trkpt lat="42.0832154" lon="11.9022467"><ele>250.39999999999998</ele><time>2026-04-18T10:41:58.016Z</time></trkpt><trkpt lat="42.0832282" lon="11.9021127"><ele>251.2</ele><time>2026-04-18T10:41:59.015Z</time></trkpt><trkpt lat="42.0832391" lon="11.9019885"><ele>252.0</ele><time>2026-04-18T10:42:00.015Z</time></trkpt><trkpt lat="42.0832532" lon="11.9018709"><ele>255.0</ele><time>2026-04-18T10:42:01.016Z</time></trkpt><trkpt lat="42.0832657" lon="11.9017604"><ele>258.0</ele><time>2026-04-18T10:42:02.015Z</time></trkpt><trkpt lat="42.08328" lon="11.9016599"><ele>261.0</ele><time>2026-04-18T10:42:03.015Z</time></trkpt><trkpt lat="42.0833067" lon="11.9015542"><ele>264.0</ele><time>2026-04-18T10:42:04.015Z</time></trkpt><trkpt lat="42.0833469" lon="11.9014465"><ele>267.0</ele><time>2026-04-18T10:42:05.016Z</time></trkpt><trkpt lat="42.0833923" lon="11.9013449"><ele>270.0</ele><time>2026-04-18T10:42:06.016Z</time></trkpt><trkpt lat="42.0834309" lon="11.9012537"><ele>269.8</ele><time>2026-04-18T10:42:07.015Z</time></trkpt><trkpt lat="42.0834632" lon="11.901152"><ele>269.6</ele><time>2026-04-18T10:42:08.015Z</time></trkpt><trkpt lat="42.0835147" lon="11.9010514"><ele>269.4</ele><time>2026-04-18T10:42:09.016Z</time></trkpt><trkpt lat="42.0835852" lon="11.900963"><ele>269.2</ele><time>2026-04-18T10:42:10.016Z</time></trkpt><trkpt lat="42.0836537" lon="11.9008908"><ele>269.0</ele><time>2026-04-18T10:42:11.015Z</time></trkpt><trkpt lat="42.0837834" lon="11.9007971"><ele>269.0</ele><time>2026-04-18T10:42:13.015Z</time></trkpt><trkpt lat="42.0838562" lon="11.9007463"><ele>269.0</ele><time>2026-04-18T10:42:14.015Z</time></trkpt><trkpt lat="42.0839177" lon="11.9007051"><ele>269.0</ele><time>2026-04-18T10:42:15.016Z</time></trkpt><trkpt lat="42.0839875" lon="11.9006828"><ele>269.0</ele><time>2026-04-18T10:42:16.015Z</time></trkpt><trkpt lat="42.0840643" lon="11.9006528"><ele>269.0</ele><time>2026-04-18T10:42:17.015Z</time></trkpt><trkpt lat="42.0841493" lon="11.9006281"><ele>269.0</ele><time>2026-04-18T10:42:18.015Z</time></trkpt><trkpt lat="42.0842274" lon="11.9006368"><ele>271.0</ele><time>2026-04-18T10:42:19.015Z</time></trkpt><trkpt lat="42.0842921" lon="11.9006787"><ele>273.0</ele><time>2026-04-18T10:42:20.015Z</time></trkpt><trkpt lat="42.0843578" lon="11.90075"><ele>275.0</ele><time>2026-04-18T10:42:21.015Z</time></trkpt><trkpt lat="42.0844127" lon="11.9008386"><ele>277.0</ele><time>2026-04-18T10:42:22.015Z</time></trkpt><trkpt lat="42.084446" lon="11.9009435"><ele>279.0</ele><time>2026-04-18T10:42:23.016Z</time></trkpt><trkpt lat="42.0844726" lon="11.9010677"><ele>281.0</ele><time>2026-04-18T10:42:24.016Z</time></trkpt><trkpt lat="42.0845088" lon="11.9012013"><ele>283.2</ele><time>2026-04-18T10:42:25.015Z</time></trkpt><trkpt lat="42.0845651" lon="11.9013159"><ele>285.40000000000003</ele><time>2026-04-18T10:42:26.015Z</time></trkpt><trkpt lat="42.0846369" lon="11.9014013"><ele>287.6</ele><time>2026-04-18T10:42:27.015Z</time></trkpt><trkpt lat="42.0847203" lon="11.9014569"><ele>289.8</ele><time>2026-04-18T10:42:28.015Z</time></trkpt><trkpt lat="42.0848193" lon="11.9014817"><ele>292.0</ele><time>2026-04-18T10:42:29.016Z</time></trkpt><trkpt lat="42.0849313" lon="11.9014909"><ele>293.0</ele><time>2026-04-18T10:42:30.014Z</time></trkpt><trkpt lat="42.0850328" lon="11.9014856"><ele>294.0</ele><time>2026-04-18T10:42:31.016Z</time></trkpt><trkpt lat="42.0851214" lon="11.9014633"><ele>295.0</ele><time>2026-04-18T10:42:32.015Z</time></trkpt><trkpt lat="42.0852989" lon="11.901384"><ele>296.0</ele><time>2026-04-18T10:42:34.015Z</time></trkpt><trkpt lat="42.0853944" lon="11.9013478"><ele>296.0</ele><time>2026-04-18T10:42:35.015Z</time></trkpt><trkpt lat="42.0854942" lon="11.901301"><ele>296.0</ele><time>2026-04-18T10:42:36.015Z</time></trkpt><trkpt lat="42.0855923" lon="11.9012664"><ele>296.0</ele><time>2026-04-18T10:42:37.015Z</time></trkpt><trkpt lat="42.0856969" lon="11.9012228"><ele>296.0</ele><time>2026-04-18T10:42:38.015Z</time></trkpt><trkpt lat="42.0858002" lon="11.9011819"><ele>296.0</ele><time>2026-04-18T10:42:39.014Z</time></trkpt><trkpt lat="42.085891" lon="11.9011517"><ele>297.2</ele><time>2026-04-18T10:42:40.015Z</time></trkpt><trkpt lat="42.0859656" lon="11.9011363"><ele>298.40000000000003</ele><time>2026-04-18T10:42:41.015Z</time></trkpt><trkpt lat="42.0860521" lon="11.9011521"><ele>299.6</ele><time>2026-04-18T10:42:42.015Z</time></trkpt><trkpt lat="42.0861572" lon="11.901196"><ele>300.8</ele><time>2026-04-18T10:42:43.016Z</time></trkpt><trkpt lat="42.0862561" lon="11.90128"><ele>302.0</ele><time>2026-04-18T10:42:44.015Z</time></trkpt><trkpt lat="42.0863553" lon="11.9013882"><ele>302.0</ele><time>2026-04-18T10:42:45.016Z</time></trkpt><trkpt lat="42.0864615" lon="11.9015004"><ele>302.0</ele><time>2026-04-18T10:42:46.016Z</time></trkpt><trkpt lat="42.0865685" lon="11.9016111"><ele>302.0</ele><time>2026-04-18T10:42:47.015Z</time></trkpt><trkpt lat="42.0866627" lon="11.9017261"><ele>302.0</ele><time>2026-04-18T10:42:48.015Z</time></trkpt><trkpt lat="42.0867556" lon="11.901821"><ele>301.6</ele><time>2026-04-18T10:42:49.015Z</time></trkpt><trkpt lat="42.0868489" lon="11.9018827"><ele>301.2</ele><time>2026-04-18T10:42:50.015Z</time></trkpt><trkpt lat="42.0869354" lon="11.901921"><ele>300.8</ele><time>2026-04-18T10:42:51.015Z</time></trkpt><trkpt lat="42.087" lon="11.9019406"><ele>300.4</ele><time>2026-04-18T10:42:52.015Z</time></trkpt><trkpt lat="42.0871193" lon="11.9019857"><ele>300.0</ele><time>2026-04-18T10:42:54.014Z</time></trkpt><trkpt lat="42.0873131" lon="11.901989"><ele>300.8</ele><time>2026-04-18T10:42:56.014Z</time></trkpt><trkpt lat="42.0874408" lon="11.9019876"><ele>301.6</ele><time>2026-04-18T10:42:57.016Z</time></trkpt><trkpt lat="42.0875397" lon="11.9019941"><ele>302.4</ele><time>2026-04-18T10:42:58.016Z</time></trkpt><trkpt lat="42.087623" lon="11.9020018"><ele>303.2</ele><time>2026-04-18T10:42:59.015Z</time></trkpt><trkpt lat="42.0877055" lon="11.9020034"><ele>304.0</ele><time>2026-04-18T10:43:00.015Z</time></trkpt><trkpt lat="42.0877836" lon="11.9020311"><ele>304.0</ele><time>2026-04-18T10:43:01.014Z</time></trkpt><trkpt lat="42.0878811" lon="11.9020994"><ele>304.0</ele><time>2026-04-18T10:43:02.015Z</time></trkpt><trkpt lat="42.087996" lon="11.9022189"><ele>304.0</ele><time>2026-04-18T10:43:03.015Z</time></trkpt><trkpt lat="42.088115" lon="11.9023506"><ele>304.0</ele><time>2026-04-18T10:43:04.015Z</time></trkpt><trkpt lat="42.0882346" lon="11.9024785"><ele>304.3333333333333</ele><time>2026-04-18T10:43:05.014Z</time></trkpt><trkpt lat="42.0883611" lon="11.9026084"><ele>304.6666666666667</ele><time>2026-04-18T10:43:06.014Z</time></trkpt><trkpt lat="42.0884915" lon="11.902734"><ele>305.0</ele><time>2026-04-18T10:43:07.015Z</time></trkpt><trkpt lat="42.0886127" lon="11.9028471"><ele>305.0</ele><time>2026-04-18T10:43:08.016Z</time></trkpt><trkpt lat="42.0887224" lon="11.9029434"><ele>305.0</ele><time>2026-04-18T10:43:09.015Z</time></trkpt><trkpt lat="42.0888404" lon="11.9030239"><ele>305.0</ele><time>2026-04-18T10:43:10.015Z</time></trkpt><trkpt lat="42.0889736" lon="11.9030978"><ele>305.0</ele><time>2026-04-18T10:43:11.014Z</time></trkpt><trkpt lat="42.0891072" lon="11.9031576"><ele>307.25</ele><time>2026-04-18T10:43:12.015Z</time></trkpt><trkpt lat="42.0892269" lon="11.9031903"><ele>309.5</ele><time>2026-04-18T10:43:13.016Z</time></trkpt><trkpt lat="42.0893402" lon="11.9032072"><ele>311.75</ele><time>2026-04-18T10:43:14.014Z</time></trkpt><trkpt lat="42.0894534" lon="11.9032113"><ele>314.0</ele><time>2026-04-18T10:43:15.014Z</time></trkpt><trkpt lat="42.0896787" lon="11.9031278"><ele>314.0</ele><time>2026-04-18T10:43:17.014Z</time></trkpt><trkpt lat="42.0897954" lon="11.903071"><ele>314.0</ele><time>2026-04-18T10:43:18.016Z</time></trkpt><trkpt lat="42.089903" lon="11.9030361"><ele>314.0</ele><time>2026-04-18T10:43:19.016Z</time></trkpt><trkpt lat="42.0899988" lon="11.9030232"><ele>314.0</ele><time>2026-04-18T10:43:20.015Z</time></trkpt><trkpt lat="42.0900726" lon="11.9030246"><ele>314.0</ele><time>2026-04-18T10:43:21.015Z</time></trkpt><trkpt lat="42.0901362" lon="11.9030307"><ele>313.5</ele><time>2026-04-18T10:43:22.015Z</time></trkpt><trkpt lat="42.0902174" lon="11.9030444"><ele>313.0</ele><time>2026-04-18T10:43:23.016Z</time></trkpt><trkpt lat="42.0903344" lon="11.9030795"><ele>312.5</ele><time>2026-04-18T10:43:24.015Z</time></trkpt><trkpt lat="42.0904761" lon="11.9031284"><ele>312.0</ele><time>2026-04-18T10:43:25.015Z</time></trkpt><trkpt lat="42.0906471" lon="11.9031916"><ele>313.0</ele><time>2026-04-18T10:43:26.015Z</time></trkpt><trkpt lat="42.090834" lon="11.9032604"><ele>314.0</ele><time>2026-04-18T10:43:27.016Z</time></trkpt><trkpt lat="42.0909946" lon="11.9033156"><ele>315.0</ele><time>2026-04-18T10:43:28.016Z</time></trkpt><trkpt lat="42.0911326" lon="11.9033685"><ele>312.25</ele><time>2026-04-18T10:43:29.014Z</time></trkpt><trkpt lat="42.0912461" lon="11.9034331"><ele>309.5</ele><time>2026-04-18T10:43:30.015Z</time></trkpt><trkpt lat="42.0913444" lon="11.9035309"><ele>306.75</ele><time>2026-04-18T10:43:31.015Z</time></trkpt><trkpt lat="42.0914457" lon="11.9036697"><ele>304.0</ele><time>2026-04-18T10:43:32.015Z</time></trkpt><trkpt lat="42.0915345" lon="11.9038159"><ele>303.75</ele><time>2026-04-18T10:43:33.015Z</time></trkpt><trkpt lat="42.0916094" lon="11.9039441"><ele>303.5</ele><time>2026-04-18T10:43:34.014Z</time></trkpt><trkpt lat="42.0916972" lon="11.9040532"><ele>303.25</ele><time>2026-04-18T10:43:35.014Z</time></trkpt><trkpt lat="42.091782" lon="11.9041534"><ele>303.0</ele><time>2026-04-18T10:43:36.015Z</time></trkpt><trkpt lat="42.0918954" lon="11.9043268"><ele>303.0</ele><time>2026-04-18T10:43:38.014Z</time></trkpt><trkpt lat="42.0919498" lon="11.9043868"><ele>303.0</ele><time>2026-04-18T10:43:39.015Z</time></trkpt><trkpt lat="42.092025" lon="11.904471"><ele>303.0</ele><time>2026-04-18T10:43:40.014Z</time></trkpt><trkpt lat="42.0921222" lon="11.9046024"><ele>303.0</ele><time>2026-04-18T10:43:41.014Z</time></trkpt><trkpt lat="42.092222" lon="11.9047402"><ele>303.0</ele><time>2026-04-18T10:43:42.015Z</time></trkpt><trkpt lat="42.0923124" lon="11.9048603"><ele>303.0</ele><time>2026-04-18T10:43:43.015Z</time></trkpt><trkpt lat="42.0923942" lon="11.9049666"><ele>303.0</ele><time>2026-04-18T10:43:44.015Z</time></trkpt><trkpt lat="42.0924814" lon="11.905069"><ele>303.0</ele><time>2026-04-18T10:43:45.015Z</time></trkpt><trkpt lat="42.0925827" lon="11.9051598"><ele>303.0</ele><time>2026-04-18T10:43:46.015Z</time></trkpt><trkpt lat="42.0927043" lon="11.9052424"><ele>303.5</ele><time>2026-04-18T10:43:47.015Z</time></trkpt><trkpt lat="42.0928441" lon="11.9053137"><ele>304.0</ele><time>2026-04-18T10:43:48.014Z</time></trkpt><trkpt lat="42.0929815" lon="11.9053558"><ele>304.5</ele><time>2026-04-18T10:43:49.015Z</time></trkpt><trkpt lat="42.0931104" lon="11.9053868"><ele>305.0</ele><time>2026-04-18T10:43:50.015Z</time></trkpt><trkpt lat="42.0932418" lon="11.9054288"><ele>305.75</ele><time>2026-04-18T10:43:51.015Z</time></trkpt><trkpt lat="42.0933725" lon="11.9054928"><ele>306.5</ele><time>2026-04-18T10:43:52.014Z</time></trkpt><trkpt lat="42.0934906" lon="11.9055602"><ele>307.25</ele><time>2026-04-18T10:43:53.015Z</time></trkpt><trkpt lat="42.0935989" lon="11.9056134"><ele>308.0</ele><time>2026-04-18T10:43:54.014Z</time></trkpt><trkpt lat="42.0937134" lon="11.9056618"><ele>308.0</ele><time>2026-04-18T10:43:55.015Z</time></trkpt><trkpt lat="42.0938363" lon="11.9056958"><ele>308.0</ele><time>2026-04-18T10:43:56.014Z</time></trkpt><trkpt lat="42.0939528" lon="11.9057269"><ele>308.0</ele><time>2026-04-18T10:43:57.015Z</time></trkpt><trkpt lat="42.094177" lon="11.9058523"><ele>308.6</ele><time>2026-04-18T10:43:59.015Z</time></trkpt><trkpt lat="42.0942811" lon="11.9059277"><ele>309.20000000000005</ele><time>2026-04-18T10:44:00.015Z</time></trkpt><trkpt lat="42.0943803" lon="11.9060092"><ele>309.8</ele><time>2026-04-18T10:44:01.014Z</time></trkpt><trkpt lat="42.094467" lon="11.9060971"><ele>310.40000000000003</ele><time>2026-04-18T10:44:02.015Z</time></trkpt><trkpt lat="42.0945361" lon="11.9061803"><ele>311.0</ele><time>2026-04-18T10:44:03.014Z</time></trkpt><trkpt lat="42.0945946" lon="11.9062665"><ele>311.0</ele><time>2026-04-18T10:44:04.014Z</time></trkpt><trkpt lat="42.094642" lon="11.9063536"><ele>311.0</ele><time>2026-04-18T10:44:05.015Z</time></trkpt><trkpt lat="42.0946812" lon="11.9064329"><ele>311.0</ele><time>2026-04-18T10:44:06.015Z</time></trkpt><trkpt lat="42.0947246" lon="11.9065239"><ele>311.0</ele><time>2026-04-18T10:44:07.014Z</time></trkpt><trkpt lat="42.0947684" lon="11.9066228"><ele>311.0</ele><time>2026-04-18T10:44:08.015Z</time></trkpt><trkpt lat="42.0948019" lon="11.906725"><ele>311.0</ele><time>2026-04-18T10:44:09.015Z</time></trkpt><trkpt lat="42.0948173" lon="11.9068238"><ele>311.0</ele><time>2026-04-18T10:44:10.015Z</time></trkpt><trkpt lat="42.0948351" lon="11.9069821"><ele>311.0</ele><time>2026-04-18T10:44:12.016Z</time></trkpt><trkpt lat="42.094871" lon="11.9071017"><ele>311.0</ele><time>2026-04-18T10:44:13.014Z</time></trkpt><trkpt lat="42.0949084" lon="11.9072296"><ele>311.0</ele><time>2026-04-18T10:44:14.014Z</time></trkpt><trkpt lat="42.0949451" lon="11.9073293"><ele>311.0</ele><time>2026-04-18T10:44:15.015Z</time></trkpt><trkpt lat="42.0950064" lon="11.9074465"><ele>314.25</ele><time>2026-04-18T10:44:17.016Z</time></trkpt><trkpt lat="42.0950651" lon="11.9075682"><ele>317.5</ele><time>2026-04-18T10:44:19.015Z</time></trkpt><trkpt lat="42.0951784" lon="11.9077219"><ele>320.75</ele><time>2026-04-18T10:44:21.014Z</time></trkpt><trkpt lat="42.0952643" lon="11.9077919"><ele>324.0</ele><time>2026-04-18T10:44:22.014Z</time></trkpt><trkpt lat="42.0953645" lon="11.9078626"><ele>324.0</ele><time>2026-04-18T10:44:23.015Z</time></trkpt><trkpt lat="42.0954516" lon="11.9079433"><ele>324.0</ele><time>2026-04-18T10:44:24.015Z</time></trkpt><trkpt lat="42.095519" lon="11.9080226"><ele>324.0</ele><time>2026-04-18T10:44:25.015Z</time></trkpt><trkpt lat="42.0955884" lon="11.908113"><ele>324.0</ele><time>2026-04-18T10:44:26.015Z</time></trkpt><trkpt lat="42.0956677" lon="11.9082177"><ele>324.0</ele><time>2026-04-18T10:44:27.015Z</time></trkpt><trkpt lat="42.0957531" lon="11.9083334"><ele>327.0</ele><time>2026-04-18T10:44:28.016Z</time></trkpt><trkpt lat="42.0958497" lon="11.908463"><ele>330.0</ele><time>2026-04-18T10:44:29.016Z</time></trkpt><trkpt lat="42.0959531" lon="11.908606"><ele>333.0</ele><time>2026-04-18T10:44:30.014Z</time></trkpt><trkpt lat="42.0960459" lon="11.9087561"><ele>336.0</ele><time>2026-04-18T10:44:31.015Z</time></trkpt><trkpt lat="42.0961242" lon="11.9088851"><ele>336.0</ele><time>2026-04-18T10:44:32.014Z</time></trkpt><trkpt lat="42.0961968" lon="11.9090146"><ele>336.0</ele><time>2026-04-18T10:44:33.015Z</time></trkpt><trkpt lat="42.0962607" lon="11.9091363"><ele>336.0</ele><time>2026-04-18T10:44:34.016Z</time></trkpt><trkpt lat="42.0963206" lon="11.9092422"><ele>336.0</ele><time>2026-04-18T10:44:35.014Z</time></trkpt><trkpt lat="42.0964037" lon="11.9093877"><ele>335.6666666666667</ele><time>2026-04-18T10:44:36.014Z</time></trkpt><trkpt lat="42.0964926" lon="11.9095686"><ele>335.33333333333337</ele><time>2026-04-18T10:44:37.015Z</time></trkpt><trkpt lat="42.0965744" lon="11.9097434"><ele>335.0</ele><time>2026-04-18T10:44:38.015Z</time></trkpt><trkpt lat="42.0966523" lon="11.909929"><ele>339.0</ele><time>2026-04-18T10:44:39.015Z</time></trkpt><trkpt lat="42.0967171" lon="11.9101154"><ele>343.0</ele><time>2026-04-18T10:44:40.015Z</time></trkpt><trkpt lat="42.0967999" lon="11.9104592"><ele>347.0</ele><time>2026-04-18T10:44:42.016Z</time></trkpt><trkpt lat="42.0968283" lon="11.9106482"><ele>347.0</ele><time>2026-04-18T10:44:43.016Z</time></trkpt><trkpt lat="42.0968484" lon="11.9108465"><ele>347.0</ele><time>2026-04-18T10:44:44.015Z</time></trkpt><trkpt lat="42.0968688" lon="11.9110433"><ele>347.0</ele><time>2026-04-18T10:44:45.015Z</time></trkpt><trkpt lat="42.0969016" lon="11.9112131"><ele>347.0</ele><time>2026-04-18T10:44:46.015Z</time></trkpt><trkpt lat="42.0969337" lon="11.9113298"><ele>349.40000000000003</ele><time>2026-04-18T10:44:47.015Z</time></trkpt><trkpt lat="42.0969761" lon="11.9114344"><ele>351.8</ele><time>2026-04-18T10:44:48.014Z</time></trkpt><trkpt lat="42.0970465" lon="11.9115395"><ele>354.2</ele><time>2026-04-18T10:44:49.014Z</time></trkpt><trkpt lat="42.0971258" lon="11.9116302"><ele>356.6</ele><time>2026-04-18T10:44:50.014Z</time></trkpt><trkpt lat="42.0971896" lon="11.9117282"><ele>359.0</ele><time>2026-04-18T10:44:51.014Z</time></trkpt><trkpt lat="42.0972376" lon="11.9118611"><ele>361.0</ele><time>2026-04-18T10:44:52.015Z</time></trkpt><trkpt lat="42.0972614" lon="11.9120072"><ele>363.0</ele><time>2026-04-18T10:44:53.014Z</time></trkpt><trkpt lat="42.0972662" lon="11.9121436"><ele>365.0</ele><time>2026-04-18T10:44:54.014Z</time></trkpt><trkpt lat="42.0972692" lon="11.912253"><ele>367.0</ele><time>2026-04-18T10:44:55.015Z</time></trkpt><trkpt lat="42.0972853" lon="11.912374"><ele>369.0</ele><time>2026-04-18T10:44:57.014Z</time></trkpt><trkpt lat="42.0972977" lon="11.9124683"><ele>368.0</ele><time>2026-04-18T10:45:01.016Z</time></trkpt><trkpt lat="42.0973767" lon="11.9126987"><ele>367.0</ele><time>2026-04-18T10:45:04.015Z</time></trkpt><trkpt lat="42.0974345" lon="11.9128241"><ele>366.0</ele><time>2026-04-18T10:45:05.014Z</time></trkpt><trkpt lat="42.0975119" lon="11.9129737"><ele>365.0</ele><time>2026-04-18T10:45:06.015Z</time></trkpt><trkpt lat="42.0975758" lon="11.9131252"><ele>365.5</ele><time>2026-04-18T10:45:07.016Z</time></trkpt><trkpt lat="42.0976179" lon="11.9132672"><ele>366.0</ele><time>2026-04-18T10:45:08.016Z</time></trkpt><trkpt lat="42.097654" lon="11.9134067"><ele>366.5</ele><time>2026-04-18T10:45:09.014Z</time></trkpt><trkpt lat="42.0976936" lon="11.9135598"><ele>367.0</ele><time>2026-04-18T10:45:10.014Z</time></trkpt><trkpt lat="42.0977466" lon="11.913743"><ele>367.0</ele><time>2026-04-18T10:45:11.016Z</time></trkpt><trkpt lat="42.0977963" lon="11.9139057"><ele>367.0</ele><time>2026-04-18T10:45:12.016Z</time></trkpt><trkpt lat="42.0978285" lon="11.914028"><ele>367.0</ele><time>2026-04-18T10:45:13.015Z</time></trkpt><trkpt lat="42.0978562" lon="11.9141155"><ele>367.0</ele><time>2026-04-18T10:45:14.014Z</time></trkpt><trkpt lat="42.0978991" lon="11.9141924"><ele>367.0</ele><time>2026-04-18T10:45:15.015Z</time></trkpt><trkpt lat="42.0979639" lon="11.9143049"><ele>367.25</ele><time>2026-04-18T10:45:16.016Z</time></trkpt><trkpt lat="42.098051" lon="11.9144335"><ele>367.5</ele><time>2026-04-18T10:45:17.014Z</time></trkpt><trkpt lat="42.0981627" lon="11.9145643"><ele>367.75</ele><time>2026-04-18T10:45:18.015Z</time></trkpt><trkpt lat="42.0982821" lon="11.9146947"><ele>368.0</ele><time>2026-04-18T10:45:19.014Z</time></trkpt><trkpt lat="42.0983732" lon="11.9148196"><ele>365.33333333333337</ele><time>2026-04-18T10:45:20.016Z</time></trkpt><trkpt lat="42.0984467" lon="11.9149402"><ele>362.6666666666667</ele><time>2026-04-18T10:45:21.015Z</time></trkpt><trkpt lat="42.0985178" lon="11.915073"><ele>360.0</ele><time>2026-04-18T10:45:22.014Z</time></trkpt><trkpt lat="42.0986801" lon="11.9152807"><ele>359.0</ele><time>2026-04-18T10:45:24.015Z</time></trkpt><trkpt lat="42.0987909" lon="11.9153551"><ele>358.0</ele><time>2026-04-18T10:45:25.014Z</time></trkpt><trkpt lat="42.0989333" lon="11.9154111"><ele>357.0</ele><time>2026-04-18T10:45:26.015Z</time></trkpt><trkpt lat="42.0990978" lon="11.9154531"><ele>356.0</ele><time>2026-04-18T10:45:27.014Z</time></trkpt><trkpt lat="42.0992508" lon="11.9154879"><ele>354.33333333333337</ele><time>2026-04-18T10:45:28.015Z</time></trkpt><trkpt lat="42.0993894" lon="11.91552"><ele>352.6666666666667</ele><time>2026-04-18T10:45:29.016Z</time></trkpt><trkpt lat="42.0995374" lon="11.915549"><ele>351.0</ele><time>2026-04-18T10:45:30.014Z</time></trkpt><trkpt lat="42.099699" lon="11.9155716"><ele>351.0</ele><time>2026-04-18T10:45:31.015Z</time></trkpt><trkpt lat="42.0998541" lon="11.9155931"><ele>351.0</ele><time>2026-04-18T10:45:32.015Z</time></trkpt><trkpt lat="42.1000043" lon="11.9156416"><ele>351.0</ele><time>2026-04-18T10:45:33.014Z</time></trkpt><trkpt lat="42.1001613" lon="11.9157271"><ele>351.6666666666667</ele><time>2026-04-18T10:45:34.015Z</time></trkpt><trkpt lat="42.1003216" lon="11.9158335"><ele>352.33333333333337</ele><time>2026-04-18T10:45:35.016Z</time></trkpt><trkpt lat="42.1004912" lon="11.9159446"><ele>353.0</ele><time>2026-04-18T10:45:36.014Z</time></trkpt><trkpt lat="42.1006554" lon="11.9160385"><ele>350.33333333333337</ele><time>2026-04-18T10:45:37.015Z</time></trkpt><trkpt lat="42.1008034" lon="11.9161103"><ele>347.6666666666667</ele><time>2026-04-18T10:45:38.015Z</time></trkpt><trkpt lat="42.1009518" lon="11.9161673"><ele>345.0</ele><time>2026-04-18T10:45:39.015Z</time></trkpt><trkpt lat="42.1010997" lon="11.9162245"><ele>345.0</ele><time>2026-04-18T10:45:40.014Z</time></trkpt><trkpt lat="42.1012358" lon="11.916296"><ele>345.0</ele><time>2026-04-18T10:45:41.016Z</time></trkpt><trkpt lat="42.1013614" lon="11.9163714"><ele>345.0</ele><time>2026-04-18T10:45:42.015Z</time></trkpt><trkpt lat="42.1014895" lon="11.9164539"><ele>345.0</ele><time>2026-04-18T10:45:43.014Z</time></trkpt><trkpt lat="42.10175" lon="11.9166531"><ele>343.25</ele><time>2026-04-18T10:45:45.015Z</time></trkpt><trkpt lat="42.1018704" lon="11.9167514"><ele>341.5</ele><time>2026-04-18T10:45:46.015Z</time></trkpt><trkpt lat="42.1019762" lon="11.9168461"><ele>339.75</ele><time>2026-04-18T10:45:47.016Z</time></trkpt><trkpt lat="42.1020747" lon="11.916943"><ele>338.0</ele><time>2026-04-18T10:45:48.014Z</time></trkpt><trkpt lat="42.1021749" lon="11.9170575"><ele>338.0</ele><time>2026-04-18T10:45:49.015Z</time></trkpt><trkpt lat="42.1022867" lon="11.9172067"><ele>338.0</ele><time>2026-04-18T10:45:50.014Z</time></trkpt><trkpt lat="42.1024109" lon="11.9173731"><ele>338.0</ele><time>2026-04-18T10:45:51.016Z</time></trkpt><trkpt lat="42.1025509" lon="11.9175392"><ele>338.6666666666667</ele><time>2026-04-18T10:45:52.015Z</time></trkpt><trkpt lat="42.1026852" lon="11.9176867"><ele>339.3333333333333</ele><time>2026-04-18T10:45:53.014Z</time></trkpt><trkpt lat="42.1028004" lon="11.9178197"><ele>340.0</ele><time>2026-04-18T10:45:54.014Z</time></trkpt><trkpt lat="42.1029012" lon="11.9179451"><ele>340.0</ele><time>2026-04-18T10:45:55.015Z</time></trkpt><trkpt lat="42.102992" lon="11.9180693"><ele>340.0</ele><time>2026-04-18T10:45:56.014Z</time></trkpt><trkpt lat="42.103082" lon="11.9181952"><ele>340.0</ele><time>2026-04-18T10:45:57.015Z</time></trkpt><trkpt lat="42.1031737" lon="11.9183338"><ele>340.0</ele><time>2026-04-18T10:45:58.016Z</time></trkpt><trkpt lat="42.1032596" lon="11.9184614"><ele>339.25</ele><time>2026-04-18T10:45:59.014Z</time></trkpt><trkpt lat="42.103339" lon="11.918576"><ele>338.5</ele><time>2026-04-18T10:46:00.015Z</time></trkpt><trkpt lat="42.1034161" lon="11.9186844"><ele>337.75</ele><time>2026-04-18T10:46:01.014Z</time></trkpt><trkpt lat="42.1034898" lon="11.9187927"><ele>337.0</ele><time>2026-04-18T10:46:02.014Z</time></trkpt><trkpt lat="42.1035589" lon="11.9189134"><ele>337.0</ele><time>2026-04-18T10:46:03.014Z</time></trkpt><trkpt lat="42.1036237" lon="11.9190626"><ele>337.0</ele><time>2026-04-18T10:46:04.014Z</time></trkpt><trkpt lat="42.1037107" lon="11.9194424"><ele>337.0</ele><time>2026-04-18T10:46:06.015Z</time></trkpt><trkpt lat="42.1037334" lon="11.9196347"><ele>336.66666666666663</ele><time>2026-04-18T10:46:07.014Z</time></trkpt><trkpt lat="42.1037354" lon="11.9198182"><ele>336.3333333333333</ele><time>2026-04-18T10:46:08.014Z</time></trkpt><trkpt lat="42.1037296" lon="11.920021"><ele>336.0</ele><time>2026-04-18T10:46:09.014Z</time></trkpt><trkpt lat="42.1037236" lon="11.9202451"><ele>336.6666666666667</ele><time>2026-04-18T10:46:10.014Z</time></trkpt><trkpt lat="42.1037166" lon="11.9204815"><ele>337.33333333333337</ele><time>2026-04-18T10:46:11.014Z</time></trkpt><trkpt lat="42.103719" lon="11.9206967"><ele>338.0</ele><time>2026-04-18T10:46:12.014Z</time></trkpt><trkpt lat="42.1037252" lon="11.9208941"><ele>339.0</ele><time>2026-04-18T10:46:13.015Z</time></trkpt><trkpt lat="42.1037303" lon="11.9210933"><ele>340.0</ele><time>2026-04-18T10:46:14.015Z</time></trkpt><trkpt lat="42.1037382" lon="11.9213066"><ele>341.0</ele><time>2026-04-18T10:46:15.014Z</time></trkpt><trkpt lat="42.1037508" lon="11.9215091"><ele>341.0</ele><time>2026-04-18T10:46:16.014Z</time></trkpt><trkpt lat="42.1037628" lon="11.9216889"><ele>341.0</ele><time>2026-04-18T10:46:17.015Z</time></trkpt><trkpt lat="42.1037886" lon="11.9218256"><ele>341.0</ele><time>2026-04-18T10:46:18.015Z</time></trkpt><trkpt lat="42.1038177" lon="11.9219655"><ele>341.0</ele><time>2026-04-18T10:46:19.015Z</time></trkpt><trkpt lat="42.1038393" lon="11.9221228"><ele>341.75</ele><time>2026-04-18T10:46:20.014Z</time></trkpt><trkpt lat="42.103863" lon="11.9222993"><ele>342.5</ele><time>2026-04-18T10:46:21.015Z</time></trkpt><trkpt lat="42.1038871" lon="11.9224784"><ele>343.25</ele><time>2026-04-18T10:46:22.015Z</time></trkpt><trkpt lat="42.1039063" lon="11.9226266"><ele>344.0</ele><time>2026-04-18T10:46:23.015Z</time></trkpt><trkpt lat="42.1039242" lon="11.9227794"><ele>344.0</ele><time>2026-04-18T10:46:24.015Z</time></trkpt><trkpt lat="42.1039426" lon="11.9229564"><ele>344.0</ele><time>2026-04-18T10:46:25.015Z</time></trkpt><trkpt lat="42.1039922" lon="11.9233257"><ele>344.0</ele><time>2026-04-18T10:46:27.015Z</time></trkpt><trkpt lat="42.1040082" lon="11.923516"><ele>344.25</ele><time>2026-04-18T10:46:28.015Z</time></trkpt><trkpt lat="42.1040192" lon="11.9237045"><ele>344.5</ele><time>2026-04-18T10:46:29.015Z</time></trkpt><trkpt lat="42.1040271" lon="11.9238769"><ele>344.75</ele><time>2026-04-18T10:46:30.015Z</time></trkpt><trkpt lat="42.104027" lon="11.9240601"><ele>345.0</ele><time>2026-04-18T10:46:31.015Z</time></trkpt><trkpt lat="42.1040234" lon="11.9242456"><ele>345.5</ele><time>2026-04-18T10:46:32.015Z</time></trkpt><trkpt lat="42.1040277" lon="11.9244387"><ele>346.0</ele><time>2026-04-18T10:46:33.014Z</time></trkpt><trkpt lat="42.1040409" lon="11.9246395"><ele>346.5</ele><time>2026-04-18T10:46:34.014Z</time></trkpt><trkpt lat="42.1040557" lon="11.9248301"><ele>347.0</ele><time>2026-04-18T10:46:35.014Z</time></trkpt><trkpt lat="42.104064" lon="11.9249935"><ele>347.20000000000005</ele><time>2026-04-18T10:46:36.014Z</time></trkpt><trkpt lat="42.1040697" lon="11.9251306"><ele>347.4</ele><time>2026-04-18T10:46:37.015Z</time></trkpt><trkpt lat="42.1040769" lon="11.9252461"><ele>347.6</ele><time>2026-04-18T10:46:38.015Z</time></trkpt><trkpt lat="42.1040811" lon="11.9253595"><ele>347.79999999999995</ele><time>2026-04-18T10:46:39.014Z</time></trkpt><trkpt lat="42.1040788" lon="11.9254825"><ele>348.0</ele><time>2026-04-18T10:46:40.015Z</time></trkpt><trkpt lat="42.1040778" lon="11.9256301"><ele>351.75</ele><time>2026-04-18T10:46:41.014Z</time></trkpt><trkpt lat="42.1040835" lon="11.9257986"><ele>355.5</ele><time>2026-04-18T10:46:42.015Z</time></trkpt><trkpt lat="42.1040976" lon="11.9259962"><ele>359.25</ele><time>2026-04-18T10:46:43.017Z</time></trkpt><trkpt lat="42.1041098" lon="11.9262132"><ele>363.0</ele><time>2026-04-18T10:46:44.014Z</time></trkpt><trkpt lat="42.1041193" lon="11.9264156"><ele>363.0</ele><time>2026-04-18T10:46:45.015Z</time></trkpt><trkpt lat="42.1041369" lon="11.9266012"><ele>363.0</ele><time>2026-04-18T10:46:46.015Z</time></trkpt><trkpt lat="42.1041678" lon="11.9269689"><ele>363.0</ele><time>2026-04-18T10:46:48.014Z</time></trkpt><trkpt lat="42.1041929" lon="11.9271771"><ele>362.3333333333333</ele><time>2026-04-18T10:46:49.014Z</time></trkpt><trkpt lat="42.1042342" lon="11.9273993"><ele>361.66666666666663</ele><time>2026-04-18T10:46:50.014Z</time></trkpt><trkpt lat="42.1042876" lon="11.9276165"><ele>361.0</ele><time>2026-04-18T10:46:51.014Z</time></trkpt><trkpt lat="42.1043459" lon="11.9278119"><ele>361.25</ele><time>2026-04-18T10:46:52.014Z</time></trkpt><trkpt lat="42.1044006" lon="11.9279883"><ele>361.5</ele><time>2026-04-18T10:46:53.015Z</time></trkpt><trkpt lat="42.1044524" lon="11.9281559"><ele>361.75</ele><time>2026-04-18T10:46:54.014Z</time></trkpt><trkpt lat="42.1045131" lon="11.9283323"><ele>362.0</ele><time>2026-04-18T10:46:55.014Z</time></trkpt><trkpt lat="42.1045695" lon="11.9285128"><ele>362.0</ele><time>2026-04-18T10:46:56.014Z</time></trkpt><trkpt lat="42.1046152" lon="11.9286792"><ele>362.0</ele><time>2026-04-18T10:46:57.014Z</time></trkpt><trkpt lat="42.1046605" lon="11.9288259"><ele>362.0</ele><time>2026-04-18T10:46:58.015Z</time></trkpt><trkpt lat="42.1046937" lon="11.9289468"><ele>362.0</ele><time>2026-04-18T10:46:59.015Z</time></trkpt><trkpt lat="42.1047108" lon="11.9290611"><ele>362.0</ele><time>2026-04-18T10:47:00.015Z</time></trkpt><trkpt lat="42.1047185" lon="11.9291723"><ele>363.8</ele><time>2026-04-18T10:47:01.015Z</time></trkpt><trkpt lat="42.1046974" lon="11.9292883"><ele>365.6</ele><time>2026-04-18T10:47:02.015Z</time></trkpt><trkpt lat="42.1046696" lon="11.9294286"><ele>367.40000000000003</ele><time>2026-04-18T10:47:03.014Z</time></trkpt><trkpt lat="42.1046417" lon="11.9295642"><ele>369.20000000000005</ele><time>2026-04-18T10:47:04.014Z</time></trkpt><trkpt lat="42.1046047" lon="11.9296821"><ele>371.0</ele><time>2026-04-18T10:47:05.016Z</time></trkpt><trkpt lat="42.1045433" lon="11.9298045"><ele>371.0</ele><time>2026-04-18T10:47:06.015Z</time></trkpt><trkpt lat="42.1044605" lon="11.9299418"><ele>371.0</ele><time>2026-04-18T10:47:07.014Z</time></trkpt><trkpt lat="42.1042841" lon="11.9302151"><ele>371.0</ele><time>2026-04-18T10:47:09.014Z</time></trkpt><trkpt lat="42.1042099" lon="11.9303365"><ele>370.4</ele><time>2026-04-18T10:47:10.014Z</time></trkpt><trkpt lat="42.1041576" lon="11.9304499"><ele>369.8</ele><time>2026-04-18T10:47:11.015Z</time></trkpt><trkpt lat="42.104127" lon="11.9305568"><ele>369.2</ele><time>2026-04-18T10:47:12.016Z</time></trkpt><trkpt lat="42.1041201" lon="11.9306627"><ele>368.59999999999997</ele><time>2026-04-18T10:47:13.017Z</time></trkpt><trkpt lat="42.1041327" lon="11.9307804"><ele>368.0</ele><time>2026-04-18T10:47:14.015Z</time></trkpt><trkpt lat="42.1041681" lon="11.9309082"><ele>368.0</ele><time>2026-04-18T10:47:15.015Z</time></trkpt><trkpt lat="42.104236" lon="11.9310418"><ele>368.0</ele><time>2026-04-18T10:47:16.014Z</time></trkpt><trkpt lat="42.1043317" lon="11.9311903"><ele>368.0</ele><time>2026-04-18T10:47:17.014Z</time></trkpt><trkpt lat="42.1044308" lon="11.9313298"><ele>368.0</ele><time>2026-04-18T10:47:18.015Z</time></trkpt><trkpt lat="42.1045305" lon="11.931453"><ele>368.0</ele><time>2026-04-18T10:47:19.014Z</time></trkpt><trkpt lat="42.1046287" lon="11.9315735"><ele>368.0</ele><time>2026-04-18T10:47:20.014Z</time></trkpt><trkpt lat="42.1047181" lon="11.9316887"><ele>368.0</ele><time>2026-04-18T10:47:21.015Z</time></trkpt><trkpt lat="42.104826" lon="11.9318036"><ele>368.0</ele><time>2026-04-18T10:47:22.014Z</time></trkpt><trkpt lat="42.1049406" lon="11.9319134"><ele>366.5</ele><time>2026-04-18T10:47:23.012Z</time></trkpt><trkpt lat="42.1050479" lon="11.9319908"><ele>365.0</ele><time>2026-04-18T10:47:24.014Z</time></trkpt><trkpt lat="42.1051669" lon="11.9320393"><ele>363.5</ele><time>2026-04-18T10:47:25.015Z</time></trkpt><trkpt lat="42.1053233" lon="11.9320629"><ele>362.0</ele><time>2026-04-18T10:47:26.014Z</time></trkpt><trkpt lat="42.1055087" lon="11.932066"><ele>362.0</ele><time>2026-04-18T10:47:27.014Z</time></trkpt><trkpt lat="42.1056987" lon="11.9320636"><ele>362.0</ele><time>2026-04-18T10:47:28.015Z</time></trkpt><trkpt lat="42.1060405" lon="11.9320756"><ele>359.6666666666667</ele><time>2026-04-18T10:47:30.015Z</time></trkpt><trkpt lat="42.1062146" lon="11.9320622"><ele>357.3333333333333</ele><time>2026-04-18T10:47:31.015Z</time></trkpt><trkpt lat="42.1063825" lon="11.9320441"><ele>355.0</ele><time>2026-04-18T10:47:32.015Z</time></trkpt><trkpt lat="42.1065733" lon="11.9320471"><ele>354.0</ele><time>2026-04-18T10:47:33.014Z</time></trkpt><trkpt lat="42.1067767" lon="11.9320691"><ele>353.0</ele><time>2026-04-18T10:47:34.014Z</time></trkpt><trkpt lat="42.1069542" lon="11.9321023"><ele>352.0</ele><time>2026-04-18T10:47:35.014Z</time></trkpt><trkpt lat="42.1071022" lon="11.9321525"><ele>352.0</ele><time>2026-04-18T10:47:36.014Z</time></trkpt><trkpt lat="42.1072436" lon="11.9322205"><ele>352.0</ele><time>2026-04-18T10:47:37.015Z</time></trkpt><trkpt lat="42.1073904" lon="11.9323257"><ele>352.0</ele><time>2026-04-18T10:47:38.014Z</time></trkpt><trkpt lat="42.1075483" lon="11.9324517"><ele>354.0</ele><time>2026-04-18T10:47:39.014Z</time></trkpt><trkpt lat="42.1077143" lon="11.9325744"><ele>356.0</ele><time>2026-04-18T10:47:40.014Z</time></trkpt><trkpt lat="42.1078654" lon="11.9326833"><ele>358.0</ele><time>2026-04-18T10:47:41.015Z</time></trkpt><trkpt lat="42.1079853" lon="11.9327718"><ele>358.0</ele><time>2026-04-18T10:47:42.014Z</time></trkpt><trkpt lat="42.1080904" lon="11.9328472"><ele>358.0</ele><time>2026-04-18T10:47:43.014Z</time></trkpt><trkpt lat="42.1081779" lon="11.9328732"><ele>358.0</ele><time>2026-04-18T10:47:44.015Z</time></trkpt><trkpt lat="42.1082645" lon="11.9328707"><ele>358.0</ele><time>2026-04-18T10:47:45.014Z</time></trkpt><trkpt lat="42.1083532" lon="11.9328611"><ele>358.0</ele><time>2026-04-18T10:47:46.015Z</time></trkpt><trkpt lat="42.1084242" lon="11.9328526"><ele>360.4</ele><time>2026-04-18T10:47:47.014Z</time></trkpt><trkpt lat="42.1085423" lon="11.9328266"><ele>362.79999999999995</ele><time>2026-04-18T10:47:49.015Z</time></trkpt><trkpt lat="42.1086694" lon="11.9327431"><ele>365.2</ele><time>2026-04-18T10:47:51.014Z</time></trkpt><trkpt lat="42.1087428" lon="11.9327041"><ele>367.6</ele><time>2026-04-18T10:47:52.015Z</time></trkpt><trkpt lat="42.108825" lon="11.9326447"><ele>370.0</ele><time>2026-04-18T10:47:53.014Z</time></trkpt><trkpt lat="42.108913" lon="11.9325639"><ele>372.0</ele><time>2026-04-18T10:47:54.015Z</time></trkpt><trkpt lat="42.1090151" lon="11.9324861"><ele>374.0</ele><time>2026-04-18T10:47:55.015Z</time></trkpt><trkpt lat="42.109124" lon="11.9324108"><ele>376.0</ele><time>2026-04-18T10:47:56.015Z</time></trkpt><trkpt lat="42.109225" lon="11.9323438"><ele>378.0</ele><time>2026-04-18T10:47:57.015Z</time></trkpt><trkpt lat="42.1093236" lon="11.9322773"><ele>379.5</ele><time>2026-04-18T10:47:58.014Z</time></trkpt><trkpt lat="42.1094271" lon="11.9321882"><ele>381.0</ele><time>2026-04-18T10:47:59.015Z</time></trkpt><trkpt lat="42.1095506" lon="11.9320791"><ele>382.5</ele><time>2026-04-18T10:48:00.015Z</time></trkpt><trkpt lat="42.1096718" lon="11.931983"><ele>384.0</ele><time>2026-04-18T10:48:01.015Z</time></trkpt><trkpt lat="42.109769" lon="11.9319154"><ele>384.0</ele><time>2026-04-18T10:48:02.015Z</time></trkpt><trkpt lat="42.1098651" lon="11.9318571"><ele>384.0</ele><time>2026-04-18T10:48:03.016Z</time></trkpt><trkpt lat="42.1099691" lon="11.9318066"><ele>384.0</ele><time>2026-04-18T10:48:04.014Z</time></trkpt><trkpt lat="42.1100892" lon="11.9317522"><ele>384.0</ele><time>2026-04-18T10:48:05.014Z</time></trkpt><trkpt lat="42.1102208" lon="11.9317129"><ele>387.0</ele><time>2026-04-18T10:48:06.014Z</time></trkpt><trkpt lat="42.1103642" lon="11.931689"><ele>390.0</ele><time>2026-04-18T10:48:07.014Z</time></trkpt><trkpt lat="42.1105129" lon="11.9316587"><ele>393.0</ele><time>2026-04-18T10:48:08.015Z</time></trkpt><trkpt lat="42.1106457" lon="11.9316299"><ele>396.0</ele><time>2026-04-18T10:48:09.015Z</time></trkpt><trkpt lat="42.1107627" lon="11.9316069"><ele>397.0</ele><time>2026-04-18T10:48:10.015Z</time></trkpt><trkpt lat="42.1109821" lon="11.931574"><ele>398.0</ele><time>2026-04-18T10:48:12.014Z</time></trkpt><trkpt lat="42.1110622" lon="11.9315797"><ele>399.0</ele><time>2026-04-18T10:48:13.014Z</time></trkpt><trkpt lat="42.1111269" lon="11.9316167"><ele>400.0</ele><time>2026-04-18T10:48:14.014Z</time></trkpt><trkpt lat="42.111184" lon="11.931687"><ele>401.0</ele><time>2026-04-18T10:48:15.014Z</time></trkpt><trkpt lat="42.1112417" lon="11.93179"><ele>401.0</ele><time>2026-04-18T10:48:16.014Z</time></trkpt><trkpt lat="42.1113078" lon="11.9319194"><ele>401.0</ele><time>2026-04-18T10:48:17.014Z</time></trkpt><trkpt lat="42.1113898" lon="11.9320584"><ele>401.0</ele><time>2026-04-18T10:48:18.015Z</time></trkpt><trkpt lat="42.1114684" lon="11.9321943"><ele>401.0</ele><time>2026-04-18T10:48:19.014Z</time></trkpt><trkpt lat="42.1115334" lon="11.9323021"><ele>403.3333333333333</ele><time>2026-04-18T10:48:20.014Z</time></trkpt><trkpt lat="42.1115983" lon="11.9323828"><ele>405.66666666666663</ele><time>2026-04-18T10:48:21.015Z</time></trkpt><trkpt lat="42.1116711" lon="11.9324393"><ele>408.0</ele><time>2026-04-18T10:48:22.016Z</time></trkpt><trkpt lat="42.1117472" lon="11.9324636"><ele>410.33333333333337</ele><time>2026-04-18T10:48:23.014Z</time></trkpt><trkpt lat="42.1118291" lon="11.9324504"><ele>412.6666666666667</ele><time>2026-04-18T10:48:24.014Z</time></trkpt><trkpt lat="42.1119224" lon="11.9324001"><ele>415.0</ele><time>2026-04-18T10:48:25.014Z</time></trkpt><trkpt lat="42.11203" lon="11.9323182"><ele>415.0</ele><time>2026-04-18T10:48:26.015Z</time></trkpt><trkpt lat="42.1121444" lon="11.93224"><ele>415.0</ele><time>2026-04-18T10:48:27.014Z</time></trkpt><trkpt lat="42.1122544" lon="11.9321785"><ele>415.0</ele><time>2026-04-18T10:48:28.014Z</time></trkpt><trkpt lat="42.1123565" lon="11.9321198"><ele>415.0</ele><time>2026-04-18T10:48:29.014Z</time></trkpt><trkpt lat="42.112441" lon="11.932082"><ele>415.0</ele><time>2026-04-18T10:48:30.015Z</time></trkpt><trkpt lat="42.1125284" lon="11.9320789"><ele>417.4</ele><time>2026-04-18T10:48:31.014Z</time></trkpt><trkpt lat="42.1127107" lon="11.9321841"><ele>419.8</ele><time>2026-04-18T10:48:33.014Z</time></trkpt><trkpt lat="42.1127924" lon="11.9322601"><ele>422.20000000000005</ele><time>2026-04-18T10:48:34.014Z</time></trkpt><trkpt lat="42.1128577" lon="11.9323103"><ele>424.6</ele><time>2026-04-18T10:48:35.016Z</time></trkpt><trkpt lat="42.1129149" lon="11.9323636"><ele>427.0</ele><time>2026-04-18T10:48:36.014Z</time></trkpt><trkpt lat="42.1129848" lon="11.9324649"><ele>426.33333333333337</ele><time>2026-04-18T10:48:38.015Z</time></trkpt><trkpt lat="42.1130062" lon="11.9326339"><ele>425.6666666666667</ele><time>2026-04-18T10:48:40.015Z</time></trkpt><trkpt lat="42.1129852" lon="11.9327419"><ele>425.0</ele><time>2026-04-18T10:48:41.014Z</time></trkpt><trkpt lat="42.112955" lon="11.9328443"><ele>424.33333333333337</ele><time>2026-04-18T10:48:42.014Z</time></trkpt><trkpt lat="42.1129324" lon="11.9329395"><ele>423.6666666666667</ele><time>2026-04-18T10:48:43.014Z</time></trkpt><trkpt lat="42.1129183" lon="11.9330347"><ele>423.0</ele><time>2026-04-18T10:48:44.015Z</time></trkpt><trkpt lat="42.1129009" lon="11.9331258"><ele>423.0</ele><time>2026-04-18T10:48:45.015Z</time></trkpt><trkpt lat="42.1128774" lon="11.9332253"><ele>423.0</ele><time>2026-04-18T10:48:46.014Z</time></trkpt><trkpt lat="42.1128509" lon="11.9333584"><ele>423.0</ele><time>2026-04-18T10:48:47.014Z</time></trkpt><trkpt lat="42.1128219" lon="11.9335179"><ele>423.0</ele><time>2026-04-18T10:48:48.014Z</time></trkpt><trkpt lat="42.1127877" lon="11.9336748"><ele>423.0</ele><time>2026-04-18T10:48:49.015Z</time></trkpt><trkpt lat="42.112752" lon="11.9338277"><ele>423.33333333333337</ele><time>2026-04-18T10:48:50.014Z</time></trkpt><trkpt lat="42.1127149" lon="11.9340142"><ele>423.6666666666667</ele><time>2026-04-18T10:48:51.014Z</time></trkpt><trkpt lat="42.1126779" lon="11.9342255"><ele>424.0</ele><time>2026-04-18T10:48:52.015Z</time></trkpt><trkpt lat="42.1126088" lon="11.9345945"><ele>422.33333333333337</ele><time>2026-04-18T10:48:54.014Z</time></trkpt><trkpt lat="42.1125723" lon="11.9347859"><ele>420.66666666666663</ele><time>2026-04-18T10:48:55.014Z</time></trkpt><trkpt lat="42.1125378" lon="11.9349928"><ele>419.0</ele><time>2026-04-18T10:48:56.015Z</time></trkpt><trkpt lat="42.1125066" lon="11.9352041"><ele>417.3333333333333</ele><time>2026-04-18T10:48:57.014Z</time></trkpt><trkpt lat="42.1124734" lon="11.9354094"><ele>415.66666666666663</ele><time>2026-04-18T10:48:58.014Z</time></trkpt><trkpt lat="42.1124345" lon="11.9356405"><ele>414.0</ele><time>2026-04-18T10:48:59.014Z</time></trkpt><trkpt lat="42.1123895" lon="11.9358898"><ele>409.33333333333337</ele><time>2026-04-18T10:49:00.014Z</time></trkpt><trkpt lat="42.112349" lon="11.9361223"><ele>404.6666666666667</ele><time>2026-04-18T10:49:01.014Z</time></trkpt><trkpt lat="42.1123138" lon="11.9363449"><ele>400.0</ele><time>2026-04-18T10:49:02.014Z</time></trkpt><trkpt lat="42.1122821" lon="11.9365531"><ele>399.6666666666667</ele><time>2026-04-18T10:49:03.014Z</time></trkpt><trkpt lat="42.1122387" lon="11.9367671"><ele>399.33333333333337</ele><time>2026-04-18T10:49:04.014Z</time></trkpt><trkpt lat="42.1121991" lon="11.9369792"><ele>399.0</ele><time>2026-04-18T10:49:05.014Z</time></trkpt><trkpt lat="42.1121743" lon="11.937177"><ele>399.0</ele><time>2026-04-18T10:49:06.015Z</time></trkpt><trkpt lat="42.1121691" lon="11.9373931"><ele>399.0</ele><time>2026-04-18T10:49:07.015Z</time></trkpt><trkpt lat="42.1121801" lon="11.9376184"><ele>399.0</ele><time>2026-04-18T10:49:08.015Z</time></trkpt><trkpt lat="42.1122052" lon="11.9378294"><ele>398.5</ele><time>2026-04-18T10:49:09.015Z</time></trkpt><trkpt lat="42.112242" lon="11.9380187"><ele>398.0</ele><time>2026-04-18T10:49:10.015Z</time></trkpt><trkpt lat="42.1122725" lon="11.9381761"><ele>397.5</ele><time>2026-04-18T10:49:11.014Z</time></trkpt><trkpt lat="42.1123034" lon="11.9383178"><ele>397.0</ele><time>2026-04-18T10:49:12.014Z</time></trkpt><trkpt lat="42.1123436" lon="11.9384484"><ele>398.0</ele><time>2026-04-18T10:49:13.014Z</time></trkpt><trkpt lat="42.1124703" lon="11.9386664"><ele>399.0</ele><time>2026-04-18T10:49:15.015Z</time></trkpt><trkpt lat="42.1125763" lon="11.938756"><ele>400.0</ele><time>2026-04-18T10:49:16.015Z</time></trkpt><trkpt lat="42.1126917" lon="11.9388454"><ele>400.0</ele><time>2026-04-18T10:49:17.014Z</time></trkpt><trkpt lat="42.1128151" lon="11.9389318"><ele>400.0</ele><time>2026-04-18T10:49:18.014Z</time></trkpt><trkpt lat="42.1129482" lon="11.9390146"><ele>400.0</ele><time>2026-04-18T10:49:19.014Z</time></trkpt><trkpt lat="42.113072" lon="11.9390966"><ele>400.0</ele><time>2026-04-18T10:49:20.015Z</time></trkpt><trkpt lat="42.113179" lon="11.9391809"><ele>399.2</ele><time>2026-04-18T10:49:21.015Z</time></trkpt><trkpt lat="42.1132767" lon="11.9392602"><ele>398.4</ele><time>2026-04-18T10:49:22.014Z</time></trkpt><trkpt lat="42.113376" lon="11.939325"><ele>397.6</ele><time>2026-04-18T10:49:23.014Z</time></trkpt><trkpt lat="42.1134752" lon="11.939377"><ele>396.8</ele><time>2026-04-18T10:49:24.014Z</time></trkpt><trkpt lat="42.1135792" lon="11.9394113"><ele>396.0</ele><time>2026-04-18T10:49:25.015Z</time></trkpt><trkpt lat="42.1136824" lon="11.9394222"><ele>396.0</ele><time>2026-04-18T10:49:26.015Z</time></trkpt><trkpt lat="42.1137762" lon="11.9394228"><ele>396.0</ele><time>2026-04-18T10:49:27.014Z</time></trkpt><trkpt lat="42.1138541" lon="11.9394367"><ele>396.0</ele><time>2026-04-18T10:49:28.014Z</time></trkpt><trkpt lat="42.1139196" lon="11.9394842"><ele>396.0</ele><time>2026-04-18T10:49:29.014Z</time></trkpt><trkpt lat="42.1139631" lon="11.9395581"><ele>396.0</ele><time>2026-04-18T10:49:30.014Z</time></trkpt><trkpt lat="42.1140011" lon="11.9396822"><ele>396.0</ele><time>2026-04-18T10:49:31.014Z</time></trkpt><trkpt lat="42.1140446" lon="11.9398415"><ele>398.25</ele><time>2026-04-18T10:49:32.014Z</time></trkpt><trkpt lat="42.1140798" lon="11.9399947"><ele>400.5</ele><time>2026-04-18T10:49:33.014Z</time></trkpt><trkpt lat="42.1141036" lon="11.9401516"><ele>402.75</ele><time>2026-04-18T10:49:34.014Z</time></trkpt><trkpt lat="42.1141724" lon="11.9403906"><ele>405.0</ele><time>2026-04-18T10:49:36.015Z</time></trkpt><trkpt lat="42.1142141" lon="11.9404712"><ele>405.0</ele><time>2026-04-18T10:49:37.015Z</time></trkpt><trkpt lat="42.1142699" lon="11.9406034"><ele>405.0</ele><time>2026-04-18T10:49:39.014Z</time></trkpt><trkpt lat="42.1142928" lon="11.9407016"><ele>405.0</ele><time>2026-04-18T10:49:40.014Z</time></trkpt><trkpt lat="42.1143324" lon="11.9408223"><ele>405.0</ele><time>2026-04-18T10:49:41.014Z</time></trkpt><trkpt lat="42.1143679" lon="11.940953"><ele>405.0</ele><time>2026-04-18T10:49:42.014Z</time></trkpt><trkpt lat="42.1143873" lon="11.9410881"><ele>404.75</ele><time>2026-04-18T10:49:43.014Z</time></trkpt><trkpt lat="42.1144023" lon="11.9412413"><ele>404.5</ele><time>2026-04-18T10:49:44.015Z</time></trkpt><trkpt lat="42.1144123" lon="11.9414331"><ele>404.25</ele><time>2026-04-18T10:49:45.015Z</time></trkpt><trkpt lat="42.1144151" lon="11.9416221"><ele>404.0</ele><time>2026-04-18T10:49:46.014Z</time></trkpt><trkpt lat="42.1144113" lon="11.9417551"><ele>404.3333333333333</ele><time>2026-04-18T10:49:47.015Z</time></trkpt><trkpt lat="42.1143924" lon="11.9418515"><ele>404.66666666666663</ele><time>2026-04-18T10:49:48.014Z</time></trkpt><trkpt lat="42.11435" lon="11.9419927"><ele>405.0</ele><time>2026-04-18T10:49:50.014Z</time></trkpt><trkpt lat="42.1143533" lon="11.9421172"><ele>405.33333333333337</ele><time>2026-04-18T10:49:52.014Z</time></trkpt><trkpt lat="42.1143625" lon="11.9422327"><ele>405.6666666666667</ele><time>2026-04-18T10:49:54.014Z</time></trkpt><trkpt lat="42.1143657" lon="11.94234"><ele>406.0</ele><time>2026-04-18T10:49:56.014Z</time></trkpt><trkpt lat="42.1144653" lon="11.9425007"><ele>404.6</ele><time>2026-04-18T10:50:03.015Z</time></trkpt><trkpt lat="42.1145492" lon="11.9425781"><ele>403.20000000000005</ele><time>2026-04-18T10:50:04.015Z</time></trkpt><trkpt lat="42.114629" lon="11.9426322"><ele>401.79999999999995</ele><time>2026-04-18T10:50:05.014Z</time></trkpt><trkpt lat="42.1146958" lon="11.9426564"><ele>400.4</ele><time>2026-04-18T10:50:06.014Z</time></trkpt><trkpt lat="42.1148021" lon="11.9426697"><ele>399.0</ele><time>2026-04-18T10:50:08.014Z</time></trkpt><trkpt lat="42.1148689" lon="11.9427707"><ele>399.0</ele><time>2026-04-18T10:50:10.014Z</time></trkpt><trkpt lat="42.1148518" lon="11.9429201"><ele>399.0</ele><time>2026-04-18T10:50:12.014Z</time></trkpt><trkpt lat="42.1148208" lon="11.9430042"><ele>399.0</ele><time>2026-04-18T10:50:13.014Z</time></trkpt><trkpt lat="42.114795" lon="11.9430896"><ele>399.0</ele><time>2026-04-18T10:50:14.015Z</time></trkpt><trkpt lat="42.1147851" lon="11.9431745"><ele>399.0</ele><time>2026-04-18T10:50:15.014Z</time></trkpt><trkpt lat="42.1147839" lon="11.9432611"><ele>399.0</ele><time>2026-04-18T10:50:16.014Z</time></trkpt><trkpt lat="42.1147819" lon="11.9433473"><ele>399.0</ele><time>2026-04-18T10:50:17.015Z</time></trkpt><trkpt lat="42.1147451" lon="11.943528"><ele>396.6</ele><time>2026-04-18T10:50:19.015Z</time></trkpt><trkpt lat="42.1147121" lon="11.9436044"><ele>394.2</ele><time>2026-04-18T10:50:20.014Z</time></trkpt><trkpt lat="42.1146298" lon="11.9437211"><ele>391.8</ele><time>2026-04-18T10:50:22.014Z</time></trkpt><trkpt lat="42.1145816" lon="11.9438588"><ele>389.40000000000003</ele><time>2026-04-18T10:50:24.015Z</time></trkpt><trkpt lat="42.1145671" lon="11.9440239"><ele>387.0</ele><time>2026-04-18T10:50:26.014Z</time></trkpt><trkpt lat="42.1145794" lon="11.9441133"><ele>387.0</ele><time>2026-04-18T10:50:27.014Z</time></trkpt><trkpt lat="42.1145822" lon="11.9442128"><ele>387.0</ele><time>2026-04-18T10:50:28.014Z</time></trkpt><trkpt lat="42.1145766" lon="11.9443217"><ele>387.0</ele><time>2026-04-18T10:50:29.014Z</time></trkpt><trkpt lat="42.1145816" lon="11.9444243"><ele>387.0</ele><time>2026-04-18T10:50:30.014Z</time></trkpt><trkpt lat="42.1145831" lon="11.9445341"><ele>387.0</ele><time>2026-04-18T10:50:31.014Z</time></trkpt><trkpt lat="42.1145735" lon="11.9446425"><ele>387.0</ele><time>2026-04-18T10:50:32.016Z</time></trkpt><trkpt lat="42.1145537" lon="11.9447371"><ele>384.40000000000003</ele><time>2026-04-18T10:50:33.014Z</time></trkpt><trkpt lat="42.1145522" lon="11.9448677"><ele>381.8</ele><time>2026-04-18T10:50:35.014Z</time></trkpt><trkpt lat="42.1146179" lon="11.9449218"><ele>379.2</ele><time>2026-04-18T10:50:37.014Z</time></trkpt><trkpt lat="42.1146791" lon="11.9448691"><ele>376.6</ele><time>2026-04-18T10:50:39.014Z</time></trkpt><trkpt lat="42.1148207" lon="11.9449027"><ele>374.0</ele><time>2026-04-18T10:50:45.015Z</time></trkpt><trkpt lat="42.1147954" lon="11.9450374"><ele>372.1666666666667</ele><time>2026-04-18T10:50:48.014Z</time></trkpt><trkpt lat="42.1147431" lon="11.9451981"><ele>370.33333333333337</ele><time>2026-04-18T10:50:50.015Z</time></trkpt><trkpt lat="42.1147381" lon="11.9452871"><ele>368.5</ele><time>2026-04-18T10:50:51.015Z</time></trkpt><trkpt lat="42.1147212" lon="11.945376"><ele>366.6666666666667</ele><time>2026-04-18T10:50:52.015Z</time></trkpt><trkpt lat="42.1147178" lon="11.9454935"><ele>364.8333333333333</ele><time>2026-04-18T10:50:53.014Z</time></trkpt><trkpt lat="42.1147106" lon="11.945622"><ele>363.0</ele><time>2026-04-18T10:50:54.014Z</time></trkpt><trkpt lat="42.1146906" lon="11.9457463"><ele>363.0</ele><time>2026-04-18T10:50:55.014Z</time></trkpt><trkpt lat="42.1146752" lon="11.9458551"><ele>363.0</ele><time>2026-04-18T10:50:56.014Z</time></trkpt><trkpt lat="42.1146647" lon="11.9460126"><ele>363.0</ele><time>2026-04-18T10:50:58.014Z</time></trkpt><trkpt lat="42.1146727" lon="11.9461953"><ele>363.0</ele><time>2026-04-18T10:51:00.014Z</time></trkpt><trkpt lat="42.1147266" lon="11.9464073"><ele>362.1666666666667</ele><time>2026-04-18T10:51:02.014Z</time></trkpt><trkpt lat="42.1147556" lon="11.9465092"><ele>361.3333333333333</ele><time>2026-04-18T10:51:03.016Z</time></trkpt><trkpt lat="42.1147909" lon="11.9466181"><ele>360.5</ele><time>2026-04-18T10:51:04.015Z</time></trkpt><trkpt lat="42.1148334" lon="11.9467318"><ele>359.66666666666663</ele><time>2026-04-18T10:51:05.013Z</time></trkpt><trkpt lat="42.1148823" lon="11.9468383"><ele>358.8333333333333</ele><time>2026-04-18T10:51:06.014Z</time></trkpt><trkpt lat="42.1149327" lon="11.946917"><ele>358.0</ele><time>2026-04-18T10:51:07.014Z</time></trkpt><trkpt lat="42.1149776" lon="11.9469882"><ele>359.8333333333333</ele><time>2026-04-18T10:51:08.014Z</time></trkpt><trkpt lat="42.1150192" lon="11.9470728"><ele>361.66666666666663</ele><time>2026-04-18T10:51:09.015Z</time></trkpt><trkpt lat="42.1150399" lon="11.9471782"><ele>363.5</ele><time>2026-04-18T10:51:10.014Z</time></trkpt><trkpt lat="42.1150527" lon="11.947283"><ele>365.3333333333333</ele><time>2026-04-18T10:51:11.014Z</time></trkpt><trkpt lat="42.1150809" lon="11.9473787"><ele>367.1666666666667</ele><time>2026-04-18T10:51:12.014Z</time></trkpt><trkpt lat="42.1151331" lon="11.9474801"><ele>369.0</ele><time>2026-04-18T10:51:13.015Z</time></trkpt><trkpt lat="42.1151956" lon="11.9475782"><ele>369.0</ele><time>2026-04-18T10:51:14.014Z</time></trkpt><trkpt lat="42.115244" lon="11.9476729"><ele>369.0</ele><time>2026-04-18T10:51:15.013Z</time></trkpt><trkpt lat="42.1152934" lon="11.947792"><ele>369.0</ele><time>2026-04-18T10:51:16.014Z</time></trkpt><trkpt lat="42.115337" lon="11.9479434"><ele>369.0</ele><time>2026-04-18T10:51:17.014Z</time></trkpt><trkpt lat="42.1153803" lon="11.9480846"><ele>369.0</ele><time>2026-04-18T10:51:18.014Z</time></trkpt><trkpt lat="42.1154276" lon="11.9482004"><ele>369.0</ele><time>2026-04-18T10:51:19.014Z</time></trkpt><trkpt lat="42.1154813" lon="11.9483042"><ele>369.0</ele><time>2026-04-18T10:51:20.014Z</time></trkpt><trkpt lat="42.1155272" lon="11.9484021"><ele>369.0</ele><time>2026-04-18T10:51:21.014Z</time></trkpt><trkpt lat="42.1155951" lon="11.9486118"><ele>369.0</ele><time>2026-04-18T10:51:23.015Z</time></trkpt><trkpt lat="42.1156214" lon="11.9487216"><ele>369.0</ele><time>2026-04-18T10:51:24.014Z</time></trkpt><trkpt lat="42.1156516" lon="11.9488151"><ele>368.0</ele><time>2026-04-18T10:51:25.014Z</time></trkpt><trkpt lat="42.1156804" lon="11.9489179"><ele>367.0</ele><time>2026-04-18T10:51:26.013Z</time></trkpt><trkpt lat="42.1156895" lon="11.9490253"><ele>366.0</ele><time>2026-04-18T10:51:27.014Z</time></trkpt><trkpt lat="42.1156927" lon="11.9491592"><ele>365.0</ele><time>2026-04-18T10:51:28.013Z</time></trkpt><trkpt lat="42.1156909" lon="11.9492985"><ele>364.0</ele><time>2026-04-18T10:51:29.015Z</time></trkpt><trkpt lat="42.1156722" lon="11.9494386"><ele>362.0</ele><time>2026-04-18T10:51:30.013Z</time></trkpt><trkpt lat="42.1156436" lon="11.9495867"><ele>360.0</ele><time>2026-04-18T10:51:31.014Z</time></trkpt><trkpt lat="42.1156187" lon="11.949747"><ele>358.0</ele><time>2026-04-18T10:51:32.014Z</time></trkpt><trkpt lat="42.1155916" lon="11.9498949"><ele>356.0</ele><time>2026-04-18T10:51:33.014Z</time></trkpt><trkpt lat="42.1155629" lon="11.9500206"><ele>354.0</ele><time>2026-04-18T10:51:34.014Z</time></trkpt><trkpt lat="42.1155535" lon="11.950118"><ele>353.0</ele><time>2026-04-18T10:51:35.014Z</time></trkpt><trkpt lat="42.1156067" lon="11.9502357"><ele>352.0</ele><time>2026-04-18T10:51:37.014Z</time></trkpt><trkpt lat="42.1157479" lon="11.9503162"><ele>351.0</ele><time>2026-04-18T10:51:39.015Z</time></trkpt><trkpt lat="42.115846" lon="11.9503592"><ele>350.0</ele><time>2026-04-18T10:51:40.013Z</time></trkpt><trkpt lat="42.1159364" lon="11.9504016"><ele>352.25</ele><time>2026-04-18T10:51:41.015Z</time></trkpt><trkpt lat="42.1160314" lon="11.950438"><ele>354.5</ele><time>2026-04-18T10:51:42.014Z</time></trkpt><trkpt lat="42.1162222" lon="11.9504869"><ele>356.75</ele><time>2026-04-18T10:51:44.014Z</time></trkpt><trkpt lat="42.1163179" lon="11.9504885"><ele>359.0</ele><time>2026-04-18T10:51:45.013Z</time></trkpt><trkpt lat="42.1164209" lon="11.9504912"><ele>359.0</ele><time>2026-04-18T10:51:46.014Z</time></trkpt><trkpt lat="42.1165162" lon="11.9505037"><ele>359.0</ele><time>2026-04-18T10:51:47.014Z</time></trkpt><trkpt lat="42.116623" lon="11.9505082"><ele>359.0</ele><time>2026-04-18T10:51:48.014Z</time></trkpt><trkpt lat="42.1167436" lon="11.9505161"><ele>359.0</ele><time>2026-04-18T10:51:49.014Z</time></trkpt><trkpt lat="42.11685" lon="11.950556"><ele>359.0</ele><time>2026-04-18T10:51:50.015Z</time></trkpt><trkpt lat="42.1169449" lon="11.9505919"><ele>359.2</ele><time>2026-04-18T10:51:51.014Z</time></trkpt><trkpt lat="42.1170415" lon="11.9506079"><ele>359.4</ele><time>2026-04-18T10:51:52.014Z</time></trkpt><trkpt lat="42.1171345" lon="11.9506076"><ele>359.6</ele><time>2026-04-18T10:51:53.014Z</time></trkpt><trkpt lat="42.1172202" lon="11.950614"><ele>359.8</ele><time>2026-04-18T10:51:54.014Z</time></trkpt><trkpt lat="42.1173052" lon="11.9506592"><ele>360.0</ele><time>2026-04-18T10:51:55.015Z</time></trkpt><trkpt lat="42.1173899" lon="11.9506977"><ele>359.8</ele><time>2026-04-18T10:51:56.014Z</time></trkpt><trkpt lat="42.1174637" lon="11.9507127"><ele>359.6</ele><time>2026-04-18T10:51:57.015Z</time></trkpt><trkpt lat="42.1175295" lon="11.9507343"><ele>359.4</ele><time>2026-04-18T10:51:58.014Z</time></trkpt><trkpt lat="42.1176101" lon="11.9508289"><ele>359.2</ele><time>2026-04-18T10:52:00.016Z</time></trkpt><trkpt lat="42.1176379" lon="11.9509428"><ele>359.0</ele><time>2026-04-18T10:52:02.013Z</time></trkpt><trkpt lat="42.1176056" lon="11.9511429"><ele>359.0</ele><time>2026-04-18T10:52:04.014Z</time></trkpt><trkpt lat="42.1175967" lon="11.951257"><ele>359.0</ele><time>2026-04-18T10:52:05.015Z</time></trkpt><trkpt lat="42.1176032" lon="11.9513639"><ele>359.0</ele><time>2026-04-18T10:52:06.014Z</time></trkpt><trkpt lat="42.117625" lon="11.951453"><ele>359.0</ele><time>2026-04-18T10:52:07.014Z</time></trkpt><trkpt lat="42.117664" lon="11.9515209"><ele>359.0</ele><time>2026-04-18T10:52:08.015Z</time></trkpt><trkpt lat="42.117814" lon="11.9516059"><ele>359.0</ele><time>2026-04-18T10:52:10.014Z</time></trkpt><trkpt lat="42.1179358" lon="11.9516557"><ele>359.0</ele><time>2026-04-18T10:52:11.014Z</time></trkpt><trkpt lat="42.1180504" lon="11.9516936"><ele>359.0</ele><time>2026-04-18T10:52:12.013Z</time></trkpt><trkpt lat="42.1181638" lon="11.9517115"><ele>359.0</ele><time>2026-04-18T10:52:13.014Z</time></trkpt><trkpt lat="42.1182627" lon="11.9517319"><ele>359.1666666666667</ele><time>2026-04-18T10:52:14.014Z</time></trkpt><trkpt lat="42.1183463" lon="11.9517727"><ele>359.33333333333337</ele><time>2026-04-18T10:52:15.014Z</time></trkpt><trkpt lat="42.118422" lon="11.9518271"><ele>359.5</ele><time>2026-04-18T10:52:16.014Z</time></trkpt><trkpt lat="42.1184871" lon="11.9518855"><ele>359.6666666666667</ele><time>2026-04-18T10:52:17.014Z</time></trkpt><trkpt lat="42.1185574" lon="11.9519397"><ele>359.8333333333333</ele><time>2026-04-18T10:52:18.014Z</time></trkpt><trkpt lat="42.1186301" lon="11.9520022"><ele>360.0</ele><time>2026-04-18T10:52:19.014Z</time></trkpt><trkpt lat="42.1187052" lon="11.9520552"><ele>360.0</ele><time>2026-04-18T10:52:20.015Z</time></trkpt><trkpt lat="42.1187763" lon="11.9521172"><ele>360.0</ele><time>2026-04-18T10:52:21.014Z</time></trkpt><trkpt lat="42.1188545" lon="11.9522008"><ele>360.0</ele><time>2026-04-18T10:52:22.014Z</time></trkpt><trkpt lat="42.118929" lon="11.9523096"><ele>360.0</ele><time>2026-04-18T10:52:23.015Z</time></trkpt><trkpt lat="42.1190396" lon="11.9525263"><ele>360.0</ele><time>2026-04-18T10:52:25.013Z</time></trkpt><trkpt lat="42.1190932" lon="11.9526339"><ele>360.0</ele><time>2026-04-18T10:52:26.014Z</time></trkpt><trkpt lat="42.119131" lon="11.9527286"><ele>360.0</ele><time>2026-04-18T10:52:27.014Z</time></trkpt><trkpt lat="42.1191478" lon="11.9528168"><ele>360.0</ele><time>2026-04-18T10:52:28.014Z</time></trkpt><trkpt lat="42.1191347" lon="11.9529585"><ele>360.0</ele><time>2026-04-18T10:52:30.014Z</time></trkpt><trkpt lat="42.1190849" lon="11.9530122"><ele>360.0</ele><time>2026-04-18T10:52:31.013Z</time></trkpt><trkpt lat="42.1190188" lon="11.9530737"><ele>360.0</ele><time>2026-04-18T10:52:32.014Z</time></trkpt><trkpt lat="42.1189483" lon="11.9531246"><ele>360.0</ele><time>2026-04-18T10:52:33.013Z</time></trkpt><trkpt lat="42.1188715" lon="11.953161"><ele>360.0</ele><time>2026-04-18T10:52:34.015Z</time></trkpt><trkpt lat="42.1187962" lon="11.9531909"><ele>360.0</ele><time>2026-04-18T10:52:35.013Z</time></trkpt><trkpt lat="42.1187296" lon="11.9532085"><ele>360.0</ele><time>2026-04-18T10:52:36.013Z</time></trkpt><trkpt lat="42.1186446" lon="11.9532234"><ele>360.0</ele><time>2026-04-18T10:52:37.014Z</time></trkpt><trkpt lat="42.1185516" lon="11.9532525"><ele>360.0</ele><time>2026-04-18T10:52:38.013Z</time></trkpt><trkpt lat="42.1184685" lon="11.9532937"><ele>360.0</ele><time>2026-04-18T10:52:39.013Z</time></trkpt><trkpt lat="42.1184041" lon="11.9533489"><ele>360.0</ele><time>2026-04-18T10:52:40.015Z</time></trkpt><trkpt lat="42.1183395" lon="11.9534109"><ele>360.0</ele><time>2026-04-18T10:52:41.014Z</time></trkpt><trkpt lat="42.1182776" lon="11.9534727"><ele>360.0</ele><time>2026-04-18T10:52:42.014Z</time></trkpt><trkpt lat="42.1182259" lon="11.9535551"><ele>360.0</ele><time>2026-04-18T10:52:43.014Z</time></trkpt><trkpt lat="42.1181946" lon="11.9536486"><ele>360.75</ele><time>2026-04-18T10:52:44.014Z</time></trkpt><trkpt lat="42.1181948" lon="11.9538792"><ele>361.5</ele><time>2026-04-18T10:52:46.014Z</time></trkpt><trkpt lat="42.1181809" lon="11.9540072"><ele>362.25</ele><time>2026-04-18T10:52:47.014Z</time></trkpt><trkpt lat="42.1181715" lon="11.9541609"><ele>363.0</ele><time>2026-04-18T10:52:48.014Z</time></trkpt><trkpt lat="42.1181715" lon="11.9543091"><ele>363.4</ele><time>2026-04-18T10:52:49.014Z</time></trkpt><trkpt lat="42.118181" lon="11.9544457"><ele>363.79999999999995</ele><time>2026-04-18T10:52:50.014Z</time></trkpt><trkpt lat="42.1181937" lon="11.9545893"><ele>364.2</ele><time>2026-04-18T10:52:51.014Z</time></trkpt><trkpt lat="42.1182117" lon="11.9547366"><ele>364.6</ele><time>2026-04-18T10:52:52.014Z</time></trkpt><trkpt lat="42.1182304" lon="11.9548574"><ele>365.0</ele><time>2026-04-18T10:52:53.014Z</time></trkpt><trkpt lat="42.1182481" lon="11.9549401"><ele>364.0</ele><time>2026-04-18T10:52:54.013Z</time></trkpt><trkpt lat="42.1182962" lon="11.9550766"><ele>363.0</ele><time>2026-04-18T10:52:56.014Z</time></trkpt><trkpt lat="42.1183694" lon="11.9551775"><ele>362.0</ele><time>2026-04-18T10:52:58.015Z</time></trkpt><trkpt lat="42.1184389" lon="11.9552498"><ele>361.0</ele><time>2026-04-18T10:53:00.014Z</time></trkpt><trkpt lat="42.1185078" lon="11.9553043"><ele>360.0</ele><time>2026-04-18T10:53:02.015Z</time></trkpt><trkpt lat="42.1185661" lon="11.9553418"><ele>359.0</ele><time>2026-04-18T10:53:04.014Z</time></trkpt><trkpt lat="42.1186257" lon="11.955408"><ele>359.0</ele><time>2026-04-18T10:53:25.013Z</time></trkpt><trkpt lat="42.1187515" lon="11.9554706"><ele>359.0</ele><time>2026-04-18T10:54:24.014Z</time></trkpt><trkpt lat="42.118892" lon="11.9555897"><ele>359.0</ele><time>2026-04-18T10:54:38.013Z</time></trkpt><trkpt lat="42.1188246" lon="11.9556139"><ele>359.0</ele><time>2026-04-18T10:54:39.013Z</time></trkpt><trkpt lat="42.1188663" lon="11.9557166"><ele>359.0</ele><time>2026-04-18T10:54:42.013Z</time></trkpt><trkpt lat="42.1189632" lon="11.9557506"><ele>359.0</ele><time>2026-04-18T10:54:43.013Z</time></trkpt><trkpt lat="42.1190746" lon="11.9557881"><ele>359.0</ele><time>2026-04-18T10:54:44.014Z</time></trkpt><trkpt lat="42.1191353" lon="11.955838"><ele>359.0</ele><time>2026-04-18T10:54:45.013Z</time></trkpt><trkpt lat="42.1192575" lon="11.9559427"><ele>359.0</ele><time>2026-04-18T10:54:47.013Z</time></trkpt><trkpt lat="42.1193119" lon="11.9559878"><ele>357.2</ele><time>2026-04-18T10:54:48.016Z</time></trkpt><trkpt lat="42.1194314" lon="11.9560445"><ele>355.4</ele><time>2026-04-18T10:54:50.013Z</time></trkpt><trkpt lat="42.1195358" lon="11.9560938"><ele>353.6</ele><time>2026-04-18T10:54:52.013Z</time></trkpt><trkpt lat="42.119599" lon="11.956148"><ele>351.8</ele><time>2026-04-18T10:54:54.014Z</time></trkpt><trkpt lat="42.1196766" lon="11.9562084"><ele>350.0</ele><time>2026-04-18T10:54:56.015Z</time></trkpt><trkpt lat="42.1197856" lon="11.9562905"><ele>350.0</ele><time>2026-04-18T10:54:58.013Z</time></trkpt><trkpt lat="42.1198447" lon="11.9563362"><ele>350.0</ele><time>2026-04-18T10:54:59.013Z</time></trkpt><trkpt lat="42.1199095" lon="11.9563788"><ele>350.0</ele><time>2026-04-18T10:55:00.013Z</time></trkpt><trkpt lat="42.1199705" lon="11.9564233"><ele>350.0</ele><time>2026-04-18T10:55:01.014Z</time></trkpt><trkpt lat="42.1200321" lon="11.9564481"><ele>350.0</ele><time>2026-04-18T10:55:02.014Z</time></trkpt><trkpt lat="42.1201028" lon="11.9564879"><ele>350.0</ele><time>2026-04-18T10:55:03.014Z</time></trkpt><trkpt lat="42.1201807" lon="11.9565359"><ele>350.0</ele><time>2026-04-18T10:55:04.013Z</time></trkpt><trkpt lat="42.1202512" lon="11.9565599"><ele>347.6</ele><time>2026-04-18T10:55:05.013Z</time></trkpt><trkpt lat="42.1203999" lon="11.956584"><ele>345.2</ele><time>2026-04-18T10:55:07.014Z</time></trkpt><trkpt lat="42.1204634" lon="11.956607"><ele>342.79999999999995</ele><time>2026-04-18T10:55:08.013Z</time></trkpt><trkpt lat="42.1205275" lon="11.9566502"><ele>340.4</ele><time>2026-04-18T10:55:09.013Z</time></trkpt><trkpt lat="42.1206052" lon="11.9567574"><ele>338.0</ele><time>2026-04-18T10:55:11.014Z</time></trkpt><trkpt lat="42.1206243" lon="11.9568668"><ele>337.4</ele><time>2026-04-18T10:55:13.013Z</time></trkpt><trkpt lat="42.1205791" lon="11.9569731"><ele>336.79999999999995</ele><time>2026-04-18T10:55:15.013Z</time></trkpt><trkpt lat="42.1205252" lon="11.9570656"><ele>336.2</ele><time>2026-04-18T10:55:17.013Z</time></trkpt><trkpt lat="42.1205021" lon="11.9571881"><ele>335.6</ele><time>2026-04-18T10:55:19.014Z</time></trkpt><trkpt lat="42.1205001" lon="11.9573286"><ele>335.0</ele><time>2026-04-18T10:55:21.014Z</time></trkpt><trkpt lat="42.1204911" lon="11.9575075"><ele>335.0</ele><time>2026-04-18T10:55:23.014Z</time></trkpt><trkpt lat="42.1204788" lon="11.9576297"><ele>335.0</ele><time>2026-04-18T10:55:24.015Z</time></trkpt><trkpt lat="42.1204671" lon="11.9577715"><ele>335.0</ele><time>2026-04-18T10:55:25.014Z</time></trkpt><trkpt lat="42.1204557" lon="11.9579294"><ele>335.0</ele><time>2026-04-18T10:55:26.014Z</time></trkpt><trkpt lat="42.1204339" lon="11.9582337"><ele>335.0</ele><time>2026-04-18T10:55:28.013Z</time></trkpt><trkpt lat="42.1204349" lon="11.9583669"><ele>335.0</ele><time>2026-04-18T10:55:29.014Z</time></trkpt><trkpt lat="42.1204432" lon="11.9585019"><ele>335.0</ele><time>2026-04-18T10:55:30.013Z</time></trkpt><trkpt lat="42.120467" lon="11.9586324"><ele>335.0</ele><time>2026-04-18T10:55:31.013Z</time></trkpt><trkpt lat="42.1205127" lon="11.9587509"><ele>335.0</ele><time>2026-04-18T10:55:32.014Z</time></trkpt><trkpt lat="42.1205726" lon="11.958866"><ele>336.2</ele><time>2026-04-18T10:55:33.015Z</time></trkpt><trkpt lat="42.1206364" lon="11.9589872"><ele>337.4</ele><time>2026-04-18T10:55:34.014Z</time></trkpt><trkpt lat="42.1206848" lon="11.9591113"><ele>338.6</ele><time>2026-04-18T10:55:35.015Z</time></trkpt><trkpt lat="42.1207178" lon="11.9592321"><ele>339.8</ele><time>2026-04-18T10:55:36.014Z</time></trkpt><trkpt lat="42.1207246" lon="11.9593562"><ele>341.0</ele><time>2026-04-18T10:55:37.013Z</time></trkpt><trkpt lat="42.1207055" lon="11.9594851"><ele>341.4</ele><time>2026-04-18T10:55:38.013Z</time></trkpt><trkpt lat="42.1206701" lon="11.9596184"><ele>341.8</ele><time>2026-04-18T10:55:39.013Z</time></trkpt><trkpt lat="42.1206224" lon="11.9597482"><ele>342.2</ele><time>2026-04-18T10:55:40.015Z</time></trkpt><trkpt lat="42.1205717" lon="11.9598749"><ele>342.59999999999997</ele><time>2026-04-18T10:55:41.013Z</time></trkpt><trkpt lat="42.1205226" lon="11.960007"><ele>343.0</ele><time>2026-04-18T10:55:42.013Z</time></trkpt><trkpt lat="42.1205052" lon="11.9601498"><ele>340.75</ele><time>2026-04-18T10:55:43.014Z</time></trkpt><trkpt lat="42.1205348" lon="11.9602897"><ele>338.5</ele><time>2026-04-18T10:55:44.014Z</time></trkpt><trkpt lat="42.1205754" lon="11.9604382"><ele>336.25</ele><time>2026-04-18T10:55:45.013Z</time></trkpt><trkpt lat="42.1206162" lon="11.9605886"><ele>334.0</ele><time>2026-04-18T10:55:46.014Z</time></trkpt><trkpt lat="42.1206347" lon="11.960735"><ele>332.25</ele><time>2026-04-18T10:55:47.013Z</time></trkpt><trkpt lat="42.1205642" lon="11.9609771"><ele>330.5</ele><time>2026-04-18T10:55:49.014Z</time></trkpt><trkpt lat="42.1204846" lon="11.9610452"><ele>328.75</ele><time>2026-04-18T10:55:50.015Z</time></trkpt><trkpt lat="42.1203801" lon="11.9611033"><ele>327.0</ele><time>2026-04-18T10:55:51.013Z</time></trkpt><trkpt lat="42.1202586" lon="11.9611593"><ele>327.0</ele><time>2026-04-18T10:55:52.013Z</time></trkpt><trkpt lat="42.1201443" lon="11.9612101"><ele>327.0</ele><time>2026-04-18T10:55:53.015Z</time></trkpt><trkpt lat="42.1200564" lon="11.9612742"><ele>327.0</ele><time>2026-04-18T10:55:54.013Z</time></trkpt><trkpt lat="42.1200052" lon="11.9613703"><ele>327.0</ele><time>2026-04-18T10:55:55.013Z</time></trkpt><trkpt lat="42.1199876" lon="11.961483"><ele>327.0</ele><time>2026-04-18T10:55:56.013Z</time></trkpt><trkpt lat="42.1200038" lon="11.9616067"><ele>326.40000000000003</ele><time>2026-04-18T10:55:57.014Z</time></trkpt><trkpt lat="42.1200405" lon="11.9617369"><ele>325.8</ele><time>2026-04-18T10:55:58.014Z</time></trkpt><trkpt lat="42.1200857" lon="11.9618691"><ele>325.2</ele><time>2026-04-18T10:55:59.014Z</time></trkpt><trkpt lat="42.1201139" lon="11.9620177"><ele>324.6</ele><time>2026-04-18T10:56:00.013Z</time></trkpt><trkpt lat="42.1201023" lon="11.962158"><ele>324.0</ele><time>2026-04-18T10:56:01.013Z</time></trkpt><trkpt lat="42.1200566" lon="11.9622803"><ele>324.0</ele><time>2026-04-18T10:56:02.015Z</time></trkpt><trkpt lat="42.1199781" lon="11.9623856"><ele>324.0</ele><time>2026-04-18T10:56:03.015Z</time></trkpt><trkpt lat="42.1198733" lon="11.9624786"><ele>324.0</ele><time>2026-04-18T10:56:04.016Z</time></trkpt><trkpt lat="42.1197578" lon="11.9625791"><ele>324.0</ele><time>2026-04-18T10:56:05.014Z</time></trkpt><trkpt lat="42.1196604" lon="11.962693"><ele>341.0</ele><time>2026-04-18T10:56:06.013Z</time></trkpt><trkpt lat="42.1195948" lon="11.9628198"><ele>341.0</ele><time>2026-04-18T10:56:07.013Z</time></trkpt><trkpt lat="42.1195532" lon="11.9629536"><ele>341.0</ele><time>2026-04-18T10:56:08.015Z</time></trkpt></trkseg><trkseg><trkpt lat="42.1162384" lon="11.9752048"><ele>341.0</ele><time>2026-04-18T12:13:35.998Z</time></trkpt><trkpt lat="42.1162929" lon="11.9751614"><ele>341.0</ele><time>2026-04-18T12:13:39.998Z</time></trkpt><trkpt lat="42.1163572" lon="11.9750708"><ele>341.0</ele><time>2026-04-18T12:13:41.998Z</time></trkpt><trkpt lat="42.1164441" lon="11.9749364"><ele>341.0</ele><time>2026-04-18T12:13:43.996Z</time></trkpt><trkpt lat="42.11649" lon="11.9748721"><ele>341.0</ele><time>2026-04-18T12:13:44.998Z</time></trkpt><trkpt lat="42.1165605" lon="11.9747601"><ele>341.4</ele><time>2026-04-18T12:13:46.997Z</time></trkpt><trkpt lat="42.1165653" lon="11.9746229"><ele>341.8</ele><time>2026-04-18T12:13:48.998Z</time></trkpt><trkpt lat="42.1164907" lon="11.9745153"><ele>342.2</ele><time>2026-04-18T12:13:50.997Z</time></trkpt><trkpt lat="42.1164376" lon="11.9744692"><ele>342.59999999999997</ele><time>2026-04-18T12:13:51.997Z</time></trkpt><trkpt lat="42.1163356" lon="11.9743856"><ele>343.0</ele><time>2026-04-18T12:13:53.998Z</time></trkpt><trkpt lat="42.1162264" lon="11.9743185"><ele>343.0</ele><time>2026-04-18T12:13:55.996Z</time></trkpt><trkpt lat="42.1161088" lon="11.9742891"><ele>343.0</ele><time>2026-04-18T12:13:57.998Z</time></trkpt><trkpt lat="42.1160134" lon="11.9742705"><ele>343.0</ele><time>2026-04-18T12:13:59.997Z</time></trkpt><trkpt lat="42.1159439" lon="11.9741837"><ele>343.0</ele><time>2026-04-18T12:14:06.997Z</time></trkpt><trkpt lat="42.1158914" lon="11.9741258"><ele>343.0</ele><time>2026-04-18T12:14:30.996Z</time></trkpt><trkpt lat="42.1159393" lon="11.9740541"><ele>343.66666666666663</ele><time>2026-04-18T12:14:34.996Z</time></trkpt><trkpt lat="42.1159952" lon="11.9739603"><ele>344.3333333333333</ele><time>2026-04-18T12:14:36.996Z</time></trkpt><trkpt lat="42.1160572" lon="11.9738588"><ele>345.0</ele><time>2026-04-18T12:14:38.997Z</time></trkpt><trkpt lat="42.1161222" lon="11.9737393"><ele>345.6666666666667</ele><time>2026-04-18T12:14:40.996Z</time></trkpt><trkpt lat="42.116152" lon="11.9736628"><ele>346.33333333333337</ele><time>2026-04-18T12:14:41.997Z</time></trkpt><trkpt lat="42.1161837" lon="11.973581"><ele>347.0</ele><time>2026-04-18T12:14:42.997Z</time></trkpt><trkpt lat="42.116222" lon="11.9734895"><ele>347.0</ele><time>2026-04-18T12:14:43.997Z</time></trkpt><trkpt lat="42.1162638" lon="11.9733857"><ele>347.0</ele><time>2026-04-18T12:14:44.997Z</time></trkpt><trkpt lat="42.1163089" lon="11.9732747"><ele>347.0</ele><time>2026-04-18T12:14:45.997Z</time></trkpt><trkpt lat="42.1163604" lon="11.9731513"><ele>347.0</ele><time>2026-04-18T12:14:46.997Z</time></trkpt><trkpt lat="42.1164332" lon="11.9730357"><ele>347.0</ele><time>2026-04-18T12:14:47.997Z</time></trkpt><trkpt lat="42.1165244" lon="11.9729259"><ele>348.0</ele><time>2026-04-18T12:14:48.997Z</time></trkpt><trkpt lat="42.116629" lon="11.9728151"><ele>349.0</ele><time>2026-04-18T12:14:49.997Z</time></trkpt><trkpt lat="42.1167414" lon="11.9727076"><ele>350.0</ele><time>2026-04-18T12:14:50.997Z</time></trkpt><trkpt lat="42.1168596" lon="11.9726049"><ele>351.0</ele><time>2026-04-18T12:14:51.996Z</time></trkpt><trkpt lat="42.1169838" lon="11.9725012"><ele>351.0</ele><time>2026-04-18T12:14:52.997Z</time></trkpt><trkpt lat="42.117111" lon="11.9723954"><ele>351.0</ele><time>2026-04-18T12:14:53.996Z</time></trkpt><trkpt lat="42.1172371" lon="11.9722874"><ele>351.0</ele><time>2026-04-18T12:14:54.996Z</time></trkpt><trkpt lat="42.1173498" lon="11.9721803"><ele>351.0</ele><time>2026-04-18T12:14:55.997Z</time></trkpt><trkpt lat="42.1174627" lon="11.972077"><ele>351.75</ele><time>2026-04-18T12:14:56.996Z</time></trkpt><trkpt lat="42.1175678" lon="11.9719759"><ele>352.5</ele><time>2026-04-18T12:14:57.997Z</time></trkpt><trkpt lat="42.1176769" lon="11.9718764"><ele>353.25</ele><time>2026-04-18T12:14:58.997Z</time></trkpt><trkpt lat="42.117784" lon="11.9717744"><ele>354.0</ele><time>2026-04-18T12:14:59.997Z</time></trkpt><trkpt lat="42.1178891" lon="11.9716705"><ele>354.0</ele><time>2026-04-18T12:15:00.997Z</time></trkpt><trkpt lat="42.1180019" lon="11.9715725"><ele>354.0</ele><time>2026-04-18T12:15:01.997Z</time></trkpt><trkpt lat="42.1181238" lon="11.9714953"><ele>354.0</ele><time>2026-04-18T12:15:02.997Z</time></trkpt><trkpt lat="42.1182575" lon="11.9714248"><ele>354.0</ele><time>2026-04-18T12:15:03.997Z</time></trkpt><trkpt lat="42.1184012" lon="11.9713839"><ele>350.25</ele><time>2026-04-18T12:15:04.996Z</time></trkpt><trkpt lat="42.1185376" lon="11.9713506"><ele>346.5</ele><time>2026-04-18T12:15:05.996Z</time></trkpt><trkpt lat="42.1186683" lon="11.9713025"><ele>342.75</ele><time>2026-04-18T12:15:06.996Z</time></trkpt><trkpt lat="42.1187926" lon="11.9712295"><ele>339.0</ele><time>2026-04-18T12:15:07.996Z</time></trkpt><trkpt lat="42.1189217" lon="11.971142"><ele>339.0</ele><time>2026-04-18T12:15:08.998Z</time></trkpt><trkpt lat="42.1190384" lon="11.9710391"><ele>339.0</ele><time>2026-04-18T12:15:09.997Z</time></trkpt><trkpt lat="42.119139" lon="11.9709194"><ele>339.0</ele><time>2026-04-18T12:15:10.998Z</time></trkpt><trkpt lat="42.1192316" lon="11.9707741"><ele>339.0</ele><time>2026-04-18T12:15:11.996Z</time></trkpt><trkpt lat="42.1193095" lon="11.9705994"><ele>339.3333333333333</ele><time>2026-04-18T12:15:12.996Z</time></trkpt><trkpt lat="42.1193824" lon="11.9704226"><ele>339.66666666666663</ele><time>2026-04-18T12:15:13.996Z</time></trkpt><trkpt lat="42.1194594" lon="11.9702453"><ele>340.0</ele><time>2026-04-18T12:15:14.996Z</time></trkpt><trkpt lat="42.1195329" lon="11.970072"><ele>339.0</ele><time>2026-04-18T12:15:15.997Z</time></trkpt><trkpt lat="42.1196098" lon="11.9699089"><ele>338.0</ele><time>2026-04-18T12:15:16.997Z</time></trkpt><trkpt lat="42.1196969" lon="11.9697513"><ele>337.0</ele><time>2026-04-18T12:15:17.997Z</time></trkpt><trkpt lat="42.1197958" lon="11.9696043"><ele>336.0</ele><time>2026-04-18T12:15:18.997Z</time></trkpt><trkpt lat="42.1199077" lon="11.969464"><ele>336.0</ele><time>2026-04-18T12:15:19.996Z</time></trkpt><trkpt lat="42.1200278" lon="11.9693247"><ele>336.0</ele><time>2026-04-18T12:15:20.996Z</time></trkpt><trkpt lat="42.120154" lon="11.9691977"><ele>336.0</ele><time>2026-04-18T12:15:21.997Z</time></trkpt><trkpt lat="42.1202857" lon="11.9690704"><ele>339.5</ele><time>2026-04-18T12:15:22.997Z</time></trkpt><trkpt lat="42.1204141" lon="11.9689426"><ele>343.0</ele><time>2026-04-18T12:15:23.996Z</time></trkpt><trkpt lat="42.1205288" lon="11.9688201"><ele>346.5</ele><time>2026-04-18T12:15:24.996Z</time></trkpt><trkpt lat="42.1206296" lon="11.9687093"><ele>350.0</ele><time>2026-04-18T12:15:25.997Z</time></trkpt><trkpt lat="42.1207191" lon="11.9686002"><ele>349.0</ele><time>2026-04-18T12:15:26.996Z</time></trkpt><trkpt lat="42.1207852" lon="11.9684882"><ele>348.0</ele><time>2026-04-18T12:15:27.996Z</time></trkpt><trkpt lat="42.1208309" lon="11.9683555"><ele>347.0</ele><time>2026-04-18T12:15:28.996Z</time></trkpt><trkpt lat="42.1208533" lon="11.9682071"><ele>346.0</ele><time>2026-04-18T12:15:29.996Z</time></trkpt><trkpt lat="42.1208553" lon="11.9680414"><ele>346.0</ele><time>2026-04-18T12:15:30.996Z</time></trkpt><trkpt lat="42.1208482" lon="11.9678582"><ele>346.0</ele><time>2026-04-18T12:15:31.997Z</time></trkpt><trkpt lat="42.1208435" lon="11.9676631"><ele>346.0</ele><time>2026-04-18T12:15:32.997Z</time></trkpt><trkpt lat="42.1208405" lon="11.967467"><ele>346.0</ele><time>2026-04-18T12:15:33.997Z</time></trkpt><trkpt lat="42.1208418" lon="11.9672752"><ele>346.5</ele><time>2026-04-18T12:15:34.996Z</time></trkpt><trkpt lat="42.1208181" lon="11.9670939"><ele>347.0</ele><time>2026-04-18T12:15:35.997Z</time></trkpt><trkpt lat="42.1207754" lon="11.9669312"><ele>347.5</ele><time>2026-04-18T12:15:36.998Z</time></trkpt><trkpt lat="42.1207151" lon="11.9667726"><ele>348.0</ele><time>2026-04-18T12:15:37.997Z</time></trkpt><trkpt lat="42.1206357" lon="11.9666157"><ele>352.75</ele><time>2026-04-18T12:15:38.998Z</time></trkpt><trkpt lat="42.1205533" lon="11.9664679"><ele>357.5</ele><time>2026-04-18T12:15:39.997Z</time></trkpt><trkpt lat="42.1204737" lon="11.9663256"><ele>362.25</ele><time>2026-04-18T12:15:40.996Z</time></trkpt><trkpt lat="42.1203946" lon="11.9661888"><ele>367.0</ele><time>2026-04-18T12:15:41.997Z</time></trkpt><trkpt lat="42.1203214" lon="11.9660591"><ele>367.0</ele><time>2026-04-18T12:15:42.996Z</time></trkpt><trkpt lat="42.1202539" lon="11.9659333"><ele>367.0</ele><time>2026-04-18T12:15:43.997Z</time></trkpt><trkpt lat="42.1202183" lon="11.9657923"><ele>367.0</ele><time>2026-04-18T12:15:44.997Z</time></trkpt><trkpt lat="42.1202034" lon="11.9656383"><ele>367.0</ele><time>2026-04-18T12:15:45.996Z</time></trkpt><trkpt lat="42.1202163" lon="11.9654857"><ele>364.0</ele><time>2026-04-18T12:15:46.997Z</time></trkpt><trkpt lat="42.1202232" lon="11.9653374"><ele>361.0</ele><time>2026-04-18T12:15:47.998Z</time></trkpt><trkpt lat="42.1202081" lon="11.96519"><ele>358.0</ele><time>2026-04-18T12:15:48.997Z</time></trkpt><trkpt lat="42.1201685" lon="11.9650456"><ele>355.0</ele><time>2026-04-18T12:15:49.996Z</time></trkpt><trkpt lat="42.1201051" lon="11.9649031"><ele>357.5</ele><time>2026-04-18T12:15:50.997Z</time></trkpt><trkpt lat="42.1200258" lon="11.9647639"><ele>360.0</ele><time>2026-04-18T12:15:51.996Z</time></trkpt><trkpt lat="42.1199456" lon="11.964622"><ele>362.5</ele><time>2026-04-18T12:15:52.997Z</time></trkpt><trkpt lat="42.1198776" lon="11.9644819"><ele>365.0</ele><time>2026-04-18T12:15:53.997Z</time></trkpt><trkpt lat="42.1198169" lon="11.9643294"><ele>360.75</ele><time>2026-04-18T12:15:54.996Z</time></trkpt><trkpt lat="42.1197618" lon="11.9641718"><ele>356.5</ele><time>2026-04-18T12:15:55.996Z</time></trkpt><trkpt lat="42.1197091" lon="11.9640165"><ele>352.25</ele><time>2026-04-18T12:15:56.996Z</time></trkpt><trkpt lat="42.1196598" lon="11.9638626"><ele>348.0</ele><time>2026-04-18T12:15:57.996Z</time></trkpt><trkpt lat="42.1196166" lon="11.963713"><ele>348.0</ele><time>2026-04-18T12:15:58.996Z</time></trkpt><trkpt lat="42.1195792" lon="11.9635525"><ele>348.0</ele><time>2026-04-18T12:15:59.997Z</time></trkpt><trkpt lat="42.1195519" lon="11.9633832"><ele>348.0</ele><time>2026-04-18T12:16:00.996Z</time></trkpt><trkpt lat="42.119542" lon="11.9632073"><ele>348.0</ele><time>2026-04-18T12:16:01.997Z</time></trkpt><trkpt lat="42.1195541" lon="11.9630452"><ele>346.59999999999997</ele><time>2026-04-18T12:16:02.996Z</time></trkpt><trkpt lat="42.1195884" lon="11.9628926"><ele>345.2</ele><time>2026-04-18T12:16:03.996Z</time></trkpt><trkpt lat="42.1196492" lon="11.9627615"><ele>343.8</ele><time>2026-04-18T12:16:04.996Z</time></trkpt><trkpt lat="42.1197261" lon="11.9626578"><ele>342.4</ele><time>2026-04-18T12:16:05.996Z</time></trkpt><trkpt lat="42.1198162" lon="11.9625792"><ele>341.0</ele><time>2026-04-18T12:16:06.996Z</time></trkpt><trkpt lat="42.1199074" lon="11.9625066"><ele>338.1666666666667</ele><time>2026-04-18T12:16:07.997Z</time></trkpt><trkpt lat="42.1199916" lon="11.9624277"><ele>335.33333333333337</ele><time>2026-04-18T12:16:08.996Z</time></trkpt><trkpt lat="42.1200482" lon="11.9623593"><ele>332.5</ele><time>2026-04-18T12:16:09.996Z</time></trkpt><trkpt lat="42.120101" lon="11.9622715"><ele>329.6666666666667</ele><time>2026-04-18T12:16:11.996Z</time></trkpt><trkpt lat="42.1201321" lon="11.9621936"><ele>326.8333333333333</ele><time>2026-04-18T12:16:15.996Z</time></trkpt><trkpt lat="42.1201085" lon="11.9620772"><ele>324.0</ele><time>2026-04-18T12:16:32.996Z</time></trkpt><trkpt lat="42.1200688" lon="11.9618918"><ele>324.0</ele><time>2026-04-18T12:16:34.997Z</time></trkpt><trkpt lat="42.1200435" lon="11.9617788"><ele>324.0</ele><time>2026-04-18T12:16:35.996Z</time></trkpt><trkpt lat="42.1200197" lon="11.9616746"><ele>324.0</ele><time>2026-04-18T12:16:36.996Z</time></trkpt><trkpt lat="42.1200023" lon="11.9615657"><ele>324.0</ele><time>2026-04-18T12:16:37.996Z</time></trkpt><trkpt lat="42.1200105" lon="11.9614575"><ele>324.0</ele><time>2026-04-18T12:16:38.997Z</time></trkpt><trkpt lat="42.1200483" lon="11.961355"><ele>324.0</ele><time>2026-04-18T12:16:39.997Z</time></trkpt><trkpt lat="42.1201104" lon="11.9612787"><ele>324.6</ele><time>2026-04-18T12:16:40.997Z</time></trkpt><trkpt lat="42.1202021" lon="11.961218"><ele>325.2</ele><time>2026-04-18T12:16:41.996Z</time></trkpt><trkpt lat="42.120299" lon="11.9611748"><ele>325.8</ele><time>2026-04-18T12:16:42.996Z</time></trkpt><trkpt lat="42.1203868" lon="11.9611355"><ele>326.40000000000003</ele><time>2026-04-18T12:16:43.996Z</time></trkpt><trkpt lat="42.1204784" lon="11.9610822"><ele>327.0</ele><time>2026-04-18T12:16:44.996Z</time></trkpt><trkpt lat="42.1205585" lon="11.961007"><ele>327.0</ele><time>2026-04-18T12:16:45.996Z</time></trkpt><trkpt lat="42.1206161" lon="11.960899"><ele>327.0</ele><time>2026-04-18T12:16:46.997Z</time></trkpt><trkpt lat="42.1206354" lon="11.9607801"><ele>327.0</ele><time>2026-04-18T12:16:47.996Z</time></trkpt><trkpt lat="42.1206296" lon="11.9606637"><ele>327.0</ele><time>2026-04-18T12:16:48.996Z</time></trkpt><trkpt lat="42.1206036" lon="11.9605489"><ele>327.0</ele><time>2026-04-18T12:16:49.996Z</time></trkpt><trkpt lat="42.1205649" lon="11.9604319"><ele>328.40000000000003</ele><time>2026-04-18T12:16:50.996Z</time></trkpt><trkpt lat="42.1205276" lon="11.9602959"><ele>329.8</ele><time>2026-04-18T12:16:51.996Z</time></trkpt><trkpt lat="42.1205136" lon="11.9601632"><ele>331.2</ele><time>2026-04-18T12:16:52.996Z</time></trkpt><trkpt lat="42.1205229" lon="11.9600321"><ele>332.6</ele><time>2026-04-18T12:16:53.997Z</time></trkpt><trkpt lat="42.1205653" lon="11.959903"><ele>334.0</ele><time>2026-04-18T12:16:54.997Z</time></trkpt><trkpt lat="42.1206166" lon="11.9597718"><ele>335.16666666666663</ele><time>2026-04-18T12:16:55.996Z</time></trkpt><trkpt lat="42.1206625" lon="11.9596466"><ele>336.3333333333333</ele><time>2026-04-18T12:16:56.997Z</time></trkpt><trkpt lat="42.1206969" lon="11.9595276"><ele>337.5</ele><time>2026-04-18T12:16:57.997Z</time></trkpt><trkpt lat="42.1207082" lon="11.9594207"><ele>338.6666666666667</ele><time>2026-04-18T12:16:58.996Z</time></trkpt><trkpt lat="42.1207111" lon="11.9593053"><ele>339.83333333333337</ele><time>2026-04-18T12:16:59.996Z</time></trkpt><trkpt lat="42.1206926" lon="11.9591946"><ele>341.0</ele><time>2026-04-18T12:17:00.996Z</time></trkpt><trkpt lat="42.1206533" lon="11.9590842"><ele>341.0</ele><time>2026-04-18T12:17:01.996Z</time></trkpt><trkpt lat="42.1206058" lon="11.9589768"><ele>341.0</ele><time>2026-04-18T12:17:02.996Z</time></trkpt><trkpt lat="42.1205442" lon="11.9588642"><ele>341.0</ele><time>2026-04-18T12:17:03.996Z</time></trkpt><trkpt lat="42.1204926" lon="11.9587441"><ele>341.0</ele><time>2026-04-18T12:17:04.996Z</time></trkpt><trkpt lat="42.1204545" lon="11.9586233"><ele>341.0</ele><time>2026-04-18T12:17:05.997Z</time></trkpt><trkpt lat="42.1204331" lon="11.9585104"><ele>341.0</ele><time>2026-04-18T12:17:06.996Z</time></trkpt><trkpt lat="42.1204266" lon="11.9583836"><ele>341.0</ele><time>2026-04-18T12:17:07.997Z</time></trkpt><trkpt lat="42.1204261" lon="11.9582508"><ele>341.0</ele><time>2026-04-18T12:17:08.996Z</time></trkpt><trkpt lat="42.1204315" lon="11.9581226"><ele>341.0</ele><time>2026-04-18T12:17:09.996Z</time></trkpt><trkpt lat="42.1204352" lon="11.958003"><ele>341.0</ele><time>2026-04-18T12:17:10.996Z</time></trkpt><trkpt lat="42.1204445" lon="11.9578815"><ele>340.0</ele><time>2026-04-18T12:17:11.997Z</time></trkpt><trkpt lat="42.1204535" lon="11.9577639"><ele>339.0</ele><time>2026-04-18T12:17:12.997Z</time></trkpt><trkpt lat="42.1204612" lon="11.9576534"><ele>338.0</ele><time>2026-04-18T12:17:13.997Z</time></trkpt><trkpt lat="42.1204724" lon="11.957553"><ele>337.0</ele><time>2026-04-18T12:17:14.996Z</time></trkpt><trkpt lat="42.1204834" lon="11.9574691"><ele>336.0</ele><time>2026-04-18T12:17:15.997Z</time></trkpt><trkpt lat="42.1204929" lon="11.9573429"><ele>335.0</ele><time>2026-04-18T12:17:17.996Z</time></trkpt><trkpt lat="42.1204864" lon="11.9572281"><ele>335.0</ele><time>2026-04-18T12:19:09.996Z</time></trkpt><trkpt lat="42.1205072" lon="11.9570755"><ele>335.0</ele><time>2026-04-18T12:19:11.996Z</time></trkpt><trkpt lat="42.1205399" lon="11.9569613"><ele>335.0</ele><time>2026-04-18T12:19:12.996Z</time></trkpt><trkpt lat="42.1205787" lon="11.9568739"><ele>335.0</ele><time>2026-04-18T12:19:13.995Z</time></trkpt><trkpt lat="42.1206019" lon="11.9567539"><ele>335.0</ele><time>2026-04-18T12:19:15.995Z</time></trkpt><trkpt lat="42.1206119" lon="11.9566531"><ele>335.0</ele><time>2026-04-18T12:19:18.995Z</time></trkpt><trkpt lat="42.1206404" lon="11.9564703"><ele>335.6</ele><time>2026-04-18T12:19:20.996Z</time></trkpt><trkpt lat="42.1206595" lon="11.9563641"><ele>336.2</ele><time>2026-04-18T12:19:21.995Z</time></trkpt><trkpt lat="42.1207206" lon="11.9562324"><ele>336.79999999999995</ele><time>2026-04-18T12:19:23.995Z</time></trkpt><trkpt lat="42.1207625" lon="11.9560958"><ele>337.4</ele><time>2026-04-18T12:19:25.996Z</time></trkpt><trkpt lat="42.1208065" lon="11.9560084"><ele>338.0</ele><time>2026-04-18T12:19:26.995Z</time></trkpt><trkpt lat="42.120863" lon="11.9559328"><ele>337.79999999999995</ele><time>2026-04-18T12:19:27.996Z</time></trkpt><trkpt lat="42.1209073" lon="11.9558629"><ele>337.6</ele><time>2026-04-18T12:19:28.996Z</time></trkpt><trkpt lat="42.1209425" lon="11.9557127"><ele>337.4</ele><time>2026-04-18T12:19:30.996Z</time></trkpt><trkpt lat="42.1209679" lon="11.9555904"><ele>337.20000000000005</ele><time>2026-04-18T12:19:31.996Z</time></trkpt><trkpt lat="42.1209997" lon="11.9554424"><ele>337.0</ele><time>2026-04-18T12:19:32.995Z</time></trkpt><trkpt lat="42.121038" lon="11.9553062"><ele>337.0</ele><time>2026-04-18T12:19:33.995Z</time></trkpt><trkpt lat="42.1210938" lon="11.9551881"><ele>337.0</ele><time>2026-04-18T12:19:34.996Z</time></trkpt><trkpt lat="42.1211503" lon="11.9550914"><ele>337.0</ele><time>2026-04-18T12:19:35.996Z</time></trkpt><trkpt lat="42.1211973" lon="11.9550113"><ele>337.0</ele><time>2026-04-18T12:19:36.997Z</time></trkpt><trkpt lat="42.1212381" lon="11.9549377"><ele>337.0</ele><time>2026-04-18T12:19:37.995Z</time></trkpt><trkpt lat="42.121275" lon="11.9548634"><ele>337.0</ele><time>2026-04-18T12:19:38.996Z</time></trkpt><trkpt lat="42.1213167" lon="11.9547879"><ele>337.28571428571433</ele><time>2026-04-18T12:19:39.995Z</time></trkpt><trkpt lat="42.1213738" lon="11.9547134"><ele>337.57142857142856</ele><time>2026-04-18T12:19:40.996Z</time></trkpt><trkpt lat="42.1214445" lon="11.9546474"><ele>337.8571428571429</ele><time>2026-04-18T12:19:41.996Z</time></trkpt><trkpt lat="42.1215086" lon="11.9546066"><ele>338.14285714285717</ele><time>2026-04-18T12:19:42.995Z</time></trkpt><trkpt lat="42.1215748" lon="11.9545846"><ele>338.42857142857144</ele><time>2026-04-18T12:19:43.995Z</time></trkpt><trkpt lat="42.1216451" lon="11.9545859"><ele>338.7142857142857</ele><time>2026-04-18T12:19:44.995Z</time></trkpt><trkpt lat="42.1217139" lon="11.954604"><ele>339.0</ele><time>2026-04-18T12:19:45.996Z</time></trkpt><trkpt lat="42.1217859" lon="11.9546206"><ele>339.0</ele><time>2026-04-18T12:19:46.995Z</time></trkpt><trkpt lat="42.1218538" lon="11.9546296"><ele>339.0</ele><time>2026-04-18T12:19:47.995Z</time></trkpt><trkpt lat="42.1219288" lon="11.9546223"><ele>339.0</ele><time>2026-04-18T12:19:48.995Z</time></trkpt><trkpt lat="42.1220073" lon="11.9546118"><ele>339.0</ele><time>2026-04-18T12:19:49.995Z</time></trkpt><trkpt lat="42.1220801" lon="11.9546235"><ele>339.0</ele><time>2026-04-18T12:19:50.997Z</time></trkpt><trkpt lat="42.1221872" lon="11.9546612"><ele>339.0</ele><time>2026-04-18T12:19:52.996Z</time></trkpt><trkpt lat="42.1222804" lon="11.954684"><ele>339.0</ele><time>2026-04-18T12:19:54.995Z</time></trkpt><trkpt lat="42.1223471" lon="11.9546703"><ele>339.0</ele><time>2026-04-18T12:19:55.996Z</time></trkpt><trkpt lat="42.1224158" lon="11.954655"><ele>339.0</ele><time>2026-04-18T12:19:56.995Z</time></trkpt><trkpt lat="42.122484" lon="11.9546638"><ele>339.0</ele><time>2026-04-18T12:19:57.995Z</time></trkpt><trkpt lat="42.1225533" lon="11.9546847"><ele>339.0</ele><time>2026-04-18T12:19:58.996Z</time></trkpt><trkpt lat="42.1226218" lon="11.9547074"><ele>339.0</ele><time>2026-04-18T12:19:59.997Z</time></trkpt><trkpt lat="42.1226937" lon="11.9547369"><ele>339.0</ele><time>2026-04-18T12:20:00.995Z</time></trkpt><trkpt lat="42.1227669" lon="11.954781"><ele>340.0</ele><time>2026-04-18T12:20:01.995Z</time></trkpt><trkpt lat="42.1228306" lon="11.9548383"><ele>341.0</ele><time>2026-04-18T12:20:02.994Z</time></trkpt><trkpt lat="42.122888" lon="11.9549007"><ele>342.0</ele><time>2026-04-18T12:20:03.996Z</time></trkpt><trkpt lat="42.1229914" lon="11.9549918"><ele>343.0</ele><time>2026-04-18T12:20:05.996Z</time></trkpt><trkpt lat="42.1230551" lon="11.955042"><ele>344.0</ele><time>2026-04-18T12:20:06.995Z</time></trkpt><trkpt lat="42.1231583" lon="11.9551016"><ele>343.42857142857144</ele><time>2026-04-18T12:20:08.995Z</time></trkpt><trkpt lat="42.1232263" lon="11.9551094"><ele>342.8571428571429</ele><time>2026-04-18T12:20:09.996Z</time></trkpt><trkpt lat="42.1233043" lon="11.955094"><ele>342.28571428571433</ele><time>2026-04-18T12:20:10.996Z</time></trkpt><trkpt lat="42.123368" lon="11.9550594"><ele>341.7142857142857</ele><time>2026-04-18T12:20:11.995Z</time></trkpt><trkpt lat="42.1234216" lon="11.9550014"><ele>341.1428571428571</ele><time>2026-04-18T12:20:12.995Z</time></trkpt><trkpt lat="42.1234741" lon="11.9549246"><ele>340.5714285714286</ele><time>2026-04-18T12:20:13.996Z</time></trkpt><trkpt lat="42.1235255" lon="11.9548335"><ele>340.0</ele><time>2026-04-18T12:20:14.995Z</time></trkpt><trkpt lat="42.1235684" lon="11.9547312"><ele>341.7142857142857</ele><time>2026-04-18T12:20:15.996Z</time></trkpt><trkpt lat="42.123601" lon="11.9546283"><ele>343.4285714285714</ele><time>2026-04-18T12:20:16.997Z</time></trkpt><trkpt lat="42.1236185" lon="11.954533"><ele>345.1428571428571</ele><time>2026-04-18T12:20:17.996Z</time></trkpt><trkpt lat="42.1236208" lon="11.9544435"><ele>346.8571428571429</ele><time>2026-04-18T12:20:18.995Z</time></trkpt><trkpt lat="42.12361" lon="11.9543534"><ele>348.57142857142856</ele><time>2026-04-18T12:20:19.995Z</time></trkpt><trkpt lat="42.123597" lon="11.954252"><ele>350.2857142857143</ele><time>2026-04-18T12:20:20.995Z</time></trkpt><trkpt lat="42.1235831" lon="11.9541533"><ele>352.0</ele><time>2026-04-18T12:20:21.995Z</time></trkpt><trkpt lat="42.1235806" lon="11.9540586"><ele>354.0</ele><time>2026-04-18T12:20:22.995Z</time></trkpt><trkpt lat="42.1235877" lon="11.9539459"><ele>356.0</ele><time>2026-04-18T12:20:23.997Z</time></trkpt><trkpt lat="42.1235925" lon="11.9538036"><ele>358.0</ele><time>2026-04-18T12:20:24.995Z</time></trkpt><trkpt lat="42.1235995" lon="11.9536492"><ele>360.0</ele><time>2026-04-18T12:20:25.995Z</time></trkpt><trkpt lat="42.1236115" lon="11.9535113"><ele>362.0</ele><time>2026-04-18T12:20:26.996Z</time></trkpt><trkpt lat="42.1236204" lon="11.9534006"><ele>363.40000000000003</ele><time>2026-04-18T12:20:27.995Z</time></trkpt><trkpt lat="42.1236267" lon="11.9532983"><ele>364.8</ele><time>2026-04-18T12:20:28.996Z</time></trkpt><trkpt lat="42.1236649" lon="11.9531429"><ele>366.2</ele><time>2026-04-18T12:20:30.996Z</time></trkpt><trkpt lat="42.1236969" lon="11.9530623"><ele>367.6</ele><time>2026-04-18T12:20:31.995Z</time></trkpt><trkpt lat="42.1237256" lon="11.9529736"><ele>369.0</ele><time>2026-04-18T12:20:32.995Z</time></trkpt><trkpt lat="42.1237758" lon="11.9528288"><ele>369.0</ele><time>2026-04-18T12:20:34.997Z</time></trkpt><trkpt lat="42.123818" lon="11.9526597"><ele>369.0</ele><time>2026-04-18T12:20:36.995Z</time></trkpt><trkpt lat="42.1238429" lon="11.9525454"><ele>369.0</ele><time>2026-04-18T12:20:37.995Z</time></trkpt><trkpt lat="42.1238698" lon="11.9524173"><ele>369.0</ele><time>2026-04-18T12:20:38.997Z</time></trkpt><trkpt lat="42.1238966" lon="11.9522992"><ele>369.0</ele><time>2026-04-18T12:20:39.995Z</time></trkpt><trkpt lat="42.1239233" lon="11.9521826"><ele>370.6</ele><time>2026-04-18T12:20:40.996Z</time></trkpt><trkpt lat="42.1239434" lon="11.9520536"><ele>372.2</ele><time>2026-04-18T12:20:41.996Z</time></trkpt><trkpt lat="42.1239442" lon="11.9518971"><ele>373.8</ele><time>2026-04-18T12:20:42.995Z</time></trkpt><trkpt lat="42.1239486" lon="11.9517533"><ele>375.40000000000003</ele><time>2026-04-18T12:20:43.996Z</time></trkpt><trkpt lat="42.123946" lon="11.9516431"><ele>377.0</ele><time>2026-04-18T12:20:44.995Z</time></trkpt><trkpt lat="42.1239217" lon="11.9515575"><ele>377.0</ele><time>2026-04-18T12:20:45.995Z</time></trkpt><trkpt lat="42.1238836" lon="11.9514673"><ele>377.0</ele><time>2026-04-18T12:20:46.996Z</time></trkpt><trkpt lat="42.1237895" lon="11.951356"><ele>377.0</ele><time>2026-04-18T12:20:47.995Z</time></trkpt><trkpt lat="42.1236833" lon="11.9512697"><ele>377.0</ele><time>2026-04-18T12:20:48.995Z</time></trkpt><trkpt lat="42.1235989" lon="11.9512108"><ele>377.0</ele><time>2026-04-18T12:20:49.996Z</time></trkpt><trkpt lat="42.1235154" lon="11.9511853"><ele>377.0</ele><time>2026-04-18T12:20:50.997Z</time></trkpt><trkpt lat="42.1234439" lon="11.9511772"><ele>377.0</ele><time>2026-04-18T12:20:51.995Z</time></trkpt><trkpt lat="42.1233269" lon="11.951144"><ele>377.0</ele><time>2026-04-18T12:20:53.995Z</time></trkpt><trkpt lat="42.1232753" lon="11.950987"><ele>377.0</ele><time>2026-04-18T12:20:55.995Z</time></trkpt><trkpt lat="42.123269" lon="11.9508407"><ele>377.0</ele><time>2026-04-18T12:20:56.995Z</time></trkpt><trkpt lat="42.1232556" lon="11.9506473"><ele>376.40000000000003</ele><time>2026-04-18T12:20:57.995Z</time></trkpt><trkpt lat="42.1232399" lon="11.9504534"><ele>375.8</ele><time>2026-04-18T12:20:58.995Z</time></trkpt><trkpt lat="42.1232326" lon="11.9503158"><ele>375.2</ele><time>2026-04-18T12:20:59.997Z</time></trkpt><trkpt lat="42.1232232" lon="11.9502154"><ele>374.6</ele><time>2026-04-18T12:21:00.995Z</time></trkpt><trkpt lat="42.1231762" lon="11.9501563"><ele>374.0</ele><time>2026-04-18T12:21:01.995Z</time></trkpt><trkpt lat="42.1231024" lon="11.950127"><ele>375.5</ele><time>2026-04-18T12:21:02.996Z</time></trkpt><trkpt lat="42.1230316" lon="11.9501038"><ele>377.0</ele><time>2026-04-18T12:21:03.995Z</time></trkpt><trkpt lat="42.1229671" lon="11.9500756"><ele>378.5</ele><time>2026-04-18T12:21:04.996Z</time></trkpt><trkpt lat="42.1228905" lon="11.9499526"><ele>380.0</ele><time>2026-04-18T12:21:06.996Z</time></trkpt><trkpt lat="42.1228722" lon="11.949856"><ele>381.5</ele><time>2026-04-18T12:21:07.995Z</time></trkpt><trkpt lat="42.1228501" lon="11.9497184"><ele>383.0</ele><time>2026-04-18T12:21:08.995Z</time></trkpt><trkpt lat="42.122817" lon="11.9496027"><ele>383.0</ele><time>2026-04-18T12:21:09.996Z</time></trkpt><trkpt lat="42.1227663" lon="11.9495271"><ele>383.0</ele><time>2026-04-18T12:21:10.995Z</time></trkpt><trkpt lat="42.1226987" lon="11.9494734"><ele>383.0</ele><time>2026-04-18T12:21:11.995Z</time></trkpt><trkpt lat="42.1226093" lon="11.9494257"><ele>383.0</ele><time>2026-04-18T12:21:12.996Z</time></trkpt><trkpt lat="42.1225202" lon="11.9493862"><ele>383.0</ele><time>2026-04-18T12:21:13.995Z</time></trkpt><trkpt lat="42.1224463" lon="11.9493446"><ele>383.0</ele><time>2026-04-18T12:21:14.995Z</time></trkpt><trkpt lat="42.122394" lon="11.9492674"><ele>386.4</ele><time>2026-04-18T12:21:15.994Z</time></trkpt><trkpt lat="42.1223543" lon="11.9491525"><ele>389.79999999999995</ele><time>2026-04-18T12:21:16.995Z</time></trkpt><trkpt lat="42.1223186" lon="11.9490221"><ele>393.2</ele><time>2026-04-18T12:21:17.995Z</time></trkpt><trkpt lat="42.1222835" lon="11.9489057"><ele>396.6</ele><time>2026-04-18T12:21:18.995Z</time></trkpt><trkpt lat="42.1222385" lon="11.9487827"><ele>400.0</ele><time>2026-04-18T12:21:19.996Z</time></trkpt><trkpt lat="42.1221823" lon="11.9486552"><ele>400.00000000000006</ele><time>2026-04-18T12:21:20.995Z</time></trkpt><trkpt lat="42.1221435" lon="11.9485439"><ele>400.0</ele><time>2026-04-18T12:21:21.996Z</time></trkpt><trkpt lat="42.1221135" lon="11.9484541"><ele>400.0</ele><time>2026-04-18T12:21:22.995Z</time></trkpt><trkpt lat="42.1220899" lon="11.9483509"><ele>400.0</ele><time>2026-04-18T12:21:23.996Z</time></trkpt><trkpt lat="42.1220426" lon="11.9482286"><ele>400.00000000000006</ele><time>2026-04-18T12:21:24.996Z</time></trkpt><trkpt lat="42.1219809" lon="11.9481293"><ele>400.0</ele><time>2026-04-18T12:21:25.995Z</time></trkpt><trkpt lat="42.1219275" lon="11.9480432"><ele>398.6666666666667</ele><time>2026-04-18T12:21:26.995Z</time></trkpt><trkpt lat="42.1218887" lon="11.9479493"><ele>397.33333333333337</ele><time>2026-04-18T12:21:27.996Z</time></trkpt><trkpt lat="42.1218729" lon="11.9478465"><ele>396.0</ele><time>2026-04-18T12:21:28.996Z</time></trkpt><trkpt lat="42.1218673" lon="11.9477356"><ele>394.66666666666663</ele><time>2026-04-18T12:21:29.995Z</time></trkpt><trkpt lat="42.1218732" lon="11.9475971"><ele>393.3333333333333</ele><time>2026-04-18T12:21:30.996Z</time></trkpt><trkpt lat="42.1218825" lon="11.947468"><ele>392.0</ele><time>2026-04-18T12:21:31.997Z</time></trkpt><trkpt lat="42.1218902" lon="11.9473739"><ele>392.0</ele><time>2026-04-18T12:21:32.996Z</time></trkpt><trkpt lat="42.1219512" lon="11.947241"><ele>392.0</ele><time>2026-04-18T12:21:34.996Z</time></trkpt><trkpt lat="42.1220206" lon="11.9471446"><ele>392.0</ele><time>2026-04-18T12:21:35.995Z</time></trkpt><trkpt lat="42.1221008" lon="11.9470378"><ele>392.0</ele><time>2026-04-18T12:21:36.996Z</time></trkpt><trkpt lat="42.1221697" lon="11.9469477"><ele>392.0</ele><time>2026-04-18T12:21:37.996Z</time></trkpt><trkpt lat="42.1222227" lon="11.9468624"><ele>392.0</ele><time>2026-04-18T12:21:38.995Z</time></trkpt><trkpt lat="42.1222794" lon="11.946771"><ele>392.0</ele><time>2026-04-18T12:21:39.996Z</time></trkpt><trkpt lat="42.1223498" lon="11.9466804"><ele>392.0</ele><time>2026-04-18T12:21:40.995Z</time></trkpt><trkpt lat="42.1224224" lon="11.9465885"><ele>392.0</ele><time>2026-04-18T12:21:41.995Z</time></trkpt><trkpt lat="42.1224832" lon="11.9465025"><ele>392.0</ele><time>2026-04-18T12:21:42.996Z</time></trkpt><trkpt lat="42.1225345" lon="11.9464238"><ele>393.20000000000005</ele><time>2026-04-18T12:21:43.997Z</time></trkpt><trkpt lat="42.1225508" lon="11.9463267"><ele>394.4</ele><time>2026-04-18T12:21:44.995Z</time></trkpt><trkpt lat="42.1225483" lon="11.9462133"><ele>395.6</ele><time>2026-04-18T12:21:45.996Z</time></trkpt><trkpt lat="42.1225408" lon="11.9461003"><ele>396.79999999999995</ele><time>2026-04-18T12:21:46.996Z</time></trkpt><trkpt lat="42.1225461" lon="11.9459598"><ele>398.0</ele><time>2026-04-18T12:21:47.995Z</time></trkpt><trkpt lat="42.1225677" lon="11.9457968"><ele>398.0</ele><time>2026-04-18T12:21:48.995Z</time></trkpt><trkpt lat="42.1226219" lon="11.9456125"><ele>398.0</ele><time>2026-04-18T12:21:49.996Z</time></trkpt><trkpt lat="42.1226848" lon="11.9454225"><ele>398.0</ele><time>2026-04-18T12:21:50.995Z</time></trkpt><trkpt lat="42.1227322" lon="11.9452882"><ele>398.0</ele><time>2026-04-18T12:21:51.995Z</time></trkpt><trkpt lat="42.1227751" lon="11.9451903"><ele>398.0</ele><time>2026-04-18T12:21:52.996Z</time></trkpt><trkpt lat="42.1228221" lon="11.9451122"><ele>398.0</ele><time>2026-04-18T12:21:53.995Z</time></trkpt><trkpt lat="42.1229077" lon="11.9450302"><ele>398.0</ele><time>2026-04-18T12:21:55.995Z</time></trkpt><trkpt lat="42.1230413" lon="11.9449895"><ele>398.0</ele><time>2026-04-18T12:21:57.995Z</time></trkpt><trkpt lat="42.1231314" lon="11.9449836"><ele>398.0</ele><time>2026-04-18T12:21:58.996Z</time></trkpt><trkpt lat="42.1232129" lon="11.9449876"><ele>396.0</ele><time>2026-04-18T12:21:59.996Z</time></trkpt><trkpt lat="42.1232805" lon="11.9449925"><ele>394.0</ele><time>2026-04-18T12:22:00.995Z</time></trkpt><trkpt lat="42.1233673" lon="11.9448996"><ele>392.0</ele><time>2026-04-18T12:22:02.997Z</time></trkpt><trkpt lat="42.1233571" lon="11.9447723"><ele>390.0</ele><time>2026-04-18T12:22:04.995Z</time></trkpt><trkpt lat="42.1232956" lon="11.9446489"><ele>388.0</ele><time>2026-04-18T12:22:06.996Z</time></trkpt><trkpt lat="42.1232709" lon="11.944552"><ele>388.0</ele><time>2026-04-18T12:22:07.995Z</time></trkpt><trkpt lat="42.1232533" lon="11.9444493"><ele>388.0</ele><time>2026-04-18T12:22:08.995Z</time></trkpt><trkpt lat="42.1232417" lon="11.9443396"><ele>388.0</ele><time>2026-04-18T12:22:09.996Z</time></trkpt><trkpt lat="42.1232264" lon="11.9441944"><ele>388.0</ele><time>2026-04-18T12:22:10.995Z</time></trkpt><trkpt lat="42.1232095" lon="11.9440315"><ele>388.0</ele><time>2026-04-18T12:22:11.996Z</time></trkpt><trkpt lat="42.1231887" lon="11.943908"><ele>391.4</ele><time>2026-04-18T12:22:12.995Z</time></trkpt><trkpt lat="42.1231623" lon="11.9438057"><ele>394.79999999999995</ele><time>2026-04-18T12:22:13.995Z</time></trkpt><trkpt lat="42.123144" lon="11.9437178"><ele>398.2</ele><time>2026-04-18T12:22:14.995Z</time></trkpt><trkpt lat="42.1231379" lon="11.9435807"><ele>401.6</ele><time>2026-04-18T12:22:16.995Z</time></trkpt><trkpt lat="42.1231737" lon="11.9434449"><ele>405.0</ele><time>2026-04-18T12:22:19.996Z</time></trkpt><trkpt lat="42.1232506" lon="11.9433575"><ele>405.0</ele><time>2026-04-18T12:22:21.995Z</time></trkpt><trkpt lat="42.1233709" lon="11.9432785"><ele>405.0</ele><time>2026-04-18T12:22:23.995Z</time></trkpt><trkpt lat="42.1234439" lon="11.9432216"><ele>405.0</ele><time>2026-04-18T12:22:24.995Z</time></trkpt><trkpt lat="42.1235214" lon="11.9431498"><ele>405.0</ele><time>2026-04-18T12:22:25.995Z</time></trkpt><trkpt lat="42.1235966" lon="11.9430947"><ele>405.0</ele><time>2026-04-18T12:22:26.996Z</time></trkpt><trkpt lat="42.1236711" lon="11.9430631"><ele>405.0</ele><time>2026-04-18T12:22:27.995Z</time></trkpt><trkpt lat="42.1237328" lon="11.9430278"><ele>405.0</ele><time>2026-04-18T12:22:28.995Z</time></trkpt><trkpt lat="42.1237917" lon="11.9429782"><ele>405.0</ele><time>2026-04-18T12:22:29.995Z</time></trkpt><trkpt lat="42.1238496" lon="11.9429283"><ele>405.0</ele><time>2026-04-18T12:22:30.995Z</time></trkpt><trkpt lat="42.1239184" lon="11.9428246"><ele>405.0</ele><time>2026-04-18T12:22:32.995Z</time></trkpt><trkpt lat="42.1239304" lon="11.9427234"><ele>405.0</ele><time>2026-04-18T12:22:34.995Z</time></trkpt><trkpt lat="42.1239135" lon="11.9426069"><ele>407.6666666666667</ele><time>2026-04-18T12:22:36.996Z</time></trkpt><trkpt lat="42.123839" lon="11.9424703"><ele>410.33333333333337</ele><time>2026-04-18T12:22:38.996Z</time></trkpt><trkpt lat="42.1237772" lon="11.9423813"><ele>413.0</ele><time>2026-04-18T12:22:39.995Z</time></trkpt><trkpt lat="42.1237132" lon="11.9423071"><ele>415.6666666666667</ele><time>2026-04-18T12:22:40.996Z</time></trkpt><trkpt lat="42.1236666" lon="11.9422337"><ele>418.33333333333337</ele><time>2026-04-18T12:22:41.995Z</time></trkpt><trkpt lat="42.1236439" lon="11.9421463"><ele>421.0</ele><time>2026-04-18T12:22:42.996Z</time></trkpt><trkpt lat="42.1236419" lon="11.9420519"><ele>421.00000000000006</ele><time>2026-04-18T12:22:43.995Z</time></trkpt><trkpt lat="42.1236569" lon="11.9419677"><ele>421.0</ele><time>2026-04-18T12:22:44.995Z</time></trkpt><trkpt lat="42.123704" lon="11.9418965"><ele>421.0</ele><time>2026-04-18T12:22:45.995Z</time></trkpt><trkpt lat="42.123773" lon="11.9418199"><ele>421.0</ele><time>2026-04-18T12:22:46.995Z</time></trkpt><trkpt lat="42.1238365" lon="11.9417544"><ele>421.00000000000006</ele><time>2026-04-18T12:22:47.994Z</time></trkpt><trkpt lat="42.1238928" lon="11.9417113"><ele>421.0</ele><time>2026-04-18T12:22:48.995Z</time></trkpt><trkpt lat="42.1239618" lon="11.9416047"><ele>422.00000000000006</ele><time>2026-04-18T12:22:50.995Z</time></trkpt><trkpt lat="42.1239676" lon="11.9415089"><ele>423.0</ele><time>2026-04-18T12:22:51.995Z</time></trkpt><trkpt lat="42.1239702" lon="11.9414024"><ele>424.0</ele><time>2026-04-18T12:22:52.996Z</time></trkpt><trkpt lat="42.1240506" lon="11.9412834"><ele>425.0</ele><time>2026-04-18T12:22:54.995Z</time></trkpt><trkpt lat="42.1241049" lon="11.9412245"><ele>426.00000000000006</ele><time>2026-04-18T12:22:55.995Z</time></trkpt><trkpt lat="42.124162" lon="11.9411709"><ele>427.0</ele><time>2026-04-18T12:22:56.995Z</time></trkpt><trkpt lat="42.1242156" lon="11.9411209"><ele>421.0</ele><time>2026-04-18T12:22:57.995Z</time></trkpt><trkpt lat="42.1242961" lon="11.9410772"><ele>415.00000000000006</ele><time>2026-04-18T12:22:59.995Z</time></trkpt><trkpt lat="42.1244367" lon="11.9410705"><ele>409.0</ele><time>2026-04-18T12:23:01.995Z</time></trkpt><trkpt lat="42.1245377" lon="11.9410794"><ele>403.0</ele><time>2026-04-18T12:23:02.996Z</time></trkpt><trkpt lat="42.1246511" lon="11.9411193"><ele>397.0</ele><time>2026-04-18T12:23:03.995Z</time></trkpt><trkpt lat="42.1247708" lon="11.9411848"><ele>397.0</ele><time>2026-04-18T12:23:04.996Z</time></trkpt><trkpt lat="42.1248787" lon="11.9412378"><ele>397.0</ele><time>2026-04-18T12:23:05.995Z</time></trkpt><trkpt lat="42.1249734" lon="11.9412592"><ele>397.0</ele><time>2026-04-18T12:23:06.996Z</time></trkpt><trkpt lat="42.1250587" lon="11.9412518"><ele>397.0</ele><time>2026-04-18T12:23:07.995Z</time></trkpt><trkpt lat="42.1251217" lon="11.9412219"><ele>397.0</ele><time>2026-04-18T12:23:08.995Z</time></trkpt><trkpt lat="42.125161" lon="11.9411091"><ele>397.83333333333337</ele><time>2026-04-18T12:23:10.995Z</time></trkpt><trkpt lat="42.12516" lon="11.9409893"><ele>398.6666666666667</ele><time>2026-04-18T12:23:11.996Z</time></trkpt><trkpt lat="42.1251507" lon="11.9408658"><ele>399.5</ele><time>2026-04-18T12:23:12.995Z</time></trkpt><trkpt lat="42.1251489" lon="11.9407694"><ele>400.33333333333337</ele><time>2026-04-18T12:23:13.995Z</time></trkpt><trkpt lat="42.1251502" lon="11.9406615"><ele>401.1666666666667</ele><time>2026-04-18T12:23:14.995Z</time></trkpt><trkpt lat="42.1251497" lon="11.9405391"><ele>402.0</ele><time>2026-04-18T12:23:15.995Z</time></trkpt><trkpt lat="42.1251527" lon="11.940447"><ele>402.0</ele><time>2026-04-18T12:23:16.995Z</time></trkpt><trkpt lat="42.1251598" lon="11.9403529"><ele>402.0</ele><time>2026-04-18T12:23:17.996Z</time></trkpt><trkpt lat="42.125174" lon="11.940226"><ele>402.0</ele><time>2026-04-18T12:23:18.995Z</time></trkpt><trkpt lat="42.1251902" lon="11.940094"><ele>402.0</ele><time>2026-04-18T12:23:19.996Z</time></trkpt><trkpt lat="42.1252136" lon="11.940002"><ele>402.0</ele><time>2026-04-18T12:23:20.996Z</time></trkpt><trkpt lat="42.125259" lon="11.9399212"><ele>402.0</ele><time>2026-04-18T12:23:21.995Z</time></trkpt><trkpt lat="42.1252915" lon="11.9398368"><ele>403.8</ele><time>2026-04-18T12:23:22.996Z</time></trkpt><trkpt lat="42.1252952" lon="11.9396885"><ele>405.6</ele><time>2026-04-18T12:23:24.996Z</time></trkpt><trkpt lat="42.1252666" lon="11.9395255"><ele>407.40000000000003</ele><time>2026-04-18T12:23:26.996Z</time></trkpt><trkpt lat="42.1253155" lon="11.939374"><ele>409.20000000000005</ele><time>2026-04-18T12:23:28.996Z</time></trkpt><trkpt lat="42.1253601" lon="11.939298"><ele>411.0</ele><time>2026-04-18T12:23:29.995Z</time></trkpt><trkpt lat="42.1254267" lon="11.9391503"><ele>411.1666666666667</ele><time>2026-04-18T12:23:31.995Z</time></trkpt><trkpt lat="42.1254624" lon="11.9390595"><ele>411.33333333333337</ele><time>2026-04-18T12:23:32.996Z</time></trkpt><trkpt lat="42.1254669" lon="11.9389227"><ele>411.5</ele><time>2026-04-18T12:23:34.995Z</time></trkpt><trkpt lat="42.1254331" lon="11.9388389"><ele>411.6666666666667</ele><time>2026-04-18T12:23:35.996Z</time></trkpt><trkpt lat="42.1253826" lon="11.9387504"><ele>411.83333333333337</ele><time>2026-04-18T12:23:36.994Z</time></trkpt><trkpt lat="42.1253142" lon="11.938657"><ele>412.0</ele><time>2026-04-18T12:23:37.996Z</time></trkpt><trkpt lat="42.1252411" lon="11.938579"><ele>412.0</ele><time>2026-04-18T12:23:38.995Z</time></trkpt><trkpt lat="42.1251644" lon="11.9385125"><ele>412.0</ele><time>2026-04-18T12:23:39.996Z</time></trkpt><trkpt lat="42.1250893" lon="11.9384514"><ele>412.0</ele><time>2026-04-18T12:23:40.995Z</time></trkpt><trkpt lat="42.1250173" lon="11.9383956"><ele>412.0</ele><time>2026-04-18T12:23:41.995Z</time></trkpt><trkpt lat="42.124942" lon="11.9382656"><ele>412.0</ele><time>2026-04-18T12:23:43.995Z</time></trkpt><trkpt lat="42.1249333" lon="11.9381566"><ele>411.1666666666667</ele><time>2026-04-18T12:23:44.996Z</time></trkpt><trkpt lat="42.1249333" lon="11.938039"><ele>410.33333333333337</ele><time>2026-04-18T12:23:45.995Z</time></trkpt><trkpt lat="42.1249451" lon="11.9379358"><ele>409.5</ele><time>2026-04-18T12:23:46.996Z</time></trkpt><trkpt lat="42.1250268" lon="11.9378538"><ele>408.66666666666663</ele><time>2026-04-18T12:23:47.996Z</time></trkpt><trkpt lat="42.1251117" lon="11.937792"><ele>407.8333333333333</ele><time>2026-04-18T12:23:48.995Z</time></trkpt><trkpt lat="42.1251684" lon="11.9377222"><ele>407.0</ele><time>2026-04-18T12:23:49.996Z</time></trkpt><trkpt lat="42.125194" lon="11.9376428"><ele>408.20000000000005</ele><time>2026-04-18T12:23:50.994Z</time></trkpt><trkpt lat="42.1252163" lon="11.9375173"><ele>409.4</ele><time>2026-04-18T12:23:52.995Z</time></trkpt><trkpt lat="42.1252533" lon="11.937388"><ele>410.6</ele><time>2026-04-18T12:23:54.995Z</time></trkpt><trkpt lat="42.125298" lon="11.9372294"><ele>411.79999999999995</ele><time>2026-04-18T12:23:56.996Z</time></trkpt><trkpt lat="42.1253413" lon="11.9371337"><ele>413.0</ele><time>2026-04-18T12:23:57.996Z</time></trkpt><trkpt lat="42.1254037" lon="11.9370103"><ele>412.99999999999994</ele><time>2026-04-18T12:23:58.996Z</time></trkpt><trkpt lat="42.1254454" lon="11.9369106"><ele>413.0</ele><time>2026-04-18T12:23:59.994Z</time></trkpt><trkpt lat="42.1254673" lon="11.9368206"><ele>413.0</ele><time>2026-04-18T12:24:00.996Z</time></trkpt><trkpt lat="42.1254821" lon="11.9367193"><ele>413.0</ele><time>2026-04-18T12:24:01.995Z</time></trkpt><trkpt lat="42.1254809" lon="11.9365941"><ele>412.99999999999994</ele><time>2026-04-18T12:24:02.995Z</time></trkpt><trkpt lat="42.1254891" lon="11.9364696"><ele>413.0</ele><time>2026-04-18T12:24:03.994Z</time></trkpt><trkpt lat="42.1255008" lon="11.9363625"><ele>410.99999999999994</ele><time>2026-04-18T12:24:04.996Z</time></trkpt><trkpt lat="42.1255243" lon="11.9362403"><ele>409.0</ele><time>2026-04-18T12:24:05.995Z</time></trkpt><trkpt lat="42.1255548" lon="11.9361302"><ele>407.0</ele><time>2026-04-18T12:24:06.996Z</time></trkpt><trkpt lat="42.1256024" lon="11.9360552"><ele>405.0</ele><time>2026-04-18T12:24:07.995Z</time></trkpt><trkpt lat="42.1256687" lon="11.9359971"><ele>402.99999999999994</ele><time>2026-04-18T12:24:08.996Z</time></trkpt><trkpt lat="42.1257315" lon="11.9359544"><ele>401.0</ele><time>2026-04-18T12:24:09.996Z</time></trkpt><trkpt lat="42.1258095" lon="11.9358398"><ele>401.0</ele><time>2026-04-18T12:24:11.995Z</time></trkpt><trkpt lat="42.1258561" lon="11.9357075"><ele>401.0</ele><time>2026-04-18T12:24:12.996Z</time></trkpt><trkpt lat="42.1258778" lon="11.9355702"><ele>401.0</ele><time>2026-04-18T12:24:13.995Z</time></trkpt><trkpt lat="42.1258765" lon="11.9354522"><ele>401.0</ele><time>2026-04-18T12:24:14.995Z</time></trkpt><trkpt lat="42.125847" lon="11.935349"><ele>401.0</ele><time>2026-04-18T12:24:15.995Z</time></trkpt><trkpt lat="42.1258213" lon="11.9352343"><ele>401.0</ele><time>2026-04-18T12:24:16.995Z</time></trkpt><trkpt lat="42.1257887" lon="11.9350925"><ele>401.0</ele><time>2026-04-18T12:24:17.996Z</time></trkpt><trkpt lat="42.1257487" lon="11.9349249"><ele>401.0</ele><time>2026-04-18T12:24:18.995Z</time></trkpt><trkpt lat="42.12571" lon="11.9348074"><ele>401.0</ele><time>2026-04-18T12:24:19.995Z</time></trkpt><trkpt lat="42.1256614" lon="11.9347117"><ele>401.0</ele><time>2026-04-18T12:24:20.994Z</time></trkpt><trkpt lat="42.1255866" lon="11.9346223"><ele>403.49999999999994</ele><time>2026-04-18T12:24:21.995Z</time></trkpt><trkpt lat="42.1255088" lon="11.9345431"><ele>406.0</ele><time>2026-04-18T12:24:22.995Z</time></trkpt><trkpt lat="42.1254452" lon="11.934455"><ele>408.5</ele><time>2026-04-18T12:24:23.996Z</time></trkpt><trkpt lat="42.1254159" lon="11.9343224"><ele>411.0</ele><time>2026-04-18T12:24:25.995Z</time></trkpt><trkpt lat="42.1254341" lon="11.9342169"><ele>413.49999999999994</ele><time>2026-04-18T12:24:27.999Z</time></trkpt><trkpt lat="42.1254847" lon="11.9341549"><ele>416.0</ele><time>2026-04-18T12:24:28.999Z</time></trkpt><trkpt lat="42.1255477" lon="11.9340796"><ele>415.99999999999994</ele><time>2026-04-18T12:24:29.998Z</time></trkpt><trkpt lat="42.1256158" lon="11.9339846"><ele>416.0</ele><time>2026-04-18T12:24:31Z</time></trkpt><trkpt lat="42.1256666" lon="11.9338879"><ele>416.0</ele><time>2026-04-18T12:24:31.995Z</time></trkpt><trkpt lat="42.1256944" lon="11.9338095"><ele>416.0</ele><time>2026-04-18T12:24:32.999Z</time></trkpt><trkpt lat="42.1256801" lon="11.9337254"><ele>415.99999999999994</ele><time>2026-04-18T12:24:34Z</time></trkpt><trkpt lat="42.1256445" lon="11.9336415"><ele>416.0</ele><time>2026-04-18T12:24:34.994Z</time></trkpt><trkpt lat="42.1255895" lon="11.9335182"><ele>415.0</ele><time>2026-04-18T12:24:36.996Z</time></trkpt><trkpt lat="42.1255425" lon="11.9333437"><ele>414.0</ele><time>2026-04-18T12:24:38.991Z</time></trkpt><trkpt lat="42.1254831" lon="11.9332238"><ele>413.0</ele><time>2026-04-18T12:24:39.992Z</time></trkpt><trkpt lat="42.1254131" lon="11.9331087"><ele>412.0</ele><time>2026-04-18T12:24:40.994Z</time></trkpt><trkpt lat="42.1253671" lon="11.9330196"><ele>411.0</ele><time>2026-04-18T12:24:41.992Z</time></trkpt><trkpt lat="42.1253123" lon="11.9329014"><ele>411.0</ele><time>2026-04-18T12:24:44.001Z</time></trkpt><trkpt lat="42.1252857" lon="11.9327881"><ele>411.0</ele><time>2026-04-18T12:24:45.989Z</time></trkpt><trkpt lat="42.125253" lon="11.9326652"><ele>411.0</ele><time>2026-04-18T12:24:48.002Z</time></trkpt><trkpt lat="42.125196" lon="11.9325452"><ele>411.0</ele><time>2026-04-18T12:24:49.994Z</time></trkpt><trkpt lat="42.1251101" lon="11.9324644"><ele>411.0</ele><time>2026-04-18T12:24:51.991Z</time></trkpt><trkpt lat="42.1250654" lon="11.9323475"><ele>410.0</ele><time>2026-04-18T12:24:55Z</time></trkpt><trkpt lat="42.1250802" lon="11.9322397"><ele>409.0</ele><time>2026-04-18T12:24:56.992Z</time></trkpt><trkpt lat="42.1251246" lon="11.9321355"><ele>408.0</ele><time>2026-04-18T12:24:58.994Z</time></trkpt><trkpt lat="42.1251812" lon="11.932027"><ele>407.0</ele><time>2026-04-18T12:25:00.998Z</time></trkpt><trkpt lat="42.1252403" lon="11.931909"><ele>406.0</ele><time>2026-04-18T12:25:02.994Z</time></trkpt><trkpt lat="42.1252749" lon="11.9318129"><ele>406.8</ele><time>2026-04-18T12:25:03.996Z</time></trkpt><trkpt lat="42.1253011" lon="11.9316912"><ele>407.6</ele><time>2026-04-18T12:25:04.997Z</time></trkpt><trkpt lat="42.1253334" lon="11.9315575"><ele>408.4</ele><time>2026-04-18T12:25:05.996Z</time></trkpt><trkpt lat="42.1253757" lon="11.9314255"><ele>409.2</ele><time>2026-04-18T12:25:06.994Z</time></trkpt><trkpt lat="42.1254164" lon="11.931315"><ele>410.0</ele><time>2026-04-18T12:25:07.992Z</time></trkpt><trkpt lat="42.1254358" lon="11.9312232"><ele>410.0</ele><time>2026-04-18T12:25:08.996Z</time></trkpt><trkpt lat="42.1254136" lon="11.9310629"><ele>410.0</ele><time>2026-04-18T12:25:11.002Z</time></trkpt><trkpt lat="42.1253919" lon="11.9309778"><ele>410.0</ele><time>2026-04-18T12:25:11.989Z</time></trkpt><trkpt lat="42.1253997" lon="11.9308753"><ele>410.0</ele><time>2026-04-18T12:25:13.001Z</time></trkpt><trkpt lat="42.1254273" lon="11.9307483"><ele>410.0</ele><time>2026-04-18T12:25:13.999Z</time></trkpt><trkpt lat="42.125471" lon="11.9306047"><ele>408.99999999999994</ele><time>2026-04-18T12:25:14.99Z</time></trkpt><trkpt lat="42.1255174" lon="11.9304752"><ele>408.0</ele><time>2026-04-18T12:25:15.992Z</time></trkpt><trkpt lat="42.1255691" lon="11.9303677"><ele>407.0</ele><time>2026-04-18T12:25:17Z</time></trkpt><trkpt lat="42.1256233" lon="11.9302771"><ele>406.0</ele><time>2026-04-18T12:25:17.996Z</time></trkpt><trkpt lat="42.1256748" lon="11.930198"><ele>404.99999999999994</ele><time>2026-04-18T12:25:18.993Z</time></trkpt><trkpt lat="42.125715" lon="11.9301286"><ele>404.0</ele><time>2026-04-18T12:25:19.995Z</time></trkpt><trkpt lat="42.1257361" lon="11.930043"><ele>403.99999999999994</ele><time>2026-04-18T12:25:20.999Z</time></trkpt><trkpt lat="42.1257348" lon="11.9299415"><ele>404.0</ele><time>2026-04-18T12:25:21.994Z</time></trkpt><trkpt lat="42.1257116" lon="11.9298381"><ele>404.0</ele><time>2026-04-18T12:25:22.997Z</time></trkpt><trkpt lat="42.1257162" lon="11.9297346"><ele>404.0</ele><time>2026-04-18T12:25:23.992Z</time></trkpt><trkpt lat="42.1257266" lon="11.9296431"><ele>403.99999999999994</ele><time>2026-04-18T12:25:25.002Z</time></trkpt><trkpt lat="42.1257445" lon="11.9295519"><ele>404.0</ele><time>2026-04-18T12:25:26.001Z</time></trkpt><trkpt lat="42.1257575" lon="11.9294472"><ele>404.0</ele><time>2026-04-18T12:25:26.989Z</time></trkpt><trkpt lat="42.1257699" lon="11.9293451"><ele>404.0</ele><time>2026-04-18T12:25:27.996Z</time></trkpt><trkpt lat="42.1257704" lon="11.9292501"><ele>404.0</ele><time>2026-04-18T12:25:28.993Z</time></trkpt><trkpt lat="42.1257479" lon="11.929098"><ele>404.0</ele><time>2026-04-18T12:25:30.999Z</time></trkpt><trkpt lat="42.1256552" lon="11.9289774"><ele>404.0</ele><time>2026-04-18T12:25:32.998Z</time></trkpt><trkpt lat="42.1255964" lon="11.928925"><ele>408.79999999999995</ele><time>2026-04-18T12:25:33.996Z</time></trkpt><trkpt lat="42.1255124" lon="11.9288307"><ele>413.59999999999997</ele><time>2026-04-18T12:25:35.99Z</time></trkpt><trkpt lat="42.1254601" lon="11.9287426"><ele>418.4</ele><time>2026-04-18T12:25:37.99Z</time></trkpt><trkpt lat="42.12545" lon="11.9285927"><ele>423.2</ele><time>2026-04-18T12:25:39.996Z</time></trkpt><trkpt lat="42.1254391" lon="11.92849"><ele>428.0</ele><time>2026-04-18T12:25:40.994Z</time></trkpt><trkpt lat="42.1254256" lon="11.9283886"><ele>427.99999999999994</ele><time>2026-04-18T12:25:41.989Z</time></trkpt><trkpt lat="42.1254282" lon="11.9282927"><ele>428.0</ele><time>2026-04-18T12:25:42.994Z</time></trkpt><trkpt lat="42.1254214" lon="11.9281979"><ele>428.0</ele><time>2026-04-18T12:25:44Z</time></trkpt><trkpt lat="42.125325" lon="11.9280798"><ele>428.0</ele><time>2026-04-18T12:25:45.997Z</time></trkpt><trkpt lat="42.12526" lon="11.9280297"><ele>427.99999999999994</ele><time>2026-04-18T12:25:46.989Z</time></trkpt><trkpt lat="42.1251942" lon="11.9279865"><ele>428.0</ele><time>2026-04-18T12:25:47.989Z</time></trkpt><trkpt lat="42.125122" lon="11.9279536"><ele>428.0</ele><time>2026-04-18T12:25:48.989Z</time></trkpt><trkpt lat="42.1250442" lon="11.9278521"><ele>427.99999999999994</ele><time>2026-04-18T12:25:50.989Z</time></trkpt><trkpt lat="42.124985" lon="11.9277573"><ele>427.99999999999994</ele><time>2026-04-18T12:25:52.989Z</time></trkpt><trkpt lat="42.1249468" lon="11.9276202"><ele>428.0</ele><time>2026-04-18T12:25:54.989Z</time></trkpt><trkpt lat="42.1249149" lon="11.9274959"><ele>428.0</ele><time>2026-04-18T12:25:56.989Z</time></trkpt><trkpt lat="42.1248695" lon="11.9274152"><ele>426.8333333333333</ele><time>2026-04-18T12:25:58.989Z</time></trkpt><trkpt lat="42.1247497" lon="11.927394"><ele>425.66666666666663</ele><time>2026-04-18T12:26:00.989Z</time></trkpt><trkpt lat="42.1246757" lon="11.9274081"><ele>424.5</ele><time>2026-04-18T12:26:01.989Z</time></trkpt><trkpt lat="42.1245993" lon="11.9274347"><ele>423.33333333333337</ele><time>2026-04-18T12:26:02.989Z</time></trkpt><trkpt lat="42.124529" lon="11.9274708"><ele>422.1666666666667</ele><time>2026-04-18T12:26:03.989Z</time></trkpt><trkpt lat="42.124473" lon="11.9275111"><ele>421.0</ele><time>2026-04-18T12:26:04.989Z</time></trkpt><trkpt lat="42.1244173" lon="11.9275592"><ele>423.42857142857144</ele><time>2026-04-18T12:26:05.989Z</time></trkpt><trkpt lat="42.1243601" lon="11.9275998"><ele>425.8571428571429</ele><time>2026-04-18T12:26:06.989Z</time></trkpt><trkpt lat="42.1242963" lon="11.9276355"><ele>428.28571428571433</ele><time>2026-04-18T12:26:07.989Z</time></trkpt><trkpt lat="42.1242313" lon="11.9276927"><ele>430.7142857142857</ele><time>2026-04-18T12:26:08.989Z</time></trkpt><trkpt lat="42.1241751" lon="11.9277526"><ele>433.1428571428571</ele><time>2026-04-18T12:26:09.989Z</time></trkpt><trkpt lat="42.1241062" lon="11.9277916"><ele>435.5714285714286</ele><time>2026-04-18T12:26:11.989Z</time></trkpt><trkpt lat="42.1240215" lon="11.9278134"><ele>438.0</ele><time>2026-04-18T12:26:13.989Z</time></trkpt><trkpt lat="42.1239253" lon="11.9278045"><ele>438.0</ele><time>2026-04-18T12:26:15.989Z</time></trkpt><trkpt lat="42.1238268" lon="11.927779"><ele>438.0</ele><time>2026-04-18T12:26:17.989Z</time></trkpt><trkpt lat="42.1237723" lon="11.9277342"><ele>438.0</ele><time>2026-04-18T12:26:18.989Z</time></trkpt><trkpt lat="42.1237123" lon="11.9276839"><ele>438.0</ele><time>2026-04-18T12:26:19.989Z</time></trkpt><trkpt lat="42.1236486" lon="11.9276317"><ele>438.0</ele><time>2026-04-18T12:26:20.989Z</time></trkpt><trkpt lat="42.1235384" lon="11.9275435"><ele>438.0</ele><time>2026-04-18T12:26:22.989Z</time></trkpt><trkpt lat="42.1234512" lon="11.9274546"><ele>438.0</ele><time>2026-04-18T12:26:24.989Z</time></trkpt><trkpt lat="42.1233811" lon="11.9273203"><ele>437.99999999999994</ele><time>2026-04-18T12:26:26.989Z</time></trkpt><trkpt lat="42.1233422" lon="11.9271564"><ele>437.99999999999994</ele><time>2026-04-18T12:26:28.989Z</time></trkpt><trkpt lat="42.1233422" lon="11.9270608"><ele>438.0</ele><time>2026-04-18T12:26:29.989Z</time></trkpt><trkpt lat="42.1233228" lon="11.926974"><ele>438.0</ele><time>2026-04-18T12:26:30.989Z</time></trkpt><trkpt lat="42.1232309" lon="11.9268527"><ele>442.0</ele><time>2026-04-18T12:26:32.989Z</time></trkpt><trkpt lat="42.1231714" lon="11.926797"><ele>446.0</ele><time>2026-04-18T12:26:33.989Z</time></trkpt><trkpt lat="42.1231057" lon="11.9267624"><ele>450.0</ele><time>2026-04-18T12:26:34.989Z</time></trkpt><trkpt lat="42.1230352" lon="11.9267496"><ele>454.0</ele><time>2026-04-18T12:26:35.989Z</time></trkpt><trkpt lat="42.1229557" lon="11.9267518"><ele>458.0</ele><time>2026-04-18T12:26:36.989Z</time></trkpt><trkpt lat="42.122867" lon="11.9267576"><ele>462.0</ele><time>2026-04-18T12:26:37.989Z</time></trkpt><trkpt lat="42.1227703" lon="11.9267693"><ele>462.0</ele><time>2026-04-18T12:26:38.989Z</time></trkpt><trkpt lat="42.1226934" lon="11.9267707"><ele>462.0</ele><time>2026-04-18T12:26:39.989Z</time></trkpt><trkpt lat="42.1226275" lon="11.9267616"><ele>462.0</ele><time>2026-04-18T12:26:40.989Z</time></trkpt><trkpt lat="42.1225646" lon="11.9267317"><ele>462.0</ele><time>2026-04-18T12:26:41.988Z</time></trkpt><trkpt lat="42.1225137" lon="11.9266673"><ele>462.0</ele><time>2026-04-18T12:26:42.989Z</time></trkpt><trkpt lat="42.1224246" lon="11.9266191"><ele>462.0</ele><time>2026-04-18T12:26:44.989Z</time></trkpt><trkpt lat="42.122327" lon="11.9266445"><ele>460.1666666666667</ele><time>2026-04-18T12:26:46.989Z</time></trkpt><trkpt lat="42.1222241" lon="11.9267486"><ele>458.33333333333337</ele><time>2026-04-18T12:26:48.989Z</time></trkpt><trkpt lat="42.1221586" lon="11.9268073"><ele>456.5</ele><time>2026-04-18T12:26:49.989Z</time></trkpt><trkpt lat="42.1220805" lon="11.9268325"><ele>454.6666666666667</ele><time>2026-04-18T12:26:50.989Z</time></trkpt><trkpt lat="42.1220081" lon="11.9268436"><ele>452.83333333333337</ele><time>2026-04-18T12:26:51.989Z</time></trkpt><trkpt lat="42.1219392" lon="11.9268721"><ele>451.0</ele><time>2026-04-18T12:26:52.989Z</time></trkpt><trkpt lat="42.1218504" lon="11.9269378"><ele>451.0</ele><time>2026-04-18T12:26:53.989Z</time></trkpt><trkpt lat="42.1217522" lon="11.9270312"><ele>451.0</ele><time>2026-04-18T12:26:54.989Z</time></trkpt><trkpt lat="42.1216605" lon="11.9271401"><ele>451.0</ele><time>2026-04-18T12:26:55.989Z</time></trkpt><trkpt lat="42.1215774" lon="11.9272567"><ele>451.0</ele><time>2026-04-18T12:26:56.989Z</time></trkpt><trkpt lat="42.1214978" lon="11.9273564"><ele>451.0</ele><time>2026-04-18T12:26:57.989Z</time></trkpt><trkpt lat="42.1214097" lon="11.9274537"><ele>451.0</ele><time>2026-04-18T12:26:58.989Z</time></trkpt><trkpt lat="42.1213185" lon="11.9275748"><ele>451.0</ele><time>2026-04-18T12:26:59.989Z</time></trkpt><trkpt lat="42.1212344" lon="11.9277001"><ele>451.0</ele><time>2026-04-18T12:27:00.989Z</time></trkpt><trkpt lat="42.1211638" lon="11.9277938"><ele>451.0</ele><time>2026-04-18T12:27:01.989Z</time></trkpt><trkpt lat="42.1210949" lon="11.9278651"><ele>451.0</ele><time>2026-04-18T12:27:02.989Z</time></trkpt><trkpt lat="42.1210038" lon="11.9279311"><ele>451.0</ele><time>2026-04-18T12:27:03.989Z</time></trkpt><trkpt lat="42.1208937" lon="11.9279944"><ele>451.0</ele><time>2026-04-18T12:27:04.989Z</time></trkpt><trkpt lat="42.1207942" lon="11.9280477"><ele>451.0</ele><time>2026-04-18T12:27:05.989Z</time></trkpt><trkpt lat="42.1207087" lon="11.9280918"><ele>452.1666666666667</ele><time>2026-04-18T12:27:06.989Z</time></trkpt><trkpt lat="42.120634" lon="11.9281425"><ele>453.33333333333337</ele><time>2026-04-18T12:27:07.989Z</time></trkpt><trkpt lat="42.1205291" lon="11.9281666"><ele>454.5</ele><time>2026-04-18T12:27:09.989Z</time></trkpt><trkpt lat="42.1204808" lon="11.928066"><ele>455.66666666666663</ele><time>2026-04-18T12:27:11.989Z</time></trkpt><trkpt lat="42.1204916" lon="11.9279823"><ele>456.8333333333333</ele><time>2026-04-18T12:27:12.989Z</time></trkpt><trkpt lat="42.120522" lon="11.9278737"><ele>458.0</ele><time>2026-04-18T12:27:13.989Z</time></trkpt><trkpt lat="42.1205513" lon="11.9277682"><ele>457.99999999999994</ele><time>2026-04-18T12:27:14.989Z</time></trkpt><trkpt lat="42.1205837" lon="11.9276804"><ele>458.0</ele><time>2026-04-18T12:27:15.989Z</time></trkpt><trkpt lat="42.1206253" lon="11.9275872"><ele>458.0</ele><time>2026-04-18T12:27:16.989Z</time></trkpt><trkpt lat="42.1206615" lon="11.927484"><ele>458.0</ele><time>2026-04-18T12:27:17.989Z</time></trkpt><trkpt lat="42.1206767" lon="11.9273627"><ele>457.99999999999994</ele><time>2026-04-18T12:27:18.989Z</time></trkpt><trkpt lat="42.1206701" lon="11.9272424"><ele>458.0</ele><time>2026-04-18T12:27:19.989Z</time></trkpt><trkpt lat="42.1206606" lon="11.9271209"><ele>457.8333333333333</ele><time>2026-04-18T12:27:20.989Z</time></trkpt><trkpt lat="42.1206437" lon="11.9269976"><ele>457.66666666666663</ele><time>2026-04-18T12:27:21.989Z</time></trkpt><trkpt lat="42.1206272" lon="11.9268732"><ele>457.5</ele><time>2026-04-18T12:27:22.989Z</time></trkpt><trkpt lat="42.1206062" lon="11.9267688"><ele>457.33333333333337</ele><time>2026-04-18T12:27:23.989Z</time></trkpt><trkpt lat="42.1205833" lon="11.9266704"><ele>457.1666666666667</ele><time>2026-04-18T12:27:24.989Z</time></trkpt><trkpt lat="42.1205581" lon="11.9265594"><ele>457.0</ele><time>2026-04-18T12:27:25.989Z</time></trkpt><trkpt lat="42.1205292" lon="11.9264375"><ele>457.0</ele><time>2026-04-18T12:27:26.989Z</time></trkpt><trkpt lat="42.1204783" lon="11.9262987"><ele>457.0</ele><time>2026-04-18T12:27:27.989Z</time></trkpt><trkpt lat="42.1204145" lon="11.9261212"><ele>457.0</ele><time>2026-04-18T12:27:28.989Z</time></trkpt><trkpt lat="42.1203564" lon="11.9259663"><ele>457.0</ele><time>2026-04-18T12:27:29.989Z</time></trkpt><trkpt lat="42.1202924" lon="11.9258185"><ele>456.00000000000006</ele><time>2026-04-18T12:27:30.989Z</time></trkpt><trkpt lat="42.1202444" lon="11.9257057"><ele>455.0</ele><time>2026-04-18T12:27:31.989Z</time></trkpt><trkpt lat="42.1202085" lon="11.9256127"><ele>454.0</ele><time>2026-04-18T12:27:32.989Z</time></trkpt><trkpt lat="42.120152" lon="11.9254648"><ele>453.0</ele><time>2026-04-18T12:27:34.989Z</time></trkpt><trkpt lat="42.1201201" lon="11.9253802"><ele>452.00000000000006</ele><time>2026-04-18T12:27:36.989Z</time></trkpt><trkpt lat="42.120087" lon="11.9252907"><ele>451.0</ele><time>2026-04-18T12:28:46.989Z</time></trkpt><trkpt lat="42.1200277" lon="11.925262"><ele>451.00000000000006</ele><time>2026-04-18T12:28:48.989Z</time></trkpt><trkpt lat="42.1199871" lon="11.9253355"><ele>451.0</ele><time>2026-04-18T12:30:47.94Z</time></trkpt><trkpt lat="42.1199422" lon="11.9254226"><ele>451.0</ele><time>2026-04-18T12:30:48.989Z</time></trkpt><trkpt lat="42.1198682" lon="11.9255389"><ele>451.0</ele><time>2026-04-18T12:30:50.989Z</time></trkpt><trkpt lat="42.1198262" lon="11.925603"><ele>451.00000000000006</ele><time>2026-04-18T12:30:51.989Z</time></trkpt><trkpt lat="42.1197792" lon="11.9256693"><ele>451.0</ele><time>2026-04-18T12:30:52.989Z</time></trkpt><trkpt lat="42.1197346" lon="11.9257395"><ele>450.8</ele><time>2026-04-18T12:30:53.989Z</time></trkpt><trkpt lat="42.119682" lon="11.9258185"><ele>450.6</ele><time>2026-04-18T12:30:54.989Z</time></trkpt><trkpt lat="42.1196252" lon="11.9259038"><ele>450.4</ele><time>2026-04-18T12:30:55.989Z</time></trkpt><trkpt lat="42.1195644" lon="11.9260059"><ele>450.2</ele><time>2026-04-18T12:30:56.989Z</time></trkpt><trkpt lat="42.1194958" lon="11.9261214"><ele>450.0</ele><time>2026-04-18T12:30:57.989Z</time></trkpt><trkpt lat="42.1194227" lon="11.9262441"><ele>449.75</ele><time>2026-04-18T12:30:58.989Z</time></trkpt><trkpt lat="42.1193443" lon="11.9263688"><ele>449.5</ele><time>2026-04-18T12:30:59.989Z</time></trkpt><trkpt lat="42.1192713" lon="11.9264907"><ele>449.25</ele><time>2026-04-18T12:31:00.989Z</time></trkpt><trkpt lat="42.1191945" lon="11.9266021"><ele>449.0</ele><time>2026-04-18T12:31:01.989Z</time></trkpt><trkpt lat="42.1191173" lon="11.9267032"><ele>448.0</ele><time>2026-04-18T12:31:02.989Z</time></trkpt><trkpt lat="42.1190317" lon="11.9268002"><ele>447.0</ele><time>2026-04-18T12:31:03.989Z</time></trkpt><trkpt lat="42.1189359" lon="11.9268944"><ele>446.0</ele><time>2026-04-18T12:31:04.989Z</time></trkpt><trkpt lat="42.1188301" lon="11.9269952"><ele>445.0</ele><time>2026-04-18T12:31:05.989Z</time></trkpt><trkpt lat="42.1187152" lon="11.9270826"><ele>445.0</ele><time>2026-04-18T12:31:06.989Z</time></trkpt><trkpt lat="42.1186426" lon="11.9271169"><ele>445.0</ele><time>2026-04-18T12:31:07.989Z</time></trkpt><trkpt lat="42.1185501" lon="11.927075"><ele>445.0</ele><time>2026-04-18T12:31:09.989Z</time></trkpt><trkpt lat="42.1184757" lon="11.9269966"><ele>445.0</ele><time>2026-04-18T12:31:10.989Z</time></trkpt><trkpt lat="42.1183896" lon="11.9269043"><ele>445.0</ele><time>2026-04-18T12:31:11.989Z</time></trkpt><trkpt lat="42.1183044" lon="11.92682"><ele>444.2</ele><time>2026-04-18T12:31:12.989Z</time></trkpt><trkpt lat="42.1182185" lon="11.926725"><ele>443.4</ele><time>2026-04-18T12:31:13.989Z</time></trkpt><trkpt lat="42.1181473" lon="11.92663"><ele>442.6</ele><time>2026-04-18T12:31:14.989Z</time></trkpt><trkpt lat="42.1180817" lon="11.9265327"><ele>441.8</ele><time>2026-04-18T12:31:15.989Z</time></trkpt><trkpt lat="42.1180245" lon="11.9264249"><ele>441.0</ele><time>2026-04-18T12:31:16.989Z</time></trkpt><trkpt lat="42.1179708" lon="11.926302"><ele>441.0</ele><time>2026-04-18T12:31:17.989Z</time></trkpt><trkpt lat="42.1179264" lon="11.9261728"><ele>441.0</ele><time>2026-04-18T12:31:18.989Z</time></trkpt><trkpt lat="42.1178852" lon="11.9260491"><ele>441.0</ele><time>2026-04-18T12:31:19.989Z</time></trkpt><trkpt lat="42.1178472" lon="11.9259307"><ele>441.0</ele><time>2026-04-18T12:31:20.989Z</time></trkpt><trkpt lat="42.1178226" lon="11.9258164"><ele>441.0</ele><time>2026-04-18T12:31:21.989Z</time></trkpt><trkpt lat="42.1178046" lon="11.9257065"><ele>439.6666666666667</ele><time>2026-04-18T12:31:22.989Z</time></trkpt><trkpt lat="42.1177871" lon="11.9255937"><ele>438.33333333333337</ele><time>2026-04-18T12:31:23.989Z</time></trkpt><trkpt lat="42.1177635" lon="11.9254852"><ele>437.0</ele><time>2026-04-18T12:31:24.989Z</time></trkpt><trkpt lat="42.1177239" lon="11.925381"><ele>435.6666666666667</ele><time>2026-04-18T12:31:25.989Z</time></trkpt><trkpt lat="42.1176706" lon="11.9252786"><ele>434.33333333333337</ele><time>2026-04-18T12:31:26.989Z</time></trkpt><trkpt lat="42.1176028" lon="11.9251873"><ele>433.0</ele><time>2026-04-18T12:31:27.989Z</time></trkpt><trkpt lat="42.1175327" lon="11.9251149"><ele>433.00000000000006</ele><time>2026-04-18T12:31:28.989Z</time></trkpt><trkpt lat="42.1174569" lon="11.9250662"><ele>433.0</ele><time>2026-04-18T12:31:29.989Z</time></trkpt><trkpt lat="42.1173796" lon="11.9250411"><ele>433.0</ele><time>2026-04-18T12:31:30.989Z</time></trkpt><trkpt lat="42.1172975" lon="11.9250598"><ele>433.0</ele><time>2026-04-18T12:31:31.989Z</time></trkpt><trkpt lat="42.1172083" lon="11.9251117"><ele>433.00000000000006</ele><time>2026-04-18T12:31:32.989Z</time></trkpt><trkpt lat="42.1171121" lon="11.925147"><ele>433.0</ele><time>2026-04-18T12:31:33.989Z</time></trkpt><trkpt lat="42.1170335" lon="11.925138"><ele>432.75</ele><time>2026-04-18T12:31:34.989Z</time></trkpt><trkpt lat="42.1169577" lon="11.9250823"><ele>432.5</ele><time>2026-04-18T12:31:35.989Z</time></trkpt><trkpt lat="42.1168754" lon="11.9249826"><ele>432.25</ele><time>2026-04-18T12:31:36.989Z</time></trkpt><trkpt lat="42.1167799" lon="11.9248466"><ele>432.0</ele><time>2026-04-18T12:31:37.989Z</time></trkpt><trkpt lat="42.1166863" lon="11.9247183"><ele>430.0</ele><time>2026-04-18T12:31:38.989Z</time></trkpt><trkpt lat="42.116607" lon="11.9246253"><ele>428.00000000000006</ele><time>2026-04-18T12:31:39.989Z</time></trkpt><trkpt lat="42.1165379" lon="11.9245378"><ele>426.0</ele><time>2026-04-18T12:31:40.989Z</time></trkpt><trkpt lat="42.1164846" lon="11.9244447"><ele>424.0</ele><time>2026-04-18T12:31:41.989Z</time></trkpt><trkpt lat="42.1164477" lon="11.9243282"><ele>422.0</ele><time>2026-04-18T12:31:42.989Z</time></trkpt><trkpt lat="42.1164118" lon="11.9241828"><ele>421.0</ele><time>2026-04-18T12:31:43.989Z</time></trkpt><trkpt lat="42.1163801" lon="11.9240462"><ele>420.0</ele><time>2026-04-18T12:31:44.989Z</time></trkpt><trkpt lat="42.1163611" lon="11.9239252"><ele>419.0</ele><time>2026-04-18T12:31:45.989Z</time></trkpt><trkpt lat="42.1163668" lon="11.9237967"><ele>418.0</ele><time>2026-04-18T12:31:46.989Z</time></trkpt><trkpt lat="42.1163887" lon="11.9236662"><ele>417.0</ele><time>2026-04-18T12:31:47.989Z</time></trkpt><trkpt lat="42.1164233" lon="11.9235482"><ele>417.0</ele><time>2026-04-18T12:31:48.989Z</time></trkpt><trkpt lat="42.11647" lon="11.9234203"><ele>417.0</ele><time>2026-04-18T12:31:49.989Z</time></trkpt><trkpt lat="42.1165229" lon="11.9232893"><ele>417.0</ele><time>2026-04-18T12:31:50.989Z</time></trkpt><trkpt lat="42.116581" lon="11.9231632"><ele>417.0</ele><time>2026-04-18T12:31:51.989Z</time></trkpt><trkpt lat="42.116643" lon="11.9230255"><ele>417.0</ele><time>2026-04-18T12:31:52.989Z</time></trkpt><trkpt lat="42.1167064" lon="11.9228815"><ele>418.25</ele><time>2026-04-18T12:31:53.989Z</time></trkpt><trkpt lat="42.1167622" lon="11.9227353"><ele>419.5</ele><time>2026-04-18T12:31:54.989Z</time></trkpt><trkpt lat="42.116809" lon="11.9225758"><ele>420.75</ele><time>2026-04-18T12:31:55.989Z</time></trkpt><trkpt lat="42.1168467" lon="11.9224042"><ele>422.0</ele><time>2026-04-18T12:31:56.989Z</time></trkpt><trkpt lat="42.1168874" lon="11.9222468"><ele>424.40000000000003</ele><time>2026-04-18T12:31:57.989Z</time></trkpt><trkpt lat="42.1169232" lon="11.9221165"><ele>426.8</ele><time>2026-04-18T12:31:58.989Z</time></trkpt><trkpt lat="42.1169224" lon="11.9220122"><ele>429.2</ele><time>2026-04-18T12:31:59.989Z</time></trkpt><trkpt lat="42.1168955" lon="11.9219078"><ele>431.6</ele><time>2026-04-18T12:32:00.989Z</time></trkpt><trkpt lat="42.1168447" lon="11.9217948"><ele>434.0</ele><time>2026-04-18T12:32:01.989Z</time></trkpt><trkpt lat="42.1167694" lon="11.9216736"><ele>434.25</ele><time>2026-04-18T12:32:02.988Z</time></trkpt><trkpt lat="42.1166822" lon="11.921514"><ele>434.5</ele><time>2026-04-18T12:32:03.989Z</time></trkpt><trkpt lat="42.1166156" lon="11.9213435"><ele>434.75</ele><time>2026-04-18T12:32:04.989Z</time></trkpt><trkpt lat="42.1165667" lon="11.9211807"><ele>435.0</ele><time>2026-04-18T12:32:05.989Z</time></trkpt><trkpt lat="42.1165381" lon="11.9210302"><ele>435.0</ele><time>2026-04-18T12:32:06.989Z</time></trkpt><trkpt lat="42.1165342" lon="11.9208728"><ele>435.0</ele><time>2026-04-18T12:32:07.989Z</time></trkpt><trkpt lat="42.1165461" lon="11.9206861"><ele>435.0</ele><time>2026-04-18T12:32:08.989Z</time></trkpt><trkpt lat="42.1165628" lon="11.9204735"><ele>435.0</ele><time>2026-04-18T12:32:09.989Z</time></trkpt><trkpt lat="42.1165771" lon="11.9202725"><ele>435.0</ele><time>2026-04-18T12:32:10.989Z</time></trkpt><trkpt lat="42.1165925" lon="11.9200844"><ele>435.0</ele><time>2026-04-18T12:32:11.989Z</time></trkpt><trkpt lat="42.116616" lon="11.9198897"><ele>435.0</ele><time>2026-04-18T12:32:12.989Z</time></trkpt><trkpt lat="42.1166454" lon="11.919696"><ele>435.0</ele><time>2026-04-18T12:32:13.989Z</time></trkpt><trkpt lat="42.1166687" lon="11.9195154"><ele>434.0</ele><time>2026-04-18T12:32:14.989Z</time></trkpt><trkpt lat="42.1166806" lon="11.919336"><ele>433.0</ele><time>2026-04-18T12:32:15.989Z</time></trkpt><trkpt lat="42.1166737" lon="11.9191581"><ele>432.0</ele><time>2026-04-18T12:32:16.989Z</time></trkpt><trkpt lat="42.1166469" lon="11.9190199"><ele>431.0</ele><time>2026-04-18T12:32:17.989Z</time></trkpt><trkpt lat="42.1165975" lon="11.9189052"><ele>429.25</ele><time>2026-04-18T12:32:18.989Z</time></trkpt><trkpt lat="42.1165124" lon="11.9187784"><ele>427.5</ele><time>2026-04-18T12:32:19.989Z</time></trkpt><trkpt lat="42.1164053" lon="11.9186397"><ele>425.75</ele><time>2026-04-18T12:32:20.989Z</time></trkpt><trkpt lat="42.1162968" lon="11.9185006"><ele>424.0</ele><time>2026-04-18T12:32:21.989Z</time></trkpt><trkpt lat="42.1161996" lon="11.9183738"><ele>423.25</ele><time>2026-04-18T12:32:22.989Z</time></trkpt><trkpt lat="42.1161048" lon="11.9182386"><ele>422.5</ele><time>2026-04-18T12:32:23.989Z</time></trkpt><trkpt lat="42.116004" lon="11.9180899"><ele>421.75</ele><time>2026-04-18T12:32:24.989Z</time></trkpt><trkpt lat="42.1159061" lon="11.917935"><ele>421.0</ele><time>2026-04-18T12:32:25.989Z</time></trkpt><trkpt lat="42.115822" lon="11.9177867"><ele>418.0</ele><time>2026-04-18T12:32:26.989Z</time></trkpt><trkpt lat="42.1157292" lon="11.9176448"><ele>415.0</ele><time>2026-04-18T12:32:27.989Z</time></trkpt><trkpt lat="42.1156249" lon="11.917505"><ele>412.0</ele><time>2026-04-18T12:32:28.989Z</time></trkpt><trkpt lat="42.1155241" lon="11.9173669"><ele>409.0</ele><time>2026-04-18T12:32:29.989Z</time></trkpt><trkpt lat="42.1154312" lon="11.9172329"><ele>408.0</ele><time>2026-04-18T12:32:30.989Z</time></trkpt><trkpt lat="42.115341" lon="11.9171002"><ele>407.0</ele><time>2026-04-18T12:32:31.989Z</time></trkpt><trkpt lat="42.1152512" lon="11.9169739"><ele>406.0</ele><time>2026-04-18T12:32:32.989Z</time></trkpt><trkpt lat="42.1151601" lon="11.9168288"><ele>405.0</ele><time>2026-04-18T12:32:33.989Z</time></trkpt><trkpt lat="42.1150769" lon="11.9166491"><ele>404.33333333333337</ele><time>2026-04-18T12:32:34.989Z</time></trkpt><trkpt lat="42.115003" lon="11.916456"><ele>403.6666666666667</ele><time>2026-04-18T12:32:35.989Z</time></trkpt><trkpt lat="42.1149288" lon="11.9162737"><ele>403.0</ele><time>2026-04-18T12:32:36.989Z</time></trkpt><trkpt lat="42.1148566" lon="11.9161082"><ele>402.25</ele><time>2026-04-18T12:32:37.989Z</time></trkpt><trkpt lat="42.1147927" lon="11.9159467"><ele>401.5</ele><time>2026-04-18T12:32:38.989Z</time></trkpt><trkpt lat="42.1147244" lon="11.915773"><ele>400.75</ele><time>2026-04-18T12:32:39.989Z</time></trkpt><trkpt lat="42.1146549" lon="11.9155819"><ele>400.0</ele><time>2026-04-18T12:32:40.989Z</time></trkpt><trkpt lat="42.1146001" lon="11.9154122"><ele>400.0</ele><time>2026-04-18T12:32:41.989Z</time></trkpt><trkpt lat="42.1145558" lon="11.9152711"><ele>400.0</ele><time>2026-04-18T12:32:42.989Z</time></trkpt><trkpt lat="42.1145249" lon="11.9151459"><ele>400.0</ele><time>2026-04-18T12:32:43.989Z</time></trkpt><trkpt lat="42.1145057" lon="11.9150424"><ele>400.0</ele><time>2026-04-18T12:32:44.989Z</time></trkpt><trkpt lat="42.1145089" lon="11.9149375"><ele>400.0</ele><time>2026-04-18T12:32:46.989Z</time></trkpt><trkpt lat="42.1145726" lon="11.9148564"><ele>399.0</ele><time>2026-04-18T12:32:49.988Z</time></trkpt><trkpt lat="42.1145918" lon="11.914683"><ele>398.0</ele><time>2026-04-18T12:32:51.989Z</time></trkpt><trkpt lat="42.1146031" lon="11.9145415"><ele>397.0</ele><time>2026-04-18T12:32:52.989Z</time></trkpt><trkpt lat="42.1146194" lon="11.9143889"><ele>396.0</ele><time>2026-04-18T12:32:53.989Z</time></trkpt><trkpt lat="42.11464" lon="11.9142554"><ele>392.6</ele><time>2026-04-18T12:32:54.989Z</time></trkpt><trkpt lat="42.1146609" lon="11.9141245"><ele>389.20000000000005</ele><time>2026-04-18T12:32:55.989Z</time></trkpt><trkpt lat="42.114683" lon="11.9139952"><ele>385.79999999999995</ele><time>2026-04-18T12:32:56.989Z</time></trkpt><trkpt lat="42.1146995" lon="11.913871"><ele>382.4</ele><time>2026-04-18T12:32:57.989Z</time></trkpt><trkpt lat="42.1147146" lon="11.9137454"><ele>379.0</ele><time>2026-04-18T12:32:58.989Z</time></trkpt><trkpt lat="42.1147326" lon="11.9136219"><ele>379.0</ele><time>2026-04-18T12:32:59.988Z</time></trkpt><trkpt lat="42.1147509" lon="11.9134984"><ele>379.0</ele><time>2026-04-18T12:33:00.989Z</time></trkpt><trkpt lat="42.1147628" lon="11.9133686"><ele>379.0</ele><time>2026-04-18T12:33:01.989Z</time></trkpt><trkpt lat="42.1147753" lon="11.9132317"><ele>379.0</ele><time>2026-04-18T12:33:02.989Z</time></trkpt><trkpt lat="42.1147869" lon="11.913099"><ele>379.0</ele><time>2026-04-18T12:33:03.989Z</time></trkpt><trkpt lat="42.1147879" lon="11.9129603"><ele>376.4</ele><time>2026-04-18T12:33:04.989Z</time></trkpt><trkpt lat="42.1147707" lon="11.9128319"><ele>373.79999999999995</ele><time>2026-04-18T12:33:05.989Z</time></trkpt><trkpt lat="42.1147326" lon="11.9127149"><ele>371.20000000000005</ele><time>2026-04-18T12:33:06.989Z</time></trkpt><trkpt lat="42.1146979" lon="11.9126036"><ele>368.6</ele><time>2026-04-18T12:33:07.989Z</time></trkpt><trkpt lat="42.1146706" lon="11.9124897"><ele>366.0</ele><time>2026-04-18T12:33:08.989Z</time></trkpt><trkpt lat="42.1146519" lon="11.9123546"><ele>364.6</ele><time>2026-04-18T12:33:09.989Z</time></trkpt><trkpt lat="42.1146351" lon="11.9122038"><ele>363.20000000000005</ele><time>2026-04-18T12:33:10.989Z</time></trkpt><trkpt lat="42.1146193" lon="11.9120533"><ele>361.79999999999995</ele><time>2026-04-18T12:33:11.989Z</time></trkpt><trkpt lat="42.1146187" lon="11.9119136"><ele>360.4</ele><time>2026-04-18T12:33:12.988Z</time></trkpt><trkpt lat="42.1146145" lon="11.911811"><ele>359.0</ele><time>2026-04-18T12:33:13.989Z</time></trkpt><trkpt lat="42.1145436" lon="11.9116712"><ele>357.5</ele><time>2026-04-18T12:33:15.989Z</time></trkpt><trkpt lat="42.114496" lon="11.9115837"><ele>356.0</ele><time>2026-04-18T12:33:16.989Z</time></trkpt><trkpt lat="42.1144374" lon="11.9115283"><ele>354.5</ele><time>2026-04-18T12:33:17.989Z</time></trkpt><trkpt lat="42.1143718" lon="11.9114924"><ele>353.0</ele><time>2026-04-18T12:33:18.989Z</time></trkpt><trkpt lat="42.1142689" lon="11.9115337"><ele>351.5</ele><time>2026-04-18T12:33:20.989Z</time></trkpt><trkpt lat="42.1142073" lon="11.911563"><ele>350.0</ele><time>2026-04-18T12:33:21.989Z</time></trkpt><trkpt lat="42.1141324" lon="11.9115876"><ele>349.8</ele><time>2026-04-18T12:33:22.989Z</time></trkpt><trkpt lat="42.1140632" lon="11.9115966"><ele>349.6</ele><time>2026-04-18T12:33:23.989Z</time></trkpt><trkpt lat="42.113957" lon="11.9115991"><ele>349.4</ele><time>2026-04-18T12:33:25.989Z</time></trkpt><trkpt lat="42.1138547" lon="11.9116041"><ele>349.2</ele><time>2026-04-18T12:33:27.989Z</time></trkpt><trkpt lat="42.1137161" lon="11.9116383"><ele>349.0</ele><time>2026-04-18T12:33:29.989Z</time></trkpt><trkpt lat="42.1136327" lon="11.9116763"><ele>349.0</ele><time>2026-04-18T12:33:30.989Z</time></trkpt><trkpt lat="42.1135545" lon="11.9117054"><ele>349.0</ele><time>2026-04-18T12:33:31.989Z</time></trkpt><trkpt lat="42.113482" lon="11.9117254"><ele>349.0</ele><time>2026-04-18T12:33:32.989Z</time></trkpt><trkpt lat="42.1133602" lon="11.911747"><ele>349.0</ele><time>2026-04-18T12:33:34.989Z</time></trkpt><trkpt lat="42.113279" lon="11.9117211"><ele>349.0</ele><time>2026-04-18T12:33:35.989Z</time></trkpt><trkpt lat="42.113177" lon="11.9116926"><ele>350.2</ele><time>2026-04-18T12:33:36.989Z</time></trkpt><trkpt lat="42.113072" lon="11.9116486"><ele>351.4</ele><time>2026-04-18T12:33:37.989Z</time></trkpt><trkpt lat="42.1129688" lon="11.9115934"><ele>352.6</ele><time>2026-04-18T12:33:38.989Z</time></trkpt><trkpt lat="42.1128883" lon="11.9115401"><ele>353.8</ele><time>2026-04-18T12:33:39.989Z</time></trkpt><trkpt lat="42.1128123" lon="11.911492"><ele>355.0</ele><time>2026-04-18T12:33:40.989Z</time></trkpt><trkpt lat="42.1127496" lon="11.9114199"><ele>355.0</ele><time>2026-04-18T12:33:41.989Z</time></trkpt><trkpt lat="42.1127053" lon="11.9112343"><ele>355.0</ele><time>2026-04-18T12:33:43.989Z</time></trkpt><trkpt lat="42.1126789" lon="11.9111153"><ele>355.0</ele><time>2026-04-18T12:33:44.989Z</time></trkpt><trkpt lat="42.1126366" lon="11.9110296"><ele>355.0</ele><time>2026-04-18T12:33:45.989Z</time></trkpt><trkpt lat="42.112594" lon="11.9109512"><ele>355.0</ele><time>2026-04-18T12:33:46.989Z</time></trkpt><trkpt lat="42.1125106" lon="11.9108567"><ele>353.0</ele><time>2026-04-18T12:33:48.989Z</time></trkpt><trkpt lat="42.1124494" lon="11.9108236"><ele>351.0</ele><time>2026-04-18T12:33:49.989Z</time></trkpt><trkpt lat="42.1123702" lon="11.9108125"><ele>349.0</ele><time>2026-04-18T12:33:50.989Z</time></trkpt><trkpt lat="42.1122771" lon="11.9107941"><ele>347.0</ele><time>2026-04-18T12:33:51.989Z</time></trkpt><trkpt lat="42.1121489" lon="11.9107641"><ele>345.0</ele><time>2026-04-18T12:33:52.989Z</time></trkpt><trkpt lat="42.1120254" lon="11.9107394"><ele>344.2</ele><time>2026-04-18T12:33:53.989Z</time></trkpt><trkpt lat="42.1119075" lon="11.9107216"><ele>343.4</ele><time>2026-04-18T12:33:54.988Z</time></trkpt><trkpt lat="42.1118081" lon="11.9107297"><ele>342.6</ele><time>2026-04-18T12:33:55.989Z</time></trkpt><trkpt lat="42.111719" lon="11.9107548"><ele>341.8</ele><time>2026-04-18T12:33:56.989Z</time></trkpt><trkpt lat="42.1116473" lon="11.9108021"><ele>341.0</ele><time>2026-04-18T12:33:57.988Z</time></trkpt><trkpt lat="42.1115875" lon="11.9108458"><ele>342.0</ele><time>2026-04-18T12:33:58.989Z</time></trkpt><trkpt lat="42.1114767" lon="11.9109146"><ele>343.0</ele><time>2026-04-18T12:34:00.989Z</time></trkpt><trkpt lat="42.1113732" lon="11.9109714"><ele>344.0</ele><time>2026-04-18T12:34:02.989Z</time></trkpt><trkpt lat="42.1112758" lon="11.9110165"><ele>345.0</ele><time>2026-04-18T12:34:04.989Z</time></trkpt><trkpt lat="42.1111616" lon="11.9110511"><ele>345.0</ele><time>2026-04-18T12:34:06.989Z</time></trkpt><trkpt lat="42.1110852" lon="11.9110918"><ele>345.0</ele><time>2026-04-18T12:34:07.989Z</time></trkpt><trkpt lat="42.1110082" lon="11.9111465"><ele>345.0</ele><time>2026-04-18T12:34:08.989Z</time></trkpt><trkpt lat="42.1109385" lon="11.9111882"><ele>345.0</ele><time>2026-04-18T12:34:09.989Z</time></trkpt><trkpt lat="42.1108766" lon="11.9112131"><ele>345.0</ele><time>2026-04-18T12:34:10.989Z</time></trkpt><trkpt lat="42.1107589" lon="11.9112186"><ele>345.0</ele><time>2026-04-18T12:34:12.989Z</time></trkpt><trkpt lat="42.1106592" lon="11.9111829"><ele>342.3333333333333</ele><time>2026-04-18T12:34:14.989Z</time></trkpt><trkpt lat="42.1105882" lon="11.9111321"><ele>339.6666666666667</ele><time>2026-04-18T12:34:16.989Z</time></trkpt><trkpt lat="42.1105513" lon="11.9110491"><ele>337.0</ele><time>2026-04-18T12:34:18.989Z</time></trkpt><trkpt lat="42.1105136" lon="11.9109668"><ele>334.33333333333337</ele><time>2026-04-18T12:34:20.989Z</time></trkpt><trkpt lat="42.1104534" lon="11.9108602"><ele>331.6666666666667</ele><time>2026-04-18T12:34:53.989Z</time></trkpt><trkpt lat="42.1104044" lon="11.9107576"><ele>329.0</ele><time>2026-04-18T12:34:54.989Z</time></trkpt><trkpt lat="42.1103564" lon="11.9106483"><ele>328.5</ele><time>2026-04-18T12:34:55.989Z</time></trkpt><trkpt lat="42.1103146" lon="11.9105563"><ele>328.0</ele><time>2026-04-18T12:34:56.989Z</time></trkpt><trkpt lat="42.1102708" lon="11.9104857"><ele>327.5</ele><time>2026-04-18T12:34:57.989Z</time></trkpt><trkpt lat="42.110195" lon="11.9103593"><ele>327.0</ele><time>2026-04-18T12:34:59.989Z</time></trkpt><trkpt lat="42.1101506" lon="11.9102744"><ele>326.5</ele><time>2026-04-18T12:35:00.989Z</time></trkpt><trkpt lat="42.1101008" lon="11.9101794"><ele>326.0</ele><time>2026-04-18T12:35:02.989Z</time></trkpt><trkpt lat="42.1100656" lon="11.910108"><ele>324.6</ele><time>2026-04-18T12:35:04.988Z</time></trkpt><trkpt lat="42.1100495" lon="11.9100165"><ele>323.20000000000005</ele><time>2026-04-18T12:35:06.989Z</time></trkpt><trkpt lat="42.1100594" lon="11.9098958"><ele>321.79999999999995</ele><time>2026-04-18T12:35:08.989Z</time></trkpt><trkpt lat="42.1100815" lon="11.9097494"><ele>320.4</ele><time>2026-04-18T12:35:10.989Z</time></trkpt><trkpt lat="42.1101044" lon="11.9095846"><ele>319.0</ele><time>2026-04-18T12:35:12.989Z</time></trkpt><trkpt lat="42.1101248" lon="11.9094992"><ele>319.0</ele><time>2026-04-18T12:35:13.989Z</time></trkpt><trkpt lat="42.1101469" lon="11.9094163"><ele>319.0</ele><time>2026-04-18T12:35:14.989Z</time></trkpt><trkpt lat="42.1101702" lon="11.909328"><ele>319.0</ele><time>2026-04-18T12:35:15.989Z</time></trkpt><trkpt lat="42.1101905" lon="11.909232"><ele>319.0</ele><time>2026-04-18T12:35:16.989Z</time></trkpt><trkpt lat="42.1102066" lon="11.9091408"><ele>319.0</ele><time>2026-04-18T12:35:17.989Z</time></trkpt><trkpt lat="42.1102144" lon="11.9090517"><ele>319.0</ele><time>2026-04-18T12:35:18.989Z</time></trkpt><trkpt lat="42.1102179" lon="11.9089602"><ele>319.0</ele><time>2026-04-18T12:35:19.989Z</time></trkpt><trkpt lat="42.1102239" lon="11.9088743"><ele>316.8333333333333</ele><time>2026-04-18T12:35:20.989Z</time></trkpt><trkpt lat="42.1102934" lon="11.9087266"><ele>314.66666666666663</ele><time>2026-04-18T12:35:22.989Z</time></trkpt><trkpt lat="42.1103434" lon="11.9086502"><ele>312.5</ele><time>2026-04-18T12:35:23.989Z</time></trkpt><trkpt lat="42.1103985" lon="11.9085882"><ele>310.3333333333333</ele><time>2026-04-18T12:35:24.989Z</time></trkpt><trkpt lat="42.1104543" lon="11.9085371"><ele>308.1666666666667</ele><time>2026-04-18T12:35:25.988Z</time></trkpt><trkpt lat="42.1105179" lon="11.9084879"><ele>306.0</ele><time>2026-04-18T12:35:26.989Z</time></trkpt><trkpt lat="42.1105791" lon="11.9084269"><ele>303.6666666666667</ele><time>2026-04-18T12:35:27.989Z</time></trkpt><trkpt lat="42.1106176" lon="11.9083493"><ele>301.3333333333333</ele><time>2026-04-18T12:35:28.989Z</time></trkpt><trkpt lat="42.1106437" lon="11.9082641"><ele>299.0</ele><time>2026-04-18T12:35:29.989Z</time></trkpt><trkpt lat="42.1106725" lon="11.9081787"><ele>296.66666666666663</ele><time>2026-04-18T12:35:30.989Z</time></trkpt><trkpt lat="42.1107032" lon="11.9080803"><ele>294.3333333333333</ele><time>2026-04-18T12:35:31.989Z</time></trkpt><trkpt lat="42.1107427" lon="11.9079636"><ele>292.0</ele><time>2026-04-18T12:35:32.989Z</time></trkpt><trkpt lat="42.1107922" lon="11.9078522"><ele>291.3333333333333</ele><time>2026-04-18T12:35:33.989Z</time></trkpt><trkpt lat="42.1108359" lon="11.9077494"><ele>290.66666666666663</ele><time>2026-04-18T12:35:34.989Z</time></trkpt><trkpt lat="42.1108634" lon="11.9076396"><ele>290.0</ele><time>2026-04-18T12:35:35.989Z</time></trkpt><trkpt lat="42.1108939" lon="11.907523"><ele>289.3333333333333</ele><time>2026-04-18T12:35:36.989Z</time></trkpt><trkpt lat="42.1109207" lon="11.9073995"><ele>288.6666666666667</ele><time>2026-04-18T12:35:37.989Z</time></trkpt><trkpt lat="42.1109447" lon="11.907289"><ele>288.0</ele><time>2026-04-18T12:35:38.989Z</time></trkpt><trkpt lat="42.1109705" lon="11.9071815"><ele>286.1666666666667</ele><time>2026-04-18T12:35:39.989Z</time></trkpt><trkpt lat="42.1110047" lon="11.9070766"><ele>284.3333333333333</ele><time>2026-04-18T12:35:40.989Z</time></trkpt><trkpt lat="42.1110461" lon="11.9069852"><ele>282.5</ele><time>2026-04-18T12:35:41.989Z</time></trkpt><trkpt lat="42.1110791" lon="11.9068904"><ele>280.66666666666663</ele><time>2026-04-18T12:35:42.989Z</time></trkpt><trkpt lat="42.111098" lon="11.9067815"><ele>278.8333333333333</ele><time>2026-04-18T12:35:43.989Z</time></trkpt><trkpt lat="42.1111116" lon="11.9066661"><ele>277.0</ele><time>2026-04-18T12:35:44.989Z</time></trkpt><trkpt lat="42.1111131" lon="11.9065497"><ele>274.66666666666663</ele><time>2026-04-18T12:35:45.989Z</time></trkpt><trkpt lat="42.1111177" lon="11.9064343"><ele>272.3333333333333</ele><time>2026-04-18T12:35:46.989Z</time></trkpt><trkpt lat="42.1111144" lon="11.9063261"><ele>270.0</ele><time>2026-04-18T12:35:47.989Z</time></trkpt><trkpt lat="42.1110976" lon="11.9062175"><ele>267.6666666666667</ele><time>2026-04-18T12:35:48.989Z</time></trkpt><trkpt lat="42.1110883" lon="11.9061053"><ele>265.33333333333337</ele><time>2026-04-18T12:35:49.989Z</time></trkpt><trkpt lat="42.111076" lon="11.9059556"><ele>263.0</ele><time>2026-04-18T12:35:50.989Z</time></trkpt><trkpt lat="42.1110671" lon="11.9057993"><ele>261.5</ele><time>2026-04-18T12:35:51.989Z</time></trkpt><trkpt lat="42.1110637" lon="11.9056588"><ele>260.0</ele><time>2026-04-18T12:35:52.989Z</time></trkpt><trkpt lat="42.1110522" lon="11.9055291"><ele>258.5</ele><time>2026-04-18T12:35:53.989Z</time></trkpt><trkpt lat="42.1110302" lon="11.9054139"><ele>257.0</ele><time>2026-04-18T12:35:54.989Z</time></trkpt><trkpt lat="42.1110005" lon="11.9053149"><ele>255.50000000000003</ele><time>2026-04-18T12:35:55.989Z</time></trkpt><trkpt lat="42.1109614" lon="11.905224"><ele>254.0</ele><time>2026-04-18T12:35:56.989Z</time></trkpt><trkpt lat="42.1109175" lon="11.905144"><ele>251.75</ele><time>2026-04-18T12:35:57.989Z</time></trkpt><trkpt lat="42.110826" lon="11.9050721"><ele>249.5</ele><time>2026-04-18T12:35:59.989Z</time></trkpt><trkpt lat="42.1107306" lon="11.9051108"><ele>247.25</ele><time>2026-04-18T12:36:01.989Z</time></trkpt><trkpt lat="42.1106354" lon="11.9052174"><ele>245.0</ele><time>2026-04-18T12:36:03.988Z</time></trkpt><trkpt lat="42.1105508" lon="11.9053334"><ele>245.0</ele><time>2026-04-18T12:36:04.989Z</time></trkpt><trkpt lat="42.1104532" lon="11.9054424"><ele>245.0</ele><time>2026-04-18T12:36:05.989Z</time></trkpt><trkpt lat="42.1103657" lon="11.905522"><ele>245.0</ele><time>2026-04-18T12:36:06.989Z</time></trkpt><trkpt lat="42.1102834" lon="11.9055628"><ele>245.0</ele><time>2026-04-18T12:36:07.989Z</time></trkpt><trkpt lat="42.1101753" lon="11.9055791"><ele>245.0</ele><time>2026-04-18T12:36:09.989Z</time></trkpt><trkpt lat="42.1101115" lon="11.9055729"><ele>245.0</ele><time>2026-04-18T12:36:10.989Z</time></trkpt><trkpt lat="42.1100364" lon="11.9055274"><ele>245.0</ele><time>2026-04-18T12:36:11.989Z</time></trkpt><trkpt lat="42.1099718" lon="11.9054599"><ele>245.0</ele><time>2026-04-18T12:36:12.988Z</time></trkpt><trkpt lat="42.1099267" lon="11.905389"><ele>245.0</ele><time>2026-04-18T12:36:13.989Z</time></trkpt><trkpt lat="42.109887" lon="11.9053164"><ele>245.0</ele><time>2026-04-18T12:36:14.989Z</time></trkpt><trkpt lat="42.1098433" lon="11.9052537"><ele>245.0</ele><time>2026-04-18T12:36:15.989Z</time></trkpt><trkpt lat="42.1097785" lon="11.905206"><ele>245.0</ele><time>2026-04-18T12:36:16.989Z</time></trkpt><trkpt lat="42.1097006" lon="11.9051678"><ele>245.00000000000003</ele><time>2026-04-18T12:36:17.989Z</time></trkpt><trkpt lat="42.1096077" lon="11.9051289"><ele>245.0</ele><time>2026-04-18T12:36:18.989Z</time></trkpt><trkpt lat="42.1095283" lon="11.9050759"><ele>245.0</ele><time>2026-04-18T12:36:19.989Z</time></trkpt><trkpt lat="42.1094637" lon="11.905003"><ele>245.0</ele><time>2026-04-18T12:36:20.989Z</time></trkpt><trkpt lat="42.1093974" lon="11.9049299"><ele>245.00000000000003</ele><time>2026-04-18T12:36:21.989Z</time></trkpt><trkpt lat="42.1093205" lon="11.9048785"><ele>245.0</ele><time>2026-04-18T12:36:22.989Z</time></trkpt><trkpt lat="42.109237" lon="11.9048471"><ele>243.33333333333334</ele><time>2026-04-18T12:36:23.989Z</time></trkpt><trkpt lat="42.109154" lon="11.9048285"><ele>241.66666666666669</ele><time>2026-04-18T12:36:24.989Z</time></trkpt><trkpt lat="42.1090837" lon="11.9047907"><ele>240.0</ele><time>2026-04-18T12:36:25.989Z</time></trkpt><trkpt lat="42.1090257" lon="11.9047367"><ele>238.33333333333331</ele><time>2026-04-18T12:36:26.989Z</time></trkpt><trkpt lat="42.1089678" lon="11.9046679"><ele>236.66666666666666</ele><time>2026-04-18T12:36:27.989Z</time></trkpt><trkpt lat="42.1089087" lon="11.904595"><ele>235.0</ele><time>2026-04-18T12:36:28.989Z</time></trkpt><trkpt lat="42.1088582" lon="11.9045212"><ele>235.0</ele><time>2026-04-18T12:36:29.989Z</time></trkpt><trkpt lat="42.1088163" lon="11.904446"><ele>234.99999999999997</ele><time>2026-04-18T12:36:30.989Z</time></trkpt><trkpt lat="42.1087773" lon="11.9043596"><ele>235.0</ele><time>2026-04-18T12:36:31.989Z</time></trkpt><trkpt lat="42.1087336" lon="11.9042751"><ele>235.0</ele><time>2026-04-18T12:36:32.989Z</time></trkpt><trkpt lat="42.108684" lon="11.9042011"><ele>234.99999999999997</ele><time>2026-04-18T12:36:33.989Z</time></trkpt><trkpt lat="42.1086334" lon="11.9041209"><ele>235.0</ele><time>2026-04-18T12:36:34.989Z</time></trkpt><trkpt lat="42.1085866" lon="11.9040415"><ele>235.0</ele><time>2026-04-18T12:36:35.989Z</time></trkpt><trkpt lat="42.1085307" lon="11.9039814"><ele>232.66666666666666</ele><time>2026-04-18T12:36:36.989Z</time></trkpt><trkpt lat="42.1084727" lon="11.9039147"><ele>230.33333333333331</ele><time>2026-04-18T12:36:37.989Z</time></trkpt><trkpt lat="42.1084231" lon="11.9038138"><ele>228.0</ele><time>2026-04-18T12:36:38.989Z</time></trkpt><trkpt lat="42.1083799" lon="11.9037164"><ele>225.66666666666669</ele><time>2026-04-18T12:36:39.988Z</time></trkpt><trkpt lat="42.1083317" lon="11.9036467"><ele>223.33333333333334</ele><time>2026-04-18T12:36:40.989Z</time></trkpt><trkpt lat="42.1082239" lon="11.9036013"><ele>221.0</ele><time>2026-04-18T12:36:42.989Z</time></trkpt><trkpt lat="42.108145" lon="11.9035979"><ele>221.00000000000003</ele><time>2026-04-18T12:36:43.989Z</time></trkpt><trkpt lat="42.1080375" lon="11.9035862"><ele>221.0</ele><time>2026-04-18T12:36:44.989Z</time></trkpt><trkpt lat="42.10793" lon="11.9035711"><ele>221.0</ele><time>2026-04-18T12:36:45.989Z</time></trkpt><trkpt lat="42.1078584" lon="11.903567"><ele>221.0</ele><time>2026-04-18T12:36:46.989Z</time></trkpt><trkpt lat="42.1077935" lon="11.9035828"><ele>221.00000000000003</ele><time>2026-04-18T12:36:47.989Z</time></trkpt><trkpt lat="42.1077197" lon="11.9036344"><ele>221.0</ele><time>2026-04-18T12:36:48.989Z</time></trkpt><trkpt lat="42.1076453" lon="11.9036872"><ele>221.0</ele><time>2026-04-18T12:36:49.989Z</time></trkpt><trkpt lat="42.1075776" lon="11.9037132"><ele>221.00000000000003</ele><time>2026-04-18T12:36:50.989Z</time></trkpt><trkpt lat="42.1074952" lon="11.903648"><ele>221.00000000000003</ele><time>2026-04-18T12:36:52.989Z</time></trkpt><trkpt lat="42.1074276" lon="11.903541"><ele>221.0</ele><time>2026-04-18T12:36:54.989Z</time></trkpt><trkpt lat="42.1073585" lon="11.9034147"><ele>221.0</ele><time>2026-04-18T12:36:56.989Z</time></trkpt><trkpt lat="42.1072623" lon="11.9032994"><ele>217.60000000000002</ele><time>2026-04-18T12:36:58.989Z</time></trkpt><trkpt lat="42.1072324" lon="11.9031986"><ele>214.20000000000002</ele><time>2026-04-18T12:36:59.989Z</time></trkpt><trkpt lat="42.1071957" lon="11.9030968"><ele>210.8</ele><time>2026-04-18T12:37:00.989Z</time></trkpt><trkpt lat="42.1071502" lon="11.903013"><ele>207.39999999999998</ele><time>2026-04-18T12:37:01.989Z</time></trkpt><trkpt lat="42.1070787" lon="11.902909"><ele>204.0</ele><time>2026-04-18T12:37:02.989Z</time></trkpt><trkpt lat="42.1069975" lon="11.9027857"><ele>204.0</ele><time>2026-04-18T12:37:03.989Z</time></trkpt><trkpt lat="42.1069299" lon="11.9026747"><ele>204.0</ele><time>2026-04-18T12:37:04.989Z</time></trkpt><trkpt lat="42.1068699" lon="11.9025904"><ele>204.0</ele><time>2026-04-18T12:37:05.989Z</time></trkpt><trkpt lat="42.1068159" lon="11.9025049"><ele>204.0</ele><time>2026-04-18T12:37:06.989Z</time></trkpt><trkpt lat="42.1067686" lon="11.902395"><ele>204.0</ele><time>2026-04-18T12:37:07.989Z</time></trkpt><trkpt lat="42.1067352" lon="11.902308"><ele>204.0</ele><time>2026-04-18T12:37:08.989Z</time></trkpt><trkpt lat="42.106652" lon="11.9022211"><ele>200.6</ele><time>2026-04-18T12:37:10.989Z</time></trkpt><trkpt lat="42.1065188" lon="11.9021971"><ele>197.2</ele><time>2026-04-18T12:37:12.989Z</time></trkpt><trkpt lat="42.1064382" lon="11.9022164"><ele>193.79999999999998</ele><time>2026-04-18T12:37:13.989Z</time></trkpt><trkpt lat="42.1063592" lon="11.9022568"><ele>190.39999999999998</ele><time>2026-04-18T12:37:14.989Z</time></trkpt><trkpt lat="42.1062886" lon="11.9023128"><ele>187.0</ele><time>2026-04-18T12:37:15.989Z</time></trkpt><trkpt lat="42.1062125" lon="11.9023881"><ele>187.0</ele><time>2026-04-18T12:37:16.989Z</time></trkpt><trkpt lat="42.1061353" lon="11.9024672"><ele>187.0</ele><time>2026-04-18T12:37:17.989Z</time></trkpt><trkpt lat="42.1060591" lon="11.9025364"><ele>187.0</ele><time>2026-04-18T12:37:18.989Z</time></trkpt><trkpt lat="42.1059828" lon="11.9025816"><ele>187.0</ele><time>2026-04-18T12:37:19.988Z</time></trkpt><trkpt lat="42.1059151" lon="11.9025951"><ele>187.0</ele><time>2026-04-18T12:37:20.989Z</time></trkpt><trkpt lat="42.1058452" lon="11.9025834"><ele>187.0</ele><time>2026-04-18T12:37:21.988Z</time></trkpt><trkpt lat="42.1057799" lon="11.9025368"><ele>188.2</ele><time>2026-04-18T12:37:22.989Z</time></trkpt><trkpt lat="42.1057207" lon="11.9024402"><ele>189.39999999999998</ele><time>2026-04-18T12:37:23.989Z</time></trkpt><trkpt lat="42.1056678" lon="11.9023279"><ele>190.60000000000002</ele><time>2026-04-18T12:37:24.989Z</time></trkpt><trkpt lat="42.1056128" lon="11.9022266"><ele>191.8</ele><time>2026-04-18T12:37:25.989Z</time></trkpt><trkpt lat="42.105552" lon="11.9021191"><ele>193.0</ele><time>2026-04-18T12:37:26.989Z</time></trkpt><trkpt lat="42.1055009" lon="11.9020109"><ele>192.99999999999997</ele><time>2026-04-18T12:37:27.989Z</time></trkpt><trkpt lat="42.105463" lon="11.901913"><ele>193.0</ele><time>2026-04-18T12:37:28.989Z</time></trkpt><trkpt lat="42.1054276" lon="11.9018408"><ele>193.0</ele><time>2026-04-18T12:37:29.989Z</time></trkpt><trkpt lat="42.1053319" lon="11.9017295"><ele>193.0</ele><time>2026-04-18T12:37:31.989Z</time></trkpt><trkpt lat="42.1052865" lon="11.9016674"><ele>192.99999999999997</ele><time>2026-04-18T12:37:32.989Z</time></trkpt><trkpt lat="42.1052659" lon="11.9015634"><ele>193.0</ele><time>2026-04-18T12:37:35.989Z</time></trkpt><trkpt lat="42.1053297" lon="11.9014239"><ele>190.16666666666666</ele><time>2026-04-18T12:37:38.989Z</time></trkpt><trkpt lat="42.1053867" lon="11.9012984"><ele>187.33333333333331</ele><time>2026-04-18T12:37:40.989Z</time></trkpt><trkpt lat="42.1053684" lon="11.9011892"><ele>184.5</ele><time>2026-04-18T12:37:42.989Z</time></trkpt><trkpt lat="42.1052982" lon="11.9011364"><ele>181.66666666666666</ele><time>2026-04-18T12:41:33.989Z</time></trkpt><trkpt lat="42.1052067" lon="11.9010662"><ele>178.83333333333331</ele><time>2026-04-18T12:41:35.989Z</time></trkpt><trkpt lat="42.1051498" lon="11.9010258"><ele>176.0</ele><time>2026-04-18T12:41:36.989Z</time></trkpt><trkpt lat="42.1050956" lon="11.9009644"><ele>173.66666666666666</ele><time>2026-04-18T12:41:37.989Z</time></trkpt><trkpt lat="42.1050436" lon="11.9009025"><ele>171.33333333333331</ele><time>2026-04-18T12:41:38.989Z</time></trkpt><trkpt lat="42.1049796" lon="11.900871"><ele>169.0</ele><time>2026-04-18T12:41:39.989Z</time></trkpt><trkpt lat="42.1049046" lon="11.9008433"><ele>166.66666666666666</ele><time>2026-04-18T12:41:40.989Z</time></trkpt><trkpt lat="42.1047938" lon="11.9008155"><ele>164.33333333333334</ele><time>2026-04-18T12:41:41.989Z</time></trkpt><trkpt lat="42.1046997" lon="11.9008037"><ele>162.0</ele><time>2026-04-18T12:41:42.989Z</time></trkpt><trkpt lat="42.1046161" lon="11.9007921"><ele>161.33333333333334</ele><time>2026-04-18T12:41:43.989Z</time></trkpt><trkpt lat="42.1045347" lon="11.9007893"><ele>160.66666666666666</ele><time>2026-04-18T12:41:44.989Z</time></trkpt><trkpt lat="42.1044607" lon="11.9007849"><ele>160.0</ele><time>2026-04-18T12:41:45.989Z</time></trkpt><trkpt lat="42.1043869" lon="11.9007819"><ele>159.33333333333331</ele><time>2026-04-18T12:41:46.989Z</time></trkpt><trkpt lat="42.1043104" lon="11.9007846"><ele>158.66666666666666</ele><time>2026-04-18T12:41:47.988Z</time></trkpt><trkpt lat="42.1042348" lon="11.9007973"><ele>158.0</ele><time>2026-04-18T12:41:48.989Z</time></trkpt><trkpt lat="42.1041614" lon="11.9008085"><ele>158.0</ele><time>2026-04-18T12:41:49.989Z</time></trkpt><trkpt lat="42.104095" lon="11.9008194"><ele>158.0</ele><time>2026-04-18T12:41:50.989Z</time></trkpt><trkpt lat="42.1039821" lon="11.900846"><ele>158.0</ele><time>2026-04-18T12:41:52.989Z</time></trkpt><trkpt lat="42.1038912" lon="11.9008767"><ele>158.0</ele><time>2026-04-18T12:41:54.989Z</time></trkpt><trkpt lat="42.1037924" lon="11.9009284"><ele>158.0</ele><time>2026-04-18T12:41:56.989Z</time></trkpt><trkpt lat="42.103685" lon="11.9010119"><ele>159.8</ele><time>2026-04-18T12:41:58.989Z</time></trkpt><trkpt lat="42.103561" lon="11.9010527"><ele>161.60000000000002</ele><time>2026-04-18T12:42:00.989Z</time></trkpt><trkpt lat="42.1034925" lon="11.9010346"><ele>163.39999999999998</ele><time>2026-04-18T12:42:01.989Z</time></trkpt><trkpt lat="42.1033959" lon="11.9009759"><ele>165.2</ele><time>2026-04-18T12:42:03.989Z</time></trkpt><trkpt lat="42.1033224" lon="11.9009284"><ele>167.0</ele><time>2026-04-18T12:42:07.989Z</time></trkpt><trkpt lat="42.10324" lon="11.900858"><ele>168.0</ele><time>2026-04-18T12:42:09.989Z</time></trkpt><trkpt lat="42.103187" lon="11.9008058"><ele>169.0</ele><time>2026-04-18T12:42:10.989Z</time></trkpt><trkpt lat="42.1031274" lon="11.9006773"><ele>170.0</ele><time>2026-04-18T12:42:12.989Z</time></trkpt><trkpt lat="42.1030941" lon="11.9005694"><ele>171.0</ele><time>2026-04-18T12:42:14.989Z</time></trkpt><trkpt lat="42.1030465" lon="11.9004609"><ele>172.0</ele><time>2026-04-18T12:42:16.989Z</time></trkpt><trkpt lat="42.1029839" lon="11.900337"><ele>172.0</ele><time>2026-04-18T12:42:18.989Z</time></trkpt><trkpt lat="42.1029349" lon="11.9001966"><ele>172.0</ele><time>2026-04-18T12:42:20.989Z</time></trkpt><trkpt lat="42.1028853" lon="11.900053"><ele>172.0</ele><time>2026-04-18T12:42:22.989Z</time></trkpt><trkpt lat="42.1028434" lon="11.8999114"><ele>172.0</ele><time>2026-04-18T12:42:24.989Z</time></trkpt><trkpt lat="42.1027981" lon="11.8997886"><ele>172.0</ele><time>2026-04-18T12:42:26.989Z</time></trkpt><trkpt lat="42.1027478" lon="11.8996916"><ele>169.66666666666669</ele><time>2026-04-18T12:42:28.989Z</time></trkpt><trkpt lat="42.1026738" lon="11.8995676"><ele>167.33333333333334</ele><time>2026-04-18T12:42:30.989Z</time></trkpt><trkpt lat="42.1026282" lon="11.8994801"><ele>165.0</ele><time>2026-04-18T12:42:31.989Z</time></trkpt><trkpt lat="42.1025776" lon="11.899389"><ele>162.66666666666666</ele><time>2026-04-18T12:42:32.989Z</time></trkpt><trkpt lat="42.1025285" lon="11.8993008"><ele>160.33333333333331</ele><time>2026-04-18T12:42:33.989Z</time></trkpt><trkpt lat="42.1024865" lon="11.8992111"><ele>158.0</ele><time>2026-04-18T12:42:34.989Z</time></trkpt><trkpt lat="42.1024436" lon="11.8991299"><ele>158.5</ele><time>2026-04-18T12:42:35.989Z</time></trkpt><trkpt lat="42.102402" lon="11.8990636"><ele>159.0</ele><time>2026-04-18T12:42:36.989Z</time></trkpt><trkpt lat="42.1023181" lon="11.8989594"><ele>159.5</ele><time>2026-04-18T12:42:38.989Z</time></trkpt><trkpt lat="42.1022152" lon="11.8988757"><ele>160.0</ele><time>2026-04-18T12:42:40.989Z</time></trkpt><trkpt lat="42.1021472" lon="11.8988547"><ele>160.5</ele><time>2026-04-18T12:42:41.989Z</time></trkpt><trkpt lat="42.1020703" lon="11.8988459"><ele>161.0</ele><time>2026-04-18T12:42:42.989Z</time></trkpt><trkpt lat="42.1019904" lon="11.8988219"><ele>161.0</ele><time>2026-04-18T12:42:43.989Z</time></trkpt><trkpt lat="42.1019267" lon="11.8987677"><ele>161.0</ele><time>2026-04-18T12:42:44.989Z</time></trkpt><trkpt lat="42.1018836" lon="11.8986959"><ele>161.0</ele><time>2026-04-18T12:42:45.989Z</time></trkpt><trkpt lat="42.101837" lon="11.8986196"><ele>161.0</ele><time>2026-04-18T12:42:46.989Z</time></trkpt><trkpt lat="42.1017604" lon="11.8985037"><ele>161.0</ele><time>2026-04-18T12:42:48.989Z</time></trkpt><trkpt lat="42.1016718" lon="11.8983969"><ele>160.0</ele><time>2026-04-18T12:42:50.989Z</time></trkpt><trkpt lat="42.1016177" lon="11.8983462"><ele>159.0</ele><time>2026-04-18T12:42:51.989Z</time></trkpt><trkpt lat="42.1015545" lon="11.8982799"><ele>158.0</ele><time>2026-04-18T12:42:52.989Z</time></trkpt><trkpt lat="42.1014818" lon="11.8982264"><ele>157.0</ele><time>2026-04-18T12:42:53.989Z</time></trkpt><trkpt lat="42.1013994" lon="11.8981798"><ele>156.0</ele><time>2026-04-18T12:42:54.989Z</time></trkpt><trkpt lat="42.1013123" lon="11.8981363"><ele>155.0</ele><time>2026-04-18T12:42:55.989Z</time></trkpt><trkpt lat="42.1012361" lon="11.8980957"><ele>155.0</ele><time>2026-04-18T12:42:56.989Z</time></trkpt><trkpt lat="42.1011755" lon="11.8980445"><ele>155.0</ele><time>2026-04-18T12:42:57.989Z</time></trkpt><trkpt lat="42.1011165" lon="11.8979788"><ele>155.0</ele><time>2026-04-18T12:42:58.989Z</time></trkpt><trkpt lat="42.1010743" lon="11.8979043"><ele>155.0</ele><time>2026-04-18T12:42:59.989Z</time></trkpt><trkpt lat="42.1010473" lon="11.8978088"><ele>155.0</ele><time>2026-04-18T12:43:00.989Z</time></trkpt><trkpt lat="42.1010218" lon="11.8977071"><ele>155.0</ele><time>2026-04-18T12:43:01.989Z</time></trkpt><trkpt lat="42.1009916" lon="11.8976082"><ele>154.75</ele><time>2026-04-18T12:43:02.989Z</time></trkpt><trkpt lat="42.1009385" lon="11.8974914"><ele>154.5</ele><time>2026-04-18T12:43:03.989Z</time></trkpt><trkpt lat="42.1008679" lon="11.897378"><ele>154.25</ele><time>2026-04-18T12:43:04.989Z</time></trkpt><trkpt lat="42.1007683" lon="11.8972642"><ele>154.0</ele><time>2026-04-18T12:43:05.989Z</time></trkpt><trkpt lat="42.1006569" lon="11.8971493"><ele>154.0</ele><time>2026-04-18T12:43:06.989Z</time></trkpt><trkpt lat="42.1005579" lon="11.8970529"><ele>154.0</ele><time>2026-04-18T12:43:07.989Z</time></trkpt><trkpt lat="42.1004544" lon="11.8969666"><ele>154.0</ele><time>2026-04-18T12:43:08.989Z</time></trkpt><trkpt lat="42.1003498" lon="11.8968906"><ele>154.0</ele><time>2026-04-18T12:43:09.989Z</time></trkpt><trkpt lat="42.1002574" lon="11.896819"><ele>153.33333333333334</ele><time>2026-04-18T12:43:10.989Z</time></trkpt><trkpt lat="42.1001795" lon="11.8967465"><ele>152.66666666666669</ele><time>2026-04-18T12:43:11.989Z</time></trkpt><trkpt lat="42.1001063" lon="11.8966803"><ele>152.0</ele><time>2026-04-18T12:43:12.989Z</time></trkpt><trkpt lat="42.1000325" lon="11.8966242"><ele>151.33333333333334</ele><time>2026-04-18T12:43:13.989Z</time></trkpt><trkpt lat="42.0999648" lon="11.8965671"><ele>150.66666666666666</ele><time>2026-04-18T12:43:14.989Z</time></trkpt><trkpt lat="42.099892" lon="11.8964945"><ele>150.0</ele><time>2026-04-18T12:43:15.989Z</time></trkpt><trkpt lat="42.0998172" lon="11.896407"><ele>150.0</ele><time>2026-04-18T12:43:16.989Z</time></trkpt><trkpt lat="42.0997457" lon="11.8963131"><ele>150.0</ele><time>2026-04-18T12:43:17.989Z</time></trkpt><trkpt lat="42.0996858" lon="11.896214"><ele>150.0</ele><time>2026-04-18T12:43:18.988Z</time></trkpt><trkpt lat="42.0996355" lon="11.8961188"><ele>150.0</ele><time>2026-04-18T12:43:19.989Z</time></trkpt><trkpt lat="42.0995832" lon="11.8960404"><ele>150.0</ele><time>2026-04-18T12:43:20.989Z</time></trkpt><trkpt lat="42.0995332" lon="11.8959851"><ele>150.0</ele><time>2026-04-18T12:43:21.989Z</time></trkpt><trkpt lat="42.0994078" lon="11.8959511"><ele>150.0</ele><time>2026-04-18T12:43:23.989Z</time></trkpt><trkpt lat="42.0993412" lon="11.8959773"><ele>150.0</ele><time>2026-04-18T12:43:24.989Z</time></trkpt><trkpt lat="42.0992648" lon="11.8960165"><ele>150.0</ele><time>2026-04-18T12:43:25.989Z</time></trkpt><trkpt lat="42.0991838" lon="11.8960427"><ele>150.0</ele><time>2026-04-18T12:43:26.989Z</time></trkpt><trkpt lat="42.0990999" lon="11.8960433"><ele>150.0</ele><time>2026-04-18T12:43:27.989Z</time></trkpt><trkpt lat="42.0990373" lon="11.8960188"><ele>150.0</ele><time>2026-04-18T12:43:28.989Z</time></trkpt><trkpt lat="42.0989489" lon="11.8959004"><ele>147.6</ele><time>2026-04-18T12:43:30.989Z</time></trkpt><trkpt lat="42.098916" lon="11.8957983"><ele>145.2</ele><time>2026-04-18T12:43:31.989Z</time></trkpt><trkpt lat="42.0988808" lon="11.8956753"><ele>142.8</ele><time>2026-04-18T12:43:32.989Z</time></trkpt><trkpt lat="42.0988323" lon="11.8955601"><ele>140.4</ele><time>2026-04-18T12:43:33.989Z</time></trkpt><trkpt lat="42.0987764" lon="11.8954475"><ele>138.0</ele><time>2026-04-18T12:43:34.989Z</time></trkpt><trkpt lat="42.0987171" lon="11.8953325"><ele>138.0</ele><time>2026-04-18T12:43:35.989Z</time></trkpt><trkpt lat="42.0986407" lon="11.895214"><ele>138.0</ele><time>2026-04-18T12:43:36.989Z</time></trkpt><trkpt lat="42.0985537" lon="11.8951015"><ele>138.0</ele><time>2026-04-18T12:43:37.989Z</time></trkpt><trkpt lat="42.098468" lon="11.8950264"><ele>138.0</ele><time>2026-04-18T12:43:38.989Z</time></trkpt><trkpt lat="42.0983718" lon="11.8949857"><ele>138.0</ele><time>2026-04-18T12:43:39.989Z</time></trkpt><trkpt lat="42.098269" lon="11.8949566"><ele>137.4</ele><time>2026-04-18T12:43:40.989Z</time></trkpt><trkpt lat="42.0981581" lon="11.8949055"><ele>136.8</ele><time>2026-04-18T12:43:41.989Z</time></trkpt><trkpt lat="42.0980513" lon="11.8948394"><ele>136.2</ele><time>2026-04-18T12:43:42.989Z</time></trkpt><trkpt lat="42.097958" lon="11.8947949"><ele>135.6</ele><time>2026-04-18T12:43:43.989Z</time></trkpt><trkpt lat="42.0978656" lon="11.8947524"><ele>135.0</ele><time>2026-04-18T12:43:44.989Z</time></trkpt><trkpt lat="42.097762" lon="11.8946846"><ele>135.0</ele><time>2026-04-18T12:43:45.989Z</time></trkpt><trkpt lat="42.0976597" lon="11.8946141"><ele>135.0</ele><time>2026-04-18T12:43:46.989Z</time></trkpt><trkpt lat="42.0975844" lon="11.8945606"><ele>135.0</ele><time>2026-04-18T12:43:47.989Z</time></trkpt><trkpt lat="42.0975247" lon="11.8945191"><ele>135.0</ele><time>2026-04-18T12:43:48.989Z</time></trkpt><trkpt lat="42.0974308" lon="11.8944427"><ele>135.0</ele><time>2026-04-18T12:43:50.989Z</time></trkpt><trkpt lat="42.0973758" lon="11.8943669"><ele>134.5</ele><time>2026-04-18T12:43:51.988Z</time></trkpt><trkpt lat="42.0973203" lon="11.894268"><ele>134.0</ele><time>2026-04-18T12:43:52.989Z</time></trkpt><trkpt lat="42.0972678" lon="11.89417"><ele>133.5</ele><time>2026-04-18T12:43:53.989Z</time></trkpt><trkpt lat="42.0972075" lon="11.8940924"><ele>133.0</ele><time>2026-04-18T12:43:54.989Z</time></trkpt><trkpt lat="42.0971448" lon="11.89402"><ele>132.5</ele><time>2026-04-18T12:43:55.989Z</time></trkpt><trkpt lat="42.0970863" lon="11.8939509"><ele>132.0</ele><time>2026-04-18T12:43:56.989Z</time></trkpt><trkpt lat="42.097001" lon="11.8938556"><ele>132.0</ele><time>2026-04-18T12:43:58.989Z</time></trkpt><trkpt lat="42.0969558" lon="11.8937844"><ele>132.0</ele><time>2026-04-18T12:43:59.989Z</time></trkpt><trkpt lat="42.0969085" lon="11.8936753"><ele>132.0</ele><time>2026-04-18T12:44:00.989Z</time></trkpt><trkpt lat="42.096848" lon="11.8935669"><ele>132.0</ele><time>2026-04-18T12:44:01.989Z</time></trkpt><trkpt lat="42.096785" lon="11.8934895"><ele>132.0</ele><time>2026-04-18T12:44:02.989Z</time></trkpt><trkpt lat="42.0967295" lon="11.8934191"><ele>132.0</ele><time>2026-04-18T12:44:03.989Z</time></trkpt><trkpt lat="42.0966809" lon="11.8933452"><ele>130.79999999999998</ele><time>2026-04-18T12:44:04.989Z</time></trkpt><trkpt lat="42.0966296" lon="11.8932844"><ele>129.6</ele><time>2026-04-18T12:44:05.989Z</time></trkpt><trkpt lat="42.0965243" lon="11.8932269"><ele>128.39999999999998</ele><time>2026-04-18T12:44:07.989Z</time></trkpt><trkpt lat="42.0964315" lon="11.893181"><ele>127.19999999999999</ele><time>2026-04-18T12:44:09.989Z</time></trkpt><trkpt lat="42.0963085" lon="11.8931407"><ele>126.0</ele><time>2026-04-18T12:44:11.989Z</time></trkpt><trkpt lat="42.0962146" lon="11.8931094"><ele>128.8</ele><time>2026-04-18T12:44:12.989Z</time></trkpt><trkpt lat="42.0961305" lon="11.8930759"><ele>131.6</ele><time>2026-04-18T12:44:13.989Z</time></trkpt><trkpt lat="42.0960756" lon="11.8930281"><ele>134.4</ele><time>2026-04-18T12:44:14.989Z</time></trkpt><trkpt lat="42.0960353" lon="11.8928957"><ele>137.2</ele><time>2026-04-18T12:44:16.989Z</time></trkpt><trkpt lat="42.0960108" lon="11.8927748"><ele>140.0</ele><time>2026-04-18T12:44:18.989Z</time></trkpt><trkpt lat="42.0959428" lon="11.8926483"><ele>138.33333333333331</ele><time>2026-04-18T12:44:20.989Z</time></trkpt><trkpt lat="42.0958824" lon="11.8925636"><ele>136.66666666666666</ele><time>2026-04-18T12:44:22.989Z</time></trkpt><trkpt lat="42.0958333" lon="11.8924877"><ele>135.0</ele><time>2026-04-18T12:44:25.989Z</time></trkpt><trkpt lat="42.0957575" lon="11.8923929"><ele>133.33333333333334</ele><time>2026-04-18T12:44:27.989Z</time></trkpt><trkpt lat="42.0956676" lon="11.892331"><ele>131.66666666666669</ele><time>2026-04-18T12:44:29.989Z</time></trkpt><trkpt lat="42.0955995" lon="11.892286"><ele>130.0</ele><time>2026-04-18T12:44:30.989Z</time></trkpt><trkpt lat="42.0955315" lon="11.8922363"><ele>133.83333333333334</ele><time>2026-04-18T12:44:31.989Z</time></trkpt><trkpt lat="42.0954887" lon="11.8921719"><ele>137.66666666666669</ele><time>2026-04-18T12:44:32.989Z</time></trkpt><trkpt lat="42.0954508" lon="11.8920962"><ele>141.5</ele><time>2026-04-18T12:44:33.989Z</time></trkpt><trkpt lat="42.0954019" lon="11.8920149"><ele>145.33333333333334</ele><time>2026-04-18T12:44:34.989Z</time></trkpt><trkpt lat="42.0953442" lon="11.8919231"><ele>149.16666666666666</ele><time>2026-04-18T12:44:35.989Z</time></trkpt><trkpt lat="42.0952787" lon="11.8918479"><ele>153.0</ele><time>2026-04-18T12:44:36.989Z</time></trkpt><trkpt lat="42.0952209" lon="11.8917997"><ele>152.66666666666666</ele><time>2026-04-18T12:44:37.988Z</time></trkpt><trkpt lat="42.0951123" lon="11.8917479"><ele>152.33333333333334</ele><time>2026-04-18T12:44:39.989Z</time></trkpt><trkpt lat="42.0950483" lon="11.8917244"><ele>152.0</ele><time>2026-04-18T12:44:40.989Z</time></trkpt><trkpt lat="42.0949778" lon="11.8916987"><ele>151.66666666666669</ele><time>2026-04-18T12:44:41.989Z</time></trkpt><trkpt lat="42.0949048" lon="11.8916653"><ele>151.33333333333334</ele><time>2026-04-18T12:44:42.989Z</time></trkpt><trkpt lat="42.0948333" lon="11.8916346"><ele>151.0</ele><time>2026-04-18T12:44:43.989Z</time></trkpt><trkpt lat="42.0947358" lon="11.8915884"><ele>151.0</ele><time>2026-04-18T12:44:45.989Z</time></trkpt><trkpt lat="42.0947036" lon="11.8914947"><ele>151.0</ele><time>2026-04-18T12:44:47.989Z</time></trkpt><trkpt lat="42.0946473" lon="11.8913727"><ele>151.0</ele><time>2026-04-18T12:44:50.989Z</time></trkpt><trkpt lat="42.0946027" lon="11.8912954"><ele>151.0</ele><time>2026-04-18T12:44:51.989Z</time></trkpt><trkpt lat="42.0945462" lon="11.8912234"><ele>151.0</ele><time>2026-04-18T12:44:52.989Z</time></trkpt><trkpt lat="42.0944761" lon="11.8911662"><ele>151.0</ele><time>2026-04-18T12:44:53.988Z</time></trkpt><trkpt lat="42.0943985" lon="11.8911187"><ele>151.0</ele><time>2026-04-18T12:44:54.989Z</time></trkpt><trkpt lat="42.0943218" lon="11.891087"><ele>151.0</ele><time>2026-04-18T12:44:55.989Z</time></trkpt><trkpt lat="42.0942401" lon="11.8910533"><ele>151.0</ele><time>2026-04-18T12:44:56.989Z</time></trkpt><trkpt lat="42.0941574" lon="11.891002"><ele>151.0</ele><time>2026-04-18T12:44:57.989Z</time></trkpt><trkpt lat="42.0940862" lon="11.8909431"><ele>151.0</ele><time>2026-04-18T12:44:58.989Z</time></trkpt><trkpt lat="42.0940247" lon="11.8908755"><ele>151.0</ele><time>2026-04-18T12:44:59.989Z</time></trkpt><trkpt lat="42.0939672" lon="11.8908043"><ele>150.8</ele><time>2026-04-18T12:45:00.989Z</time></trkpt><trkpt lat="42.0939129" lon="11.8907444"><ele>150.6</ele><time>2026-04-18T12:45:01.989Z</time></trkpt><trkpt lat="42.0938255" lon="11.8906503"><ele>150.4</ele><time>2026-04-18T12:45:03.989Z</time></trkpt><trkpt lat="42.093721" lon="11.890534"><ele>150.2</ele><time>2026-04-18T12:45:05.989Z</time></trkpt><trkpt lat="42.0936463" lon="11.890475"><ele>150.0</ele><time>2026-04-18T12:45:06.989Z</time></trkpt><trkpt lat="42.0935634" lon="11.8904154"><ele>150.0</ele><time>2026-04-18T12:45:07.989Z</time></trkpt><trkpt lat="42.093502" lon="11.8903709"><ele>150.0</ele><time>2026-04-18T12:45:08.989Z</time></trkpt><trkpt lat="42.0934073" lon="11.8902878"><ele>150.0</ele><time>2026-04-18T12:45:10.989Z</time></trkpt><trkpt lat="42.093326" lon="11.8901968"><ele>150.0</ele><time>2026-04-18T12:45:12.989Z</time></trkpt><trkpt lat="42.0931866" lon="11.890116"><ele>150.0</ele><time>2026-04-18T12:45:14.989Z</time></trkpt><trkpt lat="42.0931" lon="11.8900613"><ele>151.16666666666666</ele><time>2026-04-18T12:45:15.989Z</time></trkpt><trkpt lat="42.0930308" lon="11.8900086"><ele>152.33333333333334</ele><time>2026-04-18T12:45:16.989Z</time></trkpt><trkpt lat="42.0929296" lon="11.8899642"><ele>153.5</ele><time>2026-04-18T12:45:18.989Z</time></trkpt><trkpt lat="42.0928202" lon="11.8900114"><ele>154.66666666666669</ele><time>2026-04-18T12:45:20.989Z</time></trkpt><trkpt lat="42.0927542" lon="11.890054"><ele>155.83333333333334</ele><time>2026-04-18T12:45:21.989Z</time></trkpt><trkpt lat="42.0926956" lon="11.8900861"><ele>157.0</ele><time>2026-04-18T12:45:22.989Z</time></trkpt><trkpt lat="42.0925845" lon="11.8901422"><ele>157.0</ele><time>2026-04-18T12:45:24.989Z</time></trkpt><trkpt lat="42.0925204" lon="11.890156"><ele>157.0</ele><time>2026-04-18T12:45:25.989Z</time></trkpt><trkpt lat="42.0924504" lon="11.8901506"><ele>157.0</ele><time>2026-04-18T12:45:26.989Z</time></trkpt><trkpt lat="42.0923667" lon="11.8901388"><ele>157.0</ele><time>2026-04-18T12:45:27.989Z</time></trkpt><trkpt lat="42.0922694" lon="11.8901257"><ele>157.0</ele><time>2026-04-18T12:45:28.989Z</time></trkpt><trkpt lat="42.0921727" lon="11.8901031"><ele>157.0</ele><time>2026-04-18T12:45:29.989Z</time></trkpt><trkpt lat="42.0920991" lon="11.8900668"><ele>155.6</ele><time>2026-04-18T12:45:30.989Z</time></trkpt><trkpt lat="42.0920378" lon="11.8900369"><ele>154.2</ele><time>2026-04-18T12:45:31.989Z</time></trkpt><trkpt lat="42.0919315" lon="11.8899966"><ele>152.8</ele><time>2026-04-18T12:45:33.989Z</time></trkpt><trkpt lat="42.0918359" lon="11.8899655"><ele>151.4</ele><time>2026-04-18T12:45:35.989Z</time></trkpt><trkpt lat="42.0917839" lon="11.8898807"><ele>150.0</ele><time>2026-04-18T12:45:37.989Z</time></trkpt><trkpt lat="42.091807" lon="11.8897191"><ele>150.0</ele><time>2026-04-18T12:45:39.989Z</time></trkpt><trkpt lat="42.0918114" lon="11.8896295"><ele>150.0</ele><time>2026-04-18T12:45:40.989Z</time></trkpt><trkpt lat="42.0917953" lon="11.889542"><ele>150.0</ele><time>2026-04-18T12:45:41.989Z</time></trkpt><trkpt lat="42.0917643" lon="11.8894559"><ele>150.0</ele><time>2026-04-18T12:45:42.989Z</time></trkpt><trkpt lat="42.091723" lon="11.8893405"><ele>150.0</ele><time>2026-04-18T12:45:43.989Z</time></trkpt><trkpt lat="42.0916848" lon="11.8892088"><ele>150.0</ele><time>2026-04-18T12:45:44.989Z</time></trkpt><trkpt lat="42.0916611" lon="11.8891008"><ele>149.0</ele><time>2026-04-18T12:45:45.989Z</time></trkpt><trkpt lat="42.0916482" lon="11.8890171"><ele>148.0</ele><time>2026-04-18T12:45:46.989Z</time></trkpt><trkpt lat="42.0916377" lon="11.8889292"><ele>147.0</ele><time>2026-04-18T12:45:47.989Z</time></trkpt><trkpt lat="42.0916139" lon="11.8888202"><ele>146.0</ele><time>2026-04-18T12:45:48.989Z</time></trkpt><trkpt lat="42.0915769" lon="11.8887064"><ele>145.0</ele><time>2026-04-18T12:45:49.989Z</time></trkpt><trkpt lat="42.0915391" lon="11.8885948"><ele>144.0</ele><time>2026-04-18T12:45:50.989Z</time></trkpt><trkpt lat="42.0914957" lon="11.8884951"><ele>146.0</ele><time>2026-04-18T12:45:51.989Z</time></trkpt><trkpt lat="42.0914439" lon="11.8884011"><ele>148.0</ele><time>2026-04-18T12:45:52.989Z</time></trkpt><trkpt lat="42.0913885" lon="11.8883169"><ele>150.0</ele><time>2026-04-18T12:45:53.989Z</time></trkpt><trkpt lat="42.091328" lon="11.8882538"><ele>152.0</ele><time>2026-04-18T12:45:54.989Z</time></trkpt><trkpt lat="42.0912604" lon="11.8881954"><ele>154.0</ele><time>2026-04-18T12:45:55.989Z</time></trkpt><trkpt lat="42.0911847" lon="11.8881263"><ele>156.0</ele><time>2026-04-18T12:45:56.989Z</time></trkpt><trkpt lat="42.091115" lon="11.8880647"><ele>156.0</ele><time>2026-04-18T12:45:57.989Z</time></trkpt><trkpt lat="42.0910543" lon="11.8880228"><ele>156.0</ele><time>2026-04-18T12:45:58.989Z</time></trkpt><trkpt lat="42.0909901" lon="11.8879922"><ele>156.0</ele><time>2026-04-18T12:45:59.988Z</time></trkpt><trkpt lat="42.0909221" lon="11.8879862"><ele>156.0</ele><time>2026-04-18T12:46:00.989Z</time></trkpt><trkpt lat="42.0908419" lon="11.8879993"><ele>156.0</ele><time>2026-04-18T12:46:01.989Z</time></trkpt><trkpt lat="42.0907537" lon="11.888023"><ele>156.0</ele><time>2026-04-18T12:46:02.989Z</time></trkpt><trkpt lat="42.090668" lon="11.888046"><ele>156.5</ele><time>2026-04-18T12:46:03.989Z</time></trkpt><trkpt lat="42.0905895" lon="11.8880614"><ele>157.0</ele><time>2026-04-18T12:46:04.989Z</time></trkpt><trkpt lat="42.0905124" lon="11.8880652"><ele>157.5</ele><time>2026-04-18T12:46:05.989Z</time></trkpt><trkpt lat="42.0904308" lon="11.8880461"><ele>158.0</ele><time>2026-04-18T12:46:06.989Z</time></trkpt><trkpt lat="42.0903427" lon="11.8880148"><ele>158.5</ele><time>2026-04-18T12:46:07.989Z</time></trkpt><trkpt lat="42.0902568" lon="11.8879704"><ele>159.0</ele><time>2026-04-18T12:46:08.989Z</time></trkpt><trkpt lat="42.0901852" lon="11.8879238"><ele>159.0</ele><time>2026-04-18T12:46:09.989Z</time></trkpt><trkpt lat="42.0900859" lon="11.8878675"><ele>159.0</ele><time>2026-04-18T12:46:11.989Z</time></trkpt><trkpt lat="42.0899814" lon="11.887843"><ele>159.0</ele><time>2026-04-18T12:46:13.989Z</time></trkpt><trkpt lat="42.0899116" lon="11.8878417"><ele>159.0</ele><time>2026-04-18T12:46:14.989Z</time></trkpt><trkpt lat="42.0898407" lon="11.8878671"><ele>159.0</ele><time>2026-04-18T12:46:15.989Z</time></trkpt><trkpt lat="42.0897756" lon="11.8879066"><ele>159.0</ele><time>2026-04-18T12:46:16.989Z</time></trkpt><trkpt lat="42.0897155" lon="11.8879429"><ele>159.0</ele><time>2026-04-18T12:46:17.989Z</time></trkpt><trkpt lat="42.0896585" lon="11.8879975"><ele>159.0</ele><time>2026-04-18T12:46:18.989Z</time></trkpt><trkpt lat="42.08961" lon="11.8880671"><ele>159.0</ele><time>2026-04-18T12:46:19.989Z</time></trkpt><trkpt lat="42.0895602" lon="11.8881523"><ele>159.0</ele><time>2026-04-18T12:46:20.989Z</time></trkpt><trkpt lat="42.0895076" lon="11.888247"><ele>159.0</ele><time>2026-04-18T12:46:21.989Z</time></trkpt><trkpt lat="42.0894431" lon="11.8883412"><ele>159.0</ele><time>2026-04-18T12:46:22.989Z</time></trkpt><trkpt lat="42.0893789" lon="11.88842"><ele>160.0</ele><time>2026-04-18T12:46:23.989Z</time></trkpt><trkpt lat="42.0893086" lon="11.8884906"><ele>161.0</ele><time>2026-04-18T12:46:24.989Z</time></trkpt><trkpt lat="42.0892185" lon="11.8885796"><ele>162.0</ele><time>2026-04-18T12:46:25.989Z</time></trkpt><trkpt lat="42.0891216" lon="11.8886504"><ele>163.0</ele><time>2026-04-18T12:46:26.989Z</time></trkpt><trkpt lat="42.089017" lon="11.8887159"><ele>164.0</ele><time>2026-04-18T12:46:27.989Z</time></trkpt><trkpt lat="42.088921" lon="11.8887742"><ele>164.0</ele><time>2026-04-18T12:46:28.989Z</time></trkpt><trkpt lat="42.0888239" lon="11.8888249"><ele>164.0</ele><time>2026-04-18T12:46:29.989Z</time></trkpt><trkpt lat="42.0887198" lon="11.8888648"><ele>164.0</ele><time>2026-04-18T12:46:30.989Z</time></trkpt><trkpt lat="42.0886371" lon="11.8889043"><ele>164.0</ele><time>2026-04-18T12:46:31.989Z</time></trkpt><trkpt lat="42.0885841" lon="11.8889575"><ele>164.0</ele><time>2026-04-18T12:46:32.989Z</time></trkpt><trkpt lat="42.0885396" lon="11.8890321"><ele>164.0</ele><time>2026-04-18T12:46:33.989Z</time></trkpt><trkpt lat="42.0884987" lon="11.8891211"><ele>164.0</ele><time>2026-04-18T12:46:34.989Z</time></trkpt><trkpt lat="42.0884575" lon="11.8892185"><ele>164.0</ele><time>2026-04-18T12:46:35.989Z</time></trkpt><trkpt lat="42.0884071" lon="11.8893238"><ele>164.0</ele><time>2026-04-18T12:46:36.989Z</time></trkpt><trkpt lat="42.0883476" lon="11.8894373"><ele>164.0</ele><time>2026-04-18T12:46:37.989Z</time></trkpt><trkpt lat="42.0882976" lon="11.8895475"><ele>164.0</ele><time>2026-04-18T12:46:38.989Z</time></trkpt><trkpt lat="42.0882541" lon="11.8896486"><ele>164.5</ele><time>2026-04-18T12:46:39.989Z</time></trkpt><trkpt lat="42.0882081" lon="11.8897533"><ele>165.0</ele><time>2026-04-18T12:46:40.989Z</time></trkpt><trkpt lat="42.0881616" lon="11.8898483"><ele>165.5</ele><time>2026-04-18T12:46:41.989Z</time></trkpt><trkpt lat="42.0881202" lon="11.8899304"><ele>166.0</ele><time>2026-04-18T12:46:42.989Z</time></trkpt><trkpt lat="42.0880791" lon="11.890022"><ele>166.5</ele><time>2026-04-18T12:46:43.989Z</time></trkpt><trkpt lat="42.0880427" lon="11.8901339"><ele>167.0</ele><time>2026-04-18T12:46:44.989Z</time></trkpt><trkpt lat="42.0880193" lon="11.8902407"><ele>168.8</ele><time>2026-04-18T12:46:45.989Z</time></trkpt><trkpt lat="42.0880092" lon="11.8903436"><ele>170.6</ele><time>2026-04-18T12:46:46.989Z</time></trkpt><trkpt lat="42.0880047" lon="11.8904485"><ele>172.4</ele><time>2026-04-18T12:46:47.989Z</time></trkpt><trkpt lat="42.0879537" lon="11.8905707"><ele>174.20000000000002</ele><time>2026-04-18T12:46:49.989Z</time></trkpt><trkpt lat="42.0878702" lon="11.8906863"><ele>176.0</ele><time>2026-04-18T12:46:51.989Z</time></trkpt><trkpt lat="42.0877923" lon="11.8907619"><ele>176.0</ele><time>2026-04-18T12:46:52.989Z</time></trkpt><trkpt lat="42.0876832" lon="11.8908226"><ele>176.0</ele><time>2026-04-18T12:46:53.989Z</time></trkpt><trkpt lat="42.0875729" lon="11.8908689"><ele>176.0</ele><time>2026-04-18T12:46:54.989Z</time></trkpt><trkpt lat="42.0874875" lon="11.8909031"><ele>176.0</ele><time>2026-04-18T12:46:55.989Z</time></trkpt><trkpt lat="42.0874114" lon="11.8909558"><ele>176.0</ele><time>2026-04-18T12:46:56.989Z</time></trkpt><trkpt lat="42.0873365" lon="11.8910149"><ele>176.60000000000002</ele><time>2026-04-18T12:46:57.989Z</time></trkpt><trkpt lat="42.0872699" lon="11.8910617"><ele>177.2</ele><time>2026-04-18T12:46:58.989Z</time></trkpt><trkpt lat="42.0871805" lon="11.8911173"><ele>177.8</ele><time>2026-04-18T12:47:00.989Z</time></trkpt><trkpt lat="42.0871188" lon="11.8909967"><ele>178.39999999999998</ele><time>2026-04-18T12:47:03.989Z</time></trkpt><trkpt lat="42.0871065" lon="11.8908944"><ele>179.0</ele><time>2026-04-18T12:47:04.989Z</time></trkpt><trkpt lat="42.0871077" lon="11.8907674"><ele>178.0</ele><time>2026-04-18T12:47:05.989Z</time></trkpt><trkpt lat="42.0871175" lon="11.8906311"><ele>177.0</ele><time>2026-04-18T12:47:06.989Z</time></trkpt><trkpt lat="42.0871372" lon="11.8905099"><ele>176.0</ele><time>2026-04-18T12:47:07.989Z</time></trkpt><trkpt lat="42.0871759" lon="11.8904075"><ele>175.0</ele><time>2026-04-18T12:47:08.989Z</time></trkpt><trkpt lat="42.0872257" lon="11.8903226"><ele>174.0</ele><time>2026-04-18T12:47:09.989Z</time></trkpt><trkpt lat="42.0872649" lon="11.8902431"><ele>173.0</ele><time>2026-04-18T12:47:10.989Z</time></trkpt><trkpt lat="42.0872831" lon="11.8901547"><ele>171.85714285714286</ele><time>2026-04-18T12:47:11.989Z</time></trkpt><trkpt lat="42.0872835" lon="11.8900597"><ele>170.71428571428572</ele><time>2026-04-18T12:47:12.989Z</time></trkpt><trkpt lat="42.0872718" lon="11.8899646"><ele>169.57142857142858</ele><time>2026-04-18T12:47:13.989Z</time></trkpt><trkpt lat="42.0872536" lon="11.8898767"><ele>168.42857142857144</ele><time>2026-04-18T12:47:14.989Z</time></trkpt><trkpt lat="42.087226" lon="11.8897985"><ele>167.28571428571428</ele><time>2026-04-18T12:47:15.989Z</time></trkpt><trkpt lat="42.0871842" lon="11.8897317"><ele>166.14285714285717</ele><time>2026-04-18T12:47:16.989Z</time></trkpt><trkpt lat="42.0871344" lon="11.88967"><ele>165.0</ele><time>2026-04-18T12:47:17.989Z</time></trkpt><trkpt lat="42.0870623" lon="11.8896044"><ele>165.0</ele><time>2026-04-18T12:47:18.988Z</time></trkpt><trkpt lat="42.0869654" lon="11.8895145"><ele>165.0</ele><time>2026-04-18T12:47:19.989Z</time></trkpt><trkpt lat="42.0868633" lon="11.889429"><ele>165.0</ele><time>2026-04-18T12:47:20.989Z</time></trkpt><trkpt lat="42.0867717" lon="11.8893529"><ele>165.0</ele><time>2026-04-18T12:47:21.989Z</time></trkpt><trkpt lat="42.0866839" lon="11.8892803"><ele>165.0</ele><time>2026-04-18T12:47:22.989Z</time></trkpt><trkpt lat="42.0865986" lon="11.8892262"><ele>161.6</ele><time>2026-04-18T12:47:23.989Z</time></trkpt><trkpt lat="42.0865033" lon="11.8891835"><ele>158.2</ele><time>2026-04-18T12:47:24.989Z</time></trkpt><trkpt lat="42.08641" lon="11.8891386"><ele>154.8</ele><time>2026-04-18T12:47:25.989Z</time></trkpt><trkpt lat="42.0863385" lon="11.889076"><ele>151.4</ele><time>2026-04-18T12:47:26.989Z</time></trkpt><trkpt lat="42.0862733" lon="11.8889785"><ele>148.0</ele><time>2026-04-18T12:47:27.989Z</time></trkpt><trkpt lat="42.0862164" lon="11.8888613"><ele>148.0</ele><time>2026-04-18T12:47:28.989Z</time></trkpt><trkpt lat="42.0861579" lon="11.8887473"><ele>148.0</ele><time>2026-04-18T12:47:29.989Z</time></trkpt><trkpt lat="42.0861015" lon="11.8886394"><ele>148.0</ele><time>2026-04-18T12:47:30.989Z</time></trkpt><trkpt lat="42.0860573" lon="11.8885235"><ele>148.0</ele><time>2026-04-18T12:47:31.989Z</time></trkpt><trkpt lat="42.0860212" lon="11.8884143"><ele>148.0</ele><time>2026-04-18T12:47:32.989Z</time></trkpt><trkpt lat="42.0859909" lon="11.8883177"><ele>146.0</ele><time>2026-04-18T12:47:33.989Z</time></trkpt><trkpt lat="42.0859559" lon="11.8882274"><ele>144.0</ele><time>2026-04-18T12:47:34.989Z</time></trkpt><trkpt lat="42.0859149" lon="11.8881501"><ele>142.0</ele><time>2026-04-18T12:47:35.989Z</time></trkpt><trkpt lat="42.0858665" lon="11.8880805"><ele>140.0</ele><time>2026-04-18T12:47:36.989Z</time></trkpt><trkpt lat="42.0857948" lon="11.8879979"><ele>138.0</ele><time>2026-04-18T12:47:37.989Z</time></trkpt><trkpt lat="42.0871372" lon="11.8905099"><ele>141.85714285714286</ele><time>2026-04-18T12:47:07.989Z</time></trkpt><trkpt lat="42.0871759" lon="11.8904075"><ele>145.71428571428572</ele><time>2026-04-18T12:47:08.989Z</time></trkpt><trkpt lat="42.0872257" lon="11.8903226"><ele>149.57142857142858</ele><time>2026-04-18T12:47:09.989Z</time></trkpt><trkpt lat="42.0872649" lon="11.8902431"><ele>153.42857142857144</ele><time>2026-04-18T12:47:10.989Z</time></trkpt><trkpt lat="42.0872831" lon="11.8901547"><ele>157.28571428571428</ele><time>2026-04-18T12:47:11.989Z</time></trkpt><trkpt lat="42.0872835" lon="11.8900597"><ele>161.14285714285717</ele><time>2026-04-18T12:47:12.989Z</time></trkpt><trkpt lat="42.0872718" lon="11.8899646"><ele>165.0</ele><time>2026-04-18T12:47:13.989Z</time></trkpt><trkpt lat="42.0872536" lon="11.8898767"><ele>165.0</ele><time>2026-04-18T12:47:14.989Z</time></trkpt><trkpt lat="42.087226" lon="11.8897985"><ele>165.0</ele><time>2026-04-18T12:47:15.989Z</time></trkpt><trkpt lat="42.0871842" lon="11.8897317"><ele>165.0</ele><time>2026-04-18T12:47:16.989Z</time></trkpt><trkpt lat="42.0871344" lon="11.88967"><ele>165.0</ele><time>2026-04-18T12:47:17.989Z</time></trkpt><trkpt lat="42.0870623" lon="11.8896044"><ele>165.0</ele><time>2026-04-18T12:47:18.988Z</time></trkpt><trkpt lat="42.0869654" lon="11.8895145"><ele>165.0</ele><time>2026-04-18T12:47:19.989Z</time></trkpt><trkpt lat="42.0868633" lon="11.889429"><ele>165.0</ele><time>2026-04-18T12:47:20.989Z</time></trkpt><trkpt lat="42.0867717" lon="11.8893529"><ele>165.0</ele><time>2026-04-18T12:47:21.989Z</time></trkpt><trkpt lat="42.0866839" lon="11.8892803"><ele>165.0</ele><time>2026-04-18T12:47:22.989Z</time></trkpt><trkpt lat="42.0865986" lon="11.8892262"><ele>165.0</ele><time>2026-04-18T12:47:23.989Z</time></trkpt><trkpt lat="42.0865033" lon="11.8891835"><ele>165.0</ele><time>2026-04-18T12:47:24.989Z</time></trkpt><trkpt lat="42.08641" lon="11.8891386"><ele>161.6</ele><time>2026-04-18T12:47:25.989Z</time></trkpt><trkpt lat="42.0863385" lon="11.889076"><ele>158.2</ele><time>2026-04-18T12:47:26.989Z</time></trkpt><trkpt lat="42.0862733" lon="11.8889785"><ele>154.8</ele><time>2026-04-18T12:47:27.989Z</time></trkpt><trkpt lat="42.0862164" lon="11.8888613"><ele>151.4</ele><time>2026-04-18T12:47:28.989Z</time></trkpt><trkpt lat="42.0861579" lon="11.8887473"><ele>148.0</ele><time>2026-04-18T12:47:29.989Z</time></trkpt><trkpt lat="42.0861015" lon="11.8886394"><ele>148.0</ele><time>2026-04-18T12:47:30.989Z</time></trkpt><trkpt lat="42.0860573" lon="11.8885235"><ele>148.0</ele><time>2026-04-18T12:47:31.989Z</time></trkpt><trkpt lat="42.0860212" lon="11.8884143"><ele>148.0</ele><time>2026-04-18T12:47:32.989Z</time></trkpt><trkpt lat="42.0859909" lon="11.8883177"><ele>148.0</ele><time>2026-04-18T12:47:33.989Z</time></trkpt><trkpt lat="42.0859559" lon="11.8882274"><ele>148.0</ele><time>2026-04-18T12:47:34.989Z</time></trkpt><trkpt lat="42.0859149" lon="11.8881501"><ele>148.0</ele><time>2026-04-18T12:47:35.989Z</time></trkpt><trkpt lat="42.0858665" lon="11.8880805"><ele>146.0</ele><time>2026-04-18T12:47:36.989Z</time></trkpt><trkpt lat="42.0857948" lon="11.8879979"><ele>144.0</ele><time>2026-04-18T12:47:37.989Z</time></trkpt><trkpt lat="42.0857084" lon="11.8879033"><ele>142.0</ele><time>2026-04-18T12:47:38.989Z</time></trkpt><trkpt lat="42.0856352" lon="11.8878038"><ele>140.0</ele><time>2026-04-18T12:47:39.989Z</time></trkpt><trkpt lat="42.0855749" lon="11.8876779"><ele>138.0</ele><time>2026-04-18T12:47:40.989Z</time></trkpt><trkpt lat="42.0855071" lon="11.8875135"><ele>135.25</ele><time>2026-04-18T12:47:41.989Z</time></trkpt><trkpt lat="42.0854355" lon="11.8873331"><ele>132.5</ele><time>2026-04-18T12:47:42.989Z</time></trkpt><trkpt lat="42.085373" lon="11.8871686"><ele>129.75</ele><time>2026-04-18T12:47:43.989Z</time></trkpt><trkpt lat="42.0853183" lon="11.8870134"><ele>127.0</ele><time>2026-04-18T12:47:44.989Z</time></trkpt><trkpt lat="42.0852629" lon="11.8868381"><ele>126.0</ele><time>2026-04-18T12:47:45.989Z</time></trkpt><trkpt lat="42.0852157" lon="11.8866464"><ele>125.0</ele><time>2026-04-18T12:47:46.989Z</time></trkpt><trkpt lat="42.0851834" lon="11.8864745"><ele>124.0</ele><time>2026-04-18T12:47:47.989Z</time></trkpt><trkpt lat="42.0851585" lon="11.8863167"><ele>123.0</ele><time>2026-04-18T12:47:48.989Z</time></trkpt><trkpt lat="42.0851438" lon="11.8861838"><ele>123.0</ele><time>2026-04-18T12:47:49.989Z</time></trkpt><trkpt lat="42.0851352" lon="11.8860918"><ele>123.0</ele><time>2026-04-18T12:47:50.989Z</time></trkpt><trkpt lat="42.0851331" lon="11.8859615"><ele>123.0</ele><time>2026-04-18T12:47:52.989Z</time></trkpt><trkpt lat="42.0851718" lon="11.8858927"><ele>123.0</ele><time>2026-04-18T12:51:34.989Z</time></trkpt><trkpt lat="42.0852088" lon="11.8858067"><ele>123.0</ele><time>2026-04-18T12:51:40.989Z</time></trkpt><trkpt lat="42.0851924" lon="11.8859306"><ele>123.0</ele><time>2026-04-18T12:52:04.989Z</time></trkpt><trkpt lat="42.0851148" lon="11.8859335"><ele>122.33333333333333</ele><time>2026-04-18T12:52:07.989Z</time></trkpt><trkpt lat="42.0851287" lon="11.8858461"><ele>121.66666666666666</ele><time>2026-04-18T12:52:11.989Z</time></trkpt><trkpt lat="42.0851346" lon="11.885676"><ele>121.0</ele><time>2026-04-18T12:52:13.989Z</time></trkpt><trkpt lat="42.0851538" lon="11.8855733"><ele>120.33333333333333</ele><time>2026-04-18T12:52:14.989Z</time></trkpt><trkpt lat="42.0851716" lon="11.8854752"><ele>119.66666666666666</ele><time>2026-04-18T12:52:15.989Z</time></trkpt><trkpt lat="42.0851824" lon="11.8853797"><ele>119.0</ele><time>2026-04-18T12:52:16.989Z</time></trkpt><trkpt lat="42.0852188" lon="11.8852172"><ele>117.33333333333333</ele><time>2026-04-18T12:52:18.989Z</time></trkpt><trkpt lat="42.0852491" lon="11.8850521"><ele>115.66666666666666</ele><time>2026-04-18T12:52:20.989Z</time></trkpt><trkpt lat="42.0852477" lon="11.8849632"><ele>114.0</ele><time>2026-04-18T12:52:21.989Z</time></trkpt><trkpt lat="42.0852537" lon="11.884867"><ele>112.33333333333334</ele><time>2026-04-18T12:52:22.989Z</time></trkpt><trkpt lat="42.0852743" lon="11.8847625"><ele>110.66666666666667</ele><time>2026-04-18T12:52:23.989Z</time></trkpt><trkpt lat="42.0852881" lon="11.8846644"><ele>109.0</ele><time>2026-04-18T12:52:24.989Z</time></trkpt><trkpt lat="42.0852763" lon="11.8845771"><ele>109.00000000000001</ele><time>2026-04-18T12:52:25.989Z</time></trkpt><trkpt lat="42.0852474" lon="11.884492"><ele>109.0</ele><time>2026-04-18T12:52:26.989Z</time></trkpt><trkpt lat="42.0852023" lon="11.8844104"><ele>109.0</ele><time>2026-04-18T12:52:27.989Z</time></trkpt><trkpt lat="42.085147" lon="11.8843365"><ele>109.0</ele><time>2026-04-18T12:52:28.989Z</time></trkpt><trkpt lat="42.0850924" lon="11.8842586"><ele>109.00000000000001</ele><time>2026-04-18T12:52:29.989Z</time></trkpt><trkpt lat="42.085037" lon="11.8841752"><ele>109.0</ele><time>2026-04-18T12:52:30.989Z</time></trkpt><trkpt lat="42.0849607" lon="11.8840747"><ele>105.25</ele><time>2026-04-18T12:52:31.989Z</time></trkpt><trkpt lat="42.0848662" lon="11.8839614"><ele>101.5</ele><time>2026-04-18T12:52:32.989Z</time></trkpt><trkpt lat="42.0847761" lon="11.8838535"><ele>97.75</ele><time>2026-04-18T12:52:33.989Z</time></trkpt><trkpt lat="42.0846865" lon="11.8837426"><ele>94.0</ele><time>2026-04-18T12:52:34.988Z</time></trkpt><trkpt lat="42.0846075" lon="11.8836294"><ele>94.0</ele><time>2026-04-18T12:52:35.988Z</time></trkpt><trkpt lat="42.084542" lon="11.8835168"><ele>94.0</ele><time>2026-04-18T12:52:36.989Z</time></trkpt><trkpt lat="42.0844694" lon="11.8834311"><ele>94.0</ele><time>2026-04-18T12:52:37.989Z</time></trkpt><trkpt lat="42.084385" lon="11.8833795"><ele>94.0</ele><time>2026-04-18T12:52:38.989Z</time></trkpt><trkpt lat="42.0842991" lon="11.8833476"><ele>94.0</ele><time>2026-04-18T12:52:39.989Z</time></trkpt><trkpt lat="42.0842397" lon="11.8833168"><ele>94.0</ele><time>2026-04-18T12:52:40.989Z</time></trkpt><trkpt lat="42.0841816" lon="11.8832152"><ele>93.2</ele><time>2026-04-18T12:52:42.989Z</time></trkpt><trkpt lat="42.0841896" lon="11.8830978"><ele>92.4</ele><time>2026-04-18T12:52:44.989Z</time></trkpt><trkpt lat="42.0842317" lon="11.8829535"><ele>91.6</ele><time>2026-04-18T12:52:46.989Z</time></trkpt><trkpt lat="42.0842463" lon="11.8828117"><ele>90.8</ele><time>2026-04-18T12:52:48.989Z</time></trkpt><trkpt lat="42.0842447" lon="11.8827114"><ele>90.0</ele><time>2026-04-18T12:52:50.989Z</time></trkpt><trkpt lat="42.0842947" lon="11.8826245"><ele>90.0</ele><time>2026-04-18T12:52:52.989Z</time></trkpt><trkpt lat="42.0844026" lon="11.882606"><ele>90.0</ele><time>2026-04-18T12:52:54.989Z</time></trkpt><trkpt lat="42.0844723" lon="11.8826214"><ele>90.0</ele><time>2026-04-18T12:52:55.989Z</time></trkpt><trkpt lat="42.0845621" lon="11.8826308"><ele>90.0</ele><time>2026-04-18T12:52:56.989Z</time></trkpt><trkpt lat="42.0846448" lon="11.8826359"><ele>90.0</ele><time>2026-04-18T12:52:57.989Z</time></trkpt><trkpt lat="42.0847177" lon="11.8826247"><ele>90.0</ele><time>2026-04-18T12:52:58.989Z</time></trkpt><trkpt lat="42.0848065" lon="11.8825883"><ele>90.0</ele><time>2026-04-18T12:53:00.989Z</time></trkpt><trkpt lat="42.0848674" lon="11.8825336"><ele>90.0</ele><time>2026-04-18T12:55:58.989Z</time></trkpt><trkpt lat="42.0849352" lon="11.8824025"><ele>90.0</ele><time>2026-04-18T12:56:00.989Z</time></trkpt><trkpt lat="42.0849744" lon="11.8822974"><ele>90.0</ele><time>2026-04-18T12:56:01.989Z</time></trkpt><trkpt lat="42.08502" lon="11.8821634"><ele>90.0</ele><time>2026-04-18T12:56:02.989Z</time></trkpt><trkpt lat="42.0850616" lon="11.8820261"><ele>90.2</ele><time>2026-04-18T12:56:03.989Z</time></trkpt><trkpt lat="42.0850968" lon="11.8819105"><ele>90.4</ele><time>2026-04-18T12:56:04.989Z</time></trkpt><trkpt lat="42.0851267" lon="11.8818046"><ele>90.6</ele><time>2026-04-18T12:56:05.989Z</time></trkpt><trkpt lat="42.0851515" lon="11.8816752"><ele>90.8</ele><time>2026-04-18T12:56:06.989Z</time></trkpt><trkpt lat="42.085177" lon="11.8815538"><ele>91.0</ele><time>2026-04-18T12:56:07.989Z</time></trkpt><trkpt lat="42.0851964" lon="11.8814219"><ele>91.16666666666666</ele><time>2026-04-18T12:56:08.988Z</time></trkpt><trkpt lat="42.0851933" lon="11.881302"><ele>91.33333333333333</ele><time>2026-04-18T12:56:09.989Z</time></trkpt><trkpt lat="42.0851986" lon="11.8811993"><ele>91.5</ele><time>2026-04-18T12:56:10.989Z</time></trkpt><trkpt lat="42.0852125" lon="11.8811064"><ele>91.66666666666667</ele><time>2026-04-18T12:56:11.989Z</time></trkpt><trkpt lat="42.0852406" lon="11.8810145"><ele>91.83333333333334</ele><time>2026-04-18T12:56:12.989Z</time></trkpt><trkpt lat="42.0852864" lon="11.8809194"><ele>92.0</ele><time>2026-04-18T12:56:13.989Z</time></trkpt><trkpt lat="42.0853318" lon="11.8808091"><ele>93.39999999999999</ele><time>2026-04-18T12:56:14.989Z</time></trkpt><trkpt lat="42.0853696" lon="11.8806843"><ele>94.8</ele><time>2026-04-18T12:56:15.989Z</time></trkpt><trkpt lat="42.0854049" lon="11.8805657"><ele>96.2</ele><time>2026-04-18T12:56:16.989Z</time></trkpt><trkpt lat="42.085437" lon="11.8804729"><ele>97.6</ele><time>2026-04-18T12:56:17.989Z</time></trkpt><trkpt lat="42.085527" lon="11.8803428"><ele>99.0</ele><time>2026-04-18T12:56:19.989Z</time></trkpt><trkpt lat="42.0855889" lon="11.8802692"><ele>99.0</ele><time>2026-04-18T12:56:20.989Z</time></trkpt><trkpt lat="42.0856552" lon="11.8801855"><ele>99.0</ele><time>2026-04-18T12:56:21.989Z</time></trkpt><trkpt lat="42.085729" lon="11.8801064"><ele>99.0</ele><time>2026-04-18T12:56:22.989Z</time></trkpt><trkpt lat="42.0858063" lon="11.8800193"><ele>99.0</ele><time>2026-04-18T12:56:23.989Z</time></trkpt><trkpt lat="42.0858667" lon="11.8799194"><ele>99.0</ele><time>2026-04-18T12:56:24.988Z</time></trkpt><trkpt lat="42.0858933" lon="11.879816"><ele>101.83333333333333</ele><time>2026-04-18T12:56:25.989Z</time></trkpt><trkpt lat="42.0859003" lon="11.879697"><ele>104.66666666666666</ele><time>2026-04-18T12:56:26.989Z</time></trkpt><trkpt lat="42.0858982" lon="11.8795739"><ele>107.5</ele><time>2026-04-18T12:56:27.989Z</time></trkpt><trkpt lat="42.0858826" lon="11.8794579"><ele>110.33333333333333</ele><time>2026-04-18T12:56:28.989Z</time></trkpt><trkpt lat="42.0858659" lon="11.8793554"><ele>113.16666666666666</ele><time>2026-04-18T12:56:29.989Z</time></trkpt><trkpt lat="42.085856" lon="11.8792596"><ele>116.0</ele><time>2026-04-18T12:56:30.989Z</time></trkpt><trkpt lat="42.0858605" lon="11.8791569"><ele>117.83333333333333</ele><time>2026-04-18T12:56:31.989Z</time></trkpt><trkpt lat="42.0858739" lon="11.8790471"><ele>119.66666666666666</ele><time>2026-04-18T12:56:32.989Z</time></trkpt><trkpt lat="42.0858914" lon="11.8789375"><ele>121.5</ele><time>2026-04-18T12:56:33.989Z</time></trkpt><trkpt lat="42.0859186" lon="11.8788292"><ele>123.33333333333334</ele><time>2026-04-18T12:56:34.989Z</time></trkpt><trkpt lat="42.0859569" lon="11.8787124"><ele>125.16666666666667</ele><time>2026-04-18T12:56:35.989Z</time></trkpt><trkpt lat="42.0859997" lon="11.8785978"><ele>127.0</ele><time>2026-04-18T12:56:36.989Z</time></trkpt><trkpt lat="42.0860381" lon="11.8784965"><ele>128.5</ele><time>2026-04-18T12:56:37.989Z</time></trkpt><trkpt lat="42.0860754" lon="11.8784091"><ele>130.0</ele><time>2026-04-18T12:56:38.989Z</time></trkpt><trkpt lat="42.0861115" lon="11.8783249"><ele>131.5</ele><time>2026-04-18T12:56:39.989Z</time></trkpt><trkpt lat="42.0861529" lon="11.8782441"><ele>133.0</ele><time>2026-04-18T12:56:40.989Z</time></trkpt><trkpt lat="42.086199" lon="11.8781533"><ele>134.5</ele><time>2026-04-18T12:56:41.989Z</time></trkpt><trkpt lat="42.0862543" lon="11.8780524"><ele>136.0</ele><time>2026-04-18T12:56:42.989Z</time></trkpt><trkpt lat="42.0863133" lon="11.8779548"><ele>136.0</ele><time>2026-04-18T12:56:43.989Z</time></trkpt><trkpt lat="42.0863694" lon="11.8778571"><ele>136.0</ele><time>2026-04-18T12:56:44.989Z</time></trkpt><trkpt lat="42.0864356" lon="11.8777579"><ele>136.0</ele><time>2026-04-18T12:56:45.989Z</time></trkpt><trkpt lat="42.086505" lon="11.8776886"><ele>136.0</ele><time>2026-04-18T12:56:46.989Z</time></trkpt><trkpt lat="42.0865727" lon="11.8776418"><ele>136.0</ele><time>2026-04-18T12:56:47.989Z</time></trkpt><trkpt lat="42.0866337" lon="11.8775786"><ele>136.0</ele><time>2026-04-18T12:56:48.989Z</time></trkpt><trkpt lat="42.0866759" lon="11.8775038"><ele>139.0</ele><time>2026-04-18T12:56:49.989Z</time></trkpt><trkpt lat="42.0867524" lon="11.8773587"><ele>142.0</ele><time>2026-04-18T12:56:51.989Z</time></trkpt><trkpt lat="42.0868333" lon="11.8772789"><ele>145.0</ele><time>2026-04-18T12:56:52.989Z</time></trkpt><trkpt lat="42.0869124" lon="11.8772113"><ele>148.0</ele><time>2026-04-18T12:56:53.989Z</time></trkpt><trkpt lat="42.0869689" lon="11.8771486"><ele>151.0</ele><time>2026-04-18T12:56:54.989Z</time></trkpt><trkpt lat="42.0870077" lon="11.8770729"><ele>151.00000000000003</ele><time>2026-04-18T12:56:55.989Z</time></trkpt><trkpt lat="42.0870351" lon="11.8769828"><ele>151.0</ele><time>2026-04-18T12:56:56.989Z</time></trkpt><trkpt lat="42.0870615" lon="11.8768976"><ele>151.0</ele><time>2026-04-18T12:56:57.989Z</time></trkpt><trkpt lat="42.0870859" lon="11.8768112"><ele>151.0</ele><time>2026-04-18T12:56:58.989Z</time></trkpt><trkpt lat="42.0871018" lon="11.8767182"><ele>151.0</ele><time>2026-04-18T12:56:59.989Z</time></trkpt><trkpt lat="42.0871148" lon="11.8766261"><ele>151.00000000000003</ele><time>2026-04-18T12:57:00.989Z</time></trkpt><trkpt lat="42.087146" lon="11.8765197"><ele>151.0</ele><time>2026-04-18T12:57:01.989Z</time></trkpt><trkpt lat="42.0871947" lon="11.876411"><ele>152.8</ele><time>2026-04-18T12:57:02.989Z</time></trkpt><trkpt lat="42.0872476" lon="11.8763175"><ele>154.6</ele><time>2026-04-18T12:57:03.989Z</time></trkpt><trkpt lat="42.0872954" lon="11.8762567"><ele>156.4</ele><time>2026-04-18T12:57:04.989Z</time></trkpt><trkpt lat="42.0873678" lon="11.876152"><ele>158.2</ele><time>2026-04-18T12:57:06.989Z</time></trkpt><trkpt lat="42.0874224" lon="11.8760152"><ele>160.0</ele><time>2026-04-18T12:57:08.989Z</time></trkpt><trkpt lat="42.0874708" lon="11.8759327"><ele>161.83333333333334</ele><time>2026-04-18T12:57:09.989Z</time></trkpt><trkpt lat="42.0875233" lon="11.8758395"><ele>163.66666666666669</ele><time>2026-04-18T12:57:10.989Z</time></trkpt><trkpt lat="42.0875559" lon="11.8757444"><ele>165.5</ele><time>2026-04-18T12:57:11.989Z</time></trkpt><trkpt lat="42.0875703" lon="11.8756391"><ele>167.33333333333334</ele><time>2026-04-18T12:57:12.989Z</time></trkpt><trkpt lat="42.0875877" lon="11.8755264"><ele>169.16666666666666</ele><time>2026-04-18T12:57:13.989Z</time></trkpt><trkpt lat="42.087613" lon="11.8754282"><ele>171.0</ele><time>2026-04-18T12:57:14.989Z</time></trkpt><trkpt lat="42.0876493" lon="11.8753447"><ele>171.0</ele><time>2026-04-18T12:57:15.989Z</time></trkpt><trkpt lat="42.087711" lon="11.8752673"><ele>171.0</ele><time>2026-04-18T12:57:16.989Z</time></trkpt><trkpt lat="42.0877959" lon="11.8752021"><ele>171.0</ele><time>2026-04-18T12:57:17.989Z</time></trkpt><trkpt lat="42.0878834" lon="11.8751454"><ele>171.0</ele><time>2026-04-18T12:57:18.989Z</time></trkpt><trkpt lat="42.0879638" lon="11.8750743"><ele>171.0</ele><time>2026-04-18T12:57:19.989Z</time></trkpt><trkpt lat="42.0880515" lon="11.8749958"><ele>172.0</ele><time>2026-04-18T12:57:20.989Z</time></trkpt><trkpt lat="42.0881492" lon="11.8749159"><ele>173.0</ele><time>2026-04-18T12:57:21.989Z</time></trkpt><trkpt lat="42.0882429" lon="11.8748294"><ele>174.0</ele><time>2026-04-18T12:57:22.989Z</time></trkpt><trkpt lat="42.0883317" lon="11.8747371"><ele>175.0</ele><time>2026-04-18T12:57:23.989Z</time></trkpt><trkpt lat="42.088409" lon="11.8746485"><ele>176.0</ele><time>2026-04-18T12:57:24.989Z</time></trkpt><trkpt lat="42.0884814" lon="11.8745491"><ele>176.0</ele><time>2026-04-18T12:57:25.989Z</time></trkpt><trkpt lat="42.08855" lon="11.8744542"><ele>176.0</ele><time>2026-04-18T12:57:26.989Z</time></trkpt><trkpt lat="42.0886008" lon="11.8743685"><ele>176.0</ele><time>2026-04-18T12:57:27.989Z</time></trkpt><trkpt lat="42.0886491" lon="11.8742774"><ele>176.0</ele><time>2026-04-18T12:57:28.989Z</time></trkpt><trkpt lat="42.0886998" lon="11.8742048"><ele>176.0</ele><time>2026-04-18T12:57:29.989Z</time></trkpt><trkpt lat="42.0887689" lon="11.874155"><ele>176.0</ele><time>2026-04-18T12:57:30.989Z</time></trkpt><trkpt lat="42.0888539" lon="11.8740968"><ele>178.16666666666666</ele><time>2026-04-18T12:57:31.989Z</time></trkpt><trkpt lat="42.0889219" lon="11.8740472"><ele>180.33333333333331</ele><time>2026-04-18T12:57:32.989Z</time></trkpt><trkpt lat="42.0889733" lon="11.8739944"><ele>182.5</ele><time>2026-04-18T12:57:33.989Z</time></trkpt><trkpt lat="42.0890204" lon="11.8739114"><ele>184.66666666666666</ele><time>2026-04-18T12:57:34.989Z</time></trkpt><trkpt lat="42.089069" lon="11.8738003"><ele>186.83333333333334</ele><time>2026-04-18T12:57:35.989Z</time></trkpt><trkpt lat="42.0891265" lon="11.8736718"><ele>189.0</ele><time>2026-04-18T12:57:36.989Z</time></trkpt><trkpt lat="42.0891876" lon="11.8735486"><ele>192.5</ele><time>2026-04-18T12:57:37.989Z</time></trkpt><trkpt lat="42.0892568" lon="11.873422"><ele>196.0</ele><time>2026-04-18T12:57:38.989Z</time></trkpt><trkpt lat="42.0893369" lon="11.8732746"><ele>199.5</ele><time>2026-04-18T12:57:39.989Z</time></trkpt><trkpt lat="42.0894071" lon="11.873138"><ele>203.0</ele><time>2026-04-18T12:57:40.989Z</time></trkpt><trkpt lat="42.0894675" lon="11.8730113"><ele>203.0</ele><time>2026-04-18T12:57:41.989Z</time></trkpt><trkpt lat="42.0895209" lon="11.8728813"><ele>203.0</ele><time>2026-04-18T12:57:42.989Z</time></trkpt><trkpt lat="42.0895692" lon="11.8727501"><ele>203.0</ele><time>2026-04-18T12:57:43.989Z</time></trkpt><trkpt lat="42.0896208" lon="11.8726335"><ele>203.0</ele><time>2026-04-18T12:57:44.989Z</time></trkpt><trkpt lat="42.0896838" lon="11.8725344"><ele>203.0</ele><time>2026-04-18T12:57:45.989Z</time></trkpt><trkpt lat="42.0897512" lon="11.8724422"><ele>205.66666666666669</ele><time>2026-04-18T12:57:46.989Z</time></trkpt><trkpt lat="42.0898104" lon="11.8723687"><ele>208.33333333333334</ele><time>2026-04-18T12:57:47.989Z</time></trkpt><trkpt lat="42.0898621" lon="11.8723089"><ele>211.0</ele><time>2026-04-18T12:57:48.989Z</time></trkpt><trkpt lat="42.0898727" lon="11.8722211"><ele>213.66666666666669</ele><time>2026-04-18T12:57:50.989Z</time></trkpt><trkpt lat="42.0898261" lon="11.8721103"><ele>216.33333333333334</ele><time>2026-04-18T12:57:52.989Z</time></trkpt><trkpt lat="42.0897092" lon="11.872022"><ele>219.0</ele><time>2026-04-18T12:57:54.989Z</time></trkpt><trkpt lat="42.0896189" lon="11.871983"><ele>219.0</ele><time>2026-04-18T12:57:55.989Z</time></trkpt><trkpt lat="42.0895194" lon="11.8719586"><ele>218.99999999999997</ele><time>2026-04-18T12:57:56.989Z</time></trkpt><trkpt lat="42.089438" lon="11.8719465"><ele>218.99999999999997</ele><time>2026-04-18T12:57:57.989Z</time></trkpt><trkpt lat="42.0893162" lon="11.8719239"><ele>219.0</ele><time>2026-04-18T12:57:59.989Z</time></trkpt><trkpt lat="42.0892434" lon="11.8719131"><ele>219.0</ele><time>2026-04-18T12:58:00.989Z</time></trkpt><trkpt lat="42.0891639" lon="11.8718985"><ele>219.33333333333334</ele><time>2026-04-18T12:58:01.989Z</time></trkpt><trkpt lat="42.0890861" lon="11.8718784"><ele>219.66666666666669</ele><time>2026-04-18T12:58:02.989Z</time></trkpt><trkpt lat="42.0890028" lon="11.8718583"><ele>220.0</ele><time>2026-04-18T12:58:03.989Z</time></trkpt><trkpt lat="42.0889179" lon="11.8718283"><ele>220.33333333333334</ele><time>2026-04-18T12:58:04.989Z</time></trkpt><trkpt lat="42.0888324" lon="11.8717843"><ele>220.66666666666669</ele><time>2026-04-18T12:58:05.989Z</time></trkpt><trkpt lat="42.0887415" lon="11.8717242"><ele>221.0</ele><time>2026-04-18T12:58:06.989Z</time></trkpt><trkpt lat="42.0886452" lon="11.8716642"><ele>223.0</ele><time>2026-04-18T12:58:07.989Z</time></trkpt><trkpt lat="42.0885331" lon="11.871608"><ele>225.0</ele><time>2026-04-18T12:58:08.989Z</time></trkpt><trkpt lat="42.0884171" lon="11.8715513"><ele>227.0</ele><time>2026-04-18T12:58:09.989Z</time></trkpt><trkpt lat="42.0883054" lon="11.8715101"><ele>229.0</ele><time>2026-04-18T12:58:10.989Z</time></trkpt><trkpt lat="42.0881945" lon="11.871491"><ele>229.5</ele><time>2026-04-18T12:58:11.989Z</time></trkpt><trkpt lat="42.0880716" lon="11.8714859"><ele>230.0</ele><time>2026-04-18T12:58:12.989Z</time></trkpt><trkpt lat="42.0879417" lon="11.8714887"><ele>230.5</ele><time>2026-04-18T12:58:13.989Z</time></trkpt><trkpt lat="42.0878311" lon="11.871495"><ele>231.0</ele><time>2026-04-18T12:58:14.989Z</time></trkpt><trkpt lat="42.0877438" lon="11.8714952"><ele>231.0</ele><time>2026-04-18T12:58:15.989Z</time></trkpt><trkpt lat="42.0876789" lon="11.87149"><ele>231.00000000000003</ele><time>2026-04-18T12:58:16.989Z</time></trkpt><trkpt lat="42.0876153" lon="11.8714973"><ele>231.00000000000003</ele><time>2026-04-18T12:58:17.989Z</time></trkpt><trkpt lat="42.0875236" lon="11.8715076"><ele>231.0</ele><time>2026-04-18T12:58:18.989Z</time></trkpt><trkpt lat="42.0874011" lon="11.8715268"><ele>231.0</ele><time>2026-04-18T12:58:19.989Z</time></trkpt><trkpt lat="42.0872647" lon="11.8715493"><ele>232.75</ele><time>2026-04-18T12:58:20.989Z</time></trkpt><trkpt lat="42.0871223" lon="11.8715756"><ele>234.5</ele><time>2026-04-18T12:58:21.989Z</time></trkpt><trkpt lat="42.0869881" lon="11.8715995"><ele>236.25</ele><time>2026-04-18T12:58:22.989Z</time></trkpt><trkpt lat="42.0868641" lon="11.8716035"><ele>238.0</ele><time>2026-04-18T12:58:23.989Z</time></trkpt><trkpt lat="42.0867478" lon="11.8715863"><ele>238.0</ele><time>2026-04-18T12:58:24.989Z</time></trkpt><trkpt lat="42.086629" lon="11.8715444"><ele>238.0</ele><time>2026-04-18T12:58:25.989Z</time></trkpt><trkpt lat="42.0865102" lon="11.8714934"><ele>238.0</ele><time>2026-04-18T12:58:26.989Z</time></trkpt><trkpt lat="42.0864068" lon="11.871456"><ele>238.0</ele><time>2026-04-18T12:58:27.989Z</time></trkpt><trkpt lat="42.0863176" lon="11.871442"><ele>238.0</ele><time>2026-04-18T12:58:28.989Z</time></trkpt><trkpt lat="42.0862359" lon="11.8714522"><ele>238.0</ele><time>2026-04-18T12:58:29.989Z</time></trkpt><trkpt lat="42.0861645" lon="11.8714834"><ele>238.0</ele><time>2026-04-18T12:58:30.989Z</time></trkpt><trkpt lat="42.0860771" lon="11.8715938"><ele>238.0</ele><time>2026-04-18T12:58:32.989Z</time></trkpt><trkpt lat="42.0860273" lon="11.8716612"><ele>238.0</ele><time>2026-04-18T12:58:33.989Z</time></trkpt><trkpt lat="42.0859551" lon="11.8717502"><ele>238.0</ele><time>2026-04-18T12:58:34.989Z</time></trkpt><trkpt lat="42.0858563" lon="11.8718474"><ele>237.2</ele><time>2026-04-18T12:58:35.989Z</time></trkpt><trkpt lat="42.0857532" lon="11.8719411"><ele>236.4</ele><time>2026-04-18T12:58:36.989Z</time></trkpt><trkpt lat="42.0856707" lon="11.8720244"><ele>235.59999999999997</ele><time>2026-04-18T12:58:37.989Z</time></trkpt><trkpt lat="42.0855993" lon="11.8720788"><ele>234.79999999999998</ele><time>2026-04-18T12:58:38.989Z</time></trkpt><trkpt lat="42.0855301" lon="11.872125"><ele>234.0</ele><time>2026-04-18T12:58:39.989Z</time></trkpt><trkpt lat="42.0854698" lon="11.8721632"><ele>234.0</ele><time>2026-04-18T12:58:40.989Z</time></trkpt><trkpt lat="42.0853978" lon="11.8722089"><ele>234.0</ele><time>2026-04-18T12:58:41.989Z</time></trkpt><trkpt lat="42.085308" lon="11.8722566"><ele>234.0</ele><time>2026-04-18T12:58:42.989Z</time></trkpt><trkpt lat="42.0852247" lon="11.8722972"><ele>234.0</ele><time>2026-04-18T12:58:43.989Z</time></trkpt><trkpt lat="42.0851475" lon="11.872339"><ele>234.0</ele><time>2026-04-18T12:58:44.989Z</time></trkpt><trkpt lat="42.0850637" lon="11.8723892"><ele>234.0</ele><time>2026-04-18T12:58:45.989Z</time></trkpt><trkpt lat="42.0849854" lon="11.872442"><ele>233.5</ele><time>2026-04-18T12:58:46.989Z</time></trkpt><trkpt lat="42.0849137" lon="11.8724998"><ele>233.0</ele><time>2026-04-18T12:58:47.989Z</time></trkpt><trkpt lat="42.0848488" lon="11.8725602"><ele>232.5</ele><time>2026-04-18T12:58:48.989Z</time></trkpt><trkpt lat="42.0847893" lon="11.8726209"><ele>232.0</ele><time>2026-04-18T12:58:49.989Z</time></trkpt><trkpt lat="42.0847327" lon="11.8726775"><ele>231.5</ele><time>2026-04-18T12:58:50.989Z</time></trkpt><trkpt lat="42.0846287" lon="11.8727204"><ele>231.0</ele><time>2026-04-18T12:58:52.989Z</time></trkpt><trkpt lat="42.0845441" lon="11.8726629"><ele>231.0</ele><time>2026-04-18T12:58:59.989Z</time></trkpt><trkpt lat="42.0844368" lon="11.8725454"><ele>231.00000000000003</ele><time>2026-04-18T12:59:01.989Z</time></trkpt><trkpt lat="42.0843783" lon="11.8724749"><ele>231.00000000000003</ele><time>2026-04-18T12:59:02.989Z</time></trkpt><trkpt lat="42.084313" lon="11.872407"><ele>231.0</ele><time>2026-04-18T12:59:03.989Z</time></trkpt><trkpt lat="42.0842465" lon="11.8723419"><ele>231.0</ele><time>2026-04-18T12:59:04.989Z</time></trkpt><trkpt lat="42.0841817" lon="11.8722708"><ele>231.0</ele><time>2026-04-18T12:59:05.989Z</time></trkpt><trkpt lat="42.0841194" lon="11.8721954"><ele>231.0</ele><time>2026-04-18T12:59:06.989Z</time></trkpt><trkpt lat="42.0840554" lon="11.8721262"><ele>231.0</ele><time>2026-04-18T12:59:07.989Z</time></trkpt><trkpt lat="42.0839785" lon="11.872063"><ele>231.0</ele><time>2026-04-18T12:59:08.989Z</time></trkpt><trkpt lat="42.0838998" lon="11.8719971"><ele>231.0</ele><time>2026-04-18T12:59:09.989Z</time></trkpt><trkpt lat="42.0838249" lon="11.8719235"><ele>231.0</ele><time>2026-04-18T12:59:10.989Z</time></trkpt><trkpt lat="42.08376" lon="11.8718468"><ele>228.83333333333334</ele><time>2026-04-18T12:59:11.989Z</time></trkpt><trkpt lat="42.0836951" lon="11.8717726"><ele>226.66666666666669</ele><time>2026-04-18T12:59:12.989Z</time></trkpt><trkpt lat="42.0836255" lon="11.8717037"><ele>224.5</ele><time>2026-04-18T12:59:13.988Z</time></trkpt><trkpt lat="42.0835526" lon="11.8716424"><ele>222.33333333333334</ele><time>2026-04-18T12:59:14.989Z</time></trkpt><trkpt lat="42.0834933" lon="11.8715896"><ele>220.16666666666669</ele><time>2026-04-18T12:59:15.989Z</time></trkpt><trkpt lat="42.0834389" lon="11.8715254"><ele>218.0</ele><time>2026-04-18T12:59:16.989Z</time></trkpt><trkpt lat="42.0833867" lon="11.871456"><ele>218.00000000000003</ele><time>2026-04-18T12:59:17.989Z</time></trkpt><trkpt lat="42.0833348" lon="11.8713962"><ele>218.0</ele><time>2026-04-18T12:59:18.989Z</time></trkpt><trkpt lat="42.0832755" lon="11.871353"><ele>218.0</ele><time>2026-04-18T12:59:19.989Z</time></trkpt><trkpt lat="42.0831787" lon="11.8712753"><ele>218.0</ele><time>2026-04-18T12:59:21.989Z</time></trkpt><trkpt lat="42.0831055" lon="11.8712275"><ele>218.00000000000003</ele><time>2026-04-18T12:59:23.989Z</time></trkpt><trkpt lat="42.0830162" lon="11.8711462"><ele>218.0</ele><time>2026-04-18T12:59:27.989Z</time></trkpt><trkpt lat="42.0829319" lon="11.8710865"><ele>218.0</ele><time>2026-04-18T12:59:29.989Z</time></trkpt><trkpt lat="42.0828235" lon="11.8710437"><ele>218.0</ele><time>2026-04-18T12:59:31.989Z</time></trkpt><trkpt lat="42.0827054" lon="11.8710126"><ele>218.0</ele><time>2026-04-18T12:59:33.989Z</time></trkpt><trkpt lat="42.0826368" lon="11.8709873"><ele>218.0</ele><time>2026-04-18T12:59:34.989Z</time></trkpt><trkpt lat="42.082553" lon="11.8709506"><ele>218.0</ele><time>2026-04-18T12:59:35.989Z</time></trkpt><trkpt lat="42.082469" lon="11.8709126"><ele>216.00000000000003</ele><time>2026-04-18T12:59:36.989Z</time></trkpt><trkpt lat="42.0823956" lon="11.8708698"><ele>214.0</ele><time>2026-04-18T12:59:37.989Z</time></trkpt><trkpt lat="42.0823183" lon="11.8708181"><ele>212.0</ele><time>2026-04-18T12:59:38.989Z</time></trkpt><trkpt lat="42.0822435" lon="11.8707658"><ele>210.0</ele><time>2026-04-18T12:59:39.989Z</time></trkpt><trkpt lat="42.0821752" lon="11.8707222"><ele>208.00000000000003</ele><time>2026-04-18T12:59:40.989Z</time></trkpt><trkpt lat="42.0820915" lon="11.8706903"><ele>206.0</ele><time>2026-04-18T12:59:41.989Z</time></trkpt><trkpt lat="42.0820028" lon="11.8706539"><ele>206.0</ele><time>2026-04-18T12:59:42.989Z</time></trkpt><trkpt lat="42.0819133" lon="11.8706091"><ele>206.0</ele><time>2026-04-18T12:59:43.989Z</time></trkpt><trkpt lat="42.0818323" lon="11.8705628"><ele>206.0</ele><time>2026-04-18T12:59:44.989Z</time></trkpt><trkpt lat="42.0817683" lon="11.8705283"><ele>206.0</ele><time>2026-04-18T12:59:45.989Z</time></trkpt><trkpt lat="42.0816536" lon="11.8704726"><ele>206.0</ele><time>2026-04-18T12:59:47.988Z</time></trkpt><trkpt lat="42.0815461" lon="11.8704465"><ele>204.20000000000002</ele><time>2026-04-18T12:59:49.989Z</time></trkpt><trkpt lat="42.0814114" lon="11.8704581"><ele>202.4</ele><time>2026-04-18T12:59:51.989Z</time></trkpt><trkpt lat="42.0813269" lon="11.8704692"><ele>200.6</ele><time>2026-04-18T12:59:52.989Z</time></trkpt><trkpt lat="42.0812571" lon="11.8704891"><ele>198.8</ele><time>2026-04-18T12:59:53.989Z</time></trkpt><trkpt lat="42.0811473" lon="11.8705533"><ele>197.0</ele><time>2026-04-18T12:59:55.989Z</time></trkpt><trkpt lat="42.0810926" lon="11.8706064"><ele>197.00000000000003</ele><time>2026-04-18T12:59:56.989Z</time></trkpt><trkpt lat="42.0810291" lon="11.8706677"><ele>197.0</ele><time>2026-04-18T12:59:57.989Z</time></trkpt><trkpt lat="42.0809749" lon="11.87073"><ele>197.0</ele><time>2026-04-18T12:59:58.989Z</time></trkpt><trkpt lat="42.0809274" lon="11.8707866"><ele>197.0</ele><time>2026-04-18T12:59:59.989Z</time></trkpt><trkpt lat="42.0808809" lon="11.8708447"><ele>197.00000000000003</ele><time>2026-04-18T13:00:00.989Z</time></trkpt><trkpt lat="42.0808032" lon="11.870968"><ele>197.0</ele><time>2026-04-18T13:00:02.989Z</time></trkpt><trkpt lat="42.0807303" lon="11.8710011"><ele>196.50000000000003</ele><time>2026-04-18T13:00:04.989Z</time></trkpt><trkpt lat="42.0806587" lon="11.8709208"><ele>196.0</ele><time>2026-04-18T13:00:06.989Z</time></trkpt><trkpt lat="42.0806201" lon="11.8708416"><ele>195.5</ele><time>2026-04-18T13:00:07.989Z</time></trkpt><trkpt lat="42.0805767" lon="11.8707518"><ele>195.0</ele><time>2026-04-18T13:00:08.989Z</time></trkpt><trkpt lat="42.0805294" lon="11.8706716"><ele>194.50000000000003</ele><time>2026-04-18T13:00:09.989Z</time></trkpt><trkpt lat="42.0804701" lon="11.8706069"><ele>194.0</ele><time>2026-04-18T13:00:10.989Z</time></trkpt><trkpt lat="42.0803991" lon="11.8705596"><ele>194.00000000000003</ele><time>2026-04-18T13:00:11.989Z</time></trkpt><trkpt lat="42.0803285" lon="11.8705336"><ele>194.0</ele><time>2026-04-18T13:00:12.989Z</time></trkpt><trkpt lat="42.080257" lon="11.8705191"><ele>194.0</ele><time>2026-04-18T13:00:13.989Z</time></trkpt><trkpt lat="42.0801877" lon="11.870498"><ele>194.0</ele><time>2026-04-18T13:00:14.989Z</time></trkpt><trkpt lat="42.0801226" lon="11.8704905"><ele>194.00000000000003</ele><time>2026-04-18T13:00:15.989Z</time></trkpt><trkpt lat="42.0800171" lon="11.8704672"><ele>194.0</ele><time>2026-04-18T13:00:17.989Z</time></trkpt><trkpt lat="42.0799191" lon="11.8704286"><ele>194.66666666666669</ele><time>2026-04-18T13:00:19.989Z</time></trkpt><trkpt lat="42.0797956" lon="11.870356"><ele>195.33333333333334</ele><time>2026-04-18T13:00:21.989Z</time></trkpt><trkpt lat="42.079726" lon="11.8703159"><ele>196.0</ele><time>2026-04-18T13:00:22.989Z</time></trkpt><trkpt lat="42.0796583" lon="11.8702731"><ele>196.66666666666669</ele><time>2026-04-18T13:00:23.989Z</time></trkpt><trkpt lat="42.0795922" lon="11.8702224"><ele>197.33333333333334</ele><time>2026-04-18T13:00:24.989Z</time></trkpt><trkpt lat="42.0795295" lon="11.8701754"><ele>198.0</ele><time>2026-04-18T13:00:25.989Z</time></trkpt><trkpt lat="42.0794311" lon="11.8701209"><ele>194.66666666666666</ele><time>2026-04-18T13:00:27.989Z</time></trkpt><trkpt lat="42.0793942" lon="11.8700384"><ele>191.33333333333334</ele><time>2026-04-18T13:00:29.989Z</time></trkpt><trkpt lat="42.0793874" lon="11.8699306"><ele>188.0</ele><time>2026-04-18T13:00:32.989Z</time></trkpt><trkpt lat="42.0794341" lon="11.869828"><ele>184.66666666666669</ele><time>2026-04-18T13:00:36.989Z</time></trkpt><trkpt lat="42.0794658" lon="11.8697426"><ele>181.33333333333334</ele><time>2026-04-18T13:00:44.989Z</time></trkpt><trkpt lat="42.0795021" lon="11.8696702"><ele>178.0</ele><time>2026-04-18T13:00:46.989Z</time></trkpt><trkpt lat="42.0795463" lon="11.8695718"><ele>178.0</ele><time>2026-04-18T13:00:49.989Z</time></trkpt><trkpt lat="42.0795838" lon="11.8695"><ele>178.0</ele><time>2026-04-18T13:02:39.989Z</time></trkpt><trkpt lat="42.079625" lon="11.8694263"><ele>178.0</ele><time>2026-04-18T13:03:05.989Z</time></trkpt><trkpt lat="42.0796769" lon="11.8692971"><ele>178.0</ele><time>2026-04-18T13:03:09.989Z</time></trkpt><trkpt lat="42.0797347" lon="11.8691664"><ele>178.0</ele><time>2026-04-18T13:03:11.989Z</time></trkpt><trkpt lat="42.0797634" lon="11.8690852"><ele>178.0</ele><time>2026-04-18T13:03:12.989Z</time></trkpt><trkpt lat="42.0797952" lon="11.8689864"><ele>176.33333333333334</ele><time>2026-04-18T13:03:13.989Z</time></trkpt><trkpt lat="42.0798244" lon="11.8688887"><ele>174.66666666666669</ele><time>2026-04-18T13:03:14.989Z</time></trkpt><trkpt lat="42.0798545" lon="11.8688024"><ele>173.0</ele><time>2026-04-18T13:03:15.989Z</time></trkpt><trkpt lat="42.0798873" lon="11.8687207"><ele>171.33333333333334</ele><time>2026-04-18T13:03:16.989Z</time></trkpt><trkpt lat="42.0799367" lon="11.8685832"><ele>169.66666666666666</ele><time>2026-04-18T13:03:18.989Z</time></trkpt><trkpt lat="42.0799733" lon="11.8684574"><ele>168.0</ele><time>2026-04-18T13:03:20.989Z</time></trkpt><trkpt lat="42.0800256" lon="11.8683527"><ele>166.5</ele><time>2026-04-18T13:03:22.989Z</time></trkpt><trkpt lat="42.0800793" lon="11.8682024"><ele>165.0</ele><time>2026-04-18T13:03:24.989Z</time></trkpt><trkpt lat="42.080124" lon="11.8680841"><ele>163.5</ele><time>2026-04-18T13:03:25.989Z</time></trkpt><trkpt lat="42.080158" lon="11.8679873"><ele>162.0</ele><time>2026-04-18T13:03:26.989Z</time></trkpt><trkpt lat="42.0801819" lon="11.8678953"><ele>160.5</ele><time>2026-04-18T13:03:27.989Z</time></trkpt><trkpt lat="42.0801891" lon="11.8677989"><ele>159.0</ele><time>2026-04-18T13:03:28.989Z</time></trkpt><trkpt lat="42.0801913" lon="11.8676885"><ele>158.0</ele><time>2026-04-18T13:03:29.989Z</time></trkpt><trkpt lat="42.0801884" lon="11.8675859"><ele>157.0</ele><time>2026-04-18T13:03:30.989Z</time></trkpt><trkpt lat="42.0801871" lon="11.867481"><ele>156.0</ele><time>2026-04-18T13:03:31.989Z</time></trkpt><trkpt lat="42.0801878" lon="11.8673806"><ele>155.0</ele><time>2026-04-18T13:03:32.988Z</time></trkpt><trkpt lat="42.0801861" lon="11.8672901"><ele>154.0</ele><time>2026-04-18T13:03:33.989Z</time></trkpt><trkpt lat="42.0801955" lon="11.8671231"><ele>153.0</ele><time>2026-04-18T13:03:35.989Z</time></trkpt><trkpt lat="42.0802074" lon="11.8670296"><ele>153.0</ele><time>2026-04-18T13:03:36.989Z</time></trkpt><trkpt lat="42.0802196" lon="11.8669401"><ele>153.0</ele><time>2026-04-18T13:03:37.989Z</time></trkpt><trkpt lat="42.0802235" lon="11.8668526"><ele>153.0</ele><time>2026-04-18T13:03:38.989Z</time></trkpt><trkpt lat="42.0802133" lon="11.8667681"><ele>153.0</ele><time>2026-04-18T13:03:39.989Z</time></trkpt><trkpt lat="42.0801781" lon="11.8666148"><ele>153.0</ele><time>2026-04-18T13:03:41.989Z</time></trkpt><trkpt lat="42.0801335" lon="11.8665438"><ele>153.0</ele><time>2026-04-18T13:03:42.989Z</time></trkpt><trkpt lat="42.0800804" lon="11.8664933"><ele>153.0</ele><time>2026-04-18T13:03:43.989Z</time></trkpt><trkpt lat="42.0800201" lon="11.8664652"><ele>151.66666666666666</ele><time>2026-04-18T13:03:44.989Z</time></trkpt><trkpt lat="42.0799454" lon="11.8664656"><ele>150.33333333333334</ele><time>2026-04-18T13:03:45.989Z</time></trkpt><trkpt lat="42.0798783" lon="11.866465"><ele>149.0</ele><time>2026-04-18T13:03:46.989Z</time></trkpt><trkpt lat="42.0798143" lon="11.8664633"><ele>147.66666666666669</ele><time>2026-04-18T13:03:47.989Z</time></trkpt><trkpt lat="42.0797356" lon="11.8663837"><ele>146.33333333333334</ele><time>2026-04-18T13:03:49.989Z</time></trkpt><trkpt lat="42.0797284" lon="11.8662622"><ele>145.0</ele><time>2026-04-18T13:03:51.988Z</time></trkpt><trkpt lat="42.0797557" lon="11.8661193"><ele>144.2</ele><time>2026-04-18T13:03:53.989Z</time></trkpt><trkpt lat="42.0798016" lon="11.8659681"><ele>143.4</ele><time>2026-04-18T13:03:55.989Z</time></trkpt><trkpt lat="42.0798645" lon="11.8658502"><ele>142.6</ele><time>2026-04-18T13:03:57.989Z</time></trkpt><trkpt lat="42.0799474" lon="11.8658264"><ele>141.8</ele><time>2026-04-18T13:03:59.989Z</time></trkpt><trkpt lat="42.0800552" lon="11.8658172"><ele>141.0</ele><time>2026-04-18T13:04:01.989Z</time></trkpt><trkpt lat="42.0801805" lon="11.8657992"><ele>140.0</ele><time>2026-04-18T13:04:03.989Z</time></trkpt><trkpt lat="42.080263" lon="11.8657849"><ele>139.0</ele><time>2026-04-18T13:04:04.989Z</time></trkpt><trkpt lat="42.0803356" lon="11.8657669"><ele>138.0</ele><time>2026-04-18T13:04:05.989Z</time></trkpt><trkpt lat="42.0804078" lon="11.865753"><ele>137.0</ele><time>2026-04-18T13:04:06.989Z</time></trkpt><trkpt lat="42.0804846" lon="11.8657414"><ele>136.0</ele><time>2026-04-18T13:04:07.989Z</time></trkpt><trkpt lat="42.0805769" lon="11.8657211"><ele>135.0</ele><time>2026-04-18T13:04:08.989Z</time></trkpt><trkpt lat="42.0806658" lon="11.8656947"><ele>135.0</ele><time>2026-04-18T13:04:09.989Z</time></trkpt><trkpt lat="42.0807433" lon="11.8656667"><ele>135.0</ele><time>2026-04-18T13:04:10.989Z</time></trkpt><trkpt lat="42.0808142" lon="11.8656503"><ele>135.0</ele><time>2026-04-18T13:04:11.989Z</time></trkpt><trkpt lat="42.0808793" lon="11.8656449"><ele>135.0</ele><time>2026-04-18T13:04:12.989Z</time></trkpt><trkpt lat="42.0810068" lon="11.8656471"><ele>135.0</ele><time>2026-04-18T13:04:14.989Z</time></trkpt><trkpt lat="42.081085" lon="11.8656355"><ele>135.0</ele><time>2026-04-18T13:04:15.989Z</time></trkpt><trkpt lat="42.081168" lon="11.865621"><ele>134.16666666666666</ele><time>2026-04-18T13:04:16.989Z</time></trkpt><trkpt lat="42.0812493" lon="11.8656212"><ele>133.33333333333334</ele><time>2026-04-18T13:04:17.989Z</time></trkpt><trkpt lat="42.0813225" lon="11.86562"><ele>132.5</ele><time>2026-04-18T13:04:18.989Z</time></trkpt><trkpt lat="42.0814327" lon="11.8655767"><ele>131.66666666666669</ele><time>2026-04-18T13:04:20.989Z</time></trkpt><trkpt lat="42.0815012" lon="11.8655028"><ele>130.83333333333334</ele><time>2026-04-18T13:04:22.989Z</time></trkpt><trkpt lat="42.0815762" lon="11.8654392"><ele>130.0</ele><time>2026-04-18T13:04:24.989Z</time></trkpt><trkpt lat="42.0816411" lon="11.8654438"><ele>128.8</ele><time>2026-04-18T13:04:26.989Z</time></trkpt><trkpt lat="42.0817357" lon="11.86553"><ele>127.6</ele><time>2026-04-18T13:04:29.989Z</time></trkpt><trkpt lat="42.081833" lon="11.8655993"><ele>126.4</ele><time>2026-04-18T13:04:31.989Z</time></trkpt><trkpt lat="42.0819533" lon="11.8655849"><ele>125.2</ele><time>2026-04-18T13:04:33.989Z</time></trkpt><trkpt lat="42.0820539" lon="11.8655632"><ele>124.0</ele><time>2026-04-18T13:04:35.989Z</time></trkpt><trkpt lat="42.0821285" lon="11.8656143"><ele>124.00000000000001</ele><time>2026-04-18T13:04:37.989Z</time></trkpt><trkpt lat="42.0821687" lon="11.8657269"><ele>124.0</ele><time>2026-04-18T13:04:39.989Z</time></trkpt><trkpt lat="42.0821982" lon="11.8658583"><ele>124.0</ele><time>2026-04-18T13:04:41.989Z</time></trkpt><trkpt lat="42.0822014" lon="11.8659823"><ele>124.0</ele><time>2026-04-18T13:04:43.989Z</time></trkpt><trkpt lat="42.0822446" lon="11.8660501"><ele>124.00000000000001</ele><time>2026-04-18T13:04:45.989Z</time></trkpt><trkpt lat="42.0822556" lon="11.866171"><ele>124.0</ele><time>2026-04-18T13:04:48.989Z</time></trkpt><trkpt lat="42.0823164" lon="11.8662347"><ele>123.6</ele><time>2026-04-18T13:04:50.989Z</time></trkpt><trkpt lat="42.0824186" lon="11.8663079"><ele>123.2</ele><time>2026-04-18T13:04:52.989Z</time></trkpt><trkpt lat="42.0825244" lon="11.8663218"><ele>122.79999999999998</ele><time>2026-04-18T13:04:54.988Z</time></trkpt><trkpt lat="42.0826233" lon="11.8663373"><ele>122.39999999999999</ele><time>2026-04-18T13:04:56.989Z</time></trkpt><trkpt lat="42.0827193" lon="11.8663707"><ele>122.0</ele><time>2026-04-18T13:04:58.989Z</time></trkpt><trkpt lat="42.082823" lon="11.8663684"><ele>122.0</ele><time>2026-04-18T13:05:00.989Z</time></trkpt><trkpt lat="42.0829196" lon="11.8663329"><ele>121.99999999999999</ele><time>2026-04-18T13:05:02.989Z</time></trkpt><trkpt lat="42.0830218" lon="11.8662902"><ele>121.99999999999999</ele><time>2026-04-18T13:05:04.989Z</time></trkpt><trkpt lat="42.0831166" lon="11.8662333"><ele>122.0</ele><time>2026-04-18T13:05:06.989Z</time></trkpt><trkpt lat="42.0831849" lon="11.8661322"><ele>122.0</ele><time>2026-04-18T13:05:08.989Z</time></trkpt><trkpt lat="42.0832236" lon="11.8659917"><ele>118.33333333333333</ele><time>2026-04-18T13:05:10.989Z</time></trkpt><trkpt lat="42.083267" lon="11.8658758"><ele>114.66666666666666</ele><time>2026-04-18T13:05:12.989Z</time></trkpt><trkpt lat="42.0833055" lon="11.86577"><ele>111.0</ele><time>2026-04-18T13:05:14.989Z</time></trkpt><trkpt lat="42.0833429" lon="11.865658"><ele>107.33333333333334</ele><time>2026-04-18T13:05:47.989Z</time></trkpt><trkpt lat="42.0833643" lon="11.8655617"><ele>103.66666666666667</ele><time>2026-04-18T13:05:49.989Z</time></trkpt><trkpt lat="42.0834111" lon="11.8654564"><ele>100.0</ele><time>2026-04-18T13:05:52.989Z</time></trkpt><trkpt lat="42.0834695" lon="11.8653647"><ele>100.00000000000001</ele><time>2026-04-18T13:05:55.881Z</time></trkpt><trkpt lat="42.0835266" lon="11.8653148"><ele>100.0</ele><time>2026-04-18T13:05:57.989Z</time></trkpt><trkpt lat="42.0835762" lon="11.8652412"><ele>100.0</ele><time>2026-04-18T13:06:00.989Z</time></trkpt><trkpt lat="42.0835202" lon="11.8652"><ele>100.0</ele><time>2026-04-18T13:06:03.989Z</time></trkpt><trkpt lat="42.0834614" lon="11.8651607"><ele>100.0</ele><time>2026-04-18T13:06:07.989Z</time></trkpt><trkpt lat="42.0833986" lon="11.8651439"><ele>100.00000000000001</ele><time>2026-04-18T13:06:18.989Z</time></trkpt><trkpt lat="42.0833357" lon="11.8651165"><ele>100.0</ele><time>2026-04-18T13:06:22.989Z</time></trkpt><trkpt lat="42.0832475" lon="11.8650512"><ele>99.57142857142858</ele><time>2026-04-18T13:06:25.989Z</time></trkpt><trkpt lat="42.0831716" lon="11.8649959"><ele>99.14285714285714</ele><time>2026-04-18T13:06:28.989Z</time></trkpt><trkpt lat="42.0831161" lon="11.8649542"><ele>98.71428571428572</ele><time>2026-04-18T13:06:31.989Z</time></trkpt><trkpt lat="42.0830976" lon="11.8648517"><ele>98.28571428571429</ele><time>2026-04-18T13:06:38.989Z</time></trkpt><trkpt lat="42.0831339" lon="11.8647664"><ele>97.85714285714286</ele><time>2026-04-18T13:06:54.989Z</time></trkpt><trkpt lat="42.0831347" lon="11.8646733"><ele>97.42857142857143</ele><time>2026-04-18T13:07:19.989Z</time></trkpt><trkpt lat="42.0831213" lon="11.8645845"><ele>97.0</ele><time>2026-04-18T13:07:21.989Z</time></trkpt><trkpt lat="42.0830708" lon="11.8645046"><ele>97.00000000000001</ele><time>2026-04-18T13:07:23.989Z</time></trkpt><trkpt lat="42.0831212" lon="11.8644499"><ele>97.0</ele><time>2026-04-18T13:07:27.989Z</time></trkpt><trkpt lat="42.0832249" lon="11.8644549"><ele>97.0</ele><time>2026-04-18T13:08:43.989Z</time></trkpt><trkpt lat="42.0833231" lon="11.8644524"><ele>97.0</ele><time>2026-04-18T13:08:45.989Z</time></trkpt><trkpt lat="42.0833861" lon="11.8643834"><ele>97.00000000000001</ele><time>2026-04-18T13:08:47.989Z</time></trkpt><trkpt lat="42.0833994" lon="11.8642762"><ele>97.0</ele><time>2026-04-18T13:08:49.989Z</time></trkpt><trkpt lat="42.0833715" lon="11.8641978"><ele>97.50000000000001</ele><time>2026-04-18T13:08:50.989Z</time></trkpt><trkpt lat="42.0833514" lon="11.8640968"><ele>98.0</ele><time>2026-04-18T13:08:51.989Z</time></trkpt><trkpt lat="42.0833364" lon="11.863992"><ele>98.5</ele><time>2026-04-18T13:08:52.989Z</time></trkpt><trkpt lat="42.0833234" lon="11.863886"><ele>99.0</ele><time>2026-04-18T13:08:53.989Z</time></trkpt><trkpt lat="42.0833084" lon="11.8637869"><ele>99.50000000000001</ele><time>2026-04-18T13:08:54.989Z</time></trkpt><trkpt lat="42.0832835" lon="11.8636498"><ele>100.0</ele><time>2026-04-18T13:08:56.989Z</time></trkpt><trkpt lat="42.0832651" lon="11.8635525"><ele>98.83333333333334</ele><time>2026-04-18T13:08:58.989Z</time></trkpt><trkpt lat="42.0832453" lon="11.86347"><ele>97.66666666666667</ele><time>2026-04-18T13:09:00.989Z</time></trkpt><trkpt lat="42.0832303" lon="11.8633483"><ele>96.5</ele><time>2026-04-18T13:09:01.989Z</time></trkpt><trkpt lat="42.083219" lon="11.863224"><ele>95.33333333333334</ele><time>2026-04-18T13:09:02.989Z</time></trkpt><trkpt lat="42.0832098" lon="11.8631321"><ele>94.16666666666667</ele><time>2026-04-18T13:09:03.989Z</time></trkpt><trkpt lat="42.0832193" lon="11.8630479"><ele>93.0</ele><time>2026-04-18T13:09:05.989Z</time></trkpt><trkpt lat="42.0832212" lon="11.8629376"><ele>93.0</ele><time>2026-04-18T13:09:08.989Z</time></trkpt><trkpt lat="42.0832147" lon="11.8627857"><ele>93.0</ele><time>2026-04-18T13:09:22.989Z</time></trkpt><trkpt lat="42.0832446" lon="11.8626887"><ele>93.0</ele><time>2026-04-18T13:09:25.989Z</time></trkpt><trkpt lat="42.0833031" lon="11.8626431"><ele>93.0</ele><time>2026-04-18T13:09:27.989Z</time></trkpt><trkpt lat="42.0833717" lon="11.8626028"><ele>93.0</ele><time>2026-04-18T13:09:29.988Z</time></trkpt><trkpt lat="42.0835056" lon="11.8624873"><ele>96.5</ele><time>2026-04-18T13:09:31.989Z</time></trkpt><trkpt lat="42.0835962" lon="11.8624188"><ele>100.0</ele><time>2026-04-18T13:09:32.989Z</time></trkpt><trkpt lat="42.0836589" lon="11.8623532"><ele>103.5</ele><time>2026-04-18T13:09:33.988Z</time></trkpt><trkpt lat="42.0837056" lon="11.8622858"><ele>107.0</ele><time>2026-04-18T13:09:34.989Z</time></trkpt><trkpt lat="42.0837896" lon="11.8622209"><ele>110.5</ele><time>2026-04-18T13:09:36.989Z</time></trkpt><trkpt lat="42.0838835" lon="11.862208"><ele>114.0</ele><time>2026-04-18T13:09:38.989Z</time></trkpt><trkpt lat="42.0839995" lon="11.8621356"><ele>114.0</ele><time>2026-04-18T13:09:40.989Z</time></trkpt><trkpt lat="42.0840866" lon="11.8620481"><ele>114.0</ele><time>2026-04-18T13:09:42.989Z</time></trkpt><trkpt lat="42.0841388" lon="11.8619851"><ele>114.0</ele><time>2026-04-18T13:09:45.989Z</time></trkpt><trkpt lat="42.0841988" lon="11.8620388"><ele>114.0</ele><time>2026-04-18T13:10:02.989Z</time></trkpt><trkpt lat="42.0842984" lon="11.8620873"><ele>114.0</ele><time>2026-04-18T13:10:04.989Z</time></trkpt><trkpt lat="42.0843958" lon="11.8621255"><ele>115.80000000000001</ele><time>2026-04-18T13:10:05.989Z</time></trkpt><trkpt lat="42.0844892" lon="11.8621646"><ele>117.60000000000001</ele><time>2026-04-18T13:10:06.989Z</time></trkpt><trkpt lat="42.0845746" lon="11.862203"><ele>119.4</ele><time>2026-04-18T13:10:07.989Z</time></trkpt><trkpt lat="42.0846641" lon="11.8622636"><ele>121.2</ele><time>2026-04-18T13:10:08.989Z</time></trkpt><trkpt lat="42.0847451" lon="11.8623303"><ele>123.0</ele><time>2026-04-18T13:10:09.989Z</time></trkpt><trkpt lat="42.084808" lon="11.8623855"><ele>123.0</ele><time>2026-04-18T13:10:10.989Z</time></trkpt><trkpt lat="42.0849276" lon="11.8624001"><ele>123.0</ele><time>2026-04-18T13:10:12.989Z</time></trkpt><trkpt lat="42.0850133" lon="11.8623817"><ele>123.0</ele><time>2026-04-18T13:10:13.989Z</time></trkpt><trkpt lat="42.0850981" lon="11.8623836"><ele>123.0</ele><time>2026-04-18T13:10:14.989Z</time></trkpt><trkpt lat="42.0851729" lon="11.8624125"><ele>123.0</ele><time>2026-04-18T13:10:15.989Z</time></trkpt><trkpt lat="42.0852347" lon="11.8624462"><ele>123.0</ele><time>2026-04-18T13:10:16.989Z</time></trkpt><trkpt lat="42.0853025" lon="11.8624673"><ele>124.0</ele><time>2026-04-18T13:10:17.989Z</time></trkpt><trkpt lat="42.085373" lon="11.862502"><ele>125.0</ele><time>2026-04-18T13:10:18.989Z</time></trkpt><trkpt lat="42.0854357" lon="11.8625625"><ele>126.0</ele><time>2026-04-18T13:10:19.989Z</time></trkpt><trkpt lat="42.0854908" lon="11.8626431"><ele>127.0</ele><time>2026-04-18T13:10:20.989Z</time></trkpt><trkpt lat="42.085534" lon="11.8627194"><ele>128.0</ele><time>2026-04-18T13:10:21.989Z</time></trkpt><trkpt lat="42.0856445" lon="11.8627657"><ele>129.0</ele><time>2026-04-18T13:10:23.989Z</time></trkpt><trkpt lat="42.0857279" lon="11.8627552"><ele>130.5</ele><time>2026-04-18T13:10:24.989Z</time></trkpt><trkpt lat="42.0858067" lon="11.8627493"><ele>132.0</ele><time>2026-04-18T13:10:25.989Z</time></trkpt><trkpt lat="42.085876" lon="11.8627437"><ele>133.5</ele><time>2026-04-18T13:10:26.989Z</time></trkpt><trkpt lat="42.0859432" lon="11.8627332"><ele>135.0</ele><time>2026-04-18T13:10:27.989Z</time></trkpt><trkpt lat="42.0860065" lon="11.862735"><ele>136.5</ele><time>2026-04-18T13:10:28.989Z</time></trkpt><trkpt lat="42.0861176" lon="11.8626963"><ele>138.0</ele><time>2026-04-18T13:10:30.989Z</time></trkpt><trkpt lat="42.0862007" lon="11.8625825"><ele>138.66666666666666</ele><time>2026-04-18T13:10:32.989Z</time></trkpt><trkpt lat="42.0862253" lon="11.8625015"><ele>139.33333333333334</ele><time>2026-04-18T13:10:33.989Z</time></trkpt><trkpt lat="42.0862451" lon="11.8624075"><ele>140.0</ele><time>2026-04-18T13:10:34.989Z</time></trkpt><trkpt lat="42.0862556" lon="11.8623017"><ele>140.66666666666669</ele><time>2026-04-18T13:10:35.989Z</time></trkpt><trkpt lat="42.0862666" lon="11.8621769"><ele>141.33333333333334</ele><time>2026-04-18T13:10:36.989Z</time></trkpt><trkpt lat="42.0862796" lon="11.8620514"><ele>142.0</ele><time>2026-04-18T13:10:37.989Z</time></trkpt><trkpt lat="42.0862862" lon="11.861958"><ele>142.0</ele><time>2026-04-18T13:10:38.989Z</time></trkpt><trkpt lat="42.086285" lon="11.8618631"><ele>142.0</ele><time>2026-04-18T13:10:39.989Z</time></trkpt><trkpt lat="42.0862678" lon="11.8617527"><ele>142.0</ele><time>2026-04-18T13:10:40.989Z</time></trkpt><trkpt lat="42.0862289" lon="11.8616384"><ele>142.0</ele><time>2026-04-18T13:10:41.989Z</time></trkpt><trkpt lat="42.0861753" lon="11.8615324"><ele>142.0</ele><time>2026-04-18T13:10:42.989Z</time></trkpt><trkpt lat="42.086117" lon="11.8614438"><ele>142.0</ele><time>2026-04-18T13:10:43.989Z</time></trkpt><trkpt lat="42.0860574" lon="11.8613752"><ele>143.79999999999998</ele><time>2026-04-18T13:10:44.989Z</time></trkpt><trkpt lat="42.0859987" lon="11.861284"><ele>145.6</ele><time>2026-04-18T13:10:45.989Z</time></trkpt><trkpt lat="42.0859371" lon="11.8611757"><ele>147.39999999999998</ele><time>2026-04-18T13:10:46.989Z</time></trkpt><trkpt lat="42.0858634" lon="11.8610533"><ele>149.2</ele><time>2026-04-18T13:10:47.989Z</time></trkpt><trkpt lat="42.0857895" lon="11.8609321"><ele>151.0</ele><time>2026-04-18T13:10:48.989Z</time></trkpt><trkpt lat="42.0857197" lon="11.8608332"><ele>152.0</ele><time>2026-04-18T13:10:49.989Z</time></trkpt><trkpt lat="42.0856609" lon="11.8607253"><ele>153.0</ele><time>2026-04-18T13:10:50.989Z</time></trkpt><trkpt lat="42.0856021" lon="11.8605861"><ele>154.0</ele><time>2026-04-18T13:10:51.989Z</time></trkpt><trkpt lat="42.085532" lon="11.8604711"><ele>155.0</ele><time>2026-04-18T13:10:52.989Z</time></trkpt><trkpt lat="42.0854542" lon="11.8603765"><ele>156.0</ele><time>2026-04-18T13:10:53.989Z</time></trkpt><trkpt lat="42.0853676" lon="11.8602894"><ele>156.0</ele><time>2026-04-18T13:10:54.989Z</time></trkpt><trkpt lat="42.0852801" lon="11.8602402"><ele>156.0</ele><time>2026-04-18T13:10:55.989Z</time></trkpt><trkpt lat="42.0851843" lon="11.860225"><ele>156.0</ele><time>2026-04-18T13:10:56.989Z</time></trkpt><trkpt lat="42.0850847" lon="11.8602185"><ele>156.0</ele><time>2026-04-18T13:10:57.989Z</time></trkpt><trkpt lat="42.0849847" lon="11.8602039"><ele>156.0</ele><time>2026-04-18T13:10:58.989Z</time></trkpt><trkpt lat="42.0848818" lon="11.8601737"><ele>153.6</ele><time>2026-04-18T13:10:59.989Z</time></trkpt><trkpt lat="42.0847762" lon="11.8601318"><ele>151.2</ele><time>2026-04-18T13:11:00.989Z</time></trkpt><trkpt lat="42.0846747" lon="11.8600902"><ele>148.8</ele><time>2026-04-18T13:11:01.989Z</time></trkpt><trkpt lat="42.0845814" lon="11.8600631"><ele>146.4</ele><time>2026-04-18T13:11:02.989Z</time></trkpt><trkpt lat="42.0845128" lon="11.8600321"><ele>144.0</ele><time>2026-04-18T13:11:03.989Z</time></trkpt><trkpt lat="42.0844475" lon="11.8599133"><ele>148.8</ele><time>2026-04-18T13:11:05.989Z</time></trkpt><trkpt lat="42.0844256" lon="11.8597534"><ele>153.60000000000002</ele><time>2026-04-18T13:11:07.989Z</time></trkpt><trkpt lat="42.084426" lon="11.859638"><ele>158.4</ele><time>2026-04-18T13:11:08.989Z</time></trkpt><trkpt lat="42.0844143" lon="11.8595036"><ele>163.20000000000002</ele><time>2026-04-18T13:11:09.989Z</time></trkpt><trkpt lat="42.0843847" lon="11.8593748"><ele>168.0</ele><time>2026-04-18T13:11:10.989Z</time></trkpt><trkpt lat="42.084341" lon="11.8592601"><ele>167.0</ele><time>2026-04-18T13:11:11.989Z</time></trkpt><trkpt lat="42.0842842" lon="11.8591465"><ele>166.0</ele><time>2026-04-18T13:11:12.989Z</time></trkpt><trkpt lat="42.0842009" lon="11.8590217"><ele>165.0</ele><time>2026-04-18T13:11:13.989Z</time></trkpt><trkpt lat="42.0841092" lon="11.8589164"><ele>164.0</ele><time>2026-04-18T13:11:14.989Z</time></trkpt><trkpt lat="42.0840361" lon="11.8588333"><ele>163.0</ele><time>2026-04-18T13:11:15.989Z</time></trkpt><trkpt lat="42.0839753" lon="11.8587682"><ele>163.0</ele><time>2026-04-18T13:11:16.989Z</time></trkpt><trkpt lat="42.0839123" lon="11.8586461"><ele>163.0</ele><time>2026-04-18T13:11:18.989Z</time></trkpt><trkpt lat="42.0839267" lon="11.8584797"><ele>163.0</ele><time>2026-04-18T13:11:20.989Z</time></trkpt><trkpt lat="42.0839696" lon="11.8583827"><ele>163.0</ele><time>2026-04-18T13:11:21.989Z</time></trkpt><trkpt lat="42.0840257" lon="11.8582768"><ele>163.0</ele><time>2026-04-18T13:11:22.988Z</time></trkpt><trkpt lat="42.0840826" lon="11.8581752"><ele>170.4</ele><time>2026-04-18T13:11:23.989Z</time></trkpt><trkpt lat="42.0841514" lon="11.8580572"><ele>177.8</ele><time>2026-04-18T13:11:24.989Z</time></trkpt><trkpt lat="42.0842239" lon="11.8579318"><ele>185.2</ele><time>2026-04-18T13:11:25.989Z</time></trkpt><trkpt lat="42.0842867" lon="11.8578158"><ele>192.6</ele><time>2026-04-18T13:11:26.989Z</time></trkpt><trkpt lat="42.084334" lon="11.8577094"><ele>200.0</ele><time>2026-04-18T13:11:27.989Z</time></trkpt><trkpt lat="42.0843689" lon="11.8576271"><ele>201.4</ele><time>2026-04-18T13:11:28.989Z</time></trkpt><trkpt lat="42.0843663" lon="11.857487"><ele>202.8</ele><time>2026-04-18T13:11:30.989Z</time></trkpt><trkpt lat="42.0842817" lon="11.857431"><ele>204.2</ele><time>2026-04-18T13:11:32.989Z</time></trkpt><trkpt lat="42.0842122" lon="11.8574173"><ele>205.6</ele><time>2026-04-18T13:11:33.989Z</time></trkpt><trkpt lat="42.0841221" lon="11.8574058"><ele>207.0</ele><time>2026-04-18T13:11:34.989Z</time></trkpt><trkpt lat="42.0840119" lon="11.8573846"><ele>204.2</ele><time>2026-04-18T13:11:35.989Z</time></trkpt><trkpt lat="42.0839057" lon="11.8573572"><ele>201.39999999999998</ele><time>2026-04-18T13:11:36.989Z</time></trkpt><trkpt lat="42.0838086" lon="11.8573341"><ele>198.60000000000002</ele><time>2026-04-18T13:11:37.989Z</time></trkpt><trkpt lat="42.0837226" lon="11.8573227"><ele>195.8</ele><time>2026-04-18T13:11:38.989Z</time></trkpt><trkpt lat="42.0836373" lon="11.8573086"><ele>193.0</ele><time>2026-04-18T13:11:39.989Z</time></trkpt><trkpt lat="42.0835472" lon="11.8572739"><ele>193.0</ele><time>2026-04-18T13:11:40.989Z</time></trkpt><trkpt lat="42.0834592" lon="11.8572175"><ele>193.0</ele><time>2026-04-18T13:11:41.989Z</time></trkpt><trkpt lat="42.0833795" lon="11.8571457"><ele>193.0</ele><time>2026-04-18T13:11:42.989Z</time></trkpt><trkpt lat="42.0833062" lon="11.8570701"><ele>193.0</ele><time>2026-04-18T13:11:43.989Z</time></trkpt><trkpt lat="42.0832278" lon="11.8569979"><ele>193.0</ele><time>2026-04-18T13:11:44.989Z</time></trkpt><trkpt lat="42.0831438" lon="11.8569309"><ele>193.0</ele><time>2026-04-18T13:11:45.989Z</time></trkpt><trkpt lat="42.0830741" lon="11.8568619"><ele>193.0</ele><time>2026-04-18T13:11:46.989Z</time></trkpt><trkpt lat="42.0830164" lon="11.8567895"><ele>193.0</ele><time>2026-04-18T13:11:47.989Z</time></trkpt><trkpt lat="42.0829543" lon="11.8567004"><ele>193.0</ele><time>2026-04-18T13:11:48.989Z</time></trkpt><trkpt lat="42.0829015" lon="11.8565878"><ele>193.0</ele><time>2026-04-18T13:11:49.989Z</time></trkpt><trkpt lat="42.08286" lon="11.8564624"><ele>192.99999999999997</ele><time>2026-04-18T13:11:50.989Z</time></trkpt><trkpt lat="42.0828307" lon="11.8563437"><ele>193.0</ele><time>2026-04-18T13:11:51.989Z</time></trkpt><trkpt lat="42.0828108" lon="11.8562159"><ele>193.0</ele><time>2026-04-18T13:11:52.989Z</time></trkpt><trkpt lat="42.0828002" lon="11.8561014"><ele>193.0</ele><time>2026-04-18T13:11:53.989Z</time></trkpt><trkpt lat="42.0827999" lon="11.8559891"><ele>192.99999999999997</ele><time>2026-04-18T13:11:54.989Z</time></trkpt><trkpt lat="42.0828153" lon="11.8558754"><ele>193.0</ele><time>2026-04-18T13:11:55.989Z</time></trkpt><trkpt lat="42.0828523" lon="11.855773"><ele>194.5</ele><time>2026-04-18T13:11:56.989Z</time></trkpt><trkpt lat="42.0829081" lon="11.855664"><ele>196.0</ele><time>2026-04-18T13:11:57.989Z</time></trkpt><trkpt lat="42.08297" lon="11.8555308"><ele>197.5</ele><time>2026-04-18T13:11:58.989Z</time></trkpt><trkpt lat="42.08302" lon="11.8553783"><ele>199.0</ele><time>2026-04-18T13:11:59.989Z</time></trkpt><trkpt lat="42.0830652" lon="11.8552295"><ele>200.0</ele><time>2026-04-18T13:12:00.989Z</time></trkpt><trkpt lat="42.0831089" lon="11.8550861"><ele>201.0</ele><time>2026-04-18T13:12:01.989Z</time></trkpt><trkpt lat="42.0831412" lon="11.8549504"><ele>202.0</ele><time>2026-04-18T13:12:02.989Z</time></trkpt><trkpt lat="42.0831645" lon="11.8548356"><ele>203.0</ele><time>2026-04-18T13:12:03.989Z</time></trkpt><trkpt lat="42.083166" lon="11.8547182"><ele>204.0</ele><time>2026-04-18T13:12:04.989Z</time></trkpt><trkpt lat="42.0831563" lon="11.854594"><ele>204.0</ele><time>2026-04-18T13:12:05.989Z</time></trkpt><trkpt lat="42.0831501" lon="11.854472"><ele>204.0</ele><time>2026-04-18T13:12:06.989Z</time></trkpt><trkpt lat="42.0831497" lon="11.8543446"><ele>204.0</ele><time>2026-04-18T13:12:07.989Z</time></trkpt><trkpt lat="42.0831583" lon="11.8542169"><ele>204.0</ele><time>2026-04-18T13:12:08.989Z</time></trkpt><trkpt lat="42.0831749" lon="11.8541043"><ele>204.0</ele><time>2026-04-18T13:12:09.989Z</time></trkpt><trkpt lat="42.0831947" lon="11.8539945"><ele>205.83333333333334</ele><time>2026-04-18T13:12:10.989Z</time></trkpt><trkpt lat="42.0832183" lon="11.8538896"><ele>207.66666666666669</ele><time>2026-04-18T13:12:11.989Z</time></trkpt><trkpt lat="42.083234" lon="11.8537858"><ele>209.5</ele><time>2026-04-18T13:12:12.989Z</time></trkpt><trkpt lat="42.083252" lon="11.8536941"><ele>211.33333333333334</ele><time>2026-04-18T13:12:13.989Z</time></trkpt><trkpt lat="42.0832917" lon="11.8535481"><ele>213.16666666666669</ele><time>2026-04-18T13:12:15.989Z</time></trkpt><trkpt lat="42.0833023" lon="11.8534575"><ele>215.0</ele><time>2026-04-18T13:12:17.989Z</time></trkpt><trkpt lat="42.0832919" lon="11.8533598"><ele>216.4</ele><time>2026-04-18T13:12:41.989Z</time></trkpt><trkpt lat="42.0832977" lon="11.8532313"><ele>217.8</ele><time>2026-04-18T13:12:43.989Z</time></trkpt><trkpt lat="42.0832816" lon="11.8531057"><ele>219.2</ele><time>2026-04-18T13:12:45.989Z</time></trkpt><trkpt lat="42.0832384" lon="11.8529684"><ele>220.6</ele><time>2026-04-18T13:12:47.989Z</time></trkpt><trkpt lat="42.083201" lon="11.8528829"><ele>222.0</ele><time>2026-04-18T13:12:48.989Z</time></trkpt><trkpt lat="42.083154" lon="11.8527888"><ele>222.0</ele><time>2026-04-18T13:12:49.989Z</time></trkpt><trkpt lat="42.0831072" lon="11.8526887"><ele>222.0</ele><time>2026-04-18T13:12:50.989Z</time></trkpt><trkpt lat="42.083063" lon="11.8525924"><ele>222.0</ele><time>2026-04-18T13:12:51.989Z</time></trkpt><trkpt lat="42.0830272" lon="11.8525069"><ele>222.0</ele><time>2026-04-18T13:12:52.989Z</time></trkpt><trkpt lat="42.0829544" lon="11.8523643"><ele>222.0</ele><time>2026-04-18T13:12:54.989Z</time></trkpt><trkpt lat="42.0829204" lon="11.8522929"><ele>222.0</ele><time>2026-04-18T13:12:55.989Z</time></trkpt><trkpt lat="42.0828802" lon="11.852224"><ele>222.5</ele><time>2026-04-18T13:12:56.988Z</time></trkpt><trkpt lat="42.0828394" lon="11.852152"><ele>223.0</ele><time>2026-04-18T13:12:57.989Z</time></trkpt><trkpt lat="42.0827953" lon="11.852076"><ele>223.5</ele><time>2026-04-18T13:12:58.989Z</time></trkpt><trkpt lat="42.0827528" lon="11.8519913"><ele>224.0</ele><time>2026-04-18T13:12:59.989Z</time></trkpt><trkpt lat="42.0827087" lon="11.8519061"><ele>224.5</ele><time>2026-04-18T13:13:00.989Z</time></trkpt><trkpt lat="42.0826616" lon="11.8518169"><ele>225.0</ele><time>2026-04-18T13:13:01.989Z</time></trkpt><trkpt lat="42.0826107" lon="11.8517298"><ele>225.0</ele><time>2026-04-18T13:13:02.989Z</time></trkpt><trkpt lat="42.0825568" lon="11.8516407"><ele>225.0</ele><time>2026-04-18T13:13:03.989Z</time></trkpt><trkpt lat="42.0824997" lon="11.8515556"><ele>225.0</ele><time>2026-04-18T13:13:04.989Z</time></trkpt><trkpt lat="42.0824369" lon="11.8514796"><ele>225.0</ele><time>2026-04-18T13:13:05.989Z</time></trkpt><trkpt lat="42.082369" lon="11.8514058"><ele>225.0</ele><time>2026-04-18T13:13:06.989Z</time></trkpt><trkpt lat="42.0822997" lon="11.8513369"><ele>225.0</ele><time>2026-04-18T13:13:07.989Z</time></trkpt><trkpt lat="42.0822243" lon="11.8512743"><ele>223.33333333333334</ele><time>2026-04-18T13:13:08.989Z</time></trkpt><trkpt lat="42.0821541" lon="11.8512216"><ele>221.66666666666669</ele><time>2026-04-18T13:13:09.989Z</time></trkpt><trkpt lat="42.0820972" lon="11.8511761"><ele>220.0</ele><time>2026-04-18T13:13:10.989Z</time></trkpt><trkpt lat="42.0820565" lon="11.8510979"><ele>218.33333333333334</ele><time>2026-04-18T13:13:12.989Z</time></trkpt><trkpt lat="42.0821396" lon="11.8510385"><ele>216.66666666666669</ele><time>2026-04-18T13:13:15.989Z</time></trkpt><trkpt lat="42.0822739" lon="11.8510739"><ele>215.0</ele><time>2026-04-18T13:13:17.989Z</time></trkpt><trkpt lat="42.0823674" lon="11.8511066"><ele>217.5</ele><time>2026-04-18T13:13:18.989Z</time></trkpt><trkpt lat="42.0824732" lon="11.8511394"><ele>220.0</ele><time>2026-04-18T13:13:19.989Z</time></trkpt><trkpt lat="42.0825863" lon="11.8511767"><ele>222.5</ele><time>2026-04-18T13:13:20.989Z</time></trkpt><trkpt lat="42.0827029" lon="11.8512178"><ele>225.0</ele><time>2026-04-18T13:13:21.989Z</time></trkpt><trkpt lat="42.0828259" lon="11.8512633"><ele>225.0</ele><time>2026-04-18T13:13:22.989Z</time></trkpt><trkpt lat="42.0829464" lon="11.8513037"><ele>225.0</ele><time>2026-04-18T13:13:23.989Z</time></trkpt><trkpt lat="42.0830655" lon="11.8513536"><ele>225.0</ele><time>2026-04-18T13:13:24.989Z</time></trkpt><trkpt lat="42.0831801" lon="11.8514117"><ele>225.0</ele><time>2026-04-18T13:13:25.989Z</time></trkpt><trkpt lat="42.083295" lon="11.8514775"><ele>225.75</ele><time>2026-04-18T13:13:26.989Z</time></trkpt><trkpt lat="42.0834083" lon="11.8515556"><ele>226.5</ele><time>2026-04-18T13:13:27.989Z</time></trkpt><trkpt lat="42.0835132" lon="11.8516383"><ele>227.25</ele><time>2026-04-18T13:13:28.989Z</time></trkpt><trkpt lat="42.0836189" lon="11.8517194"><ele>228.0</ele><time>2026-04-18T13:13:29.989Z</time></trkpt><trkpt lat="42.0837299" lon="11.8518087"><ele>228.0</ele><time>2026-04-18T13:13:30.989Z</time></trkpt><trkpt lat="42.0838395" lon="11.851914"><ele>228.0</ele><time>2026-04-18T13:13:31.989Z</time></trkpt><trkpt lat="42.0839545" lon="11.8520186"><ele>228.0</ele><time>2026-04-18T13:13:32.989Z</time></trkpt><trkpt lat="42.0840723" lon="11.8521108"><ele>228.0</ele><time>2026-04-18T13:13:33.989Z</time></trkpt><trkpt lat="42.0842016" lon="11.8521861"><ele>230.5</ele><time>2026-04-18T13:13:34.989Z</time></trkpt><trkpt lat="42.0843335" lon="11.8522654"><ele>233.0</ele><time>2026-04-18T13:13:35.988Z</time></trkpt><trkpt lat="42.084465" lon="11.8523472"><ele>235.5</ele><time>2026-04-18T13:13:36.989Z</time></trkpt><trkpt lat="42.0845843" lon="11.852434"><ele>238.0</ele><time>2026-04-18T13:13:37.989Z</time></trkpt><trkpt lat="42.084704" lon="11.8525315"><ele>238.0</ele><time>2026-04-18T13:13:38.989Z</time></trkpt><trkpt lat="42.0848143" lon="11.8525947"><ele>238.0</ele><time>2026-04-18T13:13:39.989Z</time></trkpt><trkpt lat="42.0849238" lon="11.8526557"><ele>238.0</ele><time>2026-04-18T13:13:40.989Z</time></trkpt><trkpt lat="42.0850434" lon="11.8527047"><ele>238.0</ele><time>2026-04-18T13:13:41.989Z</time></trkpt><trkpt lat="42.0851619" lon="11.8527317"><ele>239.75</ele><time>2026-04-18T13:13:42.989Z</time></trkpt><trkpt lat="42.0852646" lon="11.8527345"><ele>241.5</ele><time>2026-04-18T13:13:43.989Z</time></trkpt><trkpt lat="42.0853768" lon="11.8526981"><ele>243.25</ele><time>2026-04-18T13:13:44.989Z</time></trkpt><trkpt lat="42.0855013" lon="11.8526186"><ele>245.0</ele><time>2026-04-18T13:13:45.989Z</time></trkpt><trkpt lat="42.0856453" lon="11.8525025"><ele>248.0</ele><time>2026-04-18T13:13:46.989Z</time></trkpt><trkpt lat="42.0857883" lon="11.8524072"><ele>251.0</ele><time>2026-04-18T13:13:47.989Z</time></trkpt><trkpt lat="42.085931" lon="11.8523295"><ele>254.0</ele><time>2026-04-18T13:13:48.989Z</time></trkpt><trkpt lat="42.0860682" lon="11.8522566"><ele>254.0</ele><time>2026-04-18T13:13:49.989Z</time></trkpt><trkpt lat="42.0862094" lon="11.852188"><ele>254.0</ele><time>2026-04-18T13:13:50.989Z</time></trkpt><trkpt lat="42.0863495" lon="11.8521213"><ele>254.0</ele><time>2026-04-18T13:13:51.989Z</time></trkpt><trkpt lat="42.0864915" lon="11.8520539"><ele>254.0</ele><time>2026-04-18T13:13:52.989Z</time></trkpt><trkpt lat="42.086631" lon="11.8519914"><ele>257.33333333333337</ele><time>2026-04-18T13:13:53.989Z</time></trkpt><trkpt lat="42.0867706" lon="11.8519305"><ele>260.6666666666667</ele><time>2026-04-18T13:13:54.989Z</time></trkpt><trkpt lat="42.0869147" lon="11.8518658"><ele>264.0</ele><time>2026-04-18T13:13:55.989Z</time></trkpt><trkpt lat="42.0870652" lon="11.8517959"><ele>266.3333333333333</ele><time>2026-04-18T13:13:56.989Z</time></trkpt><trkpt lat="42.0872157" lon="11.851721"><ele>268.66666666666663</ele><time>2026-04-18T13:13:57.988Z</time></trkpt><trkpt lat="42.0873723" lon="11.8516423"><ele>271.0</ele><time>2026-04-18T13:13:58.989Z</time></trkpt><trkpt lat="42.0875161" lon="11.8515765"><ele>273.0</ele><time>2026-04-18T13:13:59.989Z</time></trkpt><trkpt lat="42.0876432" lon="11.8515291"><ele>275.0</ele><time>2026-04-18T13:14:00.989Z</time></trkpt><trkpt lat="42.0877677" lon="11.8514974"><ele>277.0</ele><time>2026-04-18T13:14:01.989Z</time></trkpt><trkpt lat="42.0878894" lon="11.8514829"><ele>279.0</ele><time>2026-04-18T13:14:02.989Z</time></trkpt><trkpt lat="42.0880014" lon="11.8514831"><ele>279.0</ele><time>2026-04-18T13:14:03.989Z</time></trkpt><trkpt lat="42.0881171" lon="11.8515052"><ele>279.0</ele><time>2026-04-18T13:14:04.989Z</time></trkpt><trkpt lat="42.0882252" lon="11.8515424"><ele>279.0</ele><time>2026-04-18T13:14:05.989Z</time></trkpt><trkpt lat="42.0883266" lon="11.851597"><ele>279.0</ele><time>2026-04-18T13:14:06.989Z</time></trkpt><trkpt lat="42.0884108" lon="11.8516485"><ele>279.0</ele><time>2026-04-18T13:14:07.989Z</time></trkpt><trkpt lat="42.0884883" lon="11.8517228"><ele>280.2</ele><time>2026-04-18T13:14:08.989Z</time></trkpt><trkpt lat="42.088558" lon="11.8518154"><ele>281.4</ele><time>2026-04-18T13:14:09.989Z</time></trkpt><trkpt lat="42.0886289" lon="11.8519127"><ele>282.6</ele><time>2026-04-18T13:14:10.989Z</time></trkpt><trkpt lat="42.0887146" lon="11.8520048"><ele>283.8</ele><time>2026-04-18T13:14:11.989Z</time></trkpt><trkpt lat="42.0888127" lon="11.8520946"><ele>285.0</ele><time>2026-04-18T13:14:12.989Z</time></trkpt><trkpt lat="42.0889093" lon="11.8521948"><ele>285.0</ele><time>2026-04-18T13:14:13.989Z</time></trkpt><trkpt lat="42.0890093" lon="11.8522925"><ele>285.0</ele><time>2026-04-18T13:14:14.989Z</time></trkpt><trkpt lat="42.0890994" lon="11.8523707"><ele>285.0</ele><time>2026-04-18T13:14:15.988Z</time></trkpt><trkpt lat="42.0891881" lon="11.8524361"><ele>285.0</ele><time>2026-04-18T13:14:16.989Z</time></trkpt><trkpt lat="42.0892666" lon="11.8524786"><ele>285.0</ele><time>2026-04-18T13:14:17.989Z</time></trkpt><trkpt lat="42.0893372" lon="11.8524939"><ele>288.75</ele><time>2026-04-18T13:14:18.989Z</time></trkpt><trkpt lat="42.0894287" lon="11.8524807"><ele>292.5</ele><time>2026-04-18T13:14:19.989Z</time></trkpt><trkpt lat="42.089534" lon="11.8524541"><ele>296.25</ele><time>2026-04-18T13:14:20.989Z</time></trkpt><trkpt lat="42.0896637" lon="11.8524474"><ele>300.0</ele><time>2026-04-18T13:14:21.989Z</time></trkpt><trkpt lat="42.0898005" lon="11.852478"><ele>301.25</ele><time>2026-04-18T13:14:22.989Z</time></trkpt><trkpt lat="42.089929" lon="11.8525007"><ele>302.5</ele><time>2026-04-18T13:14:23.989Z</time></trkpt><trkpt lat="42.0900591" lon="11.8525028"><ele>303.75</ele><time>2026-04-18T13:14:24.989Z</time></trkpt><trkpt lat="42.0901773" lon="11.8524963"><ele>305.0</ele><time>2026-04-18T13:14:25.989Z</time></trkpt><trkpt lat="42.090294" lon="11.8524719"><ele>305.0</ele><time>2026-04-18T13:14:26.989Z</time></trkpt><trkpt lat="42.0904149" lon="11.852429"><ele>305.0</ele><time>2026-04-18T13:14:27.989Z</time></trkpt><trkpt lat="42.0905334" lon="11.8523723"><ele>305.0</ele><time>2026-04-18T13:14:28.989Z</time></trkpt><trkpt lat="42.0906407" lon="11.8523096"><ele>305.0</ele><time>2026-04-18T13:14:29.988Z</time></trkpt><trkpt lat="42.0907335" lon="11.8522336"><ele>305.2</ele><time>2026-04-18T13:14:30.989Z</time></trkpt><trkpt lat="42.0908122" lon="11.8521503"><ele>305.4</ele><time>2026-04-18T13:14:31.989Z</time></trkpt><trkpt lat="42.0908885" lon="11.8520732"><ele>305.6</ele><time>2026-04-18T13:14:32.989Z</time></trkpt><trkpt lat="42.09097" lon="11.8520068"><ele>305.8</ele><time>2026-04-18T13:14:33.989Z</time></trkpt><trkpt lat="42.0910641" lon="11.8519553"><ele>306.0</ele><time>2026-04-18T13:14:34.989Z</time></trkpt><trkpt lat="42.0911657" lon="11.851901"><ele>306.0</ele><time>2026-04-18T13:14:35.989Z</time></trkpt><trkpt lat="42.0912594" lon="11.8518438"><ele>306.0</ele><time>2026-04-18T13:14:36.989Z</time></trkpt><trkpt lat="42.0913588" lon="11.8517838"><ele>306.0</ele><time>2026-04-18T13:14:37.989Z</time></trkpt><trkpt lat="42.091474" lon="11.8517231"><ele>306.0</ele><time>2026-04-18T13:14:38.989Z</time></trkpt><trkpt lat="42.091584" lon="11.8516629"><ele>303.5</ele><time>2026-04-18T13:14:39.989Z</time></trkpt><trkpt lat="42.0916814" lon="11.8515952"><ele>301.0</ele><time>2026-04-18T13:14:40.989Z</time></trkpt><trkpt lat="42.0917777" lon="11.8514961"><ele>298.5</ele><time>2026-04-18T13:14:41.989Z</time></trkpt><trkpt lat="42.0918686" lon="11.8513758"><ele>296.0</ele><time>2026-04-18T13:14:42.989Z</time></trkpt><trkpt lat="42.0919434" lon="11.8512549"><ele>296.0</ele><time>2026-04-18T13:14:43.989Z</time></trkpt><trkpt lat="42.0919998" lon="11.8511336"><ele>296.0</ele><time>2026-04-18T13:14:44.989Z</time></trkpt><trkpt lat="42.0920419" lon="11.8510156"><ele>296.0</ele><time>2026-04-18T13:14:45.989Z</time></trkpt><trkpt lat="42.0920662" lon="11.8508971"><ele>296.0</ele><time>2026-04-18T13:14:46.989Z</time></trkpt><trkpt lat="42.0920817" lon="11.850779"><ele>296.0</ele><time>2026-04-18T13:14:47.989Z</time></trkpt><trkpt lat="42.0920993" lon="11.8506614"><ele>294.6</ele><time>2026-04-18T13:14:48.989Z</time></trkpt><trkpt lat="42.092145" lon="11.8505571"><ele>293.20000000000005</ele><time>2026-04-18T13:14:49.989Z</time></trkpt><trkpt lat="42.0922185" lon="11.8504661"><ele>291.79999999999995</ele><time>2026-04-18T13:14:50.989Z</time></trkpt><trkpt lat="42.0923151" lon="11.8503746"><ele>290.4</ele><time>2026-04-18T13:14:51.989Z</time></trkpt><trkpt lat="42.0924216" lon="11.8502892"><ele>289.0</ele><time>2026-04-18T13:14:52.989Z</time></trkpt><trkpt lat="42.0925307" lon="11.8502344"><ele>289.0</ele><time>2026-04-18T13:14:53.989Z</time></trkpt><trkpt lat="42.0926669" lon="11.8501796"><ele>289.0</ele><time>2026-04-18T13:14:54.989Z</time></trkpt><trkpt lat="42.0927984" lon="11.8501343"><ele>289.0</ele><time>2026-04-18T13:14:55.989Z</time></trkpt><trkpt lat="42.0929302" lon="11.850097"><ele>289.0</ele><time>2026-04-18T13:14:56.989Z</time></trkpt><trkpt lat="42.093059" lon="11.8500602"><ele>289.25</ele><time>2026-04-18T13:14:57.989Z</time></trkpt><trkpt lat="42.0931895" lon="11.8500377"><ele>289.5</ele><time>2026-04-18T13:14:58.989Z</time></trkpt><trkpt lat="42.0933139" lon="11.8500228"><ele>289.75</ele><time>2026-04-18T13:14:59.989Z</time></trkpt><trkpt lat="42.093427" lon="11.8500102"><ele>290.0</ele><time>2026-04-18T13:15:00.989Z</time></trkpt><trkpt lat="42.0935355" lon="11.8499997"><ele>288.0</ele><time>2026-04-18T13:15:01.989Z</time></trkpt><trkpt lat="42.0936422" lon="11.8499924"><ele>286.0</ele><time>2026-04-18T13:15:02.989Z</time></trkpt><trkpt lat="42.0937408" lon="11.8499912"><ele>284.0</ele><time>2026-04-18T13:15:03.989Z</time></trkpt><trkpt lat="42.0938374" lon="11.8499877"><ele>282.0</ele><time>2026-04-18T13:15:04.989Z</time></trkpt><trkpt lat="42.0939299" lon="11.8499741"><ele>280.0</ele><time>2026-04-18T13:15:05.989Z</time></trkpt><trkpt lat="42.0940124" lon="11.8499429"><ele>280.0</ele><time>2026-04-18T13:15:06.989Z</time></trkpt><trkpt lat="42.0940862" lon="11.8498942"><ele>280.0</ele><time>2026-04-18T13:15:07.989Z</time></trkpt><trkpt lat="42.0941406" lon="11.8498222"><ele>280.0</ele><time>2026-04-18T13:15:08.989Z</time></trkpt><trkpt lat="42.0941875" lon="11.8497254"><ele>280.0</ele><time>2026-04-18T13:15:09.989Z</time></trkpt><trkpt lat="42.094235" lon="11.8496129"><ele>280.0</ele><time>2026-04-18T13:15:10.989Z</time></trkpt><trkpt lat="42.0942772" lon="11.8495112"><ele>280.0</ele><time>2026-04-18T13:15:11.989Z</time></trkpt><trkpt lat="42.094309" lon="11.8494188"><ele>278.0</ele><time>2026-04-18T13:15:12.989Z</time></trkpt><trkpt lat="42.0943273" lon="11.8493234"><ele>276.0</ele><time>2026-04-18T13:15:13.989Z</time></trkpt><trkpt lat="42.0942896" lon="11.8491727"><ele>274.0</ele><time>2026-04-18T13:15:15.989Z</time></trkpt><trkpt lat="42.0942404" lon="11.8490913"><ele>272.0</ele><time>2026-04-18T13:15:16.989Z</time></trkpt><trkpt lat="42.0941637" lon="11.8489711"><ele>270.0</ele><time>2026-04-18T13:15:17.989Z</time></trkpt><trkpt lat="42.0940904" lon="11.8488491"><ele>270.0</ele><time>2026-04-18T13:15:18.989Z</time></trkpt><trkpt lat="42.0940268" lon="11.8487309"><ele>270.0</ele><time>2026-04-18T13:15:19.989Z</time></trkpt><trkpt lat="42.0939702" lon="11.8485994"><ele>270.0</ele><time>2026-04-18T13:15:20.989Z</time></trkpt><trkpt lat="42.0939135" lon="11.8484519"><ele>270.0</ele><time>2026-04-18T13:15:21.989Z</time></trkpt><trkpt lat="42.0938557" lon="11.8483112"><ele>270.0</ele><time>2026-04-18T13:15:22.989Z</time></trkpt><trkpt lat="42.0938143" lon="11.8481669"><ele>270.0</ele><time>2026-04-18T13:15:23.989Z</time></trkpt><trkpt lat="42.0937731" lon="11.8480261"><ele>270.0</ele><time>2026-04-18T13:15:24.988Z</time></trkpt><trkpt lat="42.0937218" lon="11.8478928"><ele>270.0</ele><time>2026-04-18T13:15:25.989Z</time></trkpt><trkpt lat="42.0936743" lon="11.8477666"><ele>270.0</ele><time>2026-04-18T13:15:26.989Z</time></trkpt><trkpt lat="42.0936159" lon="11.847623"><ele>266.25</ele><time>2026-04-18T13:15:27.989Z</time></trkpt><trkpt lat="42.09356" lon="11.8474901"><ele>262.5</ele><time>2026-04-18T13:15:28.989Z</time></trkpt><trkpt lat="42.0934985" lon="11.8473558"><ele>258.75</ele><time>2026-04-18T13:15:29.989Z</time></trkpt><trkpt lat="42.0934345" lon="11.8472148"><ele>255.0</ele><time>2026-04-18T13:15:30.989Z</time></trkpt><trkpt lat="42.0933644" lon="11.8470872"><ele>255.0</ele><time>2026-04-18T13:15:31.989Z</time></trkpt><trkpt lat="42.0932924" lon="11.8469659"><ele>255.0</ele><time>2026-04-18T13:15:32.989Z</time></trkpt><trkpt lat="42.0932253" lon="11.8468705"><ele>255.0</ele><time>2026-04-18T13:15:33.988Z</time></trkpt><trkpt lat="42.093158" lon="11.8467907"><ele>255.0</ele><time>2026-04-18T13:15:34.989Z</time></trkpt><trkpt lat="42.0930825" lon="11.8467429"><ele>255.0</ele><time>2026-04-18T13:15:35.989Z</time></trkpt><trkpt lat="42.0929875" lon="11.8467085"><ele>254.6</ele><time>2026-04-18T13:15:36.989Z</time></trkpt><trkpt lat="42.0928902" lon="11.8467014"><ele>254.2</ele><time>2026-04-18T13:15:37.989Z</time></trkpt><trkpt lat="42.0927982" lon="11.846715"><ele>253.8</ele><time>2026-04-18T13:15:38.989Z</time></trkpt><trkpt lat="42.0927047" lon="11.8467479"><ele>253.4</ele><time>2026-04-18T13:15:39.989Z</time></trkpt><trkpt lat="42.0926135" lon="11.8467894"><ele>253.0</ele><time>2026-04-18T13:15:40.989Z</time></trkpt><trkpt lat="42.0925234" lon="11.8468375"><ele>253.0</ele><time>2026-04-18T13:15:41.988Z</time></trkpt><trkpt lat="42.0924285" lon="11.8468813"><ele>253.0</ele><time>2026-04-18T13:15:42.989Z</time></trkpt><trkpt lat="42.0923353" lon="11.8469129"><ele>253.0</ele><time>2026-04-18T13:15:43.989Z</time></trkpt><trkpt lat="42.0922392" lon="11.8469376"><ele>253.0</ele><time>2026-04-18T13:15:44.989Z</time></trkpt><trkpt lat="42.0921422" lon="11.846955"><ele>253.0</ele><time>2026-04-18T13:15:45.989Z</time></trkpt><trkpt lat="42.0920617" lon="11.8469607"><ele>252.2</ele><time>2026-04-18T13:15:46.989Z</time></trkpt><trkpt lat="42.091988" lon="11.846941"><ele>251.4</ele><time>2026-04-18T13:15:47.988Z</time></trkpt><trkpt lat="42.0919193" lon="11.8468893"><ele>250.59999999999997</ele><time>2026-04-18T13:15:48.989Z</time></trkpt><trkpt lat="42.0918482" lon="11.846807"><ele>249.79999999999998</ele><time>2026-04-18T13:15:49.989Z</time></trkpt><trkpt lat="42.0917485" lon="11.8466732"><ele>249.0</ele><time>2026-04-18T13:15:50.989Z</time></trkpt><trkpt lat="42.091643" lon="11.8465212"><ele>246.5</ele><time>2026-04-18T13:15:51.988Z</time></trkpt><trkpt lat="42.0915443" lon="11.8463733"><ele>244.0</ele><time>2026-04-18T13:15:52.989Z</time></trkpt><trkpt lat="42.0914434" lon="11.8462489"><ele>241.5</ele><time>2026-04-18T13:15:53.989Z</time></trkpt><trkpt lat="42.0913432" lon="11.8461331"><ele>239.0</ele><time>2026-04-18T13:15:54.989Z</time></trkpt><trkpt lat="42.0912474" lon="11.8460223"><ele>236.79999999999998</ele><time>2026-04-18T13:15:55.989Z</time></trkpt><trkpt lat="42.0911638" lon="11.845911"><ele>234.59999999999997</ele><time>2026-04-18T13:15:56.989Z</time></trkpt><trkpt lat="42.0910894" lon="11.8458053"><ele>232.4</ele><time>2026-04-18T13:15:57.989Z</time></trkpt><trkpt lat="42.0910462" lon="11.8456879"><ele>230.2</ele><time>2026-04-18T13:15:58.989Z</time></trkpt><trkpt lat="42.0910018" lon="11.8455322"><ele>228.0</ele><time>2026-04-18T13:15:59.988Z</time></trkpt><trkpt lat="42.0909614" lon="11.8453808"><ele>228.0</ele><time>2026-04-18T13:16:00.989Z</time></trkpt><trkpt lat="42.0909092" lon="11.8452356"><ele>228.0</ele><time>2026-04-18T13:16:01.989Z</time></trkpt><trkpt lat="42.0908535" lon="11.8450956"><ele>228.0</ele><time>2026-04-18T13:16:02.989Z</time></trkpt><trkpt lat="42.0908061" lon="11.8449495"><ele>228.0</ele><time>2026-04-18T13:16:03.989Z</time></trkpt><trkpt lat="42.0907622" lon="11.8448153"><ele>224.75</ele><time>2026-04-18T13:16:04.989Z</time></trkpt><trkpt lat="42.0906972" lon="11.8446932"><ele>221.5</ele><time>2026-04-18T13:16:05.989Z</time></trkpt><trkpt lat="42.0906149" lon="11.8445697"><ele>218.25</ele><time>2026-04-18T13:16:06.989Z</time></trkpt><trkpt lat="42.0905379" lon="11.8444485"><ele>215.0</ele><time>2026-04-18T13:16:07.989Z</time></trkpt><trkpt lat="42.0904759" lon="11.8443253"><ele>213.2</ele><time>2026-04-18T13:16:08.989Z</time></trkpt><trkpt lat="42.0904245" lon="11.8441938"><ele>211.4</ele><time>2026-04-18T13:16:09.989Z</time></trkpt><trkpt lat="42.0903805" lon="11.8440621"><ele>209.60000000000002</ele><time>2026-04-18T13:16:10.989Z</time></trkpt><trkpt lat="42.0903347" lon="11.8439351"><ele>207.8</ele><time>2026-04-18T13:16:11.989Z</time></trkpt><trkpt lat="42.0902778" lon="11.8438178"><ele>206.0</ele><time>2026-04-18T13:16:12.989Z</time></trkpt><trkpt lat="42.0902103" lon="11.8437185"><ele>206.0</ele><time>2026-04-18T13:16:13.989Z</time></trkpt><trkpt lat="42.0901353" lon="11.8436348"><ele>206.0</ele><time>2026-04-18T13:16:14.989Z</time></trkpt><trkpt lat="42.0900607" lon="11.8435688"><ele>206.0</ele><time>2026-04-18T13:16:15.989Z</time></trkpt><trkpt lat="42.0899721" lon="11.8435186"><ele>206.0</ele><time>2026-04-18T13:16:16.989Z</time></trkpt><trkpt lat="42.0898628" lon="11.8434762"><ele>206.0</ele><time>2026-04-18T13:16:17.989Z</time></trkpt><trkpt lat="42.0897422" lon="11.8434517"><ele>203.83333333333334</ele><time>2026-04-18T13:16:18.989Z</time></trkpt><trkpt lat="42.0896387" lon="11.8434361"><ele>201.66666666666669</ele><time>2026-04-18T13:16:19.989Z</time></trkpt><trkpt lat="42.0895567" lon="11.8434044"><ele>199.5</ele><time>2026-04-18T13:16:20.989Z</time></trkpt><trkpt lat="42.0894923" lon="11.8433529"><ele>197.33333333333331</ele><time>2026-04-18T13:16:21.989Z</time></trkpt><trkpt lat="42.0894441" lon="11.8432674"><ele>195.16666666666666</ele><time>2026-04-18T13:16:22.989Z</time></trkpt><trkpt lat="42.0894006" lon="11.8431421"><ele>193.0</ele><time>2026-04-18T13:16:23.989Z</time></trkpt><trkpt lat="42.0893459" lon="11.8430068"><ele>193.0</ele><time>2026-04-18T13:16:24.989Z</time></trkpt><trkpt lat="42.0892916" lon="11.8428886"><ele>193.0</ele><time>2026-04-18T13:16:25.989Z</time></trkpt><trkpt lat="42.0892405" lon="11.8427778"><ele>193.0</ele><time>2026-04-18T13:16:26.989Z</time></trkpt><trkpt lat="42.089198" lon="11.842669"><ele>193.0</ele><time>2026-04-18T13:16:27.989Z</time></trkpt><trkpt lat="42.0891714" lon="11.8425465"><ele>193.0</ele><time>2026-04-18T13:16:28.989Z</time></trkpt><trkpt lat="42.0891438" lon="11.8424104"><ele>191.75</ele><time>2026-04-18T13:16:29.989Z</time></trkpt><trkpt lat="42.0891136" lon="11.8422755"><ele>190.5</ele><time>2026-04-18T13:16:30.989Z</time></trkpt><trkpt lat="42.0890972" lon="11.8421208"><ele>189.25</ele><time>2026-04-18T13:16:31.989Z</time></trkpt><trkpt lat="42.0890835" lon="11.84195"><ele>188.0</ele><time>2026-04-18T13:16:32.989Z</time></trkpt><trkpt lat="42.0890692" lon="11.8418103"><ele>187.2</ele><time>2026-04-18T13:16:33.989Z</time></trkpt><trkpt lat="42.089052" lon="11.8416885"><ele>186.4</ele><time>2026-04-18T13:16:34.989Z</time></trkpt><trkpt lat="42.0890385" lon="11.8415807"><ele>185.6</ele><time>2026-04-18T13:16:35.989Z</time></trkpt><trkpt lat="42.0890467" lon="11.8414825"><ele>184.79999999999998</ele><time>2026-04-18T13:16:36.989Z</time></trkpt><trkpt lat="42.0890721" lon="11.8413518"><ele>184.0</ele><time>2026-04-18T13:16:37.989Z</time></trkpt><trkpt lat="42.0891103" lon="11.8411817"><ele>184.0</ele><time>2026-04-18T13:16:38.989Z</time></trkpt><trkpt lat="42.0891436" lon="11.8410152"><ele>184.0</ele><time>2026-04-18T13:16:39.989Z</time></trkpt><trkpt lat="42.0891516" lon="11.8408738"><ele>184.0</ele><time>2026-04-18T13:16:40.989Z</time></trkpt><trkpt lat="42.0891485" lon="11.8407423"><ele>184.0</ele><time>2026-04-18T13:16:41.989Z</time></trkpt><trkpt lat="42.0891408" lon="11.8405953"><ele>184.0</ele><time>2026-04-18T13:16:42.989Z</time></trkpt><trkpt lat="42.0891437" lon="11.8404089"><ele>182.75</ele><time>2026-04-18T13:16:43.989Z</time></trkpt><trkpt lat="42.089164" lon="11.8402163"><ele>181.5</ele><time>2026-04-18T13:16:44.989Z</time></trkpt><trkpt lat="42.0891872" lon="11.8400602"><ele>180.25</ele><time>2026-04-18T13:16:45.989Z</time></trkpt><trkpt lat="42.0892165" lon="11.8399069"><ele>179.0</ele><time>2026-04-18T13:16:46.989Z</time></trkpt><trkpt lat="42.0892379" lon="11.8397462"><ele>178.0</ele><time>2026-04-18T13:16:47.989Z</time></trkpt><trkpt lat="42.0892357" lon="11.8396001"><ele>177.0</ele><time>2026-04-18T13:16:48.989Z</time></trkpt><trkpt lat="42.0892188" lon="11.8394428"><ele>176.0</ele><time>2026-04-18T13:16:49.989Z</time></trkpt><trkpt lat="42.0891926" lon="11.8392653"><ele>175.0</ele><time>2026-04-18T13:16:50.989Z</time></trkpt><trkpt lat="42.0891735" lon="11.839091"><ele>174.0</ele><time>2026-04-18T13:16:51.989Z</time></trkpt><trkpt lat="42.0891654" lon="11.8389286"><ele>173.0</ele><time>2026-04-18T13:16:52.989Z</time></trkpt><trkpt lat="42.0891566" lon="11.838783"><ele>172.0</ele><time>2026-04-18T13:16:53.989Z</time></trkpt><trkpt lat="42.0891525" lon="11.8386471"><ele>171.0</ele><time>2026-04-18T13:16:54.989Z</time></trkpt><trkpt lat="42.0891606" lon="11.8384964"><ele>170.0</ele><time>2026-04-18T13:16:55.989Z</time></trkpt><trkpt lat="42.0891729" lon="11.8383423"><ele>169.8</ele><time>2026-04-18T13:16:56.989Z</time></trkpt><trkpt lat="42.0891848" lon="11.8382021"><ele>169.6</ele><time>2026-04-18T13:16:57.989Z</time></trkpt><trkpt lat="42.0891949" lon="11.838068"><ele>169.39999999999998</ele><time>2026-04-18T13:16:58.989Z</time></trkpt><trkpt lat="42.0891953" lon="11.8379328"><ele>169.2</ele><time>2026-04-18T13:16:59.989Z</time></trkpt><trkpt lat="42.0891807" lon="11.8377973"><ele>169.0</ele><time>2026-04-18T13:17:00.989Z</time></trkpt><trkpt lat="42.089164" lon="11.8376617"><ele>168.75</ele><time>2026-04-18T13:17:01.989Z</time></trkpt><trkpt lat="42.0891441" lon="11.8375212"><ele>168.5</ele><time>2026-04-18T13:17:02.989Z</time></trkpt><trkpt lat="42.0891145" lon="11.8373724"><ele>168.25</ele><time>2026-04-18T13:17:03.989Z</time></trkpt><trkpt lat="42.089087" lon="11.8372118"><ele>168.0</ele><time>2026-04-18T13:17:04.989Z</time></trkpt><trkpt lat="42.0890671" lon="11.8370471"><ele>166.0</ele><time>2026-04-18T13:17:05.989Z</time></trkpt><trkpt lat="42.0890503" lon="11.8368819"><ele>164.0</ele><time>2026-04-18T13:17:06.989Z</time></trkpt><trkpt lat="42.0890258" lon="11.8367222"><ele>162.0</ele><time>2026-04-18T13:17:07.989Z</time></trkpt><trkpt lat="42.0890004" lon="11.8365877"><ele>160.0</ele><time>2026-04-18T13:17:08.989Z</time></trkpt><trkpt lat="42.088969" lon="11.8364674"><ele>158.0</ele><time>2026-04-18T13:17:09.989Z</time></trkpt><trkpt lat="42.0889267" lon="11.8363544"><ele>158.0</ele><time>2026-04-18T13:17:10.989Z</time></trkpt><trkpt lat="42.0888829" lon="11.8362497"><ele>158.0</ele><time>2026-04-18T13:17:11.989Z</time></trkpt><trkpt lat="42.0888383" lon="11.8361528"><ele>158.0</ele><time>2026-04-18T13:17:12.989Z</time></trkpt><trkpt lat="42.0888017" lon="11.8360507"><ele>158.0</ele><time>2026-04-18T13:17:13.989Z</time></trkpt><trkpt lat="42.0887711" lon="11.8359339"><ele>158.0</ele><time>2026-04-18T13:17:14.989Z</time></trkpt><trkpt lat="42.0887498" lon="11.835804"><ele>158.0</ele><time>2026-04-18T13:17:15.989Z</time></trkpt><trkpt lat="42.088737" lon="11.8356811"><ele>158.5</ele><time>2026-04-18T13:17:16.989Z</time></trkpt><trkpt lat="42.0887203" lon="11.8355561"><ele>159.0</ele><time>2026-04-18T13:17:17.989Z</time></trkpt><trkpt lat="42.0886887" lon="11.8354175"><ele>159.5</ele><time>2026-04-18T13:17:18.989Z</time></trkpt><trkpt lat="42.0886316" lon="11.8352579"><ele>160.0</ele><time>2026-04-18T13:17:19.989Z</time></trkpt><trkpt lat="42.0885621" lon="11.8350917"><ele>160.0</ele><time>2026-04-18T13:17:20.989Z</time></trkpt><trkpt lat="42.0884944" lon="11.8349209"><ele>160.0</ele><time>2026-04-18T13:17:21.989Z</time></trkpt><trkpt lat="42.0884359" lon="11.8347249"><ele>160.0</ele><time>2026-04-18T13:17:22.989Z</time></trkpt><trkpt lat="42.0883805" lon="11.8345116"><ele>159.33333333333334</ele><time>2026-04-18T13:17:23.989Z</time></trkpt><trkpt lat="42.0883283" lon="11.8342784"><ele>158.66666666666666</ele><time>2026-04-18T13:17:24.989Z</time></trkpt><trkpt lat="42.0882744" lon="11.8340475"><ele>158.0</ele><time>2026-04-18T13:17:25.989Z</time></trkpt><trkpt lat="42.0882166" lon="11.833838"><ele>154.66666666666666</ele><time>2026-04-18T13:17:26.989Z</time></trkpt><trkpt lat="42.0881403" lon="11.8336368"><ele>151.33333333333334</ele><time>2026-04-18T13:17:27.989Z</time></trkpt><trkpt lat="42.0880533" lon="11.8334285"><ele>148.0</ele><time>2026-04-18T13:17:28.989Z</time></trkpt><trkpt lat="42.0879633" lon="11.8332164"><ele>148.0</ele><time>2026-04-18T13:17:29.989Z</time></trkpt><trkpt lat="42.087873" lon="11.8330181"><ele>148.0</ele><time>2026-04-18T13:17:30.989Z</time></trkpt><trkpt lat="42.0877843" lon="11.8328312"><ele>148.0</ele><time>2026-04-18T13:17:31.989Z</time></trkpt><trkpt lat="42.087701" lon="11.8326493"><ele>147.25</ele><time>2026-04-18T13:17:32.989Z</time></trkpt><trkpt lat="42.0876287" lon="11.8324712"><ele>146.5</ele><time>2026-04-18T13:17:33.989Z</time></trkpt><trkpt lat="42.0875611" lon="11.832298"><ele>145.75</ele><time>2026-04-18T13:17:34.989Z</time></trkpt><trkpt lat="42.0874993" lon="11.8321302"><ele>145.0</ele><time>2026-04-18T13:17:35.989Z</time></trkpt><trkpt lat="42.0874576" lon="11.8319641"><ele>141.75</ele><time>2026-04-18T13:17:36.989Z</time></trkpt><trkpt lat="42.0874259" lon="11.8318039"><ele>138.5</ele><time>2026-04-18T13:17:37.989Z</time></trkpt><trkpt lat="42.0873937" lon="11.8316332"><ele>135.25</ele><time>2026-04-18T13:17:38.989Z</time></trkpt><trkpt lat="42.0873573" lon="11.8314455"><ele>132.0</ele><time>2026-04-18T13:17:39.989Z</time></trkpt><trkpt lat="42.0873308" lon="11.8312641"><ele>132.0</ele><time>2026-04-18T13:17:40.989Z</time></trkpt><trkpt lat="42.0873157" lon="11.8310936"><ele>132.0</ele><time>2026-04-18T13:17:41.988Z</time></trkpt><trkpt lat="42.087309" lon="11.8309232"><ele>132.0</ele><time>2026-04-18T13:17:42.989Z</time></trkpt><trkpt lat="42.0872988" lon="11.8307437"><ele>132.0</ele><time>2026-04-18T13:17:43.989Z</time></trkpt><trkpt lat="42.0872604" lon="11.8305779"><ele>132.0</ele><time>2026-04-18T13:17:44.989Z</time></trkpt><trkpt lat="42.0872159" lon="11.8304187"><ele>132.0</ele><time>2026-04-18T13:17:45.989Z</time></trkpt><trkpt lat="42.0871801" lon="11.8302559"><ele>132.0</ele><time>2026-04-18T13:17:46.989Z</time></trkpt><trkpt lat="42.0871512" lon="11.8300827"><ele>132.0</ele><time>2026-04-18T13:17:47.989Z</time></trkpt><trkpt lat="42.0871335" lon="11.8299156"><ele>132.0</ele><time>2026-04-18T13:17:48.989Z</time></trkpt><trkpt lat="42.0871228" lon="11.8297624"><ele>132.0</ele><time>2026-04-18T13:17:49.989Z</time></trkpt><trkpt lat="42.0871316" lon="11.8296194"><ele>132.0</ele><time>2026-04-18T13:17:50.989Z</time></trkpt><trkpt lat="42.0871662" lon="11.8294819"><ele>132.0</ele><time>2026-04-18T13:17:51.989Z</time></trkpt><trkpt lat="42.0872118" lon="11.8293355"><ele>132.0</ele><time>2026-04-18T13:17:52.989Z</time></trkpt><trkpt lat="42.0872366" lon="11.8291728"><ele>131.0</ele><time>2026-04-18T13:17:53.989Z</time></trkpt><trkpt lat="42.0872411" lon="11.8290031"><ele>130.0</ele><time>2026-04-18T13:17:54.989Z</time></trkpt><trkpt lat="42.087246" lon="11.828838"><ele>129.0</ele><time>2026-04-18T13:17:55.988Z</time></trkpt><trkpt lat="42.0872617" lon="11.8286788"><ele>128.0</ele><time>2026-04-18T13:17:56.989Z</time></trkpt><trkpt lat="42.0872885" lon="11.8285151"><ele>126.25</ele><time>2026-04-18T13:17:57.989Z</time></trkpt><trkpt lat="42.0873188" lon="11.8283469"><ele>124.5</ele><time>2026-04-18T13:17:58.989Z</time></trkpt><trkpt lat="42.0873438" lon="11.8281853"><ele>122.75</ele><time>2026-04-18T13:17:59.989Z</time></trkpt><trkpt lat="42.0873646" lon="11.8280397"><ele>121.0</ele><time>2026-04-18T13:18:00.989Z</time></trkpt><trkpt lat="42.0873869" lon="11.8279214"><ele>121.0</ele><time>2026-04-18T13:18:01.989Z</time></trkpt><trkpt lat="42.0874022" lon="11.8278287"><ele>121.0</ele><time>2026-04-18T13:18:02.989Z</time></trkpt><trkpt lat="42.0873507" lon="11.8276841"><ele>121.0</ele><time>2026-04-18T13:18:04.989Z</time></trkpt><trkpt lat="42.0872747" lon="11.8276239"><ele>121.0</ele><time>2026-04-18T13:18:05.989Z</time></trkpt><trkpt lat="42.0871683" lon="11.8275899"><ele>121.0</ele><time>2026-04-18T13:18:06.989Z</time></trkpt><trkpt lat="42.0870527" lon="11.827571"><ele>120.0</ele><time>2026-04-18T13:18:07.989Z</time></trkpt><trkpt lat="42.0869509" lon="11.8275333"><ele>119.0</ele><time>2026-04-18T13:18:08.989Z</time></trkpt><trkpt lat="42.0868694" lon="11.8274472"><ele>118.0</ele><time>2026-04-18T13:18:09.989Z</time></trkpt><trkpt lat="42.0867979" lon="11.8273489"><ele>117.0</ele><time>2026-04-18T13:18:10.989Z</time></trkpt><trkpt lat="42.0867401" lon="11.8272395"><ele>116.0</ele><time>2026-04-18T13:18:11.989Z</time></trkpt><trkpt lat="42.0866961" lon="11.8271085"><ele>116.0</ele><time>2026-04-18T13:18:12.989Z</time></trkpt><trkpt lat="42.0866615" lon="11.8269483"><ele>116.0</ele><time>2026-04-18T13:18:13.989Z</time></trkpt><trkpt lat="42.0866238" lon="11.826785"><ele>116.0</ele><time>2026-04-18T13:18:14.989Z</time></trkpt><trkpt lat="42.0865825" lon="11.8266354"><ele>116.0</ele><time>2026-04-18T13:18:15.989Z</time></trkpt><trkpt lat="42.0865356" lon="11.8264923"><ele>114.4</ele><time>2026-04-18T13:18:16.989Z</time></trkpt><trkpt lat="42.0864814" lon="11.8263602"><ele>112.8</ele><time>2026-04-18T13:18:17.989Z</time></trkpt><trkpt lat="42.0864204" lon="11.8262349"><ele>111.20000000000002</ele><time>2026-04-18T13:18:18.989Z</time></trkpt><trkpt lat="42.0863627" lon="11.826109"><ele>109.60000000000001</ele><time>2026-04-18T13:18:19.989Z</time></trkpt><trkpt lat="42.0863137" lon="11.8259745"><ele>108.0</ele><time>2026-04-18T13:18:20.989Z</time></trkpt><trkpt lat="42.086275" lon="11.8258386"><ele>107.0</ele><time>2026-04-18T13:18:21.989Z</time></trkpt><trkpt lat="42.0862451" lon="11.8256996"><ele>106.00000000000001</ele><time>2026-04-18T13:18:22.989Z</time></trkpt><trkpt lat="42.0862198" lon="11.8255621"><ele>105.0</ele><time>2026-04-18T13:18:23.989Z</time></trkpt><trkpt lat="42.0862033" lon="11.8254259"><ele>104.0</ele><time>2026-04-18T13:18:24.989Z</time></trkpt><trkpt lat="42.0861826" lon="11.8252589"><ele>103.0</ele><time>2026-04-18T13:18:25.989Z</time></trkpt><trkpt lat="42.0861498" lon="11.8250527"><ele>100.66666666666667</ele><time>2026-04-18T13:18:26.989Z</time></trkpt><trkpt lat="42.0861166" lon="11.8248205"><ele>98.33333333333334</ele><time>2026-04-18T13:18:27.989Z</time></trkpt><trkpt lat="42.0860778" lon="11.8245904"><ele>96.0</ele><time>2026-04-18T13:18:28.989Z</time></trkpt><trkpt lat="42.0860305" lon="11.8243796"><ele>94.0</ele><time>2026-04-18T13:18:29.989Z</time></trkpt><trkpt lat="42.0859811" lon="11.8241817"><ele>92.0</ele><time>2026-04-18T13:18:30.989Z</time></trkpt><trkpt lat="42.0859243" lon="11.8239985"><ele>90.0</ele><time>2026-04-18T13:18:31.989Z</time></trkpt><trkpt lat="42.0858716" lon="11.823819"><ele>88.0</ele><time>2026-04-18T13:18:32.989Z</time></trkpt><trkpt lat="42.0858394" lon="11.8236411"><ele>87.0</ele><time>2026-04-18T13:18:33.989Z</time></trkpt><trkpt lat="42.085822" lon="11.8234617"><ele>86.0</ele><time>2026-04-18T13:18:34.989Z</time></trkpt><trkpt lat="42.0858119" lon="11.823268"><ele>85.0</ele><time>2026-04-18T13:18:35.989Z</time></trkpt><trkpt lat="42.0857981" lon="11.8230711"><ele>84.0</ele><time>2026-04-18T13:18:36.989Z</time></trkpt><trkpt lat="42.0857805" lon="11.8228766"><ele>84.0</ele><time>2026-04-18T13:18:37.989Z</time></trkpt><trkpt lat="42.0857675" lon="11.8226876"><ele>84.0</ele><time>2026-04-18T13:18:38.989Z</time></trkpt><trkpt lat="42.0857527" lon="11.8225031"><ele>84.0</ele><time>2026-04-18T13:18:39.989Z</time></trkpt><trkpt lat="42.0857373" lon="11.8223246"><ele>84.0</ele><time>2026-04-18T13:18:40.989Z</time></trkpt><trkpt lat="42.085719" lon="11.8221436"><ele>82.0</ele><time>2026-04-18T13:18:41.989Z</time></trkpt><trkpt lat="42.085698" lon="11.8219563"><ele>80.0</ele><time>2026-04-18T13:18:42.988Z</time></trkpt><trkpt lat="42.0856779" lon="11.8217605"><ele>78.0</ele><time>2026-04-18T13:18:43.989Z</time></trkpt><trkpt lat="42.0856611" lon="11.82156"><ele>76.0</ele><time>2026-04-18T13:18:44.989Z</time></trkpt><trkpt lat="42.0856411" lon="11.8213516"><ele>75.25</ele><time>2026-04-18T13:18:45.989Z</time></trkpt><trkpt lat="42.0856227" lon="11.8211485"><ele>74.5</ele><time>2026-04-18T13:18:46.989Z</time></trkpt><trkpt lat="42.0856085" lon="11.8209573"><ele>73.75</ele><time>2026-04-18T13:18:47.989Z</time></trkpt><trkpt lat="42.0855853" lon="11.8207765"><ele>73.0</ele><time>2026-04-18T13:18:48.989Z</time></trkpt><trkpt lat="42.0855492" lon="11.8206021"><ele>72.25</ele><time>2026-04-18T13:18:49.989Z</time></trkpt><trkpt lat="42.085501" lon="11.820439"><ele>71.5</ele><time>2026-04-18T13:18:50.989Z</time></trkpt><trkpt lat="42.0854473" lon="11.8202864"><ele>70.75</ele><time>2026-04-18T13:18:51.989Z</time></trkpt><trkpt lat="42.0853929" lon="11.8201385"><ele>70.0</ele><time>2026-04-18T13:18:52.989Z</time></trkpt><trkpt lat="42.0853328" lon="11.8199948"><ele>68.75</ele><time>2026-04-18T13:18:53.989Z</time></trkpt><trkpt lat="42.0852726" lon="11.8198513"><ele>67.5</ele><time>2026-04-18T13:18:54.989Z</time></trkpt><trkpt lat="42.0852252" lon="11.8197081"><ele>66.25</ele><time>2026-04-18T13:18:55.989Z</time></trkpt><trkpt lat="42.0851913" lon="11.8195611"><ele>65.0</ele><time>2026-04-18T13:18:56.989Z</time></trkpt><trkpt lat="42.0851564" lon="11.8193948"><ele>63.75</ele><time>2026-04-18T13:18:57.989Z</time></trkpt><trkpt lat="42.0851202" lon="11.8192241"><ele>62.5</ele><time>2026-04-18T13:18:58.989Z</time></trkpt><trkpt lat="42.0850853" lon="11.8190619"><ele>61.25</ele><time>2026-04-18T13:18:59.988Z</time></trkpt><trkpt lat="42.085054" lon="11.8189032"><ele>60.0</ele><time>2026-04-18T13:19:00.989Z</time></trkpt><trkpt lat="42.0850201" lon="11.8187458"><ele>60.0</ele><time>2026-04-18T13:19:01.989Z</time></trkpt><trkpt lat="42.0849841" lon="11.8185907"><ele>60.0</ele><time>2026-04-18T13:19:02.989Z</time></trkpt><trkpt lat="42.0849451" lon="11.8184399"><ele>60.0</ele><time>2026-04-18T13:19:03.989Z</time></trkpt><trkpt lat="42.0849092" lon="11.8182944"><ele>60.0</ele><time>2026-04-18T13:19:04.989Z</time></trkpt><trkpt lat="42.0848803" lon="11.8181509"><ele>58.6</ele><time>2026-04-18T13:19:05.989Z</time></trkpt><trkpt lat="42.0848555" lon="11.8180052"><ele>57.2</ele><time>2026-04-18T13:19:06.989Z</time></trkpt><trkpt lat="42.0848268" lon="11.8178642"><ele>55.8</ele><time>2026-04-18T13:19:07.989Z</time></trkpt><trkpt lat="42.0847914" lon="11.8177308"><ele>54.4</ele><time>2026-04-18T13:19:08.989Z</time></trkpt><trkpt lat="42.0847508" lon="11.8175962"><ele>53.0</ele><time>2026-04-18T13:19:09.989Z</time></trkpt><trkpt lat="42.0847069" lon="11.8174679"><ele>51.25</ele><time>2026-04-18T13:19:10.989Z</time></trkpt><trkpt lat="42.0846538" lon="11.8173328"><ele>49.5</ele><time>2026-04-18T13:19:11.989Z</time></trkpt><trkpt lat="42.0845904" lon="11.8171861"><ele>47.75</ele><time>2026-04-18T13:19:12.989Z</time></trkpt><trkpt lat="42.0845179" lon="11.817032"><ele>46.0</ele><time>2026-04-18T13:19:13.989Z</time></trkpt><trkpt lat="42.0844355" lon="11.816857"><ele>45.25</ele><time>2026-04-18T13:19:14.989Z</time></trkpt><trkpt lat="42.0843572" lon="11.8166789"><ele>44.5</ele><time>2026-04-18T13:19:15.989Z</time></trkpt><trkpt lat="42.0842868" lon="11.8165028"><ele>43.75</ele><time>2026-04-18T13:19:16.989Z</time></trkpt><trkpt lat="42.0842408" lon="11.8163213"><ele>43.0</ele><time>2026-04-18T13:19:17.989Z</time></trkpt><trkpt lat="42.084207" lon="11.8161424"><ele>42.75</ele><time>2026-04-18T13:19:18.989Z</time></trkpt><trkpt lat="42.0841712" lon="11.8159659"><ele>42.5</ele><time>2026-04-18T13:19:19.989Z</time></trkpt><trkpt lat="42.0841305" lon="11.8157983"><ele>42.25</ele><time>2026-04-18T13:19:20.989Z</time></trkpt><trkpt lat="42.0840909" lon="11.8156354"><ele>42.0</ele><time>2026-04-18T13:19:21.989Z</time></trkpt><trkpt lat="42.0840527" lon="11.815478"><ele>41.0</ele><time>2026-04-18T13:19:22.989Z</time></trkpt><trkpt lat="42.0840261" lon="11.8153206"><ele>40.0</ele><time>2026-04-18T13:19:23.989Z</time></trkpt><trkpt lat="42.0840153" lon="11.8151682"><ele>39.0</ele><time>2026-04-18T13:19:24.989Z</time></trkpt><trkpt lat="42.0840066" lon="11.8150165"><ele>38.0</ele><time>2026-04-18T13:19:25.989Z</time></trkpt><trkpt lat="42.0839682" lon="11.8148621"><ele>38.0</ele><time>2026-04-18T13:19:26.989Z</time></trkpt><trkpt lat="42.0839115" lon="11.814696"><ele>38.0</ele><time>2026-04-18T13:19:27.989Z</time></trkpt><trkpt lat="42.0838512" lon="11.8145331"><ele>38.0</ele><time>2026-04-18T13:19:28.989Z</time></trkpt><trkpt lat="42.0837943" lon="11.8143795"><ele>38.0</ele><time>2026-04-18T13:19:29.989Z</time></trkpt><trkpt lat="42.0837337" lon="11.8142266"><ele>37.25</ele><time>2026-04-18T13:19:30.989Z</time></trkpt><trkpt lat="42.0836645" lon="11.8140714"><ele>36.5</ele><time>2026-04-18T13:19:31.989Z</time></trkpt><trkpt lat="42.0835929" lon="11.8139176"><ele>35.75</ele><time>2026-04-18T13:19:32.989Z</time></trkpt><trkpt lat="42.0835175" lon="11.8137489"><ele>35.0</ele><time>2026-04-18T13:19:33.989Z</time></trkpt><trkpt lat="42.0834388" lon="11.8135751"><ele>34.5</ele><time>2026-04-18T13:19:34.989Z</time></trkpt><trkpt lat="42.0833641" lon="11.8134086"><ele>34.0</ele><time>2026-04-18T13:19:35.989Z</time></trkpt><trkpt lat="42.0832922" lon="11.8132573"><ele>33.5</ele><time>2026-04-18T13:19:36.989Z</time></trkpt><trkpt lat="42.0832226" lon="11.8131157"><ele>33.0</ele><time>2026-04-18T13:19:37.989Z</time></trkpt><trkpt lat="42.0831692" lon="11.8129984"><ele>32.833333333333336</ele><time>2026-04-18T13:19:38.989Z</time></trkpt><trkpt lat="42.0831318" lon="11.8129123"><ele>32.666666666666664</ele><time>2026-04-18T13:19:39.989Z</time></trkpt><trkpt lat="42.0830961" lon="11.8128287"><ele>32.5</ele><time>2026-04-18T13:19:41.989Z</time></trkpt><trkpt lat="42.0830624" lon="11.8127431"><ele>32.33333333333333</ele><time>2026-04-18T13:19:43.989Z</time></trkpt><trkpt lat="42.0829646" lon="11.8127934"><ele>32.166666666666664</ele><time>2026-04-18T13:19:46.989Z</time></trkpt><trkpt lat="42.082916" lon="11.8128702"><ele>32.0</ele><time>2026-04-18T13:19:47.989Z</time></trkpt><trkpt lat="42.082841" lon="11.8129692"><ele>32.0</ele><time>2026-04-18T13:19:48.989Z</time></trkpt><trkpt lat="42.0827427" lon="11.8130588"><ele>32.0</ele><time>2026-04-18T13:19:49.989Z</time></trkpt><trkpt lat="42.0826312" lon="11.8131572"><ele>32.0</ele><time>2026-04-18T13:19:50.989Z</time></trkpt><trkpt lat="42.0825203" lon="11.8132494"><ele>32.0</ele><time>2026-04-18T13:19:51.989Z</time></trkpt><trkpt lat="42.0824146" lon="11.8133364"><ele>31.400000000000002</ele><time>2026-04-18T13:19:52.989Z</time></trkpt><trkpt lat="42.0823145" lon="11.8134172"><ele>30.800000000000004</ele><time>2026-04-18T13:19:53.989Z</time></trkpt><trkpt lat="42.0822223" lon="11.8134865"><ele>30.2</ele><time>2026-04-18T13:19:54.989Z</time></trkpt><trkpt lat="42.0821333" lon="11.8135637"><ele>29.6</ele><time>2026-04-18T13:19:55.989Z</time></trkpt><trkpt lat="42.0820547" lon="11.8136259"><ele>29.0</ele><time>2026-04-18T13:19:56.989Z</time></trkpt><trkpt lat="42.0819798" lon="11.8136827"><ele>28.999999999999996</ele><time>2026-04-18T13:19:57.989Z</time></trkpt><trkpt lat="42.0819087" lon="11.8137395"><ele>29.0</ele><time>2026-04-18T13:19:58.989Z</time></trkpt><trkpt lat="42.0818459" lon="11.8138019"><ele>29.0</ele><time>2026-04-18T13:19:59.989Z</time></trkpt><trkpt lat="42.0817858" lon="11.8138531"><ele>29.0</ele><time>2026-04-18T13:20:00.989Z</time></trkpt><trkpt lat="42.0817026" lon="11.8138986"><ele>28.999999999999996</ele><time>2026-04-18T13:20:02.989Z</time></trkpt><trkpt lat="42.081699" lon="11.8137735"><ele>29.0</ele><time>2026-04-18T13:20:04.989Z</time></trkpt><trkpt lat="42.081808" lon="11.8136432"><ele>29.0</ele><time>2026-04-18T13:20:06.989Z</time></trkpt><trkpt lat="42.0819041" lon="11.8135618"><ele>29.0</ele><time>2026-04-18T13:20:07.989Z</time></trkpt><trkpt lat="42.0819828" lon="11.8134841"><ele>29.0</ele><time>2026-04-18T13:20:08.989Z</time></trkpt><trkpt lat="42.0820692" lon="11.813408"><ele>29.0</ele><time>2026-04-18T13:20:09.989Z</time></trkpt><trkpt lat="42.0821151" lon="11.8132978"><ele>29.0</ele><time>2026-04-18T13:20:10.989Z</time></trkpt><trkpt lat="42.0821623" lon="11.8132005"><ele>28.833333333333332</ele><time>2026-04-18T13:20:11.989Z</time></trkpt><trkpt lat="42.0821825" lon="11.8130982"><ele>28.666666666666664</ele><time>2026-04-18T13:20:12.989Z</time></trkpt><trkpt lat="42.0821854" lon="11.8129901"><ele>28.5</ele><time>2026-04-18T13:20:13.989Z</time></trkpt><trkpt lat="42.0821852" lon="11.8128906"><ele>28.333333333333336</ele><time>2026-04-18T13:20:14.989Z</time></trkpt><trkpt lat="42.082134" lon="11.8127663"><ele>28.166666666666668</ele><time>2026-04-18T13:20:15.989Z</time></trkpt><trkpt lat="42.0820927" lon="11.81264"><ele>28.0</ele><time>2026-04-18T13:20:16.989Z</time></trkpt><trkpt lat="42.082049" lon="11.812497"><ele>27.4</ele><time>2026-04-18T13:20:17.988Z</time></trkpt><trkpt lat="42.0820051" lon="11.8123497"><ele>26.799999999999997</ele><time>2026-04-18T13:20:18.989Z</time></trkpt><trkpt lat="42.0819612" lon="11.8122118"><ele>26.2</ele><time>2026-04-18T13:20:19.989Z</time></trkpt><trkpt lat="42.0819232" lon="11.8120797"><ele>25.6</ele><time>2026-04-18T13:20:20.989Z</time></trkpt><trkpt lat="42.0818803" lon="11.81196"><ele>25.0</ele><time>2026-04-18T13:20:21.989Z</time></trkpt><trkpt lat="42.0818367" lon="11.8118389"><ele>25.000000000000004</ele><time>2026-04-18T13:20:22.989Z</time></trkpt><trkpt lat="42.0817935" lon="11.8117278"><ele>25.0</ele><time>2026-04-18T13:20:23.989Z</time></trkpt><trkpt lat="42.0817508" lon="11.8116181"><ele>25.0</ele><time>2026-04-18T13:20:24.989Z</time></trkpt><trkpt lat="42.0817115" lon="11.8115194"><ele>25.0</ele><time>2026-04-18T13:20:25.989Z</time></trkpt><trkpt lat="42.081676" lon="11.8114225"><ele>25.000000000000004</ele><time>2026-04-18T13:20:26.989Z</time></trkpt><trkpt lat="42.0816365" lon="11.8113253"><ele>25.0</ele><time>2026-04-18T13:20:27.989Z</time></trkpt><trkpt lat="42.0815945" lon="11.8112235"><ele>24.6</ele><time>2026-04-18T13:20:28.989Z</time></trkpt><trkpt lat="42.0815497" lon="11.8111207"><ele>24.2</ele><time>2026-04-18T13:20:29.989Z</time></trkpt><trkpt lat="42.0815019" lon="11.8110085"><ele>23.799999999999997</ele><time>2026-04-18T13:20:30.989Z</time></trkpt><trkpt lat="42.0814541" lon="11.8108883"><ele>23.4</ele><time>2026-04-18T13:20:31.989Z</time></trkpt><trkpt lat="42.0814039" lon="11.8107648"><ele>23.0</ele><time>2026-04-18T13:20:32.989Z</time></trkpt><trkpt lat="42.0813574" lon="11.8106418"><ele>22.799999999999997</ele><time>2026-04-18T13:20:33.989Z</time></trkpt><trkpt lat="42.0813092" lon="11.8105225"><ele>22.6</ele><time>2026-04-18T13:20:34.989Z</time></trkpt><trkpt lat="42.0812632" lon="11.8104109"><ele>22.4</ele><time>2026-04-18T13:20:35.989Z</time></trkpt><trkpt lat="42.081218" lon="11.8103006"><ele>22.200000000000003</ele><time>2026-04-18T13:20:36.989Z</time></trkpt><trkpt lat="42.08118" lon="11.8101919"><ele>22.0</ele><time>2026-04-18T13:20:37.989Z</time></trkpt><trkpt lat="42.0811471" lon="11.8100875"><ele>21.0</ele><time>2026-04-18T13:20:38.989Z</time></trkpt><trkpt lat="42.0811167" lon="11.8099747"><ele>20.0</ele><time>2026-04-18T13:20:39.989Z</time></trkpt><trkpt lat="42.0810961" lon="11.8098546"><ele>19.0</ele><time>2026-04-18T13:20:40.989Z</time></trkpt><trkpt lat="42.0810847" lon="11.809728"><ele>18.0</ele><time>2026-04-18T13:20:41.989Z</time></trkpt><trkpt lat="42.0810748" lon="11.8096026"><ele>17.0</ele><time>2026-04-18T13:20:42.989Z</time></trkpt><trkpt lat="42.0810658" lon="11.8094807"><ele>17.0</ele><time>2026-04-18T13:20:43.989Z</time></trkpt><trkpt lat="42.0810596" lon="11.8093653"><ele>17.0</ele><time>2026-04-18T13:20:44.989Z</time></trkpt><trkpt lat="42.0810531" lon="11.8092569"><ele>17.0</ele><time>2026-04-18T13:20:45.989Z</time></trkpt><trkpt lat="42.081052" lon="11.8091542"><ele>17.0</ele><time>2026-04-18T13:20:46.989Z</time></trkpt><trkpt lat="42.0810495" lon="11.8090626"><ele>17.0</ele><time>2026-04-18T13:20:47.989Z</time></trkpt><trkpt lat="42.0810449" lon="11.8089327"><ele>17.0</ele><time>2026-04-18T13:20:49.989Z</time></trkpt><trkpt lat="42.0810473" lon="11.8088343"><ele>16.833333333333336</ele><time>2026-04-18T13:20:53.989Z</time></trkpt><trkpt lat="42.0810497" lon="11.8087458"><ele>16.666666666666668</ele><time>2026-04-18T13:21:21.989Z</time></trkpt><trkpt lat="42.0810349" lon="11.8086538"><ele>16.5</ele><time>2026-04-18T13:21:22.989Z</time></trkpt><trkpt lat="42.0810235" lon="11.8085499"><ele>16.333333333333332</ele><time>2026-04-18T13:21:23.989Z</time></trkpt><trkpt lat="42.0810225" lon="11.8084609"><ele>16.166666666666664</ele><time>2026-04-18T13:21:24.989Z</time></trkpt><trkpt lat="42.0810665" lon="11.8083092"><ele>16.0</ele><time>2026-04-18T13:21:26.989Z</time></trkpt><trkpt lat="42.0810993" lon="11.8081955"><ele>15.0</ele><time>2026-04-18T13:21:27.989Z</time></trkpt><trkpt lat="42.0811265" lon="11.8080291"><ele>14.0</ele><time>2026-04-18T13:21:28.989Z</time></trkpt><trkpt lat="42.0811468" lon="11.8078229"><ele>13.0</ele><time>2026-04-18T13:21:29.989Z</time></trkpt><trkpt lat="42.0811678" lon="11.8076211"><ele>12.0</ele><time>2026-04-18T13:21:30.989Z</time></trkpt><trkpt lat="42.0811802" lon="11.8074381"><ele>11.2</ele><time>2026-04-18T13:21:31.989Z</time></trkpt><trkpt lat="42.0811746" lon="11.807295"><ele>10.399999999999999</ele><time>2026-04-18T13:21:32.989Z</time></trkpt><trkpt lat="42.081166" lon="11.8071813"><ele>9.600000000000001</ele><time>2026-04-18T13:21:33.989Z</time></trkpt><trkpt lat="42.0812077" lon="11.8070457"><ele>8.8</ele><time>2026-04-18T13:21:35.989Z</time></trkpt><trkpt lat="42.0812689" lon="11.8069949"><ele>8.0</ele><time>2026-04-18T13:21:36.989Z</time></trkpt><trkpt lat="42.0813511" lon="11.8069457"><ele>8.0</ele><time>2026-04-18T13:21:37.989Z</time></trkpt><trkpt lat="42.081424" lon="11.8069033"><ele>8.0</ele><time>2026-04-18T13:21:38.989Z</time></trkpt><trkpt lat="42.0814879" lon="11.8068613"><ele>8.0</ele><time>2026-04-18T13:21:39.989Z</time></trkpt><trkpt lat="42.0816079" lon="11.8067675"><ele>8.0</ele><time>2026-04-18T13:21:41.989Z</time></trkpt><trkpt lat="42.0816905" lon="11.8067071"><ele>8.0</ele><time>2026-04-18T13:21:42.989Z</time></trkpt><trkpt lat="42.0817877" lon="11.8066449"><ele>8.0</ele><time>2026-04-18T13:21:43.989Z</time></trkpt><trkpt lat="42.0818905" lon="11.8065871"><ele>8.0</ele><time>2026-04-18T13:21:44.989Z</time></trkpt><trkpt lat="42.0819877" lon="11.8065314"><ele>8.0</ele><time>2026-04-18T13:21:45.989Z</time></trkpt><trkpt lat="42.0820841" lon="11.8064839"><ele>8.0</ele><time>2026-04-18T13:21:46.989Z</time></trkpt><trkpt lat="42.0821795" lon="11.8064291"><ele>8.0</ele><time>2026-04-18T13:21:47.989Z</time></trkpt><trkpt lat="42.0822825" lon="11.8063759"><ele>8.0</ele><time>2026-04-18T13:21:48.989Z</time></trkpt><trkpt lat="42.0823887" lon="11.8063136"><ele>8.0</ele><time>2026-04-18T13:21:49.989Z</time></trkpt><trkpt lat="42.0824846" lon="11.8062524"><ele>8.0</ele><time>2026-04-18T13:21:50.989Z</time></trkpt><trkpt lat="42.0825624" lon="11.8061939"><ele>8.0</ele><time>2026-04-18T13:21:51.989Z</time></trkpt><trkpt lat="42.0826187" lon="11.8061447"><ele>8.0</ele><time>2026-04-18T13:21:52.989Z</time></trkpt><trkpt lat="42.0827143" lon="11.8060605"><ele>8.5</ele><time>2026-04-18T13:21:54.989Z</time></trkpt><trkpt lat="42.0827731" lon="11.806011"><ele>9.0</ele><time>2026-04-18T13:21:56.989Z</time></trkpt><trkpt lat="42.0828496" lon="11.8059189"><ele>9.5</ele><time>2026-04-18T13:22:20.989Z</time></trkpt><trkpt lat="42.0829013" lon="11.8058478"><ele>10.0</ele><time>2026-04-18T13:22:21.989Z</time></trkpt><trkpt lat="42.0829676" lon="11.8057575"><ele>10.5</ele><time>2026-04-18T13:22:22.989Z</time></trkpt><trkpt lat="42.0830411" lon="11.8056516"><ele>11.0</ele><time>2026-04-18T13:22:23.989Z</time></trkpt><trkpt lat="42.0831296" lon="11.8055287"><ele>11.0</ele><time>2026-04-18T13:22:24.989Z</time></trkpt><trkpt lat="42.0832173" lon="11.8054036"><ele>11.0</ele><time>2026-04-18T13:22:25.989Z</time></trkpt><trkpt lat="42.0833014" lon="11.8052898"><ele>11.0</ele><time>2026-04-18T13:22:26.989Z</time></trkpt><trkpt lat="42.0833785" lon="11.8051909"><ele>11.0</ele><time>2026-04-18T13:22:27.989Z</time></trkpt><trkpt lat="42.0834485" lon="11.805096"><ele>11.200000000000001</ele><time>2026-04-18T13:22:28.988Z</time></trkpt><trkpt lat="42.0835186" lon="11.8050032"><ele>11.4</ele><time>2026-04-18T13:22:29.989Z</time></trkpt><trkpt lat="42.0835942" lon="11.8049033"><ele>11.6</ele><time>2026-04-18T13:22:30.989Z</time></trkpt><trkpt lat="42.0836706" lon="11.804802"><ele>11.8</ele><time>2026-04-18T13:22:31.989Z</time></trkpt><trkpt lat="42.0837492" lon="11.8046993"><ele>12.0</ele><time>2026-04-18T13:22:32.989Z</time></trkpt><trkpt lat="42.0838307" lon="11.8045958"><ele>12.0</ele><time>2026-04-18T13:22:33.989Z</time></trkpt><trkpt lat="42.0839074" lon="11.8044823"><ele>12.0</ele><time>2026-04-18T13:22:34.989Z</time></trkpt><trkpt lat="42.0839946" lon="11.8043762"><ele>12.0</ele><time>2026-04-18T13:22:35.989Z</time></trkpt><trkpt lat="42.084076" lon="11.8042633"><ele>12.0</ele><time>2026-04-18T13:22:36.989Z</time></trkpt><trkpt lat="42.0841632" lon="11.8041499"><ele>12.5</ele><time>2026-04-18T13:22:37.989Z</time></trkpt><trkpt lat="42.0842471" lon="11.8040299"><ele>13.0</ele><time>2026-04-18T13:22:38.989Z</time></trkpt><trkpt lat="42.0843368" lon="11.8039103"><ele>13.5</ele><time>2026-04-18T13:22:39.989Z</time></trkpt><trkpt lat="42.0844231" lon="11.8037855"><ele>14.0</ele><time>2026-04-18T13:22:40.989Z</time></trkpt><trkpt lat="42.0845141" lon="11.8036613"><ele>14.0</ele><time>2026-04-18T13:22:41.989Z</time></trkpt><trkpt lat="42.0846029" lon="11.8035435"><ele>14.0</ele><time>2026-04-18T13:22:42.989Z</time></trkpt><trkpt lat="42.0846853" lon="11.8034311"><ele>14.0</ele><time>2026-04-18T13:22:43.989Z</time></trkpt><trkpt lat="42.084768" lon="11.8033304"><ele>14.0</ele><time>2026-04-18T13:22:44.989Z</time></trkpt><trkpt lat="42.0848444" lon="11.8032248"><ele>13.799999999999999</ele><time>2026-04-18T13:22:45.988Z</time></trkpt><trkpt lat="42.0849142" lon="11.8031268"><ele>13.599999999999998</ele><time>2026-04-18T13:22:46.989Z</time></trkpt><trkpt lat="42.0849793" lon="11.8030366"><ele>13.4</ele><time>2026-04-18T13:22:47.989Z</time></trkpt><trkpt lat="42.0850425" lon="11.8029463"><ele>13.2</ele><time>2026-04-18T13:22:48.989Z</time></trkpt><trkpt lat="42.085104" lon="11.8028516"><ele>13.0</ele><time>2026-04-18T13:22:49.989Z</time></trkpt><trkpt lat="42.0851654" lon="11.8027604"><ele>12.999999999999998</ele><time>2026-04-18T13:22:50.989Z</time></trkpt><trkpt lat="42.0852115" lon="11.8026924"><ele>13.0</ele><time>2026-04-18T13:22:51.989Z</time></trkpt><trkpt lat="42.0852759" lon="11.8026064"><ele>13.0</ele><time>2026-04-18T13:22:53.989Z</time></trkpt><trkpt lat="42.0853391" lon="11.8025203"><ele>13.0</ele><time>2026-04-18T13:22:56.989Z</time></trkpt><trkpt lat="42.0853872" lon="11.8024561"><ele>12.999999999999998</ele><time>2026-04-18T13:22:57.989Z</time></trkpt><trkpt lat="42.0854526" lon="11.8023929"><ele>13.0</ele><time>2026-04-18T13:22:58.989Z</time></trkpt><trkpt lat="42.0855387" lon="11.8022893"><ele>13.0</ele><time>2026-04-18T13:22:59.989Z</time></trkpt><trkpt lat="42.0856229" lon="11.8021641"><ele>13.0</ele><time>2026-04-18T13:23:00.988Z</time></trkpt><trkpt lat="42.0857184" lon="11.8020319"><ele>13.0</ele><time>2026-04-18T13:23:01.989Z</time></trkpt><trkpt lat="42.0858204" lon="11.8018934"><ele>13.0</ele><time>2026-04-18T13:23:02.989Z</time></trkpt><trkpt lat="42.0859338" lon="11.801739"><ele>12.666666666666666</ele><time>2026-04-18T13:23:03.989Z</time></trkpt><trkpt lat="42.0860477" lon="11.8015718"><ele>12.333333333333332</ele><time>2026-04-18T13:23:04.989Z</time></trkpt><trkpt lat="42.0861529" lon="11.8013886"><ele>12.0</ele><time>2026-04-18T13:23:05.989Z</time></trkpt><trkpt lat="42.0862564" lon="11.8011913"><ele>10.333333333333334</ele><time>2026-04-18T13:23:06.989Z</time></trkpt><trkpt lat="42.086352" lon="11.8009943"><ele>8.666666666666668</ele><time>2026-04-18T13:23:07.989Z</time></trkpt><trkpt lat="42.0864391" lon="11.8008039"><ele>7.0</ele><time>2026-04-18T13:23:08.989Z</time></trkpt><trkpt lat="42.0865221" lon="11.8006237"><ele>7.0</ele><time>2026-04-18T13:23:09.989Z</time></trkpt><trkpt lat="42.0866024" lon="11.8004551"><ele>7.0</ele><time>2026-04-18T13:23:10.989Z</time></trkpt><trkpt lat="42.086673" lon="11.8003042"><ele>7.0</ele><time>2026-04-18T13:23:11.989Z</time></trkpt><trkpt lat="42.0867408" lon="11.8001525"><ele>7.0</ele><time>2026-04-18T13:23:12.989Z</time></trkpt><trkpt lat="42.0868028" lon="11.8000125"><ele>7.0</ele><time>2026-04-18T13:23:13.989Z</time></trkpt><trkpt lat="42.0868647" lon="11.7998805"><ele>7.0</ele><time>2026-04-18T13:23:14.989Z</time></trkpt><trkpt lat="42.0869266" lon="11.7997474"><ele>7.0</ele><time>2026-04-18T13:23:15.989Z</time></trkpt><trkpt lat="42.08699" lon="11.7996029"><ele>7.0</ele><time>2026-04-18T13:23:16.989Z</time></trkpt><trkpt lat="42.0870607" lon="11.7994465"><ele>6.5</ele><time>2026-04-18T13:23:17.989Z</time></trkpt><trkpt lat="42.087131" lon="11.7992999"><ele>6.0</ele><time>2026-04-18T13:23:18.989Z</time></trkpt><trkpt lat="42.0871939" lon="11.7991606"><ele>5.5</ele><time>2026-04-18T13:23:19.989Z</time></trkpt><trkpt lat="42.0872572" lon="11.7990246"><ele>5.0</ele><time>2026-04-18T13:23:20.989Z</time></trkpt><trkpt lat="42.0873133" lon="11.7988972"><ele>5.0</ele><time>2026-04-18T13:23:21.989Z</time></trkpt><trkpt lat="42.0873757" lon="11.7987701"><ele>5.0</ele><time>2026-04-18T13:23:22.989Z</time></trkpt><trkpt lat="42.0874414" lon="11.7986364"><ele>5.0</ele><time>2026-04-18T13:23:23.989Z</time></trkpt><trkpt lat="42.087505" lon="11.7984987"><ele>5.0</ele><time>2026-04-18T13:23:24.989Z</time></trkpt><trkpt lat="42.0875747" lon="11.7983588"><ele>6.0</ele><time>2026-04-18T13:23:25.989Z</time></trkpt><trkpt lat="42.0876415" lon="11.7982241"><ele>7.0</ele><time>2026-04-18T13:23:26.989Z</time></trkpt><trkpt lat="42.087703" lon="11.7980912"><ele>8.0</ele><time>2026-04-18T13:23:27.989Z</time></trkpt><trkpt lat="42.0877616" lon="11.797967"><ele>9.0</ele><time>2026-04-18T13:23:28.989Z</time></trkpt><trkpt lat="42.0878158" lon="11.7978495"><ele>10.0</ele><time>2026-04-18T13:23:29.989Z</time></trkpt><trkpt lat="42.0878716" lon="11.797738"><ele>9.5</ele><time>2026-04-18T13:23:30.989Z</time></trkpt><trkpt lat="42.0879199" lon="11.7976247"><ele>9.0</ele><time>2026-04-18T13:23:31.989Z</time></trkpt><trkpt lat="42.0879648" lon="11.7975197"><ele>8.5</ele><time>2026-04-18T13:23:32.989Z</time></trkpt><trkpt lat="42.0880108" lon="11.7974219"><ele>8.0</ele><time>2026-04-18T13:23:33.989Z</time></trkpt><trkpt lat="42.0880576" lon="11.7973315"><ele>7.500000000000001</ele><time>2026-04-18T13:23:34.989Z</time></trkpt><trkpt lat="42.0881081" lon="11.7972265"><ele>7.0</ele><time>2026-04-18T13:23:35.989Z</time></trkpt><trkpt lat="42.0881579" lon="11.7971327"><ele>7.000000000000001</ele><time>2026-04-18T13:23:36.989Z</time></trkpt><trkpt lat="42.0881986" lon="11.7970423"><ele>7.0</ele><time>2026-04-18T13:23:37.989Z</time></trkpt><trkpt lat="42.0882504" lon="11.7969325"><ele>7.0</ele><time>2026-04-18T13:23:39.989Z</time></trkpt><trkpt lat="42.0882849" lon="11.7968529"><ele>7.0</ele><time>2026-04-18T13:23:43.989Z</time></trkpt><trkpt lat="42.0882288" lon="11.7967449"><ele>7.000000000000001</ele><time>2026-04-18T13:23:50.989Z</time></trkpt><trkpt lat="42.0881754" lon="11.7966759"><ele>7.0</ele><time>2026-04-18T13:23:52.989Z</time></trkpt><trkpt lat="42.0881908" lon="11.7965825"><ele>6.6</ele><time>2026-04-18T13:23:54.989Z</time></trkpt><trkpt lat="42.088231" lon="11.7964594"><ele>6.199999999999999</ele><time>2026-04-18T13:23:56.989Z</time></trkpt><trkpt lat="42.0882735" lon="11.7963323"><ele>5.8</ele><time>2026-04-18T13:23:58.989Z</time></trkpt><trkpt lat="42.0883123" lon="11.7962224"><ele>5.4</ele><time>2026-04-18T13:24:00.989Z</time></trkpt><trkpt lat="42.0883462" lon="11.7960839"><ele>5.0</ele><time>2026-04-18T13:24:02.989Z</time></trkpt><trkpt lat="42.0883695" lon="11.7959983"><ele>4.666666666666667</ele><time>2026-04-18T13:24:03.989Z</time></trkpt><trkpt lat="42.0884039" lon="11.7959134"><ele>4.333333333333334</ele><time>2026-04-18T13:24:04.989Z</time></trkpt><trkpt lat="42.0884317" lon="11.7958275"><ele>4.0</ele><time>2026-04-18T13:24:05.989Z</time></trkpt><trkpt lat="42.0884482" lon="11.7957391"><ele>3.666666666666667</ele><time>2026-04-18T13:24:06.989Z</time></trkpt><trkpt lat="42.0884754" lon="11.7956093"><ele>3.3333333333333335</ele><time>2026-04-18T13:24:08.989Z</time></trkpt><trkpt lat="42.0884918" lon="11.7954821"><ele>3.0</ele><time>2026-04-18T13:24:10.989Z</time></trkpt><trkpt lat="42.0885171" lon="11.7953532"><ele>3.0</ele><time>2026-04-18T13:24:12.989Z</time></trkpt><trkpt lat="42.0885436" lon="11.7952376"><ele>3.0</ele><time>2026-04-18T13:24:14.989Z</time></trkpt><trkpt lat="42.0885889" lon="11.7951167"><ele>3.0</ele><time>2026-04-18T13:24:16.989Z</time></trkpt><trkpt lat="42.0886536" lon="11.7949823"><ele>3.0</ele><time>2026-04-18T13:24:18.989Z</time></trkpt><trkpt lat="42.0887163" lon="11.7948559"><ele>3.0</ele><time>2026-04-18T13:24:20.989Z</time></trkpt><trkpt lat="42.0887781" lon="11.7947156"><ele>2.6</ele><time>2026-04-18T13:24:22.989Z</time></trkpt><trkpt lat="42.0888125" lon="11.7946403"><ele>2.1999999999999997</ele><time>2026-04-18T13:24:23.989Z</time></trkpt><trkpt lat="42.08885" lon="11.7945608"><ele>1.8</ele><time>2026-04-18T13:24:24.989Z</time></trkpt><trkpt lat="42.0888964" lon="11.7944379"><ele>1.4</ele><time>2026-04-18T13:24:26.989Z</time></trkpt><trkpt lat="42.0889625" lon="11.7943046"><ele>1.0</ele><time>2026-04-18T13:24:28.989Z</time></trkpt><trkpt lat="42.0890238" lon="11.7941788"><ele>0.8</ele><time>2026-04-18T13:24:30.989Z</time></trkpt><trkpt lat="42.089079" lon="11.794057"><ele>0.6000000000000001</ele><time>2026-04-18T13:24:32.989Z</time></trkpt><trkpt lat="42.0891373" lon="11.7939449"><ele>0.4</ele><time>2026-04-18T13:24:34.989Z</time></trkpt><trkpt lat="42.0891929" lon="11.7938268"><ele>0.2</ele><time>2026-04-18T13:24:36.989Z</time></trkpt><trkpt lat="42.0892436" lon="11.7937131"><ele>0.0</ele><time>2026-04-18T13:24:38.989Z</time></trkpt><trkpt lat="42.089296" lon="11.7936092"><ele>0.4</ele><time>2026-04-18T13:24:40.989Z</time></trkpt><trkpt lat="42.0893486" lon="11.7934805"><ele>0.8</ele><time>2026-04-18T13:24:42.989Z</time></trkpt><trkpt lat="42.0894144" lon="11.7933582"><ele>1.2000000000000002</ele><time>2026-04-18T13:24:44.989Z</time></trkpt><trkpt lat="42.0894471" lon="11.7932622"><ele>1.6</ele><time>2026-04-18T13:24:46.989Z</time></trkpt><trkpt lat="42.089477" lon="11.793155"><ele>2.0</ele><time>2026-04-18T13:24:49.989Z</time></trkpt><trkpt lat="42.0895467" lon="11.7931243"><ele>2.0</ele><time>2026-04-18T13:25:14.989Z</time></trkpt><trkpt lat="42.0895653" lon="11.7930335"><ele>2.0</ele><time>2026-04-18T13:25:16.989Z</time></trkpt></trkseg></trk></gpx>